<?xml version='1.0' encoding='UTF-8'?><gpx version="1.1" creator="JPX - https://github.com/jenetics/jpx" xmlns="http://www.topografix.com/GPX/1/1"><trk><trkseg><trkpt lat="41.87929043304349" lon="12.485546053529665"><ele>46.0</ele><time>2026-04-06T08:01:15Z</time></trkpt><trkpt lat="41.87935892581789" lon="12.485672420940052"><ele>46.0</ele><time>2026-04-06T08:01:17Z</time></trkpt><trkpt lat="41.87940023585503" lon="12.485774127380317"><ele>46.0</ele><time>2026-04-06T08:01:18Z</time></trkpt><trkpt lat="41.879428678374175" lon="12.485855832707038"><ele>46.0</ele><time>2026-04-06T08:01:19Z</time></trkpt><trkpt lat="41.87947382924717" lon="12.485974269284192"><ele>46.0</ele><time>2026-04-06T08:01:21Z</time></trkpt><trkpt lat="41.87950606605755" lon="12.486065025230827"><ele>46.0</ele><time>2026-04-06T08:01:24Z</time></trkpt><trkpt lat="41.879534084760564" lon="12.486142411536537"><ele>46.0</ele><time>2026-04-06T08:01:26Z</time></trkpt><trkpt lat="41.8795773503619" lon="12.486239533576748"><ele>46.0</ele><time>2026-04-06T08:01:28Z</time></trkpt><trkpt lat="41.87961359409514" lon="12.486356786661228"><ele>46.0</ele><time>2026-04-06T08:01:30Z</time></trkpt><trkpt lat="41.879639843947935" lon="12.486439761926377"><ele>46.0</ele><time>2026-04-06T08:01:32Z</time></trkpt><trkpt lat="41.879671977337786" lon="12.486520468335051"><ele>46.0</ele><time>2026-04-06T08:01:34Z</time></trkpt><trkpt lat="41.879601776478324" lon="12.48660762898005"><ele>46.0</ele><time>2026-04-06T08:01:36Z</time></trkpt><trkpt lat="41.87951887323385" lon="12.486700116436428"><ele>46.0</ele><time>2026-04-06T08:01:38Z</time></trkpt><trkpt lat="41.87941292867989" lon="12.486802205851347"><ele>46.0</ele><time>2026-04-06T08:01:40Z</time></trkpt><trkpt lat="41.87935692735937" lon="12.486854187908065"><ele>46.0</ele><time>2026-04-06T08:01:41Z</time></trkpt><trkpt lat="41.879281565899106" lon="12.486908730446963"><ele>46.0</ele><time>2026-04-06T08:01:42Z</time></trkpt><trkpt lat="41.87920606729893" lon="12.48697209141584"><ele>46.0</ele><time>2026-04-06T08:01:43Z</time></trkpt><trkpt lat="41.87914706109448" lon="12.487026219748719"><ele>46.0</ele><time>2026-04-06T08:01:44Z</time></trkpt><trkpt lat="41.879083091967566" lon="12.487087549566802"><ele>45.8</ele><time>2026-04-06T08:01:45Z</time></trkpt><trkpt lat="41.879005523381764" lon="12.487147430022176"><ele>45.599999999999994</ele><time>2026-04-06T08:01:46Z</time></trkpt><trkpt lat="41.87893194803317" lon="12.487217737910825"><ele>45.4</ele><time>2026-04-06T08:01:47Z</time></trkpt><trkpt lat="41.87885500958989" lon="12.487295818286226"><ele>45.2</ele><time>2026-04-06T08:01:48Z</time></trkpt><trkpt lat="41.87877920418387" lon="12.487371464962106"><ele>45.0</ele><time>2026-04-06T08:01:49Z</time></trkpt><trkpt lat="41.87870395350556" lon="12.4874439810597"><ele>45.0</ele><time>2026-04-06T08:01:50Z</time></trkpt><trkpt lat="41.878627430940114" lon="12.48751406490358"><ele>45.0</ele><time>2026-04-06T08:01:51Z</time></trkpt><trkpt lat="41.87854995512139" lon="12.487588099442018"><ele>45.0</ele><time>2026-04-06T08:01:52Z</time></trkpt><trkpt lat="41.87846455096201" lon="12.487674955446227"><ele>45.0</ele><time>2026-04-06T08:01:53Z</time></trkpt><trkpt lat="41.87837532687382" lon="12.487756617152336"><ele>45.0</ele><time>2026-04-06T08:01:54Z</time></trkpt><trkpt lat="41.87829241334288" lon="12.487832368950864"><ele>45.166666666666664</ele><time>2026-04-06T08:01:55Z</time></trkpt><trkpt lat="41.87820612779375" lon="12.487906481318786"><ele>45.333333333333336</ele><time>2026-04-06T08:01:56Z</time></trkpt><trkpt lat="41.87813477680736" lon="12.48797233128614"><ele>45.5</ele><time>2026-04-06T08:01:57Z</time></trkpt><trkpt lat="41.87807194681147" lon="12.488034196249108"><ele>45.66666666666667</ele><time>2026-04-06T08:01:58Z</time></trkpt><trkpt lat="41.87801432150566" lon="12.488092893395391"><ele>45.833333333333336</ele><time>2026-04-06T08:01:59Z</time></trkpt><trkpt lat="41.877946262402666" lon="12.488188000975063"><ele>46.0</ele><time>2026-04-06T08:02:01Z</time></trkpt><trkpt lat="41.87780820979399" lon="12.488027311760046"><ele>46.0</ele><time>2026-04-06T08:02:02Z</time></trkpt><trkpt lat="41.87775210013856" lon="12.487949066121493"><ele>46.0</ele><time>2026-04-06T08:02:03Z</time></trkpt><trkpt lat="41.87769107327615" lon="12.487877660131783"><ele>46.0</ele><time>2026-04-06T08:02:04Z</time></trkpt><trkpt lat="41.877627358879906" lon="12.487808331781267"><ele>46.0</ele><time>2026-04-06T08:02:05Z</time></trkpt><trkpt lat="41.87756207364163" lon="12.487736470942805"><ele>46.0</ele><time>2026-04-06T08:02:06Z</time></trkpt><trkpt lat="41.8774968039234" lon="12.48765966629943"><ele>46.0</ele><time>2026-04-06T08:02:07Z</time></trkpt><trkpt lat="41.87743077092377" lon="12.487586330545874"><ele>44.8</ele><time>2026-04-06T08:02:08Z</time></trkpt><trkpt lat="41.877362198270845" lon="12.487506001538561"><ele>43.599999999999994</ele><time>2026-04-06T08:02:09Z</time></trkpt><trkpt lat="41.87728499917271" lon="12.487422205489002"><ele>42.4</ele><time>2026-04-06T08:02:10Z</time></trkpt><trkpt lat="41.87719481021526" lon="12.487327133017207"><ele>41.2</ele><time>2026-04-06T08:02:11Z</time></trkpt><trkpt lat="41.877101646784716" lon="12.487224245352431"><ele>40.0</ele><time>2026-04-06T08:02:12Z</time></trkpt><trkpt lat="41.87702238541421" lon="12.487127559076066"><ele>40.4</ele><time>2026-04-06T08:02:13Z</time></trkpt><trkpt lat="41.87695447612482" lon="12.487032292532996"><ele>40.8</ele><time>2026-04-06T08:02:14Z</time></trkpt><trkpt lat="41.87688946356021" lon="12.486936418704982"><ele>41.2</ele><time>2026-04-06T08:02:15Z</time></trkpt><trkpt lat="41.87683561418102" lon="12.486827813561364"><ele>41.6</ele><time>2026-04-06T08:02:16Z</time></trkpt><trkpt lat="41.87678674753462" lon="12.486706465336296"><ele>42.0</ele><time>2026-04-06T08:02:17Z</time></trkpt><trkpt lat="41.87675019689536" lon="12.486574495787485"><ele>40.800000000000004</ele><time>2026-04-06T08:02:18Z</time></trkpt><trkpt lat="41.87672071679318" lon="12.486434228272236"><ele>39.6</ele><time>2026-04-06T08:02:19Z</time></trkpt><trkpt lat="41.87668616353227" lon="12.486289433192336"><ele>38.400000000000006</ele><time>2026-04-06T08:02:20Z</time></trkpt><trkpt lat="41.87664814626196" lon="12.486157347204308"><ele>37.2</ele><time>2026-04-06T08:02:21Z</time></trkpt><trkpt lat="41.87660588118503" lon="12.486021036459936"><ele>36.0</ele><time>2026-04-06T08:02:22Z</time></trkpt><trkpt lat="41.87656629169353" lon="12.485882226779479"><ele>36.0</ele><time>2026-04-06T08:02:23Z</time></trkpt><trkpt lat="41.87654406071396" lon="12.485748835462006"><ele>36.0</ele><time>2026-04-06T08:02:24Z</time></trkpt><trkpt lat="41.876548509260935" lon="12.485614141618425"><ele>36.0</ele><time>2026-04-06T08:02:25Z</time></trkpt><trkpt lat="41.87655241169469" lon="12.485468515089545"><ele>36.0</ele><time>2026-04-06T08:02:26Z</time></trkpt><trkpt lat="41.876550015050505" lon="12.485308813233889"><ele>36.0</ele><time>2026-04-06T08:02:27Z</time></trkpt><trkpt lat="41.87656361772942" lon="12.485157466826823"><ele>35.75</ele><time>2026-04-06T08:02:28Z</time></trkpt><trkpt lat="41.8765712238255" lon="12.485002809052778"><ele>35.5</ele><time>2026-04-06T08:02:29Z</time></trkpt><trkpt lat="41.87658075296617" lon="12.484838229964234"><ele>35.25</ele><time>2026-04-06T08:02:30Z</time></trkpt><trkpt lat="41.876587171283205" lon="12.484691878224725"><ele>35.0</ele><time>2026-04-06T08:02:31Z</time></trkpt><trkpt lat="41.87659262047389" lon="12.484552185564642"><ele>34.2</ele><time>2026-04-06T08:02:32Z</time></trkpt><trkpt lat="41.876598597432995" lon="12.48440768816379"><ele>33.4</ele><time>2026-04-06T08:02:33Z</time></trkpt><trkpt lat="41.876604949525365" lon="12.484257494034297"><ele>32.6</ele><time>2026-04-06T08:02:34Z</time></trkpt><trkpt lat="41.876612919399946" lon="12.484112318839697"><ele>31.8</ele><time>2026-04-06T08:02:35Z</time></trkpt><trkpt lat="41.87662102635645" lon="12.483967379746584"><ele>31.0</ele><time>2026-04-06T08:02:36Z</time></trkpt><trkpt lat="41.87663591912059" lon="12.483817680889194"><ele>30.200000000000003</ele><time>2026-04-06T08:02:37Z</time></trkpt><trkpt lat="41.87665046687836" lon="12.48366960661974"><ele>29.400000000000002</ele><time>2026-04-06T08:02:38Z</time></trkpt><trkpt lat="41.87665718964263" lon="12.483513142336793"><ele>28.6</ele><time>2026-04-06T08:02:39Z</time></trkpt><trkpt lat="41.8766654273501" lon="12.483370893831692"><ele>27.8</ele><time>2026-04-06T08:02:40Z</time></trkpt><trkpt lat="41.87667407286317" lon="12.483237986720143"><ele>27.0</ele><time>2026-04-06T08:02:41Z</time></trkpt><trkpt lat="41.876679855511696" lon="12.483118548013996"><ele>27.0</ele><time>2026-04-06T08:02:42Z</time></trkpt><trkpt lat="41.876688794826975" lon="12.483015330285365"><ele>27.0</ele><time>2026-04-06T08:02:43Z</time></trkpt><trkpt lat="41.8766849543548" lon="12.482861825711197"><ele>27.0</ele><time>2026-04-06T08:02:45Z</time></trkpt><trkpt lat="41.876685031945385" lon="12.482770286778532"><ele>27.0</ele><time>2026-04-06T08:02:46Z</time></trkpt><trkpt lat="41.87669780046231" lon="12.482659501571968"><ele>27.0</ele><time>2026-04-06T08:02:47Z</time></trkpt><trkpt lat="41.87670531292235" lon="12.482551516246962"><ele>27.0</ele><time>2026-04-06T08:02:48Z</time></trkpt><trkpt lat="41.87672293911452" lon="12.482404505756572"><ele>26.6</ele><time>2026-04-06T08:02:50Z</time></trkpt><trkpt lat="41.87672724986528" lon="12.48231028227437"><ele>26.200000000000003</ele><time>2026-04-06T08:02:52Z</time></trkpt><trkpt lat="41.87673580477307" lon="12.48218992680766"><ele>25.8</ele><time>2026-04-06T08:02:55Z</time></trkpt><trkpt lat="41.87676553281225" lon="12.482081065192537"><ele>25.4</ele><time>2026-04-06T08:02:57Z</time></trkpt><trkpt lat="41.876838979727324" lon="12.48199309611411"><ele>25.0</ele><time>2026-04-06T08:02:59Z</time></trkpt><trkpt lat="41.87695811439733" lon="12.481961266405072"><ele>25.000000000000004</ele><time>2026-04-06T08:03:01.001Z</time></trkpt><trkpt lat="41.8770366166913" lon="12.481953385966902"><ele>25.0</ele><time>2026-04-06T08:03:02.001Z</time></trkpt><trkpt lat="41.877125347507565" lon="12.481950114496694"><ele>25.0</ele><time>2026-04-06T08:03:03.001Z</time></trkpt><trkpt lat="41.87719247356133" lon="12.481945101260564"><ele>25.0</ele><time>2026-04-06T08:03:04.001Z</time></trkpt><trkpt lat="41.877264618769" lon="12.481938982634503"><ele>25.000000000000004</ele><time>2026-04-06T08:03:05.001Z</time></trkpt><trkpt lat="41.87733411282489" lon="12.481931962368526"><ele>25.0</ele><time>2026-04-06T08:03:06.001Z</time></trkpt><trkpt lat="41.877409140636196" lon="12.481944633317354"><ele>25.0</ele><time>2026-04-06T08:03:07.001Z</time></trkpt><trkpt lat="41.87749622366907" lon="12.481983850777274"><ele>25.0</ele><time>2026-04-06T08:03:08.001Z</time></trkpt><trkpt lat="41.87758049278606" lon="12.482047410614523"><ele>25.0</ele><time>2026-04-06T08:03:09.001Z</time></trkpt><trkpt lat="41.87766352820723" lon="12.482119993192766"><ele>25.0</ele><time>2026-04-06T08:03:10.001Z</time></trkpt><trkpt lat="41.87775731036317" lon="12.482185592730332"><ele>25.0</ele><time>2026-04-06T08:03:11Z</time></trkpt><trkpt lat="41.8778468332939" lon="12.482243574629207"><ele>26.6</ele><time>2026-04-06T08:03:12Z</time></trkpt><trkpt lat="41.87793426718793" lon="12.482295914214458"><ele>28.2</ele><time>2026-04-06T08:03:13Z</time></trkpt><trkpt lat="41.87801662451041" lon="12.482343069199018"><ele>29.799999999999997</ele><time>2026-04-06T08:03:14Z</time></trkpt><trkpt lat="41.87809803755309" lon="12.482401911516321"><ele>31.4</ele><time>2026-04-06T08:03:15Z</time></trkpt><trkpt lat="41.87818851425085" lon="12.482460142999862"><ele>33.0</ele><time>2026-04-06T08:03:16Z</time></trkpt><trkpt lat="41.878292725452155" lon="12.48252357198715"><ele>33.0</ele><time>2026-04-06T08:03:17Z</time></trkpt><trkpt lat="41.87841725650108" lon="12.48260541181173"><ele>33.0</ele><time>2026-04-06T08:03:18Z</time></trkpt><trkpt lat="41.87853180133768" lon="12.482679578459239"><ele>33.0</ele><time>2026-04-06T08:03:19Z</time></trkpt><trkpt lat="41.87862937464407" lon="12.482741417701552"><ele>33.0</ele><time>2026-04-06T08:03:20Z</time></trkpt><trkpt lat="41.878721341280425" lon="12.482799562232723"><ele>32.6</ele><time>2026-04-06T08:03:21Z</time></trkpt><trkpt lat="41.87881614092012" lon="12.482856258205635"><ele>32.199999999999996</ele><time>2026-04-06T08:03:22Z</time></trkpt><trkpt lat="41.878907060096374" lon="12.482921053688141"><ele>31.8</ele><time>2026-04-06T08:03:23Z</time></trkpt><trkpt lat="41.878999809855095" lon="12.482982490290846"><ele>31.4</ele><time>2026-04-06T08:03:24Z</time></trkpt><trkpt lat="41.87908992172697" lon="12.4830427974973"><ele>31.0</ele><time>2026-04-06T08:03:25Z</time></trkpt><trkpt lat="41.87917996502592" lon="12.483101089074369"><ele>31.25</ele><time>2026-04-06T08:03:26Z</time></trkpt><trkpt lat="41.87927961489175" lon="12.483159129925363"><ele>31.5</ele><time>2026-04-06T08:03:27Z</time></trkpt><trkpt lat="41.879385169808735" lon="12.48322797930194"><ele>31.75</ele><time>2026-04-06T08:03:28Z</time></trkpt><trkpt lat="41.87949475417872" lon="12.483303045958134"><ele>32.0</ele><time>2026-04-06T08:03:29Z</time></trkpt><trkpt lat="41.87959785906772" lon="12.483376293343689"><ele>32.0</ele><time>2026-04-06T08:03:30Z</time></trkpt><trkpt lat="41.87969648444664" lon="12.483446672405258"><ele>32.0</ele><time>2026-04-06T08:03:31Z</time></trkpt><trkpt lat="41.87979102223372" lon="12.483525915964714"><ele>32.0</ele><time>2026-04-06T08:03:32Z</time></trkpt><trkpt lat="41.87987619052283" lon="12.483618324443333"><ele>32.0</ele><time>2026-04-06T08:03:33Z</time></trkpt><trkpt lat="41.87996242217983" lon="12.483716688416127"><ele>32.0</ele><time>2026-04-06T08:03:34Z</time></trkpt><trkpt lat="41.88004353183725" lon="12.483826229533351"><ele>32.2</ele><time>2026-04-06T08:03:35Z</time></trkpt><trkpt lat="41.880123807540365" lon="12.483933601138016"><ele>32.400000000000006</ele><time>2026-04-06T08:03:36Z</time></trkpt><trkpt lat="41.88020434061565" lon="12.48403743226874"><ele>32.599999999999994</ele><time>2026-04-06T08:03:37Z</time></trkpt><trkpt lat="41.88028569513156" lon="12.484140615019859"><ele>32.8</ele><time>2026-04-06T08:03:38Z</time></trkpt><trkpt lat="41.880367627694326" lon="12.484240202898773"><ele>33.0</ele><time>2026-04-06T08:03:39Z</time></trkpt><trkpt lat="41.88045122066009" lon="12.484342308292195"><ele>33.0</ele><time>2026-04-06T08:03:40Z</time></trkpt><trkpt lat="41.88053307482072" lon="12.484443810426251"><ele>33.0</ele><time>2026-04-06T08:03:41Z</time></trkpt><trkpt lat="41.88061549084674" lon="12.484545187313941"><ele>33.0</ele><time>2026-04-06T08:03:42Z</time></trkpt><trkpt lat="41.880696507974626" lon="12.48464804475332"><ele>33.0</ele><time>2026-04-06T08:03:43Z</time></trkpt><trkpt lat="41.88077820605474" lon="12.484749603069776"><ele>33.0</ele><time>2026-04-06T08:03:44Z</time></trkpt><trkpt lat="41.8808588639752" lon="12.484852879492333"><ele>33.5</ele><time>2026-04-06T08:03:45Z</time></trkpt><trkpt lat="41.880943182568046" lon="12.484961581128042"><ele>34.0</ele><time>2026-04-06T08:03:46Z</time></trkpt><trkpt lat="41.88102851244411" lon="12.485067527809282"><ele>34.5</ele><time>2026-04-06T08:03:47Z</time></trkpt><trkpt lat="41.88111124147987" lon="12.485180117450604"><ele>35.0</ele><time>2026-04-06T08:03:48Z</time></trkpt><trkpt lat="41.88119233331234" lon="12.48529049680907"><ele>35.0</ele><time>2026-04-06T08:03:49Z</time></trkpt><trkpt lat="41.881273202406646" lon="12.485394264374346"><ele>35.0</ele><time>2026-04-06T08:03:50Z</time></trkpt><trkpt lat="41.88135387618511" lon="12.485500532512116"><ele>35.0</ele><time>2026-04-06T08:03:51Z</time></trkpt><trkpt lat="41.881442144339566" lon="12.48560176535905"><ele>35.0</ele><time>2026-04-06T08:03:52Z</time></trkpt><trkpt lat="41.881528170985135" lon="12.485713246856614"><ele>35.0</ele><time>2026-04-06T08:03:53Z</time></trkpt><trkpt lat="41.88161911275535" lon="12.48582726664838"><ele>35.0</ele><time>2026-04-06T08:03:54Z</time></trkpt><trkpt lat="41.881713010796595" lon="12.485944474332861"><ele>35.0</ele><time>2026-04-06T08:03:55Z</time></trkpt><trkpt lat="41.88180710502235" lon="12.486062047400459"><ele>35.0</ele><time>2026-04-06T08:03:56Z</time></trkpt><trkpt lat="41.88190156601812" lon="12.486182141834412"><ele>33.75</ele><time>2026-04-06T08:03:57Z</time></trkpt><trkpt lat="41.88199809875278" lon="12.486307028268794"><ele>32.5</ele><time>2026-04-06T08:03:58Z</time></trkpt><trkpt lat="41.882093930472436" lon="12.486434057735993"><ele>31.25</ele><time>2026-04-06T08:03:59Z</time></trkpt><trkpt lat="41.88220038165339" lon="12.486549445336559"><ele>30.0</ele><time>2026-04-06T08:04:00Z</time></trkpt><trkpt lat="41.8822878471626" lon="12.486708561235334"><ele>30.0</ele><time>2026-04-06T08:04:01Z</time></trkpt><trkpt lat="41.88239201504726" lon="12.486859510514302"><ele>30.0</ele><time>2026-04-06T08:04:02Z</time></trkpt><trkpt lat="41.88249606472104" lon="12.486979607754357"><ele>30.0</ele><time>2026-04-06T08:04:03Z</time></trkpt><trkpt lat="41.88259413488141" lon="12.487101904884444"><ele>30.0</ele><time>2026-04-06T08:04:04Z</time></trkpt><trkpt lat="41.88270114628678" lon="12.487222910892008"><ele>29.75</ele><time>2026-04-06T08:04:05Z</time></trkpt><trkpt lat="41.88280362137216" lon="12.487356723225407"><ele>29.5</ele><time>2026-04-06T08:04:06Z</time></trkpt><trkpt lat="41.88290894804128" lon="12.487492456738295"><ele>29.25</ele><time>2026-04-06T08:04:07Z</time></trkpt><trkpt lat="41.883009207806765" lon="12.487621001539798"><ele>29.0</ele><time>2026-04-06T08:04:08Z</time></trkpt><trkpt lat="41.883111451242534" lon="12.487755052970888"><ele>29.0</ele><time>2026-04-06T08:04:09Z</time></trkpt><trkpt lat="41.883210833234756" lon="12.487881123788629"><ele>29.0</ele><time>2026-04-06T08:04:10Z</time></trkpt><trkpt lat="41.88329649942221" lon="12.48799919976641"><ele>29.0</ele><time>2026-04-06T08:04:11Z</time></trkpt><trkpt lat="41.88338092448312" lon="12.488112240052706"><ele>29.0</ele><time>2026-04-06T08:04:12Z</time></trkpt><trkpt lat="41.883459394128316" lon="12.488224895845448"><ele>27.999999999999996</ele><time>2026-04-06T08:04:13Z</time></trkpt><trkpt lat="41.883531346047356" lon="12.488329878518801"><ele>27.0</ele><time>2026-04-06T08:04:14Z</time></trkpt><trkpt lat="41.88359842071614" lon="12.488415852942717"><ele>26.0</ele><time>2026-04-06T08:04:15Z</time></trkpt><trkpt lat="41.88365690745697" lon="12.48849071714448"><ele>25.0</ele><time>2026-04-06T08:04:16Z</time></trkpt><trkpt lat="41.88370568099576" lon="12.488559676019085"><ele>24.0</ele><time>2026-04-06T08:04:17Z</time></trkpt><trkpt lat="41.88375095595423" lon="12.488623314905812"><ele>23.0</ele><time>2026-04-06T08:04:18Z</time></trkpt><trkpt lat="41.88380988560707" lon="12.488686261533092"><ele>23.2</ele><time>2026-04-06T08:04:20Z</time></trkpt><trkpt lat="41.883873331318306" lon="12.488763857160778"><ele>23.4</ele><time>2026-04-06T08:04:23Z</time></trkpt><trkpt lat="41.88397651231138" lon="12.488910233097599"><ele>23.599999999999998</ele><time>2026-04-06T08:04:25.001Z</time></trkpt><trkpt lat="41.88401260039308" lon="12.488982911599745"><ele>23.799999999999997</ele><time>2026-04-06T08:04:26.001Z</time></trkpt><trkpt lat="41.88402867494328" lon="12.489155658575541"><ele>24.0</ele><time>2026-04-06T08:04:28.001Z</time></trkpt><trkpt lat="41.88403807148648" lon="12.48930540222791"><ele>24.0</ele><time>2026-04-06T08:04:29.001Z</time></trkpt><trkpt lat="41.88397782043304" lon="12.48939647940154"><ele>24.0</ele><time>2026-04-06T08:04:30.001Z</time></trkpt><trkpt lat="41.883913342425565" lon="12.489493946720916"><ele>24.0</ele><time>2026-04-06T08:04:31.001Z</time></trkpt><trkpt lat="41.88384597072382" lon="12.489601767378693"><ele>24.0</ele><time>2026-04-06T08:04:32.001Z</time></trkpt><trkpt lat="41.88375840765391" lon="12.489705344779724"><ele>24.0</ele><time>2026-04-06T08:04:33.001Z</time></trkpt><trkpt lat="41.88368334279069" lon="12.489835508271934"><ele>24.0</ele><time>2026-04-06T08:04:34.001Z</time></trkpt><trkpt lat="41.88360781483619" lon="12.489950340496762"><ele>24.0</ele><time>2026-04-06T08:04:35.001Z</time></trkpt><trkpt lat="41.883530993090424" lon="12.490073790869141"><ele>24.0</ele><time>2026-04-06T08:04:36.001Z</time></trkpt><trkpt lat="41.883453527559546" lon="12.49020477742702"><ele>24.0</ele><time>2026-04-06T08:04:37.001Z</time></trkpt><trkpt lat="41.88337217188524" lon="12.490342357976095"><ele>25.25</ele><time>2026-04-06T08:04:38.001Z</time></trkpt><trkpt lat="41.88329103055244" lon="12.490479412982632"><ele>26.5</ele><time>2026-04-06T08:04:39.001Z</time></trkpt><trkpt lat="41.88322123199658" lon="12.490646718041749"><ele>27.75</ele><time>2026-04-06T08:04:40.001Z</time></trkpt><trkpt lat="41.8831269959293" lon="12.49079953068976"><ele>29.0</ele><time>2026-04-06T08:04:41.001Z</time></trkpt><trkpt lat="41.88302075747644" lon="12.490971913295779"><ele>29.0</ele><time>2026-04-06T08:04:42.001Z</time></trkpt><trkpt lat="41.88291735144509" lon="12.49113996893773"><ele>29.0</ele><time>2026-04-06T08:04:43.001Z</time></trkpt><trkpt lat="41.88279850779027" lon="12.491299514316292"><ele>29.0</ele><time>2026-04-06T08:04:44.001Z</time></trkpt><trkpt lat="41.88271574179593" lon="12.491467747911376"><ele>28.5</ele><time>2026-04-06T08:04:45.001Z</time></trkpt><trkpt lat="41.88260919412375" lon="12.491606968098305"><ele>28.0</ele><time>2026-04-06T08:04:46.001Z</time></trkpt><trkpt lat="41.88251836660602" lon="12.491757710042139"><ele>27.5</ele><time>2026-04-06T08:04:47.001Z</time></trkpt><trkpt lat="41.88243555751096" lon="12.49192447063389"><ele>27.0</ele><time>2026-04-06T08:04:48.001Z</time></trkpt><trkpt lat="41.88233724554514" lon="12.492084726988825"><ele>27.333333333333336</ele><time>2026-04-06T08:04:49.001Z</time></trkpt><trkpt lat="41.8822360234761" lon="12.492249727019646"><ele>27.666666666666668</ele><time>2026-04-06T08:04:50.001Z</time></trkpt><trkpt lat="41.88213122003427" lon="12.492420564994442"><ele>28.0</ele><time>2026-04-06T08:04:51.001Z</time></trkpt><trkpt lat="41.88201381932682" lon="12.492582557697109"><ele>28.0</ele><time>2026-04-06T08:04:52.001Z</time></trkpt><trkpt lat="41.881904725318186" lon="12.492758419458907"><ele>28.0</ele><time>2026-04-06T08:04:53.001Z</time></trkpt><trkpt lat="41.881812337922725" lon="12.492940362443793"><ele>28.0</ele><time>2026-04-06T08:04:54.001Z</time></trkpt><trkpt lat="41.88170264890108" lon="12.493119159694844"><ele>30.666666666666668</ele><time>2026-04-06T08:04:55.001Z</time></trkpt><trkpt lat="41.88157557406076" lon="12.49328364687236"><ele>33.333333333333336</ele><time>2026-04-06T08:04:56.001Z</time></trkpt><trkpt lat="41.881463423933866" lon="12.493466566997206"><ele>36.0</ele><time>2026-04-06T08:04:57.001Z</time></trkpt><trkpt lat="41.88135525927785" lon="12.493646017959238"><ele>35.0</ele><time>2026-04-06T08:04:58.001Z</time></trkpt><trkpt lat="41.881250392454895" lon="12.493824077192876"><ele>34.0</ele><time>2026-04-06T08:04:59.001Z</time></trkpt><trkpt lat="41.88114379348968" lon="12.49400503863158"><ele>33.0</ele><time>2026-04-06T08:05:00.001Z</time></trkpt><trkpt lat="41.881045221101196" lon="12.494172949790334"><ele>33.0</ele><time>2026-04-06T08:05:01.001Z</time></trkpt><trkpt lat="41.880940436255365" lon="12.494335389241373"><ele>33.0</ele><time>2026-04-06T08:05:02.001Z</time></trkpt><trkpt lat="41.88083626124551" lon="12.494498923403443"><ele>33.0</ele><time>2026-04-06T08:05:03.001Z</time></trkpt><trkpt lat="41.88073675539951" lon="12.494665808039521"><ele>31.5</ele><time>2026-04-06T08:05:04.001Z</time></trkpt><trkpt lat="41.88063735089716" lon="12.494817776246835"><ele>30.0</ele><time>2026-04-06T08:05:05.001Z</time></trkpt><trkpt lat="41.88054344085743" lon="12.494970614485933"><ele>28.5</ele><time>2026-04-06T08:05:06.001Z</time></trkpt><trkpt lat="41.88044691341967" lon="12.495105281550712"><ele>27.0</ele><time>2026-04-06T08:05:07.001Z</time></trkpt><trkpt lat="41.88033824764687" lon="12.495230569089042"><ele>27.0</ele><time>2026-04-06T08:05:08.001Z</time></trkpt><trkpt lat="41.88021943472871" lon="12.495322067994257"><ele>27.0</ele><time>2026-04-06T08:05:09.001Z</time></trkpt><trkpt lat="41.8800936833318" lon="12.495369211653005"><ele>27.0</ele><time>2026-04-06T08:05:10.001Z</time></trkpt><trkpt lat="41.87997205812309" lon="12.49543470340841"><ele>27.0</ele><time>2026-04-06T08:05:11.001Z</time></trkpt><trkpt lat="41.87987067336375" lon="12.495522924346918"><ele>27.0</ele><time>2026-04-06T08:05:12.001Z</time></trkpt><trkpt lat="41.87979683922601" lon="12.495655319315137"><ele>27.0</ele><time>2026-04-06T08:05:13.001Z</time></trkpt><trkpt lat="41.87970332501015" lon="12.495766549815215"><ele>27.0</ele><time>2026-04-06T08:05:14.001Z</time></trkpt><trkpt lat="41.87961446363954" lon="12.495856925255113"><ele>27.0</ele><time>2026-04-06T08:05:15.001Z</time></trkpt><trkpt lat="41.87954286514213" lon="12.495971425420914"><ele>27.0</ele><time>2026-04-06T08:05:16.001Z</time></trkpt><trkpt lat="41.87946756680301" lon="12.496107162353068"><ele>27.000000000000004</ele><time>2026-04-06T08:05:17Z</time></trkpt><trkpt lat="41.87939873443267" lon="12.496230749782022"><ele>27.000000000000004</ele><time>2026-04-06T08:05:18Z</time></trkpt><trkpt lat="41.87933480077936" lon="12.49633261567572"><ele>27.0</ele><time>2026-04-06T08:05:19Z</time></trkpt><trkpt lat="41.879270516543954" lon="12.496426549320168"><ele>27.0</ele><time>2026-04-06T08:05:20Z</time></trkpt><trkpt lat="41.87920468123713" lon="12.496531078774357"><ele>27.200000000000003</ele><time>2026-04-06T08:05:21Z</time></trkpt><trkpt lat="41.87912739621893" lon="12.496638472716567"><ele>27.400000000000002</ele><time>2026-04-06T08:05:22Z</time></trkpt><trkpt lat="41.87904730039516" lon="12.49674372001537"><ele>27.599999999999998</ele><time>2026-04-06T08:05:23Z</time></trkpt><trkpt lat="41.87897601317896" lon="12.496843433271428"><ele>27.799999999999997</ele><time>2026-04-06T08:05:24Z</time></trkpt><trkpt lat="41.878898658638946" lon="12.496947983948406"><ele>28.0</ele><time>2026-04-06T08:05:25Z</time></trkpt><trkpt lat="41.87883156448865" lon="12.497041243769804"><ele>29.25</ele><time>2026-04-06T08:05:26Z</time></trkpt><trkpt lat="41.878764803813546" lon="12.497136881799973"><ele>30.5</ele><time>2026-04-06T08:05:27Z</time></trkpt><trkpt lat="41.87868631187892" lon="12.497259073646697"><ele>31.75</ele><time>2026-04-06T08:05:28Z</time></trkpt><trkpt lat="41.87858682971568" lon="12.497397679105902"><ele>33.0</ele><time>2026-04-06T08:05:29Z</time></trkpt><trkpt lat="41.878473300049535" lon="12.497542885993285"><ele>32.666666666666664</ele><time>2026-04-06T08:05:30Z</time></trkpt><trkpt lat="41.8783392050295" lon="12.497715591664509"><ele>32.33333333333333</ele><time>2026-04-06T08:05:31Z</time></trkpt><trkpt lat="41.87821888960726" lon="12.497876294987764"><ele>32.0</ele><time>2026-04-06T08:05:32Z</time></trkpt><trkpt lat="41.87811342291153" lon="12.498023108578298"><ele>32.0</ele><time>2026-04-06T08:05:33Z</time></trkpt><trkpt lat="41.87800989721155" lon="12.498155857513307"><ele>32.0</ele><time>2026-04-06T08:05:34Z</time></trkpt><trkpt lat="41.877908743825856" lon="12.498286042734847"><ele>32.0</ele><time>2026-04-06T08:05:35Z</time></trkpt><trkpt lat="41.877802237263424" lon="12.498414277683883"><ele>32.0</ele><time>2026-04-06T08:05:36Z</time></trkpt><trkpt lat="41.87771037007369" lon="12.498539358968005"><ele>31.0</ele><time>2026-04-06T08:05:37Z</time></trkpt><trkpt lat="41.877595008129255" lon="12.49867536277084"><ele>30.0</ele><time>2026-04-06T08:05:38Z</time></trkpt><trkpt lat="41.87745783176514" lon="12.498827445855476"><ele>29.0</ele><time>2026-04-06T08:05:39Z</time></trkpt><trkpt lat="41.87734639591613" lon="12.498974155879695"><ele>29.0</ele><time>2026-04-06T08:05:40Z</time></trkpt><trkpt lat="41.877242057407685" lon="12.499095092260115"><ele>29.0</ele><time>2026-04-06T08:05:41Z</time></trkpt><trkpt lat="41.87712931943517" lon="12.499191050936574"><ele>29.0</ele><time>2026-04-06T08:05:42Z</time></trkpt><trkpt lat="41.877021812208106" lon="12.499299596966395"><ele>29.0</ele><time>2026-04-06T08:05:43Z</time></trkpt><trkpt lat="41.87692535848121" lon="12.499404194556647"><ele>29.0</ele><time>2026-04-06T08:05:44Z</time></trkpt><trkpt lat="41.87682852861289" lon="12.499489869485998"><ele>29.0</ele><time>2026-04-06T08:05:45Z</time></trkpt><trkpt lat="41.87673685846325" lon="12.499568363793596"><ele>29.0</ele><time>2026-04-06T08:05:46Z</time></trkpt><trkpt lat="41.87662997584826" lon="12.49963565954197"><ele>29.0</ele><time>2026-04-06T08:05:47Z</time></trkpt><trkpt lat="41.876528635635" lon="12.499748291883302"><ele>33.33333333333333</ele><time>2026-04-06T08:05:48Z</time></trkpt><trkpt lat="41.876368066817875" lon="12.49987396969163"><ele>37.666666666666664</ele><time>2026-04-06T08:05:49Z</time></trkpt><trkpt lat="41.87621517158972" lon="12.500007775632778"><ele>42.0</ele><time>2026-04-06T08:05:50Z</time></trkpt><trkpt lat="41.87608792731665" lon="12.500126871730345"><ele>42.0</ele><time>2026-04-06T08:05:51Z</time></trkpt><trkpt lat="41.87594506532412" lon="12.500214340616026"><ele>42.0</ele><time>2026-04-06T08:05:52Z</time></trkpt><trkpt lat="41.875827668650665" lon="12.50031870630035"><ele>42.0</ele><time>2026-04-06T08:05:53Z</time></trkpt><trkpt lat="41.87570616304703" lon="12.500397233572613"><ele>42.0</ele><time>2026-04-06T08:05:54Z</time></trkpt><trkpt lat="41.87558305691457" lon="12.500475040664476"><ele>42.5</ele><time>2026-04-06T08:05:55Z</time></trkpt><trkpt lat="41.87546909295625" lon="12.500523529350136"><ele>43.0</ele><time>2026-04-06T08:05:56Z</time></trkpt><trkpt lat="41.87537189098046" lon="12.500594507268623"><ele>43.5</ele><time>2026-04-06T08:05:57Z</time></trkpt><trkpt lat="41.87527779134782" lon="12.500655936386275"><ele>44.0</ele><time>2026-04-06T08:05:58Z</time></trkpt><trkpt lat="41.87517298784021" lon="12.500730664933496"><ele>44.0</ele><time>2026-04-06T08:05:59Z</time></trkpt><trkpt lat="41.87506729746839" lon="12.500794553802933"><ele>44.0</ele><time>2026-04-06T08:06:00Z</time></trkpt><trkpt lat="41.8749735242511" lon="12.500867744098803"><ele>44.0</ele><time>2026-04-06T08:06:01Z</time></trkpt><trkpt lat="41.8748825081476" lon="12.500923222120747"><ele>44.0</ele><time>2026-04-06T08:06:02Z</time></trkpt><trkpt lat="41.874800125536446" lon="12.500969766760209"><ele>44.0</ele><time>2026-04-06T08:06:03Z</time></trkpt><trkpt lat="41.87470948362977" lon="12.501017811189968"><ele>44.0</ele><time>2026-04-06T08:06:04Z</time></trkpt><trkpt lat="41.87461459139779" lon="12.501043575408419"><ele>44.0</ele><time>2026-04-06T08:06:05Z</time></trkpt><trkpt lat="41.87452130243079" lon="12.501089373532196"><ele>44.0</ele><time>2026-04-06T08:06:06Z</time></trkpt><trkpt lat="41.87442027604876" lon="12.501134735151066"><ele>44.0</ele><time>2026-04-06T08:06:07Z</time></trkpt><trkpt lat="41.87431339440134" lon="12.501179404983676"><ele>44.0</ele><time>2026-04-06T08:06:08Z</time></trkpt><trkpt lat="41.874199898223566" lon="12.501225492269564"><ele>44.33333333333333</ele><time>2026-04-06T08:06:09Z</time></trkpt><trkpt lat="41.874103254412596" lon="12.501275610957924"><ele>44.666666666666664</ele><time>2026-04-06T08:06:10Z</time></trkpt><trkpt lat="41.87401893785452" lon="12.501310862990234"><ele>45.0</ele><time>2026-04-06T08:06:11Z</time></trkpt><trkpt lat="41.87394371124189" lon="12.501339003805816"><ele>45.333333333333336</ele><time>2026-04-06T08:06:12Z</time></trkpt><trkpt lat="41.87387456024751" lon="12.501372703423687"><ele>45.66666666666667</ele><time>2026-04-06T08:06:13Z</time></trkpt><trkpt lat="41.87379688170185" lon="12.501428327516699"><ele>46.0</ele><time>2026-04-06T08:06:14Z</time></trkpt><trkpt lat="41.87371835190131" lon="12.501458104599251"><ele>46.0</ele><time>2026-04-06T08:06:15Z</time></trkpt><trkpt lat="41.87358829552554" lon="12.501496357600283"><ele>46.0</ele><time>2026-04-06T08:06:17Z</time></trkpt><trkpt lat="41.8735058171716" lon="12.50150039600152"><ele>46.0</ele><time>2026-04-06T08:06:18Z</time></trkpt><trkpt lat="41.87341199793212" lon="12.501541023101126"><ele>46.0</ele><time>2026-04-06T08:06:20Z</time></trkpt><trkpt lat="41.87334787506743" lon="12.50156991802045"><ele>46.0</ele><time>2026-04-06T08:06:22.001Z</time></trkpt><trkpt lat="41.87329093956047" lon="12.501612510640594"><ele>46.0</ele><time>2026-04-06T08:07:39Z</time></trkpt><trkpt lat="41.87329391449053" lon="12.50185509324862"><ele>46.4</ele><time>2026-04-06T08:07:41Z</time></trkpt><trkpt lat="41.873327074240336" lon="12.502018782211495"><ele>46.8</ele><time>2026-04-06T08:07:43Z</time></trkpt><trkpt lat="41.873354958913865" lon="12.502137716967816"><ele>47.199999999999996</ele><time>2026-04-06T08:07:44Z</time></trkpt><trkpt lat="41.873379572185414" lon="12.502242807891255"><ele>47.599999999999994</ele><time>2026-04-06T08:07:45Z</time></trkpt><trkpt lat="41.87340845594695" lon="12.502363017354114"><ele>48.0</ele><time>2026-04-06T08:07:46Z</time></trkpt><trkpt lat="41.87346168707087" lon="12.502488716842103"><ele>48.0</ele><time>2026-04-06T08:07:47Z</time></trkpt><trkpt lat="41.8735292287824" lon="12.502669729675606"><ele>48.0</ele><time>2026-04-06T08:07:48Z</time></trkpt><trkpt lat="41.87363313743838" lon="12.502848263467218"><ele>48.0</ele><time>2026-04-06T08:07:49Z</time></trkpt><trkpt lat="41.87374627346531" lon="12.502985639101942"><ele>46.0</ele><time>2026-04-06T08:07:50Z</time></trkpt><trkpt lat="41.873875114861505" lon="12.503145327303978"><ele>44.0</ele><time>2026-04-06T08:07:51Z</time></trkpt><trkpt lat="41.87399247166527" lon="12.503275594258806"><ele>42.0</ele><time>2026-04-06T08:07:52Z</time></trkpt><trkpt lat="41.874105286964294" lon="12.503391423190097"><ele>42.0</ele><time>2026-04-06T08:07:53Z</time></trkpt><trkpt lat="41.87420677549468" lon="12.50349957372382"><ele>42.0</ele><time>2026-04-06T08:07:54Z</time></trkpt><trkpt lat="41.874304209666654" lon="12.503605029001225"><ele>42.0</ele><time>2026-04-06T08:07:55Z</time></trkpt><trkpt lat="41.87438231923887" lon="12.503690985415249"><ele>42.0</ele><time>2026-04-06T08:07:56Z</time></trkpt><trkpt lat="41.87445483444506" lon="12.503743012741086"><ele>42.0</ele><time>2026-04-06T08:07:57Z</time></trkpt><trkpt lat="41.87454702970931" lon="12.50378769692788"><ele>42.400000000000006</ele><time>2026-04-06T08:07:59Z</time></trkpt><trkpt lat="41.874621740747926" lon="12.503836740127284"><ele>42.800000000000004</ele><time>2026-04-06T08:08:01Z</time></trkpt><trkpt lat="41.87464595779654" lon="12.504063584482964"><ele>43.2</ele><time>2026-04-06T08:08:02Z</time></trkpt><trkpt lat="41.87467780607891" lon="12.504161636831595"><ele>43.6</ele><time>2026-04-06T08:08:03Z</time></trkpt><trkpt lat="41.87473728939378" lon="12.50424738603416"><ele>44.0</ele><time>2026-04-06T08:08:04Z</time></trkpt><trkpt lat="41.874815261454245" lon="12.504326558470128"><ele>44.0</ele><time>2026-04-06T08:08:05.001Z</time></trkpt><trkpt lat="41.874898950984" lon="12.504417215928227"><ele>44.0</ele><time>2026-04-06T08:08:06.001Z</time></trkpt><trkpt lat="41.874990009219225" lon="12.504505943298197"><ele>44.0</ele><time>2026-04-06T08:08:07.001Z</time></trkpt><trkpt lat="41.875064269324206" lon="12.504584227519505"><ele>44.0</ele><time>2026-04-06T08:08:08.001Z</time></trkpt><trkpt lat="41.875127923405365" lon="12.504648037984516"><ele>44.0</ele><time>2026-04-06T08:08:09.001Z</time></trkpt><trkpt lat="41.87521790253698" lon="12.504737762692747"><ele>44.666666666666664</ele><time>2026-04-06T08:08:11.001Z</time></trkpt><trkpt lat="41.87527199493007" lon="12.50479799417817"><ele>45.33333333333333</ele><time>2026-04-06T08:08:13.001Z</time></trkpt><trkpt lat="41.87534820840754" lon="12.504866860952745"><ele>46.0</ele><time>2026-04-06T08:08:18.001Z</time></trkpt><trkpt lat="41.875400276953926" lon="12.504920703957179"><ele>46.666666666666664</ele><time>2026-04-06T08:08:19.001Z</time></trkpt><trkpt lat="41.875487183798064" lon="12.505015890359058"><ele>47.333333333333336</ele><time>2026-04-06T08:08:21.001Z</time></trkpt><trkpt lat="41.875545833500176" lon="12.505070425963076"><ele>48.0</ele><time>2026-04-06T08:08:22.001Z</time></trkpt><trkpt lat="41.875610501918146" lon="12.505135562733088"><ele>48.0</ele><time>2026-04-06T08:08:23.001Z</time></trkpt><trkpt lat="41.875680555708186" lon="12.505206145400166"><ele>48.0</ele><time>2026-04-06T08:08:24.001Z</time></trkpt><trkpt lat="41.87574338098652" lon="12.505272082855159"><ele>48.0</ele><time>2026-04-06T08:08:25.001Z</time></trkpt><trkpt lat="41.87580529891746" lon="12.505332660733918"><ele>48.0</ele><time>2026-04-06T08:08:26.001Z</time></trkpt><trkpt lat="41.875865825613154" lon="12.505396945313784"><ele>48.0</ele><time>2026-04-06T08:08:27.001Z</time></trkpt><trkpt lat="41.87592732437546" lon="12.505463968379878"><ele>48.0</ele><time>2026-04-06T08:08:28.001Z</time></trkpt><trkpt lat="41.87598528804111" lon="12.505519814244595"><ele>46.833333333333336</ele><time>2026-04-06T08:08:29.001Z</time></trkpt><trkpt lat="41.876035907408905" lon="12.505572890390422"><ele>45.666666666666664</ele><time>2026-04-06T08:08:30.001Z</time></trkpt><trkpt lat="41.87612893401234" lon="12.505671280543307"><ele>44.5</ele><time>2026-04-06T08:08:32.001Z</time></trkpt><trkpt lat="41.87618087045903" lon="12.505719345861248"><ele>43.33333333333333</ele><time>2026-04-06T08:08:33.001Z</time></trkpt><trkpt lat="41.87624594330705" lon="12.505771291991714"><ele>42.166666666666664</ele><time>2026-04-06T08:08:34.001Z</time></trkpt><trkpt lat="41.87631131641836" lon="12.505816445002221"><ele>41.0</ele><time>2026-04-06T08:08:35.001Z</time></trkpt><trkpt lat="41.8763746695211" lon="12.505861652969175"><ele>41.0</ele><time>2026-04-06T08:08:36.001Z</time></trkpt><trkpt lat="41.876438089544884" lon="12.505907649650707"><ele>41.0</ele><time>2026-04-06T08:08:37.001Z</time></trkpt><trkpt lat="41.876501308819236" lon="12.505955751696867"><ele>41.0</ele><time>2026-04-06T08:08:38.001Z</time></trkpt><trkpt lat="41.876566427234685" lon="12.506008058625921"><ele>41.0</ele><time>2026-04-06T08:08:39.001Z</time></trkpt><trkpt lat="41.876631650903725" lon="12.506060664648473"><ele>41.0</ele><time>2026-04-06T08:08:40.001Z</time></trkpt><trkpt lat="41.876704711397274" lon="12.506112854458992"><ele>41.0</ele><time>2026-04-06T08:08:41.001Z</time></trkpt><trkpt lat="41.87678590779312" lon="12.506160261914346"><ele>41.166666666666664</ele><time>2026-04-06T08:08:42.001Z</time></trkpt><trkpt lat="41.87686852820465" lon="12.506228745258992"><ele>41.33333333333333</ele><time>2026-04-06T08:08:43.001Z</time></trkpt><trkpt lat="41.87695081399545" lon="12.506285339291438"><ele>41.5</ele><time>2026-04-06T08:08:44.001Z</time></trkpt><trkpt lat="41.87700293266257" lon="12.506334777300323"><ele>41.666666666666664</ele><time>2026-04-06T08:08:45.001Z</time></trkpt><trkpt lat="41.87706498277276" lon="12.506383552353391"><ele>41.833333333333336</ele><time>2026-04-06T08:08:46.001Z</time></trkpt><trkpt lat="41.877137120086275" lon="12.506430379457063"><ele>42.0</ele><time>2026-04-06T08:08:47.001Z</time></trkpt><trkpt lat="41.877198403268046" lon="12.506474333451115"><ele>42.6</ele><time>2026-04-06T08:08:48.001Z</time></trkpt><trkpt lat="41.87730239165979" lon="12.506552057131094"><ele>43.2</ele><time>2026-04-06T08:08:50.001Z</time></trkpt><trkpt lat="41.877374635812814" lon="12.506613821886152"><ele>43.8</ele><time>2026-04-06T08:08:52.001Z</time></trkpt><trkpt lat="41.87744146962229" lon="12.506663559897737"><ele>44.4</ele><time>2026-04-06T08:08:56.001Z</time></trkpt><trkpt lat="41.877378667799405" lon="12.506840262917652"><ele>45.0</ele><time>2026-04-06T08:08:57.001Z</time></trkpt><trkpt lat="41.8773303437549" lon="12.506918350162605"><ele>45.0</ele><time>2026-04-06T08:08:58.001Z</time></trkpt><trkpt lat="41.877283908737425" lon="12.507009592834207"><ele>45.0</ele><time>2026-04-06T08:08:59.001Z</time></trkpt><trkpt lat="41.87722822028849" lon="12.507142056029517"><ele>45.0</ele><time>2026-04-06T08:09:00.001Z</time></trkpt><trkpt lat="41.877181213077144" lon="12.507248438232244"><ele>45.0</ele><time>2026-04-06T08:09:01.001Z</time></trkpt><trkpt lat="41.87713071019496" lon="12.507360297500103"><ele>45.0</ele><time>2026-04-06T08:09:02.001Z</time></trkpt><trkpt lat="41.877092244523105" lon="12.507448422092605"><ele>45.8</ele><time>2026-04-06T08:09:03.001Z</time></trkpt><trkpt lat="41.87703488632766" lon="12.507563286723322"><ele>46.6</ele><time>2026-04-06T08:09:05Z</time></trkpt><trkpt lat="41.87699116958189" lon="12.507651773418498"><ele>47.400000000000006</ele><time>2026-04-06T08:09:07Z</time></trkpt><trkpt lat="41.87693797062826" lon="12.5077625516844"><ele>48.2</ele><time>2026-04-06T08:09:28.999Z</time></trkpt><trkpt lat="41.87688640401914" lon="12.507881409853411"><ele>49.0</ele><time>2026-04-06T08:09:30.999Z</time></trkpt><trkpt lat="41.876811756729836" lon="12.50803623790777"><ele>49.666666666666664</ele><time>2026-04-06T08:09:32.999Z</time></trkpt><trkpt lat="41.876765916003286" lon="12.508130586979476"><ele>50.33333333333333</ele><time>2026-04-06T08:09:33.999Z</time></trkpt><trkpt lat="41.87672783898217" lon="12.508214397488706"><ele>51.0</ele><time>2026-04-06T08:09:34.999Z</time></trkpt><trkpt lat="41.87668333412324" lon="12.50831428861268"><ele>51.66666666666667</ele><time>2026-04-06T08:09:35.999Z</time></trkpt><trkpt lat="41.87663960298802" lon="12.508421703756015"><ele>52.333333333333336</ele><time>2026-04-06T08:09:36.999Z</time></trkpt><trkpt lat="41.87659926225814" lon="12.508527202619078"><ele>53.0</ele><time>2026-04-06T08:09:37.999Z</time></trkpt><trkpt lat="41.87655343447139" lon="12.508638883724487"><ele>52.8</ele><time>2026-04-06T08:09:38.999Z</time></trkpt><trkpt lat="41.87650187783022" lon="12.508763257690344"><ele>52.599999999999994</ele><time>2026-04-06T08:09:39.999Z</time></trkpt><trkpt lat="41.87644328517361" lon="12.508876288910832"><ele>52.400000000000006</ele><time>2026-04-06T08:09:40.999Z</time></trkpt><trkpt lat="41.87639148076491" lon="12.508985216389233"><ele>52.2</ele><time>2026-04-06T08:09:41.999Z</time></trkpt><trkpt lat="41.876342832399715" lon="12.509090739018193"><ele>52.0</ele><time>2026-04-06T08:09:42.999Z</time></trkpt><trkpt lat="41.87629511340116" lon="12.509189794178486"><ele>51.99999999999999</ele><time>2026-04-06T08:09:43.999Z</time></trkpt><trkpt lat="41.87624833990448" lon="12.509274293642669"><ele>52.0</ele><time>2026-04-06T08:09:44.999Z</time></trkpt><trkpt lat="41.87619625691691" lon="12.509354165402579"><ele>52.0</ele><time>2026-04-06T08:09:45.999Z</time></trkpt><trkpt lat="41.87615104021936" lon="12.509462773732121"><ele>52.0</ele><time>2026-04-06T08:09:46.999Z</time></trkpt><trkpt lat="41.87607008282605" lon="12.509537492683608"><ele>51.99999999999999</ele><time>2026-04-06T08:09:47.999Z</time></trkpt><trkpt lat="41.875982305552036" lon="12.509598467608821"><ele>52.0</ele><time>2026-04-06T08:09:48.999Z</time></trkpt><trkpt lat="41.8759160588215" lon="12.509671834231801"><ele>51.6</ele><time>2026-04-06T08:09:49.999Z</time></trkpt><trkpt lat="41.87585628109357" lon="12.509739452980583"><ele>51.2</ele><time>2026-04-06T08:09:50.999Z</time></trkpt><trkpt lat="41.875776571888956" lon="12.509804300457157"><ele>50.8</ele><time>2026-04-06T08:09:53Z</time></trkpt><trkpt lat="41.87571110264361" lon="12.50990960276032"><ele>50.4</ele><time>2026-04-06T08:09:55Z</time></trkpt><trkpt lat="41.87576790688934" lon="12.510050860967562"><ele>50.0</ele><time>2026-04-06T08:09:57Z</time></trkpt><trkpt lat="41.87580729025735" lon="12.510135356292082"><ele>50.0</ele><time>2026-04-06T08:09:58Z</time></trkpt><trkpt lat="41.875847478543356" lon="12.510223992350824"><ele>50.0</ele><time>2026-04-06T08:09:59Z</time></trkpt><trkpt lat="41.87587133807474" lon="12.510303650500505"><ele>50.0</ele><time>2026-04-06T08:10:01Z</time></trkpt><trkpt lat="41.87565518484291" lon="12.510505996752848"><ele>50.0</ele><time>2026-04-06T08:10:02Z</time></trkpt><trkpt lat="41.87557622097392" lon="12.51057174126162"><ele>49.16666666666667</ele><time>2026-04-06T08:10:03Z</time></trkpt><trkpt lat="41.87550939563097" lon="12.51063032034404"><ele>48.333333333333336</ele><time>2026-04-06T08:10:04Z</time></trkpt><trkpt lat="41.87545257080446" lon="12.510680950169597"><ele>47.5</ele><time>2026-04-06T08:10:05Z</time></trkpt><trkpt lat="41.87539566279476" lon="12.510739946965638"><ele>46.66666666666667</ele><time>2026-04-06T08:10:06Z</time></trkpt><trkpt lat="41.87533287199684" lon="12.510800685725933"><ele>45.833333333333336</ele><time>2026-04-06T08:10:07Z</time></trkpt><trkpt lat="41.87525905495476" lon="12.510867937073572"><ele>45.0</ele><time>2026-04-06T08:10:08Z</time></trkpt><trkpt lat="41.87518656122204" lon="12.510940739716888"><ele>45.0</ele><time>2026-04-06T08:10:09Z</time></trkpt><trkpt lat="41.87512647512591" lon="12.51100551121233"><ele>45.0</ele><time>2026-04-06T08:10:10Z</time></trkpt><trkpt lat="41.8750685719332" lon="12.51105161204357"><ele>45.0</ele><time>2026-04-06T08:10:11Z</time></trkpt><trkpt lat="41.87499857146741" lon="12.51110722285342"><ele>45.0</ele><time>2026-04-06T08:10:13Z</time></trkpt><trkpt lat="41.87491833109777" lon="12.51117021312274"><ele>45.0</ele><time>2026-04-06T08:10:16Z</time></trkpt><trkpt lat="41.8748071555529" lon="12.511243166370765"><ele>45.0</ele><time>2026-04-06T08:10:18Z</time></trkpt><trkpt lat="41.87469198053648" lon="12.511324170403046"><ele>45.666666666666664</ele><time>2026-04-06T08:10:20Z</time></trkpt><trkpt lat="41.87462756169204" lon="12.511369291975045"><ele>46.33333333333333</ele><time>2026-04-06T08:10:21Z</time></trkpt><trkpt lat="41.87456491848356" lon="12.511409623615064"><ele>47.0</ele><time>2026-04-06T08:10:22Z</time></trkpt><trkpt lat="41.874503781856745" lon="12.511450459785241"><ele>47.666666666666664</ele><time>2026-04-06T08:10:23Z</time></trkpt><trkpt lat="41.87444146536917" lon="12.511482226488312"><ele>48.33333333333333</ele><time>2026-04-06T08:10:24Z</time></trkpt><trkpt lat="41.87436899947996" lon="12.511546659143153"><ele>49.0</ele><time>2026-04-06T08:10:26Z</time></trkpt><trkpt lat="41.87443868489387" lon="12.511811563564462"><ele>49.0</ele><time>2026-04-06T08:10:27Z</time></trkpt><trkpt lat="41.87447594650676" lon="12.5119117142346"><ele>49.0</ele><time>2026-04-06T08:10:28Z</time></trkpt><trkpt lat="41.87451966463834" lon="12.512008000841064"><ele>49.0</ele><time>2026-04-06T08:10:29Z</time></trkpt><trkpt lat="41.87456042413557" lon="12.512113120977576"><ele>49.0</ele><time>2026-04-06T08:10:30Z</time></trkpt><trkpt lat="41.87460467729026" lon="12.512229171082478"><ele>49.0</ele><time>2026-04-06T08:10:31Z</time></trkpt><trkpt lat="41.87465469291093" lon="12.512359849991894"><ele>49.0</ele><time>2026-04-06T08:10:32Z</time></trkpt><trkpt lat="41.87470748652209" lon="12.512494750034962"><ele>49.0</ele><time>2026-04-06T08:10:33Z</time></trkpt><trkpt lat="41.874759352368926" lon="12.51261168478836"><ele>49.0</ele><time>2026-04-06T08:10:34Z</time></trkpt><trkpt lat="41.87480653186768" lon="12.512744620319628"><ele>49.0</ele><time>2026-04-06T08:10:35Z</time></trkpt><trkpt lat="41.87486734358945" lon="12.512888370056096"><ele>49.0</ele><time>2026-04-06T08:10:36Z</time></trkpt><trkpt lat="41.87493420765614" lon="12.51304040572379"><ele>49.0</ele><time>2026-04-06T08:10:37Z</time></trkpt><trkpt lat="41.87499625668382" lon="12.513212507738155"><ele>49.0</ele><time>2026-04-06T08:10:38Z</time></trkpt><trkpt lat="41.87506311752256" lon="12.513376337570637"><ele>49.0</ele><time>2026-04-06T08:10:39Z</time></trkpt><trkpt lat="41.875140817681235" lon="12.513557674313967"><ele>49.0</ele><time>2026-04-06T08:10:40Z</time></trkpt><trkpt lat="41.87520826623163" lon="12.513713068481266"><ele>48.0</ele><time>2026-04-06T08:10:41Z</time></trkpt><trkpt lat="41.87526508179087" lon="12.513866694769598"><ele>47.0</ele><time>2026-04-06T08:10:42Z</time></trkpt><trkpt lat="41.87532041548022" lon="12.514014731654505"><ele>46.0</ele><time>2026-04-06T08:10:43Z</time></trkpt><trkpt lat="41.87538037952464" lon="12.51416786890994"><ele>45.0</ele><time>2026-04-06T08:10:44Z</time></trkpt><trkpt lat="41.87543530947323" lon="12.514325138193902"><ele>45.0</ele><time>2026-04-06T08:10:45Z</time></trkpt><trkpt lat="41.87548879715832" lon="12.514466772668714"><ele>45.0</ele><time>2026-04-06T08:10:46Z</time></trkpt><trkpt lat="41.87554115002827" lon="12.514612372127878"><ele>45.0</ele><time>2026-04-06T08:10:47Z</time></trkpt><trkpt lat="41.87559932781593" lon="12.514748884679353"><ele>45.0</ele><time>2026-04-06T08:10:48Z</time></trkpt><trkpt lat="41.87565272458454" lon="12.514872261688073"><ele>45.0</ele><time>2026-04-06T08:10:49Z</time></trkpt><trkpt lat="41.87572987862778" lon="12.515020140537544"><ele>45.0</ele><time>2026-04-06T08:10:50Z</time></trkpt><trkpt lat="41.87578082183208" lon="12.515152866618134"><ele>45.0</ele><time>2026-04-06T08:10:51Z</time></trkpt><trkpt lat="41.87583633761289" lon="12.515281549713304"><ele>45.0</ele><time>2026-04-06T08:10:52Z</time></trkpt><trkpt lat="41.87589196234844" lon="12.515416603733941"><ele>46.2</ele><time>2026-04-06T08:10:53Z</time></trkpt><trkpt lat="41.87594970455828" lon="12.51555545195683"><ele>47.4</ele><time>2026-04-06T08:10:54Z</time></trkpt><trkpt lat="41.87599918783966" lon="12.515678266797165"><ele>48.599999999999994</ele><time>2026-04-06T08:10:55Z</time></trkpt><trkpt lat="41.87603970936059" lon="12.515778510705033"><ele>49.8</ele><time>2026-04-06T08:10:56Z</time></trkpt><trkpt lat="41.87608151716026" lon="12.515884673616638"><ele>51.0</ele><time>2026-04-06T08:10:58Z</time></trkpt><trkpt lat="41.8761110541389" lon="12.515963995152426"><ele>51.0</ele><time>2026-04-06T08:11:02Z</time></trkpt><trkpt lat="41.876159028178584" lon="12.516087806789345"><ele>51.0</ele><time>2026-04-06T08:11:29Z</time></trkpt><trkpt lat="41.87618608125908" lon="12.516164310939695"><ele>51.0</ele><time>2026-04-06T08:11:31Z</time></trkpt><trkpt lat="41.876208499113126" lon="12.51625284099871"><ele>51.0</ele><time>2026-04-06T08:11:33Z</time></trkpt><trkpt lat="41.87622718998314" lon="12.51639167703081"><ele>51.0</ele><time>2026-04-06T08:11:35Z</time></trkpt><trkpt lat="41.87622817469657" lon="12.51648967800105"><ele>51.0</ele><time>2026-04-06T08:11:36Z</time></trkpt><trkpt lat="41.87622718436581" lon="12.516588447771673"><ele>51.333333333333336</ele><time>2026-04-06T08:11:37Z</time></trkpt><trkpt lat="41.87623101246776" lon="12.516755193228407"><ele>51.66666666666667</ele><time>2026-04-06T08:11:39Z</time></trkpt><trkpt lat="41.87623535000243" lon="12.51685510345269"><ele>52.0</ele><time>2026-04-06T08:11:40Z</time></trkpt><trkpt lat="41.87624148333097" lon="12.516967369102902"><ele>52.333333333333336</ele><time>2026-04-06T08:11:41Z</time></trkpt><trkpt lat="41.876245939452154" lon="12.5170674677641"><ele>52.66666666666667</ele><time>2026-04-06T08:11:42Z</time></trkpt><trkpt lat="41.876250874840935" lon="12.51716893109353"><ele>53.0</ele><time>2026-04-06T08:11:43Z</time></trkpt><trkpt lat="41.87625407884281" lon="12.517279398662211"><ele>53.4</ele><time>2026-04-06T08:11:44Z</time></trkpt><trkpt lat="41.87625667163109" lon="12.517394691914557"><ele>53.8</ele><time>2026-04-06T08:11:45Z</time></trkpt><trkpt lat="41.87626231223834" lon="12.517547585922836"><ele>54.2</ele><time>2026-04-06T08:11:46Z</time></trkpt><trkpt lat="41.876271049575244" lon="12.51769885057404"><ele>54.6</ele><time>2026-04-06T08:11:47Z</time></trkpt><trkpt lat="41.8762779103018" lon="12.517857708040212"><ele>55.0</ele><time>2026-04-06T08:11:48Z</time></trkpt><trkpt lat="41.87628695395026" lon="12.518032381806318"><ele>55.25</ele><time>2026-04-06T08:11:49Z</time></trkpt><trkpt lat="41.87629374466831" lon="12.518225584653937"><ele>55.5</ele><time>2026-04-06T08:11:50Z</time></trkpt><trkpt lat="41.876304895413796" lon="12.518390093115507"><ele>55.75</ele><time>2026-04-06T08:11:51Z</time></trkpt><trkpt lat="41.87631722626104" lon="12.518539384383814"><ele>56.0</ele><time>2026-04-06T08:11:52Z</time></trkpt><trkpt lat="41.87633154042902" lon="12.518685240428857"><ele>55.599999999999994</ele><time>2026-04-06T08:11:53Z</time></trkpt><trkpt lat="41.876337900156244" lon="12.518836096505856"><ele>55.199999999999996</ele><time>2026-04-06T08:11:54Z</time></trkpt><trkpt lat="41.87633800670838" lon="12.518971866755294"><ele>54.800000000000004</ele><time>2026-04-06T08:11:55Z</time></trkpt><trkpt lat="41.87634222136555" lon="12.519076100596452"><ele>54.400000000000006</ele><time>2026-04-06T08:11:56Z</time></trkpt><trkpt lat="41.87633038208689" lon="12.519214418396817"><ele>54.0</ele><time>2026-04-06T08:11:58Z</time></trkpt><trkpt lat="41.87632959875041" lon="12.519302330628221"><ele>54.0</ele><time>2026-04-06T08:11:59Z</time></trkpt><trkpt lat="41.87633436625212" lon="12.519445488929772"><ele>54.00000000000001</ele><time>2026-04-06T08:12:01Z</time></trkpt><trkpt lat="41.87634026690243" lon="12.519555000321226"><ele>54.00000000000001</ele><time>2026-04-06T08:12:03Z</time></trkpt><trkpt lat="41.8763416993589" lon="12.519662627600662"><ele>54.0</ele><time>2026-04-06T08:12:05Z</time></trkpt><trkpt lat="41.87634805449513" lon="12.519809951356194"><ele>54.0</ele><time>2026-04-06T08:12:07Z</time></trkpt><trkpt lat="41.87641082190396" lon="12.51993472446095"><ele>53.800000000000004</ele><time>2026-04-06T08:12:09Z</time></trkpt><trkpt lat="41.876461227069875" lon="12.520011089346905"><ele>53.60000000000001</ele><time>2026-04-06T08:12:11Z</time></trkpt><trkpt lat="41.87650963010859" lon="12.520082449250461"><ele>53.4</ele><time>2026-04-06T08:12:14Z</time></trkpt><trkpt lat="41.87658636813202" lon="12.520200224785288"><ele>53.2</ele><time>2026-04-06T08:13:27Z</time></trkpt><trkpt lat="41.87656531081958" lon="12.520348277053719"><ele>53.0</ele><time>2026-04-06T08:13:28Z</time></trkpt><trkpt lat="41.8765108044026" lon="12.520424175319512"><ele>53.00000000000001</ele><time>2026-04-06T08:13:29Z</time></trkpt><trkpt lat="41.876467472259165" lon="12.520496691043126"><ele>53.0</ele><time>2026-04-06T08:13:30Z</time></trkpt><trkpt lat="41.87642210707964" lon="12.520565115040904"><ele>53.0</ele><time>2026-04-06T08:13:31Z</time></trkpt><trkpt lat="41.87636857194487" lon="12.520646049742306"><ele>53.0</ele><time>2026-04-06T08:13:32Z</time></trkpt><trkpt lat="41.87631285220481" lon="12.520742616566249"><ele>53.00000000000001</ele><time>2026-04-06T08:13:33Z</time></trkpt><trkpt lat="41.87625615336741" lon="12.520839293469182"><ele>53.0</ele><time>2026-04-06T08:13:34Z</time></trkpt><trkpt lat="41.87619740635222" lon="12.52094223506633"><ele>53.0</ele><time>2026-04-06T08:13:35Z</time></trkpt><trkpt lat="41.876138565616195" lon="12.52104509467308"><ele>53.0</ele><time>2026-04-06T08:13:36Z</time></trkpt><trkpt lat="41.87608187308934" lon="12.52113397076047"><ele>53.0</ele><time>2026-04-06T08:13:37Z</time></trkpt><trkpt lat="41.87603456697792" lon="12.521207298464995"><ele>53.0</ele><time>2026-04-06T08:13:38Z</time></trkpt><trkpt lat="41.875977305427924" lon="12.5212965383122"><ele>53.0</ele><time>2026-04-06T08:13:40Z</time></trkpt><trkpt lat="41.875933520162825" lon="12.521431401356832"><ele>53.599999999999994</ele><time>2026-04-06T08:14:02Z</time></trkpt><trkpt lat="41.87585499621973" lon="12.521528654903152"><ele>54.199999999999996</ele><time>2026-04-06T08:14:03Z</time></trkpt><trkpt lat="41.875786382885" lon="12.52161978098715"><ele>54.8</ele><time>2026-04-06T08:14:04Z</time></trkpt><trkpt lat="41.87571875935991" lon="12.521691666393723"><ele>55.4</ele><time>2026-04-06T08:14:05Z</time></trkpt><trkpt lat="41.87563553148381" lon="12.521786941957325"><ele>56.0</ele><time>2026-04-06T08:14:06Z</time></trkpt><trkpt lat="41.8755269562503" lon="12.521910851544268"><ele>56.0</ele><time>2026-04-06T08:14:07Z</time></trkpt><trkpt lat="41.875405177272775" lon="12.522043727892285"><ele>56.0</ele><time>2026-04-06T08:14:08Z</time></trkpt><trkpt lat="41.875301751123935" lon="12.52216176718382"><ele>56.0</ele><time>2026-04-06T08:14:09Z</time></trkpt><trkpt lat="41.87520927090799" lon="12.52227748195376"><ele>56.0</ele><time>2026-04-06T08:14:10Z</time></trkpt><trkpt lat="41.87512491944753" lon="12.522387177811236"><ele>56.8</ele><time>2026-04-06T08:14:11Z</time></trkpt><trkpt lat="41.87504860636565" lon="12.522494391511577"><ele>57.599999999999994</ele><time>2026-04-06T08:14:12Z</time></trkpt><trkpt lat="41.87497828740451" lon="12.522584971979775"><ele>58.4</ele><time>2026-04-06T08:14:13Z</time></trkpt><trkpt lat="41.87491706447827" lon="12.522664039809545"><ele>59.2</ele><time>2026-04-06T08:14:14Z</time></trkpt><trkpt lat="41.87486575728144" lon="12.52272703469501"><ele>60.0</ele><time>2026-04-06T08:14:15Z</time></trkpt><trkpt lat="41.87478682073683" lon="12.522823924751435"><ele>60.0</ele><time>2026-04-06T08:14:17Z</time></trkpt><trkpt lat="41.874735580059244" lon="12.52288505474605"><ele>60.0</ele><time>2026-04-06T08:14:19Z</time></trkpt><trkpt lat="41.874683275954574" lon="12.522945172998016"><ele>60.0</ele><time>2026-04-06T08:14:22Z</time></trkpt><trkpt lat="41.87462178122922" lon="12.523024150085265"><ele>60.0</ele><time>2026-04-06T08:14:25Z</time></trkpt><trkpt lat="41.874551401237746" lon="12.523106699834207"><ele>60.0</ele><time>2026-04-06T08:14:27Z</time></trkpt><trkpt lat="41.87446040622998" lon="12.52319820467156"><ele>60.0</ele><time>2026-04-06T08:14:28Z</time></trkpt><trkpt lat="41.87436266776006" lon="12.523299861831688"><ele>60.25</ele><time>2026-04-06T08:14:29Z</time></trkpt><trkpt lat="41.87428264443041" lon="12.52339433160907"><ele>60.5</ele><time>2026-04-06T08:14:30Z</time></trkpt><trkpt lat="41.8741790834504" lon="12.52350816964523"><ele>60.75</ele><time>2026-04-06T08:14:31Z</time></trkpt><trkpt lat="41.8740736459911" lon="12.523625780821586"><ele>61.0</ele><time>2026-04-06T08:14:32Z</time></trkpt><trkpt lat="41.87401353459499" lon="12.523740871753274"><ele>61.0</ele><time>2026-04-06T08:14:33Z</time></trkpt><trkpt lat="41.873914418357955" lon="12.523855451702111"><ele>61.0</ele><time>2026-04-06T08:14:34Z</time></trkpt><trkpt lat="41.873824100599414" lon="12.523968202496365"><ele>61.0</ele><time>2026-04-06T08:14:35Z</time></trkpt><trkpt lat="41.87373949330418" lon="12.524071928905348"><ele>61.0</ele><time>2026-04-06T08:14:36Z</time></trkpt><trkpt lat="41.87365342306705" lon="12.52416867451734"><ele>61.0</ele><time>2026-04-06T08:14:37Z</time></trkpt><trkpt lat="41.87357089833292" lon="12.524269575330678"><ele>61.0</ele><time>2026-04-06T08:14:38Z</time></trkpt><trkpt lat="41.87348723017127" lon="12.524372517262375"><ele>61.0</ele><time>2026-04-06T08:14:39Z</time></trkpt><trkpt lat="41.873397851562096" lon="12.524480305505175"><ele>61.0</ele><time>2026-04-06T08:14:40Z</time></trkpt><trkpt lat="41.87329919665585" lon="12.524605136783999"><ele>60.75</ele><time>2026-04-06T08:14:41Z</time></trkpt><trkpt lat="41.873203201767346" lon="12.524720137511226"><ele>60.5</ele><time>2026-04-06T08:14:42Z</time></trkpt><trkpt lat="41.87311530032767" lon="12.524824666119073"><ele>60.25</ele><time>2026-04-06T08:14:43Z</time></trkpt><trkpt lat="41.87303414111393" lon="12.524926322084017"><ele>60.0</ele><time>2026-04-06T08:14:44Z</time></trkpt><trkpt lat="41.872957632650206" lon="12.525017248602474"><ele>60.0</ele><time>2026-04-06T08:14:45Z</time></trkpt><trkpt lat="41.872887339002354" lon="12.525100646155968"><ele>60.0</ele><time>2026-04-06T08:14:46Z</time></trkpt><trkpt lat="41.87281923467696" lon="12.525178812963215"><ele>60.0</ele><time>2026-04-06T08:14:47Z</time></trkpt><trkpt lat="41.872758544761" lon="12.525254464500133"><ele>60.0</ele><time>2026-04-06T08:14:48Z</time></trkpt><trkpt lat="41.872702243756656" lon="12.525322102733835"><ele>60.0</ele><time>2026-04-06T08:14:49Z</time></trkpt><trkpt lat="41.87265058419856" lon="12.525385769423169"><ele>60.0</ele><time>2026-04-06T08:14:50Z</time></trkpt><trkpt lat="41.87256810334589" lon="12.525485262077567"><ele>59.8</ele><time>2026-04-06T08:14:52Z</time></trkpt><trkpt lat="41.872498021066804" lon="12.525570476520372"><ele>59.6</ele><time>2026-04-06T08:14:54Z</time></trkpt><trkpt lat="41.87241615957744" lon="12.525667680589525"><ele>59.400000000000006</ele><time>2026-04-06T08:14:56Z</time></trkpt><trkpt lat="41.872333437157515" lon="12.525771324837011"><ele>59.2</ele><time>2026-04-06T08:14:58Z</time></trkpt><trkpt lat="41.87228308014065" lon="12.525833459679706"><ele>59.0</ele><time>2026-04-06T08:14:59Z</time></trkpt><trkpt lat="41.87221993093601" lon="12.525916938739613"><ele>59.00000000000001</ele><time>2026-04-06T08:15:00Z</time></trkpt><trkpt lat="41.872165046189814" lon="12.525978188688823"><ele>59.0</ele><time>2026-04-06T08:15:01Z</time></trkpt><trkpt lat="41.872103527149896" lon="12.526050516739083"><ele>59.0</ele><time>2026-04-06T08:15:02Z</time></trkpt><trkpt lat="41.87202982849643" lon="12.526143339671217"><ele>59.0</ele><time>2026-04-06T08:15:03Z</time></trkpt><trkpt lat="41.87197121846481" lon="12.526232981622359"><ele>59.00000000000001</ele><time>2026-04-06T08:15:04Z</time></trkpt><trkpt lat="41.87190886365761" lon="12.526310284700234"><ele>59.0</ele><time>2026-04-06T08:15:05Z</time></trkpt><trkpt lat="41.87185684245374" lon="12.526383389550464"><ele>59.400000000000006</ele><time>2026-04-06T08:15:06Z</time></trkpt><trkpt lat="41.871787835928686" lon="12.526528324343529"><ele>59.800000000000004</ele><time>2026-04-06T08:15:08Z</time></trkpt><trkpt lat="41.87170695227987" lon="12.526609200832949"><ele>60.199999999999996</ele><time>2026-04-06T08:15:10Z</time></trkpt><trkpt lat="41.8716492443037" lon="12.526675733487306"><ele>60.599999999999994</ele><time>2026-04-06T08:15:13Z</time></trkpt><trkpt lat="41.87160825062564" lon="12.526757100905398"><ele>61.0</ele><time>2026-04-06T08:15:15Z</time></trkpt><trkpt lat="41.87155328416361" lon="12.52682225501757"><ele>61.0</ele><time>2026-04-06T08:15:22Z</time></trkpt><trkpt lat="41.87150712070448" lon="12.526879953435992"><ele>60.99999999999999</ele><time>2026-04-06T08:15:24Z</time></trkpt><trkpt lat="41.871449468969324" lon="12.526957214680657"><ele>60.99999999999999</ele><time>2026-04-06T08:15:26Z</time></trkpt><trkpt lat="41.8713618197801" lon="12.526993351167988"><ele>61.0</ele><time>2026-04-06T08:15:28Z</time></trkpt><trkpt lat="41.87141115207141" lon="12.527202157648338"><ele>61.0</ele><time>2026-04-06T08:15:30Z</time></trkpt><trkpt lat="41.87142363274094" lon="12.52737325889821"><ele>61.166666666666664</ele><time>2026-04-06T08:15:32Z</time></trkpt><trkpt lat="41.871429839112835" lon="12.527470511742672"><ele>61.33333333333333</ele><time>2026-04-06T08:15:33Z</time></trkpt><trkpt lat="41.871435838530466" lon="12.527559649263809"><ele>61.5</ele><time>2026-04-06T08:15:34Z</time></trkpt><trkpt lat="41.871442984266544" lon="12.527665818401465"><ele>61.66666666666667</ele><time>2026-04-06T08:15:35Z</time></trkpt><trkpt lat="41.871450891514" lon="12.52778330183448"><ele>61.833333333333336</ele><time>2026-04-06T08:15:36Z</time></trkpt><trkpt lat="41.87145811221925" lon="12.527892134071948"><ele>62.0</ele><time>2026-04-06T08:15:37Z</time></trkpt><trkpt lat="41.871448719341686" lon="12.52798926477563"><ele>61.400000000000006</ele><time>2026-04-06T08:15:38Z</time></trkpt><trkpt lat="41.87147053909343" lon="12.528083389609904"><ele>60.800000000000004</ele><time>2026-04-06T08:15:39Z</time></trkpt><trkpt lat="41.87148111173903" lon="12.52825106476771"><ele>60.2</ele><time>2026-04-06T08:15:41Z</time></trkpt><trkpt lat="41.87148205429942" lon="12.528416547395304"><ele>59.6</ele><time>2026-04-06T08:15:43Z</time></trkpt><trkpt lat="41.87149106291582" lon="12.528537390857444"><ele>59.0</ele><time>2026-04-06T08:15:44Z</time></trkpt><trkpt lat="41.87150982907393" lon="12.528683668708366"><ele>59.833333333333336</ele><time>2026-04-06T08:15:45Z</time></trkpt><trkpt lat="41.871516366551894" lon="12.528800479378834"><ele>60.66666666666667</ele><time>2026-04-06T08:15:46Z</time></trkpt><trkpt lat="41.87151869940643" lon="12.52889653158654"><ele>61.5</ele><time>2026-04-06T08:15:46.999Z</time></trkpt><trkpt lat="41.87152694803428" lon="12.528990864793814"><ele>62.33333333333333</ele><time>2026-04-06T08:15:47.999Z</time></trkpt><trkpt lat="41.8715332363637" lon="12.52908758731257"><ele>63.166666666666664</ele><time>2026-04-06T08:15:49Z</time></trkpt><trkpt lat="41.87153781079542" lon="12.52917960385613"><ele>64.0</ele><time>2026-04-06T08:15:50Z</time></trkpt><trkpt lat="41.87154390375735" lon="12.529321448212912"><ele>63.99999999999999</ele><time>2026-04-06T08:15:52Z</time></trkpt><trkpt lat="41.871548507267654" lon="12.529432191752992"><ele>64.0</ele><time>2026-04-06T08:15:54Z</time></trkpt><trkpt lat="41.87156154599068" lon="12.529561142087351"><ele>64.0</ele><time>2026-04-06T08:16:15Z</time></trkpt><trkpt lat="41.87157506708657" lon="12.529643761611217"><ele>64.0</ele><time>2026-04-06T08:16:16Z</time></trkpt><trkpt lat="41.87158673645747" lon="12.529746950355847"><ele>63.99999999999999</ele><time>2026-04-06T08:16:17Z</time></trkpt><trkpt lat="41.871593858458176" lon="12.529843414740254"><ele>64.0</ele><time>2026-04-06T08:16:18Z</time></trkpt><trkpt lat="41.871600938086765" lon="12.529952299870432"><ele>64.2</ele><time>2026-04-06T08:16:19Z</time></trkpt><trkpt lat="41.87160787837412" lon="12.530071778879327"><ele>64.4</ele><time>2026-04-06T08:16:20Z</time></trkpt><trkpt lat="41.871616812103085" lon="12.530200537533693"><ele>64.6</ele><time>2026-04-06T08:16:21Z</time></trkpt><trkpt lat="41.871625569881395" lon="12.530344928745482"><ele>64.8</ele><time>2026-04-06T08:16:22Z</time></trkpt><trkpt lat="41.87163269264854" lon="12.530515261334065"><ele>65.0</ele><time>2026-04-06T08:16:23Z</time></trkpt><trkpt lat="41.871641633385806" lon="12.5306711641639"><ele>64.0</ele><time>2026-04-06T08:16:24Z</time></trkpt><trkpt lat="41.871651626583905" lon="12.530825562483145"><ele>63.0</ele><time>2026-04-06T08:16:25Z</time></trkpt><trkpt lat="41.87166323585131" lon="12.530988546661188"><ele>62.0</ele><time>2026-04-06T08:16:26Z</time></trkpt><trkpt lat="41.87167266191146" lon="12.53115151940139"><ele>61.0</ele><time>2026-04-06T08:16:27Z</time></trkpt><trkpt lat="41.87168214267532" lon="12.531320930866126"><ele>60.25</ele><time>2026-04-06T08:16:28Z</time></trkpt><trkpt lat="41.871695152520644" lon="12.53149470294892"><ele>59.5</ele><time>2026-04-06T08:16:29Z</time></trkpt><trkpt lat="41.87170453137339" lon="12.531660994586664"><ele>58.75</ele><time>2026-04-06T08:16:30Z</time></trkpt><trkpt lat="41.87171715260913" lon="12.53181272650771"><ele>58.0</ele><time>2026-04-06T08:16:31Z</time></trkpt><trkpt lat="41.87172562377113" lon="12.531959386945019"><ele>57.5</ele><time>2026-04-06T08:16:32Z</time></trkpt><trkpt lat="41.87173205518183" lon="12.532112880745098"><ele>57.0</ele><time>2026-04-06T08:16:33Z</time></trkpt><trkpt lat="41.87174385051905" lon="12.532276495754356"><ele>56.5</ele><time>2026-04-06T08:16:34Z</time></trkpt><trkpt lat="41.87175472871206" lon="12.532428938529545"><ele>56.0</ele><time>2026-04-06T08:16:35Z</time></trkpt><trkpt lat="41.87176222187615" lon="12.532566964376471"><ele>56.00000000000001</ele><time>2026-04-06T08:16:36Z</time></trkpt><trkpt lat="41.87176711851839" lon="12.532684008056634"><ele>56.0</ele><time>2026-04-06T08:16:37Z</time></trkpt><trkpt lat="41.871775363125856" lon="12.532781795255755"><ele>56.0</ele><time>2026-04-06T08:16:38Z</time></trkpt><trkpt lat="41.87178856789128" lon="12.532928385905027"><ele>56.0</ele><time>2026-04-06T08:16:40Z</time></trkpt><trkpt lat="41.87179556784173" lon="12.53301509905914"><ele>56.00000000000001</ele><time>2026-04-06T08:16:42Z</time></trkpt><trkpt lat="41.87180139889446" lon="12.533114269938547"><ele>56.0</ele><time>2026-04-06T08:17:20Z</time></trkpt><trkpt lat="41.871810771608835" lon="12.533234541002567"><ele>55.8</ele><time>2026-04-06T08:17:23Z</time></trkpt><trkpt lat="41.8718271478243" lon="12.533385533217137"><ele>55.599999999999994</ele><time>2026-04-06T08:17:25Z</time></trkpt><trkpt lat="41.87181281763215" lon="12.533480498505256"><ele>55.4</ele><time>2026-04-06T08:17:26Z</time></trkpt><trkpt lat="41.87183391434782" lon="12.533573262370334"><ele>55.2</ele><time>2026-04-06T08:17:27Z</time></trkpt><trkpt lat="41.871730662725916" lon="12.533677135732168"><ele>55.0</ele><time>2026-04-06T08:17:28Z</time></trkpt><trkpt lat="41.87167830415885" lon="12.533773028645898"><ele>54.6</ele><time>2026-04-06T08:17:29Z</time></trkpt><trkpt lat="41.87162783706477" lon="12.533867820047247"><ele>54.2</ele><time>2026-04-06T08:17:30Z</time></trkpt><trkpt lat="41.87156628279425" lon="12.533975328007932"><ele>53.8</ele><time>2026-04-06T08:17:31Z</time></trkpt><trkpt lat="41.87148272075103" lon="12.534136348049213"><ele>53.4</ele><time>2026-04-06T08:17:32Z</time></trkpt><trkpt lat="41.871415740958156" lon="12.534249252423418"><ele>53.0</ele><time>2026-04-06T08:17:33Z</time></trkpt><trkpt lat="41.87134156025223" lon="12.534370392371192"><ele>53.0</ele><time>2026-04-06T08:17:34Z</time></trkpt><trkpt lat="41.8712665038129" lon="12.534490343746796"><ele>53.0</ele><time>2026-04-06T08:17:35Z</time></trkpt><trkpt lat="41.87120817387543" lon="12.534592828431965"><ele>53.0</ele><time>2026-04-06T08:17:36Z</time></trkpt><trkpt lat="41.87115261335132" lon="12.53468693139756"><ele>53.0</ele><time>2026-04-06T08:17:37Z</time></trkpt><trkpt lat="41.871096616728025" lon="12.534755491425047"><ele>53.0</ele><time>2026-04-06T08:17:38Z</time></trkpt><trkpt lat="41.87104170570947" lon="12.534826182011459"><ele>53.333333333333336</ele><time>2026-04-06T08:17:39Z</time></trkpt><trkpt lat="41.87098371203233" lon="12.534894980079025"><ele>53.66666666666667</ele><time>2026-04-06T08:17:40Z</time></trkpt><trkpt lat="41.87091371012399" lon="12.534987017172412"><ele>54.0</ele><time>2026-04-06T08:17:41Z</time></trkpt><trkpt lat="41.87085980655681" lon="12.535075299593775"><ele>54.33333333333333</ele><time>2026-04-06T08:17:42Z</time></trkpt><trkpt lat="41.870808075353416" lon="12.535163831474533"><ele>54.666666666666664</ele><time>2026-04-06T08:17:43Z</time></trkpt><trkpt lat="41.870760143251076" lon="12.535270324387907"><ele>55.0</ele><time>2026-04-06T08:17:44Z</time></trkpt><trkpt lat="41.870691145548854" lon="12.535376567996815"><ele>55.4</ele><time>2026-04-06T08:17:45Z</time></trkpt><trkpt lat="41.87061982492773" lon="12.53549507926608"><ele>55.8</ele><time>2026-04-06T08:17:46Z</time></trkpt><trkpt lat="41.87055233662565" lon="12.535609548239758"><ele>56.2</ele><time>2026-04-06T08:17:47Z</time></trkpt><trkpt lat="41.87048375403826" lon="12.535706172544463"><ele>56.6</ele><time>2026-04-06T08:17:48Z</time></trkpt><trkpt lat="41.87042296191589" lon="12.535802844166748"><ele>57.0</ele><time>2026-04-06T08:17:49Z</time></trkpt><trkpt lat="41.87037257420552" lon="12.535881990641979"><ele>57.0</ele><time>2026-04-06T08:17:50Z</time></trkpt><trkpt lat="41.87031002145149" lon="12.535999835438409"><ele>57.0</ele><time>2026-04-06T08:17:52Z</time></trkpt><trkpt lat="41.8702568461051" lon="12.536079344576862"><ele>57.0</ele><time>2026-04-06T08:17:55Z</time></trkpt><trkpt lat="41.87021191321342" lon="12.536150604537632"><ele>57.0</ele><time>2026-04-06T08:17:57Z</time></trkpt><trkpt lat="41.87014757175045" lon="12.53625460607906"><ele>57.0</ele><time>2026-04-06T08:17:58Z</time></trkpt><trkpt lat="41.87006794133244" lon="12.536373371430324"><ele>55.5</ele><time>2026-04-06T08:17:59Z</time></trkpt><trkpt lat="41.869991019857636" lon="12.536488792668731"><ele>54.0</ele><time>2026-04-06T08:18:00Z</time></trkpt><trkpt lat="41.86989357434788" lon="12.536646263981247"><ele>52.5</ele><time>2026-04-06T08:18:01Z</time></trkpt><trkpt lat="41.86980547098476" lon="12.536790436972009"><ele>51.0</ele><time>2026-04-06T08:18:02Z</time></trkpt><trkpt lat="41.86972188813212" lon="12.53692635146681"><ele>50.599999999999994</ele><time>2026-04-06T08:18:03Z</time></trkpt><trkpt lat="41.869646154613186" lon="12.537066111450773"><ele>50.2</ele><time>2026-04-06T08:18:04Z</time></trkpt><trkpt lat="41.869580633647" lon="12.537190304184216"><ele>49.8</ele><time>2026-04-06T08:18:05Z</time></trkpt><trkpt lat="41.86952423444975" lon="12.537286969545722"><ele>49.400000000000006</ele><time>2026-04-06T08:18:06Z</time></trkpt><trkpt lat="41.869479950289076" lon="12.53736875746393"><ele>49.0</ele><time>2026-04-06T08:18:07Z</time></trkpt><trkpt lat="41.86943065914453" lon="12.53742758672552"><ele>49.0</ele><time>2026-04-06T08:18:09Z</time></trkpt><trkpt lat="41.86934427460663" lon="12.537563709797219"><ele>49.0</ele><time>2026-04-06T08:19:03Z</time></trkpt><trkpt lat="41.86930155001278" lon="12.53763103418147"><ele>49.0</ele><time>2026-04-06T08:19:04Z</time></trkpt><trkpt lat="41.86925174830822" lon="12.537709510333075"><ele>49.0</ele><time>2026-04-06T08:19:06Z</time></trkpt><trkpt lat="41.86918339680624" lon="12.537818408921867"><ele>49.0</ele><time>2026-04-06T08:19:09Z</time></trkpt><trkpt lat="41.869127502327316" lon="12.537908590064145"><ele>49.6</ele><time>2026-04-06T08:19:11Z</time></trkpt><trkpt lat="41.8690813414454" lon="12.537983063249888"><ele>50.2</ele><time>2026-04-06T08:19:13Z</time></trkpt><trkpt lat="41.86916916865025" lon="12.538156635433587"><ele>50.800000000000004</ele><time>2026-04-06T08:19:15Z</time></trkpt><trkpt lat="41.86924959397502" lon="12.538226665239405"><ele>51.400000000000006</ele><time>2026-04-06T08:19:17Z</time></trkpt><trkpt lat="41.86928383302158" lon="12.53830612543847"><ele>52.0</ele><time>2026-04-06T08:19:18Z</time></trkpt><trkpt lat="41.8693394758332" lon="12.538358945233476"><ele>51.99999999999999</ele><time>2026-04-06T08:19:19Z</time></trkpt><trkpt lat="41.86939913830641" lon="12.538415577987994"><ele>52.0</ele><time>2026-04-06T08:19:20Z</time></trkpt><trkpt lat="41.86946850950844" lon="12.538498550203206"><ele>52.0</ele><time>2026-04-06T08:19:21Z</time></trkpt><trkpt lat="41.86953773903139" lon="12.538561146254388"><ele>52.0</ele><time>2026-04-06T08:19:22Z</time></trkpt><trkpt lat="41.869613322252235" lon="12.538632783256604"><ele>51.99999999999999</ele><time>2026-04-06T08:19:23Z</time></trkpt><trkpt lat="41.869689534688696" lon="12.538714804131654"><ele>52.0</ele><time>2026-04-06T08:19:24Z</time></trkpt><trkpt lat="41.86976741024255" lon="12.538792712959218"><ele>52.2</ele><time>2026-04-06T08:19:25Z</time></trkpt><trkpt lat="41.86984096666057" lon="12.538870157084444"><ele>52.400000000000006</ele><time>2026-04-06T08:19:26Z</time></trkpt><trkpt lat="41.86991783363707" lon="12.538944727687726"><ele>52.599999999999994</ele><time>2026-04-06T08:19:27Z</time></trkpt><trkpt lat="41.869997191972594" lon="12.539031014308554"><ele>52.8</ele><time>2026-04-06T08:19:28Z</time></trkpt><trkpt lat="41.87007572160414" lon="12.53910533216437"><ele>53.0</ele><time>2026-04-06T08:19:29Z</time></trkpt><trkpt lat="41.870158180968566" lon="12.539179635845567"><ele>53.0</ele><time>2026-04-06T08:19:30Z</time></trkpt><trkpt lat="41.87023573731897" lon="12.539261160481397"><ele>53.0</ele><time>2026-04-06T08:19:31Z</time></trkpt><trkpt lat="41.870310524611334" lon="12.539349374902356"><ele>53.0</ele><time>2026-04-06T08:19:32Z</time></trkpt><trkpt lat="41.870378971326524" lon="12.539423522875097"><ele>53.0</ele><time>2026-04-06T08:19:33Z</time></trkpt><trkpt lat="41.870446911109944" lon="12.539491494549893"><ele>53.0</ele><time>2026-04-06T08:19:34Z</time></trkpt><trkpt lat="41.87053961082694" lon="12.53961273525027"><ele>52.8</ele><time>2026-04-06T08:19:35Z</time></trkpt><trkpt lat="41.870618689497505" lon="12.53966437288944"><ele>52.599999999999994</ele><time>2026-04-06T08:19:36Z</time></trkpt><trkpt lat="41.870700840201415" lon="12.539742059921782"><ele>52.400000000000006</ele><time>2026-04-06T08:19:37Z</time></trkpt><trkpt lat="41.87078299194537" lon="12.539823650814094"><ele>52.2</ele><time>2026-04-06T08:19:38Z</time></trkpt><trkpt lat="41.87088119707676" lon="12.539920168428255"><ele>52.0</ele><time>2026-04-06T08:19:39Z</time></trkpt><trkpt lat="41.87099287311254" lon="12.540027981366563"><ele>52.0</ele><time>2026-04-06T08:19:40Z</time></trkpt><trkpt lat="41.87108860051742" lon="12.540126175169053"><ele>52.0</ele><time>2026-04-06T08:19:41Z</time></trkpt><trkpt lat="41.871179358076006" lon="12.540207767866393"><ele>52.0</ele><time>2026-04-06T08:19:42Z</time></trkpt><trkpt lat="41.87126267989696" lon="12.540287513909798"><ele>52.0</ele><time>2026-04-06T08:19:43Z</time></trkpt><trkpt lat="41.871337427407234" lon="12.540364128136519"><ele>52.0</ele><time>2026-04-06T08:19:44Z</time></trkpt><trkpt lat="41.87141774443653" lon="12.540431302569543"><ele>51.75</ele><time>2026-04-06T08:19:45Z</time></trkpt><trkpt lat="41.871538031005244" lon="12.540523605576904"><ele>51.5</ele><time>2026-04-06T08:19:46Z</time></trkpt><trkpt lat="41.87164401543059" lon="12.540593326628898"><ele>51.25</ele><time>2026-04-06T08:19:47Z</time></trkpt><trkpt lat="41.87175753070706" lon="12.540667010842855"><ele>51.0</ele><time>2026-04-06T08:19:48Z</time></trkpt><trkpt lat="41.87186807826945" lon="12.540719614628683"><ele>50.0</ele><time>2026-04-06T08:19:49Z</time></trkpt><trkpt lat="41.87197398579024" lon="12.540768372486534"><ele>49.0</ele><time>2026-04-06T08:19:50Z</time></trkpt><trkpt lat="41.87208718308494" lon="12.54080934891078"><ele>48.0</ele><time>2026-04-06T08:19:51Z</time></trkpt><trkpt lat="41.872200228539185" lon="12.540848577754725"><ele>47.0</ele><time>2026-04-06T08:19:52Z</time></trkpt><trkpt lat="41.87231960831324" lon="12.540874433929256"><ele>47.0</ele><time>2026-04-06T08:19:53Z</time></trkpt><trkpt lat="41.872439554305586" lon="12.540899748511746"><ele>47.0</ele><time>2026-04-06T08:19:54Z</time></trkpt><trkpt lat="41.87254865533556" lon="12.540920276295159"><ele>47.0</ele><time>2026-04-06T08:19:55Z</time></trkpt><trkpt lat="41.87266037166078" lon="12.540939992778465"><ele>47.0</ele><time>2026-04-06T08:19:56Z</time></trkpt><trkpt lat="41.87276530108413" lon="12.540958492473147"><ele>46.5</ele><time>2026-04-06T08:19:57Z</time></trkpt><trkpt lat="41.872862575515285" lon="12.540974650894164"><ele>46.0</ele><time>2026-04-06T08:19:58.001Z</time></trkpt><trkpt lat="41.87295128134436" lon="12.54098667933256"><ele>45.5</ele><time>2026-04-06T08:19:59Z</time></trkpt><trkpt lat="41.8730352432815" lon="12.541003301290589"><ele>45.0</ele><time>2026-04-06T08:20:00Z</time></trkpt><trkpt lat="41.87311155417366" lon="12.541017806107153"><ele>44.5</ele><time>2026-04-06T08:20:01Z</time></trkpt><trkpt lat="41.87317434776452" lon="12.541052980594742"><ele>44.0</ele><time>2026-04-06T08:20:02Z</time></trkpt><trkpt lat="41.87325892065795" lon="12.541090189958602"><ele>43.25</ele><time>2026-04-06T08:20:04Z</time></trkpt><trkpt lat="41.87325032289716" lon="12.54134393024633"><ele>42.5</ele><time>2026-04-06T08:20:05Z</time></trkpt><trkpt lat="41.87322969573314" lon="12.541462552153545"><ele>41.75</ele><time>2026-04-06T08:20:06Z</time></trkpt><trkpt lat="41.87320944156536" lon="12.541596334341522"><ele>41.0</ele><time>2026-04-06T08:20:07Z</time></trkpt><trkpt lat="41.87319084900725" lon="12.541766428572496"><ele>41.0</ele><time>2026-04-06T08:20:08Z</time></trkpt><trkpt lat="41.87317416463783" lon="12.54194036564954"><ele>41.0</ele><time>2026-04-06T08:20:09Z</time></trkpt><trkpt lat="41.87315562794622" lon="12.542089542719946"><ele>41.0</ele><time>2026-04-06T08:20:10Z</time></trkpt><trkpt lat="41.87314151675503" lon="12.54222080370397"><ele>41.0</ele><time>2026-04-06T08:20:11Z</time></trkpt><trkpt lat="41.873128197998234" lon="12.54234141949117"><ele>41.0</ele><time>2026-04-06T08:20:12Z</time></trkpt><trkpt lat="41.87312853826576" lon="12.542451176523715"><ele>40.8</ele><time>2026-04-06T08:20:13Z</time></trkpt><trkpt lat="41.87311993360373" lon="12.5425511282517"><ele>40.599999999999994</ele><time>2026-04-06T08:20:14Z</time></trkpt><trkpt lat="41.87311234778434" lon="12.542639245092971"><ele>40.4</ele><time>2026-04-06T08:20:15Z</time></trkpt><trkpt lat="41.87294585827443" lon="12.542690168170903"><ele>40.2</ele><time>2026-04-06T08:20:16Z</time></trkpt><trkpt lat="41.87285812457424" lon="12.542759601728386"><ele>40.0</ele><time>2026-04-06T08:20:17Z</time></trkpt><trkpt lat="41.87277217453689" lon="12.5428409052925"><ele>40.0</ele><time>2026-04-06T08:20:18Z</time></trkpt><trkpt lat="41.872675611392445" lon="12.54295632629017"><ele>40.0</ele><time>2026-04-06T08:20:19Z</time></trkpt><trkpt lat="41.87258157283444" lon="12.54309111387021"><ele>40.0</ele><time>2026-04-06T08:20:20Z</time></trkpt><trkpt lat="41.87249711386933" lon="12.543201217684956"><ele>40.0</ele><time>2026-04-06T08:20:21Z</time></trkpt><trkpt lat="41.87242328792264" lon="12.543307378336937"><ele>40.0</ele><time>2026-04-06T08:20:22Z</time></trkpt><trkpt lat="41.872373134933255" lon="12.543429839005222"><ele>40.0</ele><time>2026-04-06T08:20:23Z</time></trkpt><trkpt lat="41.87235240992336" lon="12.543575280852178"><ele>40.0</ele><time>2026-04-06T08:20:24Z</time></trkpt><trkpt lat="41.87234927902534" lon="12.543739777667684"><ele>40.0</ele><time>2026-04-06T08:20:25Z</time></trkpt><trkpt lat="41.87236049191682" lon="12.54391623098891"><ele>40.0</ele><time>2026-04-06T08:20:26Z</time></trkpt><trkpt lat="41.87237035132387" lon="12.544090346715395"><ele>40.0</ele><time>2026-04-06T08:20:27Z</time></trkpt><trkpt lat="41.8723861856721" lon="12.544254413143653"><ele>40.0</ele><time>2026-04-06T08:20:28Z</time></trkpt><trkpt lat="41.87240322651977" lon="12.544424340793045"><ele>40.0</ele><time>2026-04-06T08:20:29Z</time></trkpt><trkpt lat="41.87241138851253" lon="12.544584351936384"><ele>40.4</ele><time>2026-04-06T08:20:30Z</time></trkpt><trkpt lat="41.872416746295166" lon="12.54472825467457"><ele>40.8</ele><time>2026-04-06T08:20:31Z</time></trkpt><trkpt lat="41.872430669341966" lon="12.5448584438968"><ele>41.2</ele><time>2026-04-06T08:20:32Z</time></trkpt><trkpt lat="41.87244537821548" lon="12.544968155511283"><ele>41.6</ele><time>2026-04-06T08:20:33Z</time></trkpt><trkpt lat="41.87245449789324" lon="12.545054722804565"><ele>42.0</ele><time>2026-04-06T08:20:34Z</time></trkpt><trkpt lat="41.872438365562864" lon="12.545182220347836"><ele>42.0</ele><time>2026-04-06T08:20:36Z</time></trkpt><trkpt lat="41.87232222429141" lon="12.545221441938969"><ele>42.0</ele><time>2026-04-06T08:20:38Z</time></trkpt><trkpt lat="41.8722319975971" lon="12.545226635038288"><ele>42.0</ele><time>2026-04-06T08:20:39Z</time></trkpt><trkpt lat="41.87214501523916" lon="12.545232409593979"><ele>42.0</ele><time>2026-04-06T08:20:40Z</time></trkpt><trkpt lat="41.87207285582567" lon="12.545240075753993"><ele>42.0</ele><time>2026-04-06T08:20:41Z</time></trkpt><trkpt lat="41.872005251438516" lon="12.545250308521348"><ele>42.0</ele><time>2026-04-06T08:20:42Z</time></trkpt><trkpt lat="41.87192315244745" lon="12.54526314692984"><ele>42.0</ele><time>2026-04-06T08:20:43Z</time></trkpt><trkpt lat="41.871846300341154" lon="12.545273388927248"><ele>42.0</ele><time>2026-04-06T08:20:44Z</time></trkpt><trkpt lat="41.87177814457655" lon="12.545284255724846"><ele>42.0</ele><time>2026-04-06T08:20:45Z</time></trkpt><trkpt lat="41.87170825773345" lon="12.54529823710739"><ele>42.0</ele><time>2026-04-06T08:20:46Z</time></trkpt><trkpt lat="41.871612733550144" lon="12.545310808692077"><ele>42.0</ele><time>2026-04-06T08:20:47Z</time></trkpt><trkpt lat="41.871525932573626" lon="12.545320238565525"><ele>42.0</ele><time>2026-04-06T08:20:48Z</time></trkpt><trkpt lat="41.871435174255495" lon="12.545332956990576"><ele>41.8</ele><time>2026-04-06T08:20:49Z</time></trkpt><trkpt lat="41.87133943561688" lon="12.545352179285569"><ele>41.6</ele><time>2026-04-06T08:20:50Z</time></trkpt><trkpt lat="41.871242990679875" lon="12.545372243837171"><ele>41.4</ele><time>2026-04-06T08:20:51Z</time></trkpt><trkpt lat="41.87113656819674" lon="12.54538928939089"><ele>41.199999999999996</ele><time>2026-04-06T08:20:52Z</time></trkpt><trkpt lat="41.871041788766156" lon="12.545398465649322"><ele>41.0</ele><time>2026-04-06T08:20:53Z</time></trkpt><trkpt lat="41.87096793258151" lon="12.545405538344044"><ele>40.8</ele><time>2026-04-06T08:20:54Z</time></trkpt><trkpt lat="41.87090351090092" lon="12.545410695747517"><ele>40.599999999999994</ele><time>2026-04-06T08:20:55Z</time></trkpt><trkpt lat="41.87079456446874" lon="12.545417899680324"><ele>40.4</ele><time>2026-04-06T08:20:57Z</time></trkpt><trkpt lat="41.87069742290338" lon="12.545440223407516"><ele>40.2</ele><time>2026-04-06T08:20:59Z</time></trkpt><trkpt lat="41.870627576888076" lon="12.545425736371044"><ele>40.0</ele><time>2026-04-06T08:21:01Z</time></trkpt><trkpt lat="41.87051320971832" lon="12.545445329491814"><ele>40.0</ele><time>2026-04-06T08:21:03Z</time></trkpt><trkpt lat="41.870435514575576" lon="12.545483424742395"><ele>40.0</ele><time>2026-04-06T08:21:04Z</time></trkpt><trkpt lat="41.870339191050626" lon="12.545532117862328"><ele>40.0</ele><time>2026-04-06T08:21:05Z</time></trkpt><trkpt lat="41.870252059458835" lon="12.545571375873273"><ele>40.0</ele><time>2026-04-06T08:21:06Z</time></trkpt><trkpt lat="41.87016802351062" lon="12.545608028302457"><ele>40.0</ele><time>2026-04-06T08:21:07Z</time></trkpt><trkpt lat="41.87006991822329" lon="12.545650988215677"><ele>40.6</ele><time>2026-04-06T08:21:08Z</time></trkpt><trkpt lat="41.869984433839086" lon="12.545692559238255"><ele>41.2</ele><time>2026-04-06T08:21:09Z</time></trkpt><trkpt lat="41.869902706123355" lon="12.545731627877425"><ele>41.8</ele><time>2026-04-06T08:21:10Z</time></trkpt><trkpt lat="41.869813711033984" lon="12.54576926219169"><ele>42.4</ele><time>2026-04-06T08:21:11Z</time></trkpt><trkpt lat="41.86972131418406" lon="12.545808792226671"><ele>43.0</ele><time>2026-04-06T08:21:12Z</time></trkpt><trkpt lat="41.86963305462413" lon="12.545845779205106"><ele>43.0</ele><time>2026-04-06T08:21:13Z</time></trkpt><trkpt lat="41.8695493409883" lon="12.545877913159636"><ele>43.0</ele><time>2026-04-06T08:21:14Z</time></trkpt><trkpt lat="41.86946923542033" lon="12.545930824027566"><ele>43.0</ele><time>2026-04-06T08:21:15Z</time></trkpt><trkpt lat="41.86938423441064" lon="12.54597172012749"><ele>43.0</ele><time>2026-04-06T08:21:16Z</time></trkpt><trkpt lat="41.869281884167094" lon="12.546003083488827"><ele>43.0</ele><time>2026-04-06T08:21:17Z</time></trkpt><trkpt lat="41.86917067875623" lon="12.546060624251623"><ele>42.66666666666667</ele><time>2026-04-06T08:21:18Z</time></trkpt><trkpt lat="41.86906641716395" lon="12.546103593984517"><ele>42.333333333333336</ele><time>2026-04-06T08:21:19Z</time></trkpt><trkpt lat="41.8689789634918" lon="12.546138914442718"><ele>42.0</ele><time>2026-04-06T08:21:20Z</time></trkpt><trkpt lat="41.86889616742916" lon="12.546172403970496"><ele>41.666666666666664</ele><time>2026-04-06T08:21:21Z</time></trkpt><trkpt lat="41.86882362899381" lon="12.546201200874254"><ele>41.33333333333333</ele><time>2026-04-06T08:21:22Z</time></trkpt><trkpt lat="41.86876121037748" lon="12.546232569807215"><ele>41.0</ele><time>2026-04-06T08:21:23Z</time></trkpt><trkpt lat="41.868649482804386" lon="12.546278454439333"><ele>41.0</ele><time>2026-04-06T08:21:25Z</time></trkpt><trkpt lat="41.86854239220823" lon="12.546269951068219"><ele>41.0</ele><time>2026-04-06T08:21:27Z</time></trkpt><trkpt lat="41.868472801581426" lon="12.546263785595254"><ele>41.0</ele><time>2026-04-06T08:21:32Z</time></trkpt><trkpt lat="41.868385323678005" lon="12.546261179460863"><ele>41.0</ele><time>2026-04-06T08:21:36Z</time></trkpt><trkpt lat="41.86825807175828" lon="12.54628211543351"><ele>41.0</ele><time>2026-04-06T08:21:38Z</time></trkpt><trkpt lat="41.86816001552459" lon="12.54630412345517"><ele>41.0</ele><time>2026-04-06T08:21:39Z</time></trkpt><trkpt lat="41.8680682447158" lon="12.546319384974428"><ele>41.0</ele><time>2026-04-06T08:21:40Z</time></trkpt><trkpt lat="41.86797881030078" lon="12.546334313248648"><ele>41.0</ele><time>2026-04-06T08:21:41Z</time></trkpt><trkpt lat="41.867888036862816" lon="12.546349367643016"><ele>41.0</ele><time>2026-04-06T08:21:42Z</time></trkpt><trkpt lat="41.867803417327224" lon="12.546366281178214"><ele>41.0</ele><time>2026-04-06T08:21:43Z</time></trkpt><trkpt lat="41.86771439243679" lon="12.546383695311947"><ele>41.0</ele><time>2026-04-06T08:21:44Z</time></trkpt><trkpt lat="41.86762842273294" lon="12.546404274048506"><ele>41.0</ele><time>2026-04-06T08:21:45Z</time></trkpt><trkpt lat="41.86755226489386" lon="12.546420712773518"><ele>41.0</ele><time>2026-04-06T08:21:46Z</time></trkpt><trkpt lat="41.86746183469248" lon="12.54643736612292"><ele>41.0</ele><time>2026-04-06T08:21:47Z</time></trkpt><trkpt lat="41.86736137778454" lon="12.546447962048003"><ele>41.0</ele><time>2026-04-06T08:21:48Z</time></trkpt><trkpt lat="41.867276411890444" lon="12.54646426533145"><ele>41.0</ele><time>2026-04-06T08:21:49Z</time></trkpt><trkpt lat="41.867190569613236" lon="12.546501278136057"><ele>41.199999999999996</ele><time>2026-04-06T08:21:50Z</time></trkpt><trkpt lat="41.86708812463513" lon="12.546527747394917"><ele>41.4</ele><time>2026-04-06T08:21:51Z</time></trkpt><trkpt lat="41.86700852914303" lon="12.546519946531516"><ele>41.6</ele><time>2026-04-06T08:21:52Z</time></trkpt><trkpt lat="41.86691775563897" lon="12.546551245831855"><ele>41.8</ele><time>2026-04-06T08:21:53Z</time></trkpt><trkpt lat="41.86682698784298" lon="12.546569657903742"><ele>42.0</ele><time>2026-04-06T08:21:54Z</time></trkpt><trkpt lat="41.86673669660221" lon="12.546580469516122"><ele>42.5</ele><time>2026-04-06T08:21:55Z</time></trkpt><trkpt lat="41.866650591779866" lon="12.54659377702634"><ele>43.0</ele><time>2026-04-06T08:21:56Z</time></trkpt><trkpt lat="41.86657639944595" lon="12.5466091800715"><ele>43.5</ele><time>2026-04-06T08:21:57Z</time></trkpt><trkpt lat="41.86647096601102" lon="12.546617560719834"><ele>44.0</ele><time>2026-04-06T08:21:59Z</time></trkpt><trkpt lat="41.86640751446095" lon="12.546642372340983"><ele>44.5</ele><time>2026-04-06T08:22:01Z</time></trkpt><trkpt lat="41.8664226272484" lon="12.546783737444825"><ele>45.0</ele><time>2026-04-06T08:22:03Z</time></trkpt><trkpt lat="41.86644996388203" lon="12.546869351732738"><ele>45.0</ele><time>2026-04-06T08:22:04.001Z</time></trkpt><trkpt lat="41.866466734072404" lon="12.547022372303495"><ele>45.0</ele><time>2026-04-06T08:22:06Z</time></trkpt><trkpt lat="41.86649815926628" lon="12.5471695867699"><ele>45.0</ele><time>2026-04-06T08:22:08Z</time></trkpt><trkpt lat="41.86651512542599" lon="12.54726488045554"><ele>45.0</ele><time>2026-04-06T08:22:09Z</time></trkpt><trkpt lat="41.86653242800815" lon="12.54735506893038"><ele>45.0</ele><time>2026-04-06T08:22:10Z</time></trkpt><trkpt lat="41.86655002966519" lon="12.54744353655258"><ele>45.0</ele><time>2026-04-06T08:22:11Z</time></trkpt><trkpt lat="41.866566965329625" lon="12.547525198973226"><ele>45.333333333333336</ele><time>2026-04-06T08:22:12Z</time></trkpt><trkpt lat="41.866579466780486" lon="12.547614368997994"><ele>45.666666666666664</ele><time>2026-04-06T08:22:13Z</time></trkpt><trkpt lat="41.86659061822256" lon="12.547727735240178"><ele>46.0</ele><time>2026-04-06T08:22:14Z</time></trkpt><trkpt lat="41.86660604715386" lon="12.547853880483066"><ele>46.33333333333333</ele><time>2026-04-06T08:22:15Z</time></trkpt><trkpt lat="41.866610279360344" lon="12.547967355797587"><ele>46.666666666666664</ele><time>2026-04-06T08:22:16Z</time></trkpt><trkpt lat="41.86661710098022" lon="12.548069858186755"><ele>47.0</ele><time>2026-04-06T08:22:17Z</time></trkpt><trkpt lat="41.86664425568041" lon="12.548210367411437"><ele>47.0</ele><time>2026-04-06T08:22:19Z</time></trkpt><trkpt lat="41.86666305801721" lon="12.548355654203515"><ele>47.0</ele><time>2026-04-06T08:22:21Z</time></trkpt><trkpt lat="41.86666782329936" lon="12.548453493166617"><ele>47.0</ele><time>2026-04-06T08:22:26Z</time></trkpt><trkpt lat="41.86649720360809" lon="12.548479785105714"><ele>47.0</ele><time>2026-04-06T08:22:30Z</time></trkpt><trkpt lat="41.866378498825306" lon="12.548487135021498"><ele>47.0</ele><time>2026-04-06T08:22:32Z</time></trkpt><trkpt lat="41.8662774056765" lon="12.548482077343804"><ele>47.0</ele><time>2026-04-06T08:22:34Z</time></trkpt><trkpt lat="41.86621440366037" lon="12.548466114694603"><ele>47.0</ele><time>2026-04-06T08:22:37Z</time></trkpt><trkpt lat="41.86614442000669" lon="12.548457549147162"><ele>47.0</ele><time>2026-04-06T08:22:41Z</time></trkpt><trkpt lat="41.866080092587595" lon="12.548444265875599"><ele>47.0</ele><time>2026-04-06T08:22:42Z</time></trkpt><trkpt lat="41.86600548958058" lon="12.548418523793075"><ele>47.0</ele><time>2026-04-06T08:22:43Z</time></trkpt><trkpt lat="41.86593166876154" lon="12.548393440352168"><ele>46.83333333333333</ele><time>2026-04-06T08:22:44Z</time></trkpt><trkpt lat="41.865860562874296" lon="12.548369269816185"><ele>46.666666666666664</ele><time>2026-04-06T08:22:45Z</time></trkpt><trkpt lat="41.86578214930174" lon="12.548341710505657"><ele>46.5</ele><time>2026-04-06T08:22:46Z</time></trkpt><trkpt lat="41.86570808075961" lon="12.548314394155133"><ele>46.333333333333336</ele><time>2026-04-06T08:22:47Z</time></trkpt><trkpt lat="41.86563749820852" lon="12.548289778166932"><ele>46.16666666666667</ele><time>2026-04-06T08:22:48Z</time></trkpt><trkpt lat="41.86557343377385" lon="12.548270306688341"><ele>46.0</ele><time>2026-04-06T08:22:49Z</time></trkpt><trkpt lat="41.86544273452673" lon="12.548228926486374"><ele>46.0</ele><time>2026-04-06T08:22:51Z</time></trkpt><trkpt lat="41.86536788521312" lon="12.548196239277837"><ele>46.0</ele><time>2026-04-06T08:22:52Z</time></trkpt><trkpt lat="41.865285556363645" lon="12.548158482318238"><ele>46.0</ele><time>2026-04-06T08:22:53Z</time></trkpt><trkpt lat="41.86520268802206" lon="12.548113964900022"><ele>46.0</ele><time>2026-04-06T08:22:54Z</time></trkpt><trkpt lat="41.865124584202036" lon="12.548060262822872"><ele>46.0</ele><time>2026-04-06T08:22:55Z</time></trkpt><trkpt lat="41.865051635554224" lon="12.548004451814826"><ele>46.0</ele><time>2026-04-06T08:22:56Z</time></trkpt><trkpt lat="41.86497585256513" lon="12.547945817264361"><ele>46.16666666666667</ele><time>2026-04-06T08:22:57Z</time></trkpt><trkpt lat="41.86490003312704" lon="12.547879058114104"><ele>46.333333333333336</ele><time>2026-04-06T08:22:58Z</time></trkpt><trkpt lat="41.864823808283305" lon="12.547809777186965"><ele>46.5</ele><time>2026-04-06T08:22:59Z</time></trkpt><trkpt lat="41.86474333755291" lon="12.547744536202039"><ele>46.666666666666664</ele><time>2026-04-06T08:23:00Z</time></trkpt><trkpt lat="41.864668241677236" lon="12.547676717943123"><ele>46.83333333333333</ele><time>2026-04-06T08:23:01Z</time></trkpt><trkpt lat="41.86460733282233" lon="12.547614137639034"><ele>47.0</ele><time>2026-04-06T08:23:02Z</time></trkpt><trkpt lat="41.864549801132355" lon="12.547562038888053"><ele>47.0</ele><time>2026-04-06T08:23:03Z</time></trkpt><trkpt lat="41.86446452438823" lon="12.547483071250873"><ele>47.0</ele><time>2026-04-06T08:23:05Z</time></trkpt><trkpt lat="41.864393076123385" lon="12.547446292817826"><ele>47.0</ele><time>2026-04-06T08:23:07Z</time></trkpt><trkpt lat="41.864347662065555" lon="12.547536401549715"><ele>47.0</ele><time>2026-04-06T08:23:09Z</time></trkpt><trkpt lat="41.864325809033005" lon="12.547675339818756"><ele>47.0</ele><time>2026-04-06T08:23:11Z</time></trkpt><trkpt lat="41.86436940359035" lon="12.547779726330404"><ele>47.0</ele><time>2026-04-06T08:23:12Z</time></trkpt><trkpt lat="41.86438435268094" lon="12.54786791581109"><ele>47.0</ele><time>2026-04-06T08:23:13Z</time></trkpt><trkpt lat="41.86439665835363" lon="12.547969986704263"><ele>47.0</ele><time>2026-04-06T08:23:14Z</time></trkpt><trkpt lat="41.864417252804536" lon="12.548114362546114"><ele>47.0</ele><time>2026-04-06T08:23:15Z</time></trkpt><trkpt lat="41.86443146742345" lon="12.548253373308151"><ele>47.0</ele><time>2026-04-06T08:23:16Z</time></trkpt><trkpt lat="41.86444932783749" lon="12.548393843288828"><ele>47.400000000000006</ele><time>2026-04-06T08:23:17Z</time></trkpt><trkpt lat="41.864466130044114" lon="12.548528349256472"><ele>47.800000000000004</ele><time>2026-04-06T08:23:18Z</time></trkpt><trkpt lat="41.86447940530968" lon="12.548661544076023"><ele>48.2</ele><time>2026-04-06T08:23:19Z</time></trkpt><trkpt lat="41.86449319867912" lon="12.548782533031215"><ele>48.6</ele><time>2026-04-06T08:23:20Z</time></trkpt><trkpt lat="41.86450968468476" lon="12.548906225371464"><ele>49.0</ele><time>2026-04-06T08:23:21Z</time></trkpt><trkpt lat="41.864537026495874" lon="12.549041296063994"><ele>49.25</ele><time>2026-04-06T08:23:22Z</time></trkpt><trkpt lat="41.8645533600099" lon="12.549189779120919"><ele>49.5</ele><time>2026-04-06T08:23:23Z</time></trkpt><trkpt lat="41.86461023326242" lon="12.549318180907903"><ele>49.75</ele><time>2026-04-06T08:23:24Z</time></trkpt><trkpt lat="41.86466014117292" lon="12.549516627198324"><ele>50.0</ele><time>2026-04-06T08:23:26Z</time></trkpt><trkpt lat="41.8646908150742" lon="12.549616805346973"><ele>50.00000000000001</ele><time>2026-04-06T08:23:27Z</time></trkpt><trkpt lat="41.86471387981867" lon="12.549701581966874"><ele>50.0</ele><time>2026-04-06T08:23:28Z</time></trkpt><trkpt lat="41.86476879510689" lon="12.549782537859771"><ele>50.0</ele><time>2026-04-06T08:23:30Z</time></trkpt><trkpt lat="41.86471897814184" lon="12.549900328070953"><ele>50.0</ele><time>2026-04-06T08:23:31Z</time></trkpt><trkpt lat="41.86469541444549" lon="12.54998160185749"><ele>50.00000000000001</ele><time>2026-04-06T08:23:32Z</time></trkpt><trkpt lat="41.864665429068985" lon="12.550059229816119"><ele>50.0</ele><time>2026-04-06T08:23:33Z</time></trkpt><trkpt lat="41.86461429660646" lon="12.550182708690523"><ele>50.0</ele><time>2026-04-06T08:23:35Z</time></trkpt><trkpt lat="41.864578497461416" lon="12.55028853167389"><ele>50.0</ele><time>2026-04-06T08:23:37Z</time></trkpt><trkpt lat="41.86454272032212" lon="12.550398077545864"><ele>50.0</ele><time>2026-04-06T08:23:40Z</time></trkpt><trkpt lat="41.86461684253416" lon="12.550553210883736"><ele>50.0</ele><time>2026-04-06T08:23:44Z</time></trkpt><trkpt lat="41.864678495033445" lon="12.55057474257974"><ele>50.0</ele><time>2026-04-06T08:23:48Z</time></trkpt><trkpt lat="41.86463762059726" lon="12.550820389887525"><ele>50.5</ele><time>2026-04-06T08:23:55Z</time></trkpt><trkpt lat="41.86457495342938" lon="12.550950450937332"><ele>51.0</ele><time>2026-04-06T08:23:56Z</time></trkpt><trkpt lat="41.86450157900559" lon="12.551145434789326"><ele>51.5</ele><time>2026-04-06T08:23:57Z</time></trkpt><trkpt lat="41.8644514431678" lon="12.551279360739148"><ele>52.0</ele><time>2026-04-06T08:23:58Z</time></trkpt><trkpt lat="41.86440631265705" lon="12.551398060367442"><ele>53.0</ele><time>2026-04-06T08:23:59Z</time></trkpt><trkpt lat="41.86436633936636" lon="12.551512961487763"><ele>54.0</ele><time>2026-04-06T08:24:00Z</time></trkpt><trkpt lat="41.8643162405974" lon="12.551653151773559"><ele>55.0</ele><time>2026-04-06T08:24:01Z</time></trkpt><trkpt lat="41.86425395839663" lon="12.55182319664737"><ele>56.0</ele><time>2026-04-06T08:24:02Z</time></trkpt><trkpt lat="41.86419235538278" lon="12.551966004059386"><ele>56.5</ele><time>2026-04-06T08:24:03Z</time></trkpt><trkpt lat="41.864133146402196" lon="12.552098878932501"><ele>57.0</ele><time>2026-04-06T08:24:04Z</time></trkpt><trkpt lat="41.86407815204564" lon="12.552228592224033"><ele>57.5</ele><time>2026-04-06T08:24:05Z</time></trkpt><trkpt lat="41.864025110585395" lon="12.552362999678751"><ele>58.0</ele><time>2026-04-06T08:24:06Z</time></trkpt><trkpt lat="41.86397262373705" lon="12.552494765428676"><ele>57.99999999999999</ele><time>2026-04-06T08:24:07Z</time></trkpt><trkpt lat="41.86392229439551" lon="12.552618314901233"><ele>58.0</ele><time>2026-04-06T08:24:08Z</time></trkpt><trkpt lat="41.86388010561988" lon="12.552731792321769"><ele>58.0</ele><time>2026-04-06T08:24:09Z</time></trkpt><trkpt lat="41.86384004415244" lon="12.55283720261947"><ele>58.0</ele><time>2026-04-06T08:24:10Z</time></trkpt><trkpt lat="41.86380279031886" lon="12.552931848160304"><ele>57.99999999999999</ele><time>2026-04-06T08:24:11Z</time></trkpt><trkpt lat="41.86376858412715" lon="12.55302025530262"><ele>58.0</ele><time>2026-04-06T08:24:12Z</time></trkpt><trkpt lat="41.86371200730524" lon="12.553161297718178"><ele>57.49999999999999</ele><time>2026-04-06T08:24:14Z</time></trkpt><trkpt lat="41.863663484950884" lon="12.553279741018107"><ele>57.0</ele><time>2026-04-06T08:24:16Z</time></trkpt><trkpt lat="41.863624010186626" lon="12.553380575166226"><ele>56.5</ele><time>2026-04-06T08:24:18Z</time></trkpt><trkpt lat="41.863587432196454" lon="12.553449659009475"><ele>56.0</ele><time>2026-04-06T08:24:39Z</time></trkpt><trkpt lat="41.86354356936296" lon="12.553558425399533"><ele>55.49999999999999</ele><time>2026-04-06T08:24:41Z</time></trkpt><trkpt lat="41.86349438922728" lon="12.553682672524088"><ele>55.0</ele><time>2026-04-06T08:24:43Z</time></trkpt><trkpt lat="41.86346791471585" lon="12.553771175654028"><ele>54.99999999999999</ele><time>2026-04-06T08:24:44Z</time></trkpt><trkpt lat="41.863431877257334" lon="12.553890395323885"><ele>55.0</ele><time>2026-04-06T08:24:46Z</time></trkpt><trkpt lat="41.86350065156099" lon="12.553946769473708"><ele>55.0</ele><time>2026-04-06T08:24:48Z</time></trkpt><trkpt lat="41.86355579782859" lon="12.553999981044669"><ele>55.0</ele><time>2026-04-06T08:25:19Z</time></trkpt><trkpt lat="41.86362714769844" lon="12.554050610297178"><ele>54.99999999999999</ele><time>2026-04-06T08:25:20Z</time></trkpt><trkpt lat="41.86372116046407" lon="12.554110085051411"><ele>55.0</ele><time>2026-04-06T08:25:21Z</time></trkpt><trkpt lat="41.86380021504874" lon="12.554162638128506"><ele>55.0</ele><time>2026-04-06T08:25:22Z</time></trkpt><trkpt lat="41.86388440288833" lon="12.55421065065019"><ele>55.0</ele><time>2026-04-06T08:25:23Z</time></trkpt><trkpt lat="41.863974068321866" lon="12.554263031595028"><ele>55.0</ele><time>2026-04-06T08:25:24Z</time></trkpt><trkpt lat="41.8640726380666" lon="12.554317315284962"><ele>55.0</ele><time>2026-04-06T08:25:25Z</time></trkpt><trkpt lat="41.86417155700232" lon="12.554371316486092"><ele>55.0</ele><time>2026-04-06T08:25:26Z</time></trkpt><trkpt lat="41.86426056784789" lon="12.554426798727174"><ele>55.666666666666664</ele><time>2026-04-06T08:25:27Z</time></trkpt><trkpt lat="41.86434572698863" lon="12.554478977598187"><ele>56.33333333333333</ele><time>2026-04-06T08:25:28Z</time></trkpt><trkpt lat="41.86441625184969" lon="12.554518793002586"><ele>57.0</ele><time>2026-04-06T08:25:29Z</time></trkpt><trkpt lat="41.864485470265215" lon="12.55455590930631"><ele>57.66666666666667</ele><time>2026-04-06T08:25:30Z</time></trkpt><trkpt lat="41.86457599699759" lon="12.55460604972129"><ele>58.333333333333336</ele><time>2026-04-06T08:25:31Z</time></trkpt><trkpt lat="41.86467037688673" lon="12.554653380167085"><ele>59.0</ele><time>2026-04-06T08:25:32Z</time></trkpt><trkpt lat="41.86477427159485" lon="12.554702604618988"><ele>59.50000000000001</ele><time>2026-04-06T08:25:33Z</time></trkpt><trkpt lat="41.864863999084946" lon="12.554746426251667"><ele>60.0</ele><time>2026-04-06T08:25:34Z</time></trkpt><trkpt lat="41.86493498540594" lon="12.554795449197622"><ele>60.5</ele><time>2026-04-06T08:25:35Z</time></trkpt><trkpt lat="41.86499607896041" lon="12.554836469665622"><ele>61.0</ele><time>2026-04-06T08:25:36Z</time></trkpt><trkpt lat="41.86506269123049" lon="12.554896152510782"><ele>61.50000000000001</ele><time>2026-04-06T08:25:38Z</time></trkpt><trkpt lat="41.865121546684755" lon="12.554944572861118"><ele>62.0</ele><time>2026-04-06T08:26:00Z</time></trkpt><trkpt lat="41.865203518364446" lon="12.554994236207875"><ele>62.0</ele><time>2026-04-06T08:26:02Z</time></trkpt><trkpt lat="41.86514454899952" lon="12.555208747627143"><ele>62.0</ele><time>2026-04-06T08:26:03Z</time></trkpt><trkpt lat="41.86510330092167" lon="12.555351445252567"><ele>62.0</ele><time>2026-04-06T08:26:04Z</time></trkpt><trkpt lat="41.86506090962641" lon="12.555481936461414"><ele>62.0</ele><time>2026-04-06T08:26:05Z</time></trkpt><trkpt lat="41.86502056742579" lon="12.555595829901026"><ele>61.8</ele><time>2026-04-06T08:26:06Z</time></trkpt><trkpt lat="41.86499638934882" lon="12.555732094002972"><ele>61.6</ele><time>2026-04-06T08:26:07Z</time></trkpt><trkpt lat="41.864961668997196" lon="12.555858640569108"><ele>61.39999999999999</ele><time>2026-04-06T08:26:08Z</time></trkpt><trkpt lat="41.864920179727015" lon="12.55600003112855"><ele>61.199999999999996</ele><time>2026-04-06T08:26:09Z</time></trkpt><trkpt lat="41.864879148409855" lon="12.556122142379717"><ele>61.0</ele><time>2026-04-06T08:26:10Z</time></trkpt><trkpt lat="41.86483589003836" lon="12.55627150124199"><ele>60.25</ele><time>2026-04-06T08:26:11Z</time></trkpt><trkpt lat="41.864797987570654" lon="12.556437652759815"><ele>59.5</ele><time>2026-04-06T08:26:12Z</time></trkpt><trkpt lat="41.86475290087293" lon="12.556591813457374"><ele>58.75</ele><time>2026-04-06T08:26:13Z</time></trkpt><trkpt lat="41.86470920984927" lon="12.556740933208504"><ele>58.0</ele><time>2026-04-06T08:26:14Z</time></trkpt><trkpt lat="41.864665011568924" lon="12.556896262737217"><ele>57.5</ele><time>2026-04-06T08:26:15Z</time></trkpt><trkpt lat="41.86462178367855" lon="12.557058854516795"><ele>57.0</ele><time>2026-04-06T08:26:16Z</time></trkpt><trkpt lat="41.86457742256543" lon="12.557220316594051"><ele>56.5</ele><time>2026-04-06T08:26:17Z</time></trkpt><trkpt lat="41.864532145241625" lon="12.55737735946444"><ele>56.0</ele><time>2026-04-06T08:26:18Z</time></trkpt><trkpt lat="41.86448611723887" lon="12.557536803190594"><ele>56.0</ele><time>2026-04-06T08:26:19Z</time></trkpt><trkpt lat="41.86444072733824" lon="12.557698408424379"><ele>56.0</ele><time>2026-04-06T08:26:20Z</time></trkpt><trkpt lat="41.86439690227395" lon="12.557865269613814"><ele>56.0</ele><time>2026-04-06T08:26:21Z</time></trkpt><trkpt lat="41.864350750909786" lon="12.558036241776813"><ele>56.0</ele><time>2026-04-06T08:26:22Z</time></trkpt><trkpt lat="41.86430780000018" lon="12.558207049269885"><ele>57.0</ele><time>2026-04-06T08:26:23Z</time></trkpt><trkpt lat="41.86425586099607" lon="12.55838584757637"><ele>58.0</ele><time>2026-04-06T08:26:24Z</time></trkpt><trkpt lat="41.864188866490714" lon="12.558602544274555"><ele>59.0</ele><time>2026-04-06T08:26:25Z</time></trkpt><trkpt lat="41.86413707051932" lon="12.558798555747677"><ele>59.0</ele><time>2026-04-06T08:26:26Z</time></trkpt><trkpt lat="41.86408598784664" lon="12.558976651545356"><ele>59.0</ele><time>2026-04-06T08:26:27Z</time></trkpt><trkpt lat="41.864041385694506" lon="12.55914355353241"><ele>59.0</ele><time>2026-04-06T08:26:28Z</time></trkpt><trkpt lat="41.86400438186847" lon="12.559290227751811"><ele>59.0</ele><time>2026-04-06T08:26:29Z</time></trkpt><trkpt lat="41.863970093737024" lon="12.559421771014241"><ele>58.833333333333336</ele><time>2026-04-06T08:26:30Z</time></trkpt><trkpt lat="41.863951784296546" lon="12.55954879672278"><ele>58.66666666666667</ele><time>2026-04-06T08:26:31Z</time></trkpt><trkpt lat="41.8639340569635" lon="12.559649651609211"><ele>58.5</ele><time>2026-04-06T08:26:32Z</time></trkpt><trkpt lat="41.863905141136776" lon="12.559727109001335"><ele>58.33333333333333</ele><time>2026-04-06T08:26:34Z</time></trkpt><trkpt lat="41.86387395913415" lon="12.55986474573134"><ele>58.166666666666664</ele><time>2026-04-06T08:26:38Z</time></trkpt><trkpt lat="41.86384724445753" lon="12.559941933992596"><ele>58.0</ele><time>2026-04-06T08:26:39Z</time></trkpt><trkpt lat="41.86381085847324" lon="12.560051155243078"><ele>58.0</ele><time>2026-04-06T08:26:40Z</time></trkpt><trkpt lat="41.86376923225684" lon="12.560198721233805"><ele>58.0</ele><time>2026-04-06T08:26:41Z</time></trkpt><trkpt lat="41.86373748441915" lon="12.560345491321213"><ele>58.0</ele><time>2026-04-06T08:26:42Z</time></trkpt><trkpt lat="41.86368821913271" lon="12.560522111318756"><ele>58.0</ele><time>2026-04-06T08:26:43Z</time></trkpt><trkpt lat="41.86363604849193" lon="12.560668468632034"><ele>58.25</ele><time>2026-04-06T08:26:44Z</time></trkpt><trkpt lat="41.863595649661065" lon="12.560839832793496"><ele>58.5</ele><time>2026-04-06T08:26:45Z</time></trkpt><trkpt lat="41.863554742817435" lon="12.56101594132451"><ele>58.75</ele><time>2026-04-06T08:26:46Z</time></trkpt><trkpt lat="41.86350312058054" lon="12.561171164626161"><ele>59.0</ele><time>2026-04-06T08:26:47Z</time></trkpt><trkpt lat="41.86345554200369" lon="12.561347430824005"><ele>59.333333333333336</ele><time>2026-04-06T08:26:48Z</time></trkpt><trkpt lat="41.86339556141013" lon="12.561564871887132"><ele>59.66666666666667</ele><time>2026-04-06T08:26:49Z</time></trkpt><trkpt lat="41.86334173438483" lon="12.561780547896936"><ele>60.0</ele><time>2026-04-06T08:26:50Z</time></trkpt><trkpt lat="41.8632948868738" lon="12.561978131828944"><ele>58.66666666666667</ele><time>2026-04-06T08:26:51Z</time></trkpt><trkpt lat="41.86324796937421" lon="12.562194195654591"><ele>57.333333333333336</ele><time>2026-04-06T08:26:52Z</time></trkpt><trkpt lat="41.86319406373946" lon="12.562419711244535"><ele>56.0</ele><time>2026-04-06T08:26:53Z</time></trkpt><trkpt lat="41.8631485019452" lon="12.562655549689458"><ele>55.66666666666667</ele><time>2026-04-06T08:26:54Z</time></trkpt><trkpt lat="41.86309988768199" lon="12.562877750718947"><ele>55.33333333333333</ele><time>2026-04-06T08:26:55Z</time></trkpt><trkpt lat="41.863071665190986" lon="12.56310306612139"><ele>55.0</ele><time>2026-04-06T08:26:56Z</time></trkpt><trkpt lat="41.86304203951214" lon="12.563313042978795"><ele>55.0</ele><time>2026-04-06T08:26:57Z</time></trkpt><trkpt lat="41.86300588096095" lon="12.563496178880179"><ele>55.0</ele><time>2026-04-06T08:26:58Z</time></trkpt><trkpt lat="41.86299760980821" lon="12.563633468362298"><ele>55.0</ele><time>2026-04-06T08:26:59Z</time></trkpt><trkpt lat="41.86298209495822" lon="12.56372428909066"><ele>55.0</ele><time>2026-04-06T08:27:00Z</time></trkpt><trkpt lat="41.86296600190968" lon="12.563908076617121"><ele>53.75</ele><time>2026-04-06T08:27:01Z</time></trkpt><trkpt lat="41.86293594024884" lon="12.564086290255752"><ele>52.5</ele><time>2026-04-06T08:27:02Z</time></trkpt><trkpt lat="41.86291139589453" lon="12.564260892571378"><ele>51.25</ele><time>2026-04-06T08:27:03Z</time></trkpt><trkpt lat="41.86288379478277" lon="12.564437159100963"><ele>50.0</ele><time>2026-04-06T08:27:04Z</time></trkpt><trkpt lat="41.86285058080997" lon="12.564624068354856"><ele>50.0</ele><time>2026-04-06T08:27:05Z</time></trkpt><trkpt lat="41.862813871059295" lon="12.56481276513095"><ele>50.0</ele><time>2026-04-06T08:27:06Z</time></trkpt><trkpt lat="41.86277856296017" lon="12.564992415107342"><ele>50.0</ele><time>2026-04-06T08:27:07Z</time></trkpt><trkpt lat="41.862756409252896" lon="12.56515808808717"><ele>50.0</ele><time>2026-04-06T08:27:08Z</time></trkpt><trkpt lat="41.86272869895368" lon="12.565325829332437"><ele>49.4</ele><time>2026-04-06T08:27:09Z</time></trkpt><trkpt lat="41.86270201922763" lon="12.56548647955294"><ele>48.8</ele><time>2026-04-06T08:27:10Z</time></trkpt><trkpt lat="41.86268061259782" lon="12.56561441673169"><ele>48.2</ele><time>2026-04-06T08:27:11Z</time></trkpt><trkpt lat="41.86266090660979" lon="12.5657486077513"><ele>47.6</ele><time>2026-04-06T08:27:12Z</time></trkpt><trkpt lat="41.862639008765036" lon="12.56589829657919"><ele>47.0</ele><time>2026-04-06T08:27:13Z</time></trkpt><trkpt lat="41.86261521043696" lon="12.566066674295893"><ele>48.5</ele><time>2026-04-06T08:27:14Z</time></trkpt><trkpt lat="41.862571818743184" lon="12.566251861593104"><ele>50.0</ele><time>2026-04-06T08:27:15Z</time></trkpt><trkpt lat="41.86254002593101" lon="12.566415708130528"><ele>51.5</ele><time>2026-04-06T08:27:16Z</time></trkpt><trkpt lat="41.862508798445276" lon="12.56658241348414"><ele>53.0</ele><time>2026-04-06T08:27:17Z</time></trkpt><trkpt lat="41.86248282084725" lon="12.566736215610893"><ele>53.0</ele><time>2026-04-06T08:27:18Z</time></trkpt><trkpt lat="41.86245660030375" lon="12.566878422632978"><ele>53.0</ele><time>2026-04-06T08:27:19Z</time></trkpt><trkpt lat="41.86243003199501" lon="12.567013414038595"><ele>53.0</ele><time>2026-04-06T08:27:20Z</time></trkpt><trkpt lat="41.862404831148304" lon="12.567144813709241"><ele>53.0</ele><time>2026-04-06T08:27:21Z</time></trkpt><trkpt lat="41.862393099920084" lon="12.567257891274892"><ele>53.0</ele><time>2026-04-06T08:27:22Z</time></trkpt><trkpt lat="41.86237990383935" lon="12.567385435405802"><ele>53.00000000000001</ele><time>2026-04-06T08:27:24Z</time></trkpt><trkpt lat="41.86237574834642" lon="12.567543642246914"><ele>53.0</ele><time>2026-04-06T08:27:44Z</time></trkpt><trkpt lat="41.86236535550228" lon="12.567688101357566"><ele>53.0</ele><time>2026-04-06T08:27:46Z</time></trkpt><trkpt lat="41.862359504962285" lon="12.567791019529704"><ele>53.0</ele><time>2026-04-06T08:27:48Z</time></trkpt><trkpt lat="41.862358670880575" lon="12.567889807182638"><ele>53.00000000000001</ele><time>2026-04-06T08:27:50Z</time></trkpt><trkpt lat="41.862359039996164" lon="12.567976072216993"><ele>53.0</ele><time>2026-04-06T08:27:51Z</time></trkpt><trkpt lat="41.862357547844496" lon="12.568066026527115"><ele>53.00000000000001</ele><time>2026-04-06T08:27:52Z</time></trkpt><trkpt lat="41.862357320621484" lon="12.56824381596417"><ele>53.0</ele><time>2026-04-06T08:27:54Z</time></trkpt><trkpt lat="41.862358794803846" lon="12.56834721288496"><ele>53.0</ele><time>2026-04-06T08:27:55Z</time></trkpt><trkpt lat="41.86236225464675" lon="12.568440760684215"><ele>53.0</ele><time>2026-04-06T08:27:56Z</time></trkpt><trkpt lat="41.86236239277632" lon="12.568534252481792"><ele>53.00000000000001</ele><time>2026-04-06T08:27:57Z</time></trkpt><trkpt lat="41.86236819028914" lon="12.568642084752824"><ele>53.0</ele><time>2026-04-06T08:27:58Z</time></trkpt><trkpt lat="41.862367593300625" lon="12.568787018101753"><ele>52.75</ele><time>2026-04-06T08:27:59Z</time></trkpt><trkpt lat="41.86237130401964" lon="12.568962703894046"><ele>52.5</ele><time>2026-04-06T08:28:00Z</time></trkpt><trkpt lat="41.862405672027286" lon="12.56910841135946"><ele>52.25</ele><time>2026-04-06T08:28:01Z</time></trkpt><trkpt lat="41.86238248207343" lon="12.569269485530032"><ele>52.0</ele><time>2026-04-06T08:28:02Z</time></trkpt><trkpt lat="41.86238463481343" lon="12.56943367977655"><ele>53.5</ele><time>2026-04-06T08:28:03Z</time></trkpt><trkpt lat="41.86236916236128" lon="12.569642896849281"><ele>55.0</ele><time>2026-04-06T08:28:04Z</time></trkpt><trkpt lat="41.862365551102144" lon="12.569844660658616"><ele>56.5</ele><time>2026-04-06T08:28:05Z</time></trkpt><trkpt lat="41.8623645131132" lon="12.569999697404594"><ele>58.0</ele><time>2026-04-06T08:28:06Z</time></trkpt><trkpt lat="41.86238963180838" lon="12.570158741021558"><ele>57.99999999999999</ele><time>2026-04-06T08:28:07Z</time></trkpt><trkpt lat="41.862404584198174" lon="12.570290899762563"><ele>58.0</ele><time>2026-04-06T08:28:08Z</time></trkpt><trkpt lat="41.86242138974664" lon="12.57039234753505"><ele>58.0</ele><time>2026-04-06T08:28:09Z</time></trkpt><trkpt lat="41.8624388610304" lon="12.570474112999047"><ele>58.0</ele><time>2026-04-06T08:28:10Z</time></trkpt><trkpt lat="41.862461589239125" lon="12.570612395449588"><ele>57.99999999999999</ele><time>2026-04-06T08:28:12Z</time></trkpt><trkpt lat="41.86247761213855" lon="12.570711445160613"><ele>58.0</ele><time>2026-04-06T08:28:15Z</time></trkpt><trkpt lat="41.86250097379002" lon="12.570819906157405"><ele>58.166666666666664</ele><time>2026-04-06T08:28:18Z</time></trkpt><trkpt lat="41.86251194916004" lon="12.570905954902601"><ele>58.33333333333333</ele><time>2026-04-06T08:28:20Z</time></trkpt><trkpt lat="41.86255020917238" lon="12.571098628781"><ele>58.5</ele><time>2026-04-06T08:28:22Z</time></trkpt><trkpt lat="41.86256797287373" lon="12.571188108429952"><ele>58.66666666666667</ele><time>2026-04-06T08:28:23Z</time></trkpt><trkpt lat="41.86258635172002" lon="12.5712872402903"><ele>58.833333333333336</ele><time>2026-04-06T08:28:24Z</time></trkpt><trkpt lat="41.86261093346594" lon="12.571394127344158"><ele>59.0</ele><time>2026-04-06T08:28:25Z</time></trkpt><trkpt lat="41.8626394147194" lon="12.57150281931921"><ele>59.50000000000001</ele><time>2026-04-06T08:28:26Z</time></trkpt><trkpt lat="41.86265387270624" lon="12.571608596817336"><ele>60.0</ele><time>2026-04-06T08:28:27Z</time></trkpt><trkpt lat="41.86267140099055" lon="12.571728791764773"><ele>60.5</ele><time>2026-04-06T08:28:28Z</time></trkpt><trkpt lat="41.86269272833182" lon="12.571840783901008"><ele>61.0</ele><time>2026-04-06T08:28:29Z</time></trkpt><trkpt lat="41.86271215944252" lon="12.571927646657644"><ele>61.50000000000001</ele><time>2026-04-06T08:28:30Z</time></trkpt><trkpt lat="41.86273953638662" lon="12.572088893849315"><ele>62.0</ele><time>2026-04-06T08:28:32Z</time></trkpt><trkpt lat="41.862768165874215" lon="12.572254867668478"><ele>61.00000000000001</ele><time>2026-04-06T08:28:34Z</time></trkpt><trkpt lat="41.86278490482085" lon="12.572348169228958"><ele>60.0</ele><time>2026-04-06T08:28:35Z</time></trkpt><trkpt lat="41.86280761626844" lon="12.572457651493258"><ele>59.0</ele><time>2026-04-06T08:28:36Z</time></trkpt><trkpt lat="41.862824695710444" lon="12.572542308746245"><ele>58.0</ele><time>2026-04-06T08:28:37Z</time></trkpt><trkpt lat="41.86286167319395" lon="12.572720987668257"><ele>57.00000000000001</ele><time>2026-04-06T08:28:39Z</time></trkpt><trkpt lat="41.86288476885289" lon="12.572836801940877"><ele>56.0</ele><time>2026-04-06T08:28:40Z</time></trkpt><trkpt lat="41.86290804657106" lon="12.572962048214379"><ele>55.4</ele><time>2026-04-06T08:28:41Z</time></trkpt><trkpt lat="41.86292915012479" lon="12.573087185650568"><ele>54.8</ele><time>2026-04-06T08:28:42Z</time></trkpt><trkpt lat="41.86294330665783" lon="12.573215197740707"><ele>54.199999999999996</ele><time>2026-04-06T08:28:43Z</time></trkpt><trkpt lat="41.862956472936006" lon="12.573349509494987"><ele>53.599999999999994</ele><time>2026-04-06T08:28:44Z</time></trkpt><trkpt lat="41.862958602051265" lon="12.573483194322193"><ele>53.0</ele><time>2026-04-06T08:28:45Z</time></trkpt><trkpt lat="41.862951849037294" lon="12.573616146740331"><ele>52.599999999999994</ele><time>2026-04-06T08:28:46Z</time></trkpt><trkpt lat="41.86291205620142" lon="12.573744114252852"><ele>52.199999999999996</ele><time>2026-04-06T08:28:47Z</time></trkpt><trkpt lat="41.86284535023575" lon="12.573857339748736"><ele>51.8</ele><time>2026-04-06T08:28:48Z</time></trkpt><trkpt lat="41.86277008088354" lon="12.573955244403507"><ele>51.4</ele><time>2026-04-06T08:28:49Z</time></trkpt><trkpt lat="41.862694634320995" lon="12.574056085636437"><ele>51.0</ele><time>2026-04-06T08:28:50Z</time></trkpt><trkpt lat="41.86261639672525" lon="12.574160490952623"><ele>51.199999999999996</ele><time>2026-04-06T08:28:51Z</time></trkpt><trkpt lat="41.86253937282216" lon="12.57426450743018"><ele>51.4</ele><time>2026-04-06T08:28:52Z</time></trkpt><trkpt lat="41.86246974912937" lon="12.57435976239183"><ele>51.6</ele><time>2026-04-06T08:28:53Z</time></trkpt><trkpt lat="41.86240121787563" lon="12.574452947989734"><ele>51.8</ele><time>2026-04-06T08:28:54Z</time></trkpt><trkpt lat="41.86233289217497" lon="12.574544803002638"><ele>52.0</ele><time>2026-04-06T08:28:55Z</time></trkpt><trkpt lat="41.862266213550384" lon="12.574639101461782"><ele>51.6</ele><time>2026-04-06T08:28:56Z</time></trkpt><trkpt lat="41.86219960775652" lon="12.5747325252717"><ele>51.2</ele><time>2026-04-06T08:28:57Z</time></trkpt><trkpt lat="41.862136949276135" lon="12.574820643569842"><ele>50.8</ele><time>2026-04-06T08:28:58Z</time></trkpt><trkpt lat="41.862080323639496" lon="12.574900130744306"><ele>50.4</ele><time>2026-04-06T08:28:59Z</time></trkpt><trkpt lat="41.86202696008053" lon="12.574968182844385"><ele>50.0</ele><time>2026-04-06T08:29:00Z</time></trkpt><trkpt lat="41.86194114833986" lon="12.575054563871504"><ele>50.00000000000001</ele><time>2026-04-06T08:29:02Z</time></trkpt><trkpt lat="41.86186557886783" lon="12.575087037756088"><ele>50.0</ele><time>2026-04-06T08:29:04Z</time></trkpt><trkpt lat="41.861776977922595" lon="12.57501158766506"><ele>50.0</ele><time>2026-04-06T08:29:06Z</time></trkpt><trkpt lat="41.86173467742398" lon="12.574948541346929"><ele>50.0</ele><time>2026-04-06T08:29:07Z</time></trkpt><trkpt lat="41.86168700337705" lon="12.574886093715898"><ele>50.00000000000001</ele><time>2026-04-06T08:29:08Z</time></trkpt><trkpt lat="41.86164186777405" lon="12.574820273563313"><ele>50.0</ele><time>2026-04-06T08:29:09Z</time></trkpt><trkpt lat="41.8615759831195" lon="12.574732054798423"><ele>50.66666666666667</ele><time>2026-04-06T08:29:11Z</time></trkpt><trkpt lat="41.861510112914274" lon="12.574646257389126"><ele>51.333333333333336</ele><time>2026-04-06T08:29:13Z</time></trkpt><trkpt lat="41.86145552546025" lon="12.574598789324572"><ele>52.0</ele><time>2026-04-06T08:29:15Z</time></trkpt><trkpt lat="41.8613928114823" lon="12.57465653699616"><ele>52.66666666666667</ele><time>2026-04-06T08:29:17Z</time></trkpt><trkpt lat="41.86138390622241" lon="12.574765022356104"><ele>53.333333333333336</ele><time>2026-04-06T08:29:19Z</time></trkpt><trkpt lat="41.861433892238026" lon="12.574919722396798"><ele>54.0</ele><time>2026-04-06T08:29:21Z</time></trkpt><trkpt lat="41.861466158260136" lon="12.575005361698217"><ele>54.0</ele><time>2026-04-06T08:29:22Z</time></trkpt><trkpt lat="41.86150015422931" lon="12.575087463116313"><ele>54.0</ele><time>2026-04-06T08:29:23Z</time></trkpt><trkpt lat="41.86153462520609" lon="12.575174132338432"><ele>54.0</ele><time>2026-04-06T08:29:24Z</time></trkpt><trkpt lat="41.861584045487845" lon="12.575258591449444"><ele>54.0</ele><time>2026-04-06T08:29:25Z</time></trkpt><trkpt lat="41.861581578293425" lon="12.575373917805821"><ele>54.0</ele><time>2026-04-06T08:29:26Z</time></trkpt><trkpt lat="41.861566053338834" lon="12.575465003209652"><ele>54.0</ele><time>2026-04-06T08:29:27Z</time></trkpt><trkpt lat="41.861542299761346" lon="12.575564385187047"><ele>54.2</ele><time>2026-04-06T08:29:28Z</time></trkpt><trkpt lat="41.86147211938705" lon="12.5756380381839"><ele>54.400000000000006</ele><time>2026-04-06T08:29:29Z</time></trkpt><trkpt lat="41.8614071286027" lon="12.575715221444664"><ele>54.6</ele><time>2026-04-06T08:29:30Z</time></trkpt><trkpt lat="41.861333105550415" lon="12.575813213107706"><ele>54.8</ele><time>2026-04-06T08:29:31Z</time></trkpt><trkpt lat="41.8612546348146" lon="12.575919798734976"><ele>55.0</ele><time>2026-04-06T08:29:32Z</time></trkpt><trkpt lat="41.86117533913676" lon="12.576027891459256"><ele>55.0</ele><time>2026-04-06T08:29:33Z</time></trkpt><trkpt lat="41.86109984708304" lon="12.576125161761412"><ele>55.0</ele><time>2026-04-06T08:29:34Z</time></trkpt><trkpt lat="41.8610274324121" lon="12.576226180821966"><ele>55.0</ele><time>2026-04-06T08:29:35Z</time></trkpt><trkpt lat="41.860946403980876" lon="12.576335959026052"><ele>55.0</ele><time>2026-04-06T08:29:36Z</time></trkpt><trkpt lat="41.860860432922124" lon="12.57643936547661"><ele>55.0</ele><time>2026-04-06T08:29:37Z</time></trkpt><trkpt lat="41.86078251613918" lon="12.576549839320002"><ele>55.5</ele><time>2026-04-06T08:29:38Z</time></trkpt><trkpt lat="41.86070094626597" lon="12.576660877315474"><ele>56.0</ele><time>2026-04-06T08:29:39Z</time></trkpt><trkpt lat="41.8606148815258" lon="12.576772752610355"><ele>56.5</ele><time>2026-04-06T08:29:40Z</time></trkpt><trkpt lat="41.86053187041137" lon="12.576876491158625"><ele>57.0</ele><time>2026-04-06T08:29:41Z</time></trkpt><trkpt lat="41.86045578799346" lon="12.576977094539213"><ele>55.5</ele><time>2026-04-06T08:29:42Z</time></trkpt><trkpt lat="41.860381038059735" lon="12.577079012728907"><ele>54.0</ele><time>2026-04-06T08:29:43Z</time></trkpt><trkpt lat="41.86030144799189" lon="12.577185765540152"><ele>52.5</ele><time>2026-04-06T08:29:44Z</time></trkpt><trkpt lat="41.8602179112729" lon="12.577318390239931"><ele>51.0</ele><time>2026-04-06T08:29:45Z</time></trkpt><trkpt lat="41.860148974668" lon="12.577462705867848"><ele>51.25</ele><time>2026-04-06T08:29:46Z</time></trkpt><trkpt lat="41.86009247199632" lon="12.577634642148885"><ele>51.5</ele><time>2026-04-06T08:29:47Z</time></trkpt><trkpt lat="41.86004284846899" lon="12.577811260491814"><ele>51.75</ele><time>2026-04-06T08:29:48Z</time></trkpt><trkpt lat="41.85998855507486" lon="12.577962114186057"><ele>52.0</ele><time>2026-04-06T08:29:49Z</time></trkpt><trkpt lat="41.85993586281345" lon="12.578122789352285"><ele>52.0</ele><time>2026-04-06T08:29:50Z</time></trkpt><trkpt lat="41.859881237862034" lon="12.578283600526396"><ele>52.0</ele><time>2026-04-06T08:29:51Z</time></trkpt><trkpt lat="41.859821088628486" lon="12.578455046657826"><ele>52.0</ele><time>2026-04-06T08:29:52Z</time></trkpt><trkpt lat="41.859749917748" lon="12.578667238568281"><ele>52.0</ele><time>2026-04-06T08:29:53Z</time></trkpt><trkpt lat="41.85968306435872" lon="12.57885056680597"><ele>51.75</ele><time>2026-04-06T08:29:54Z</time></trkpt><trkpt lat="41.85961903801148" lon="12.579025245696638"><ele>51.5</ele><time>2026-04-06T08:29:55Z</time></trkpt><trkpt lat="41.85955814795325" lon="12.579194894815698"><ele>51.25</ele><time>2026-04-06T08:29:56Z</time></trkpt><trkpt lat="41.85949983637644" lon="12.579355106085307"><ele>51.0</ele><time>2026-04-06T08:29:57Z</time></trkpt><trkpt lat="41.85944229288036" lon="12.579520423016996"><ele>51.0</ele><time>2026-04-06T08:29:58Z</time></trkpt><trkpt lat="41.859387594320935" lon="12.579680384309414"><ele>51.0</ele><time>2026-04-06T08:29:59Z</time></trkpt><trkpt lat="41.85933147428555" lon="12.579842381315446"><ele>51.0</ele><time>2026-04-06T08:30:00Z</time></trkpt><trkpt lat="41.85927734581131" lon="12.580003608521103"><ele>51.0</ele><time>2026-04-06T08:30:01Z</time></trkpt><trkpt lat="41.85922261648688" lon="12.58015543159148"><ele>52.25</ele><time>2026-04-06T08:30:02Z</time></trkpt><trkpt lat="41.85916739059996" lon="12.580304623342043"><ele>53.5</ele><time>2026-04-06T08:30:03Z</time></trkpt><trkpt lat="41.85911793324574" lon="12.580436245602543"><ele>54.75</ele><time>2026-04-06T08:30:04Z</time></trkpt><trkpt lat="41.85906613785678" lon="12.580561533005985"><ele>56.0</ele><time>2026-04-06T08:30:05Z</time></trkpt><trkpt lat="41.85899423748233" lon="12.58067202599143"><ele>56.0</ele><time>2026-04-06T08:30:06Z</time></trkpt><trkpt lat="41.85890471809724" lon="12.580776139872208"><ele>55.99999999999999</ele><time>2026-04-06T08:30:07Z</time></trkpt><trkpt lat="41.858804260822424" lon="12.580796219586434"><ele>55.99999999999999</ele><time>2026-04-06T08:30:08Z</time></trkpt><trkpt lat="41.85870367352756" lon="12.580836685200547"><ele>56.0</ele><time>2026-04-06T08:30:09Z</time></trkpt><trkpt lat="41.85860098032739" lon="12.580867620352992"><ele>56.0</ele><time>2026-04-06T08:30:10Z</time></trkpt><trkpt lat="41.85849566897744" lon="12.580919785614762"><ele>55.0</ele><time>2026-04-06T08:30:11Z</time></trkpt><trkpt lat="41.858395014744694" lon="12.581011877676298"><ele>54.0</ele><time>2026-04-06T08:30:12Z</time></trkpt><trkpt lat="41.8583095247344" lon="12.581141277170142"><ele>53.0</ele><time>2026-04-06T08:30:13Z</time></trkpt><trkpt lat="41.8582419670983" lon="12.581278608802343"><ele>52.0</ele><time>2026-04-06T08:30:14Z</time></trkpt><trkpt lat="41.85816764527552" lon="12.581392436125746"><ele>51.5</ele><time>2026-04-06T08:30:15Z</time></trkpt><trkpt lat="41.85807826460009" lon="12.581528901035707"><ele>51.0</ele><time>2026-04-06T08:30:16Z</time></trkpt><trkpt lat="41.85798193180199" lon="12.581689504735342"><ele>50.5</ele><time>2026-04-06T08:30:17Z</time></trkpt><trkpt lat="41.85789530576986" lon="12.581835902286809"><ele>50.0</ele><time>2026-04-06T08:30:18Z</time></trkpt><trkpt lat="41.85781071362119" lon="12.581983684295762"><ele>50.25</ele><time>2026-04-06T08:30:19Z</time></trkpt><trkpt lat="41.85772431037206" lon="12.582135910515827"><ele>50.5</ele><time>2026-04-06T08:30:20Z</time></trkpt><trkpt lat="41.85764681564117" lon="12.582246952353886"><ele>50.75</ele><time>2026-04-06T08:30:21Z</time></trkpt><trkpt lat="41.857548766172286" lon="12.582412688313912"><ele>51.0</ele><time>2026-04-06T08:30:22Z</time></trkpt><trkpt lat="41.85744273951551" lon="12.582592787558728"><ele>51.0</ele><time>2026-04-06T08:30:23Z</time></trkpt><trkpt lat="41.857347878868886" lon="12.582746978619197"><ele>51.0</ele><time>2026-04-06T08:30:24Z</time></trkpt><trkpt lat="41.85725886336802" lon="12.58289136200664"><ele>51.0</ele><time>2026-04-06T08:30:25Z</time></trkpt><trkpt lat="41.857176139242775" lon="12.583027998016156"><ele>51.0</ele><time>2026-04-06T08:30:26Z</time></trkpt><trkpt lat="41.857098845878255" lon="12.583156538133444"><ele>50.75</ele><time>2026-04-06T08:30:27Z</time></trkpt><trkpt lat="41.85702754473221" lon="12.58328907407941"><ele>50.5</ele><time>2026-04-06T08:30:28Z</time></trkpt><trkpt lat="41.856951912319936" lon="12.583421163245442"><ele>50.25</ele><time>2026-04-06T08:30:29Z</time></trkpt><trkpt lat="41.85687710902977" lon="12.58354538028076"><ele>50.0</ele><time>2026-04-06T08:30:30Z</time></trkpt><trkpt lat="41.85680344597582" lon="12.583668102243672"><ele>50.5</ele><time>2026-04-06T08:30:31Z</time></trkpt><trkpt lat="41.856733914816274" lon="12.583790137641897"><ele>51.0</ele><time>2026-04-06T08:30:32Z</time></trkpt><trkpt lat="41.856646785658626" lon="12.583910164923624"><ele>51.5</ele><time>2026-04-06T08:30:33Z</time></trkpt><trkpt lat="41.85652676836027" lon="12.583935815646894"><ele>52.0</ele><time>2026-04-06T08:30:34Z</time></trkpt><trkpt lat="41.856414368080735" lon="12.58392151900618"><ele>52.0</ele><time>2026-04-06T08:30:35Z</time></trkpt><trkpt lat="41.85629800355242" lon="12.583895772327649"><ele>52.0</ele><time>2026-04-06T08:30:36Z</time></trkpt><trkpt lat="41.85617020412855" lon="12.583864677726712"><ele>52.0</ele><time>2026-04-06T08:30:37Z</time></trkpt><trkpt lat="41.85604326030034" lon="12.583841558312816"><ele>52.0</ele><time>2026-04-06T08:30:38Z</time></trkpt><trkpt lat="41.85594060812337" lon="12.583808738556547"><ele>52.166666666666664</ele><time>2026-04-06T08:30:39Z</time></trkpt><trkpt lat="41.85584989188155" lon="12.583780282534736"><ele>52.33333333333333</ele><time>2026-04-06T08:30:40Z</time></trkpt><trkpt lat="41.85577355589012" lon="12.583758310964056"><ele>52.5</ele><time>2026-04-06T08:30:41Z</time></trkpt><trkpt lat="41.855688394683" lon="12.583735739881318"><ele>52.66666666666667</ele><time>2026-04-06T08:30:43Z</time></trkpt><trkpt lat="41.855602323833374" lon="12.583718232383603"><ele>52.833333333333336</ele><time>2026-04-06T08:30:45Z</time></trkpt><trkpt lat="41.85550035287282" lon="12.583696586236332"><ele>53.0</ele><time>2026-04-06T08:30:47Z</time></trkpt><trkpt lat="41.85542065462896" lon="12.583685535669227"><ele>53.0</ele><time>2026-04-06T08:30:49Z</time></trkpt><trkpt lat="41.85535385628933" lon="12.583665846361463"><ele>53.0</ele><time>2026-04-06T08:30:51Z</time></trkpt><trkpt lat="41.85531365992646" lon="12.583889181722817"><ele>53.0</ele><time>2026-04-06T08:30:53Z</time></trkpt><trkpt lat="41.85534357742058" lon="12.58403263280892"><ele>53.0</ele><time>2026-04-06T08:30:55Z</time></trkpt><trkpt lat="41.855380656165536" lon="12.584105505296485"><ele>53.0</ele><time>2026-04-06T08:30:56Z</time></trkpt><trkpt lat="41.85543727694124" lon="12.584185596070213"><ele>53.0</ele><time>2026-04-06T08:30:57Z</time></trkpt><trkpt lat="41.855500769332465" lon="12.584283017128723"><ele>53.0</ele><time>2026-04-06T08:30:58Z</time></trkpt><trkpt lat="41.85555625225112" lon="12.58438408518646"><ele>53.0</ele><time>2026-04-06T08:30:59Z</time></trkpt><trkpt lat="41.85560634894612" lon="12.584483873500968"><ele>53.0</ele><time>2026-04-06T08:31:00Z</time></trkpt><trkpt lat="41.85565458495411" lon="12.584606896055828"><ele>53.0</ele><time>2026-04-06T08:31:01Z</time></trkpt><trkpt lat="41.85570686873983" lon="12.584766857420707"><ele>53.25</ele><time>2026-04-06T08:31:02Z</time></trkpt><trkpt lat="41.85577903517485" lon="12.58495647734191"><ele>53.5</ele><time>2026-04-06T08:31:03Z</time></trkpt><trkpt lat="41.855843175737355" lon="12.58511818967624"><ele>53.75</ele><time>2026-04-06T08:31:04Z</time></trkpt><trkpt lat="41.85590637945238" lon="12.58526696755718"><ele>54.0</ele><time>2026-04-06T08:31:05Z</time></trkpt><trkpt lat="41.85598519791167" lon="12.585400057078854"><ele>54.0</ele><time>2026-04-06T08:31:06Z</time></trkpt><trkpt lat="41.856073047443175" lon="12.585519769482891"><ele>54.0</ele><time>2026-04-06T08:31:07Z</time></trkpt><trkpt lat="41.856154858468635" lon="12.585648265953086"><ele>54.0</ele><time>2026-04-06T08:31:08Z</time></trkpt><trkpt lat="41.85624117750602" lon="12.585769169948025"><ele>54.0</ele><time>2026-04-06T08:31:09Z</time></trkpt><trkpt lat="41.856321482255886" lon="12.585877161117436"><ele>54.0</ele><time>2026-04-06T08:31:10Z</time></trkpt><trkpt lat="41.85640219098876" lon="12.585972610332842"><ele>54.00000000000001</ele><time>2026-04-06T08:31:11Z</time></trkpt><trkpt lat="41.856504000226565" lon="12.586026217922726"><ele>54.00000000000001</ele><time>2026-04-06T08:31:12Z</time></trkpt><trkpt lat="41.85661085700479" lon="12.586025313028637"><ele>54.0</ele><time>2026-04-06T08:31:13Z</time></trkpt><trkpt lat="41.85671349838379" lon="12.586004234199905"><ele>54.0</ele><time>2026-04-06T08:31:14Z</time></trkpt><trkpt lat="41.85682501653806" lon="12.585994421579084"><ele>53.800000000000004</ele><time>2026-04-06T08:31:15Z</time></trkpt><trkpt lat="41.85692315221362" lon="12.585971707961184"><ele>53.60000000000001</ele><time>2026-04-06T08:31:16Z</time></trkpt><trkpt lat="41.857018047501306" lon="12.58596035209719"><ele>53.4</ele><time>2026-04-06T08:31:17Z</time></trkpt><trkpt lat="41.857120483874965" lon="12.585951504408465"><ele>53.2</ele><time>2026-04-06T08:31:18Z</time></trkpt><trkpt lat="41.85722572717693" lon="12.585945681283842"><ele>53.0</ele><time>2026-04-06T08:31:19Z</time></trkpt><trkpt lat="41.85733165706932" lon="12.585931577574831"><ele>53.0</ele><time>2026-04-06T08:31:20Z</time></trkpt><trkpt lat="41.85743154356234" lon="12.585919220227542"><ele>53.0</ele><time>2026-04-06T08:31:21Z</time></trkpt><trkpt lat="41.85753276988563" lon="12.585908553952413"><ele>53.0</ele><time>2026-04-06T08:31:22Z</time></trkpt><trkpt lat="41.85763782082765" lon="12.585896252682415"><ele>53.0</ele><time>2026-04-06T08:31:23Z</time></trkpt><trkpt lat="41.85775174358071" lon="12.585883798918436"><ele>53.0</ele><time>2026-04-06T08:31:24Z</time></trkpt><trkpt lat="41.85787213484615" lon="12.585871475001253"><ele>53.25</ele><time>2026-04-06T08:31:25Z</time></trkpt><trkpt lat="41.85800268608956" lon="12.585850890906931"><ele>53.5</ele><time>2026-04-06T08:31:26Z</time></trkpt><trkpt lat="41.858127719182214" lon="12.585836044102999"><ele>53.75</ele><time>2026-04-06T08:31:27Z</time></trkpt><trkpt lat="41.85824092674335" lon="12.585829895054696"><ele>54.0</ele><time>2026-04-06T08:31:28Z</time></trkpt><trkpt lat="41.8583500647887" lon="12.58581787391833"><ele>55.0</ele><time>2026-04-06T08:31:29Z</time></trkpt><trkpt lat="41.858463574903816" lon="12.585801667075065"><ele>56.0</ele><time>2026-04-06T08:31:30Z</time></trkpt><trkpt lat="41.85858054598115" lon="12.585786444208251"><ele>57.0</ele><time>2026-04-06T08:31:31Z</time></trkpt><trkpt lat="41.85869516688448" lon="12.585779166601139"><ele>58.0</ele><time>2026-04-06T08:31:32Z</time></trkpt><trkpt lat="41.8588141459349" lon="12.58577100413997"><ele>58.0</ele><time>2026-04-06T08:31:33Z</time></trkpt><trkpt lat="41.85893517793315" lon="12.585756470299204"><ele>58.0</ele><time>2026-04-06T08:31:34Z</time></trkpt><trkpt lat="41.85904822107356" lon="12.58574650567502"><ele>58.0</ele><time>2026-04-06T08:31:35Z</time></trkpt><trkpt lat="41.859154105742554" lon="12.585738683303875"><ele>58.0</ele><time>2026-04-06T08:31:36Z</time></trkpt><trkpt lat="41.859258624949625" lon="12.585725233667283"><ele>58.0</ele><time>2026-04-06T08:31:37Z</time></trkpt><trkpt lat="41.85937070224909" lon="12.585709912973392"><ele>57.4</ele><time>2026-04-06T08:31:38Z</time></trkpt><trkpt lat="41.8594826862836" lon="12.585694237508706"><ele>56.8</ele><time>2026-04-06T08:31:39Z</time></trkpt><trkpt lat="41.85958414556911" lon="12.58568302459214"><ele>56.2</ele><time>2026-04-06T08:31:40Z</time></trkpt><trkpt lat="41.85968393551799" lon="12.58567778315186"><ele>55.6</ele><time>2026-04-06T08:31:41Z</time></trkpt><trkpt lat="41.85978280424069" lon="12.585672123881317"><ele>55.0</ele><time>2026-04-06T08:31:42Z</time></trkpt><trkpt lat="41.859874599404016" lon="12.58566301780091"><ele>54.99999999999999</ele><time>2026-04-06T08:31:43Z</time></trkpt><trkpt lat="41.85994972473861" lon="12.585650357185177"><ele>55.0</ele><time>2026-04-06T08:31:44Z</time></trkpt><trkpt lat="41.86001546862815" lon="12.585643925655397"><ele>55.0</ele><time>2026-04-06T08:31:45Z</time></trkpt><trkpt lat="41.86013513475274" lon="12.585638664120006"><ele>55.0</ele><time>2026-04-06T08:31:47Z</time></trkpt><trkpt lat="41.860196540827395" lon="12.585667988884163"><ele>54.99999999999999</ele><time>2026-04-06T08:31:49Z</time></trkpt><trkpt lat="41.86019436480554" lon="12.5858112216316"><ele>55.0</ele><time>2026-04-06T08:31:50Z</time></trkpt><trkpt lat="41.860150855821466" lon="12.585962734466712"><ele>54.99999999999999</ele><time>2026-04-06T08:31:52Z</time></trkpt><trkpt lat="41.86012815660349" lon="12.586046304946422"><ele>55.0</ele><time>2026-04-06T08:31:53Z</time></trkpt><trkpt lat="41.86010325152159" lon="12.586138931387982"><ele>55.0</ele><time>2026-04-06T08:31:54Z</time></trkpt><trkpt lat="41.86007756215319" lon="12.586233856956467"><ele>55.0</ele><time>2026-04-06T08:31:55Z</time></trkpt><trkpt lat="41.860051725379115" lon="12.586344263991508"><ele>54.99999999999999</ele><time>2026-04-06T08:31:56Z</time></trkpt><trkpt lat="41.860020941471944" lon="12.586467017580253"><ele>55.0</ele><time>2026-04-06T08:31:57Z</time></trkpt><trkpt lat="41.859983593771126" lon="12.586593530618185"><ele>55.5</ele><time>2026-04-06T08:31:58Z</time></trkpt><trkpt lat="41.85994571100361" lon="12.58671710883372"><ele>56.0</ele><time>2026-04-06T08:31:59Z</time></trkpt><trkpt lat="41.85991004271903" lon="12.58686328053247"><ele>56.5</ele><time>2026-04-06T08:32:00Z</time></trkpt><trkpt lat="41.85986953612644" lon="12.587045936404845"><ele>57.0</ele><time>2026-04-06T08:32:01Z</time></trkpt><trkpt lat="41.85982955232379" lon="12.587211089749909"><ele>57.75</ele><time>2026-04-06T08:32:02Z</time></trkpt><trkpt lat="41.85978649255454" lon="12.587373601428734"><ele>58.5</ele><time>2026-04-06T08:32:03Z</time></trkpt><trkpt lat="41.8597431227972" lon="12.58753967898251"><ele>59.25</ele><time>2026-04-06T08:32:04Z</time></trkpt><trkpt lat="41.85970182452156" lon="12.587700379047112"><ele>60.0</ele><time>2026-04-06T08:32:05Z</time></trkpt><trkpt lat="41.85966193931093" lon="12.587867738598886"><ele>60.33333333333333</ele><time>2026-04-06T08:32:06Z</time></trkpt><trkpt lat="41.859621555130666" lon="12.588040321501436"><ele>60.666666666666664</ele><time>2026-04-06T08:32:07Z</time></trkpt><trkpt lat="41.859575479753964" lon="12.588224232756783"><ele>61.0</ele><time>2026-04-06T08:32:08Z</time></trkpt><trkpt lat="41.85951975348013" lon="12.588442644295688"><ele>61.0</ele><time>2026-04-06T08:32:09Z</time></trkpt><trkpt lat="41.85946989414899" lon="12.588640784595064"><ele>61.0</ele><time>2026-04-06T08:32:10Z</time></trkpt><trkpt lat="41.85942540646135" lon="12.588818141492196"><ele>61.0</ele><time>2026-04-06T08:32:11Z</time></trkpt><trkpt lat="41.85937926242701" lon="12.588986837711893"><ele>61.0</ele><time>2026-04-06T08:32:12Z</time></trkpt><trkpt lat="41.8593310292605" lon="12.589158324273132"><ele>61.0</ele><time>2026-04-06T08:32:13Z</time></trkpt><trkpt lat="41.85928985732324" lon="12.589320794559352"><ele>61.0</ele><time>2026-04-06T08:32:14Z</time></trkpt><trkpt lat="41.85925298553722" lon="12.589474822073557"><ele>61.0</ele><time>2026-04-06T08:32:15Z</time></trkpt><trkpt lat="41.85921671024459" lon="12.589627307445856"><ele>61.0</ele><time>2026-04-06T08:32:16Z</time></trkpt><trkpt lat="41.85917634292723" lon="12.589786100900136"><ele>60.75</ele><time>2026-04-06T08:32:17Z</time></trkpt><trkpt lat="41.85913572458151" lon="12.589940700040565"><ele>60.5</ele><time>2026-04-06T08:32:18Z</time></trkpt><trkpt lat="41.85909596229915" lon="12.590083165151514"><ele>60.25</ele><time>2026-04-06T08:32:19Z</time></trkpt><trkpt lat="41.85905932553704" lon="12.590228752274031"><ele>60.0</ele><time>2026-04-06T08:32:20Z</time></trkpt><trkpt lat="41.859023094673205" lon="12.59037019759667"><ele>60.333333333333336</ele><time>2026-04-06T08:32:21Z</time></trkpt><trkpt lat="41.858990857884145" lon="12.590501432785587"><ele>60.66666666666667</ele><time>2026-04-06T08:32:22Z</time></trkpt><trkpt lat="41.85895735112117" lon="12.590622521831754"><ele>61.0</ele><time>2026-04-06T08:32:23Z</time></trkpt><trkpt lat="41.85892404714766" lon="12.590731423689395"><ele>61.333333333333336</ele><time>2026-04-06T08:32:24Z</time></trkpt><trkpt lat="41.85889342257631" lon="12.590831339503689"><ele>61.66666666666667</ele><time>2026-04-06T08:32:25Z</time></trkpt><trkpt lat="41.85886121538769" lon="12.590924960428213"><ele>62.0</ele><time>2026-04-06T08:32:26Z</time></trkpt><trkpt lat="41.858835249550914" lon="12.591008880459341"><ele>62.0</ele><time>2026-04-06T08:32:27Z</time></trkpt><trkpt lat="41.85881342350204" lon="12.591147098227239"><ele>62.0</ele><time>2026-04-06T08:32:29Z</time></trkpt><trkpt lat="41.858790341840574" lon="12.591234013188076"><ele>62.0</ele><time>2026-04-06T08:32:31Z</time></trkpt><trkpt lat="41.85875546064044" lon="12.59133904591848"><ele>62.0</ele><time>2026-04-06T08:33:16Z</time></trkpt><trkpt lat="41.858708925532945" lon="12.591511672167819"><ele>62.0</ele><time>2026-04-06T08:33:18Z</time></trkpt><trkpt lat="41.85867758736501" lon="12.591621133042066"><ele>61.8</ele><time>2026-04-06T08:33:19Z</time></trkpt><trkpt lat="41.85864945057153" lon="12.591718679111846"><ele>61.6</ele><time>2026-04-06T08:33:20Z</time></trkpt><trkpt lat="41.8586187003572" lon="12.591814568492648"><ele>61.39999999999999</ele><time>2026-04-06T08:33:21Z</time></trkpt><trkpt lat="41.85858887524803" lon="12.591915521341063"><ele>61.199999999999996</ele><time>2026-04-06T08:33:22Z</time></trkpt><trkpt lat="41.858557594661065" lon="12.59203536714422"><ele>61.0</ele><time>2026-04-06T08:33:23Z</time></trkpt><trkpt lat="41.85851805627341" lon="12.592189246323093"><ele>61.0</ele><time>2026-04-06T08:33:24Z</time></trkpt><trkpt lat="41.85847779728947" lon="12.59235860984391"><ele>61.0</ele><time>2026-04-06T08:33:25Z</time></trkpt><trkpt lat="41.8584389591628" lon="12.592509509709929"><ele>61.0</ele><time>2026-04-06T08:33:26Z</time></trkpt><trkpt lat="41.858397443956804" lon="12.5926683912283"><ele>61.0</ele><time>2026-04-06T08:33:27Z</time></trkpt><trkpt lat="41.85835761448481" lon="12.592830853222456"><ele>61.33333333333333</ele><time>2026-04-06T08:33:28Z</time></trkpt><trkpt lat="41.85831482100464" lon="12.59301731520721"><ele>61.66666666666667</ele><time>2026-04-06T08:33:29Z</time></trkpt><trkpt lat="41.85826843581557" lon="12.593238991418369"><ele>62.0</ele><time>2026-04-06T08:33:30Z</time></trkpt><trkpt lat="41.858229258625165" lon="12.593437415401677"><ele>62.0</ele><time>2026-04-06T08:33:31Z</time></trkpt><trkpt lat="41.858194645118544" lon="12.593627636345367"><ele>62.0</ele><time>2026-04-06T08:33:32Z</time></trkpt><trkpt lat="41.85815238848993" lon="12.593817484821582"><ele>62.0</ele><time>2026-04-06T08:33:33Z</time></trkpt><trkpt lat="41.85809336349934" lon="12.594004617044106"><ele>62.0</ele><time>2026-04-06T08:33:34Z</time></trkpt><trkpt lat="41.85800794056516" lon="12.59421722953512"><ele>62.66666666666667</ele><time>2026-04-06T08:33:35Z</time></trkpt><trkpt lat="41.85792228951619" lon="12.594426507630345"><ele>63.33333333333333</ele><time>2026-04-06T08:33:36Z</time></trkpt><trkpt lat="41.857841872197135" lon="12.594627784114603"><ele>64.0</ele><time>2026-04-06T08:33:37Z</time></trkpt><trkpt lat="41.85777495038615" lon="12.59481191137319"><ele>63.0</ele><time>2026-04-06T08:33:38Z</time></trkpt><trkpt lat="41.85771097575408" lon="12.594981203121353"><ele>62.0</ele><time>2026-04-06T08:33:39Z</time></trkpt><trkpt lat="41.85764995147117" lon="12.59514502869222"><ele>61.0</ele><time>2026-04-06T08:33:40Z</time></trkpt><trkpt lat="41.85758713034029" lon="12.595308621096326"><ele>60.0</ele><time>2026-04-06T08:33:41Z</time></trkpt><trkpt lat="41.85752508439942" lon="12.595469745190597"><ele>60.0</ele><time>2026-04-06T08:33:42Z</time></trkpt><trkpt lat="41.8574670729327" lon="12.595626096944704"><ele>60.0</ele><time>2026-04-06T08:33:43Z</time></trkpt><trkpt lat="41.8574273285566" lon="12.59579236076412"><ele>60.0</ele><time>2026-04-06T08:33:44Z</time></trkpt><trkpt lat="41.85737754034294" lon="12.59594449417237"><ele>60.0</ele><time>2026-04-06T08:33:45Z</time></trkpt><trkpt lat="41.857330714883076" lon="12.596089719518146"><ele>59.75</ele><time>2026-04-06T08:33:46Z</time></trkpt><trkpt lat="41.857270622030626" lon="12.596220404693797"><ele>59.5</ele><time>2026-04-06T08:33:47Z</time></trkpt><trkpt lat="41.85724253026966" lon="12.596372251816359"><ele>59.25</ele><time>2026-04-06T08:33:48Z</time></trkpt><trkpt lat="41.857200259609094" lon="12.596517393243476"><ele>59.0</ele><time>2026-04-06T08:33:49Z</time></trkpt><trkpt lat="41.85716242372554" lon="12.59664722317396"><ele>59.00000000000001</ele><time>2026-04-06T08:33:50Z</time></trkpt><trkpt lat="41.857115486543385" lon="12.596749300792082"><ele>59.0</ele><time>2026-04-06T08:33:51Z</time></trkpt><trkpt lat="41.85708839990319" lon="12.596851983445553"><ele>59.0</ele><time>2026-04-06T08:33:52Z</time></trkpt><trkpt lat="41.85706405618801" lon="12.59694080054285"><ele>59.0</ele><time>2026-04-06T08:33:53Z</time></trkpt><trkpt lat="41.85701263887399" lon="12.5970955758911"><ele>59.00000000000001</ele><time>2026-04-06T08:33:55Z</time></trkpt><trkpt lat="41.85693332071573" lon="12.597122430182592"><ele>59.0</ele><time>2026-04-06T08:33:56Z</time></trkpt><trkpt lat="41.856864061542936" lon="12.5971665250982"><ele>59.0</ele><time>2026-04-06T08:33:57Z</time></trkpt><trkpt lat="41.85679466923511" lon="12.597240420784999"><ele>59.00000000000001</ele><time>2026-04-06T08:33:58Z</time></trkpt><trkpt lat="41.85674429936662" lon="12.59735455545799"><ele>59.00000000000001</ele><time>2026-04-06T08:33:59Z</time></trkpt><trkpt lat="41.85672257650672" lon="12.597477191165744"><ele>59.0</ele><time>2026-04-06T08:34:00Z</time></trkpt><trkpt lat="41.85673240092138" lon="12.597601693138456"><ele>59.0</ele><time>2026-04-06T08:34:01Z</time></trkpt><trkpt lat="41.85666156496215" lon="12.59772719267564"><ele>58.75</ele><time>2026-04-06T08:34:02Z</time></trkpt><trkpt lat="41.85659977040394" lon="12.59785993440397"><ele>58.5</ele><time>2026-04-06T08:34:03Z</time></trkpt><trkpt lat="41.856507269412155" lon="12.598024114059793"><ele>58.25</ele><time>2026-04-06T08:34:04Z</time></trkpt><trkpt lat="41.8564119246207" lon="12.598210812367551"><ele>58.0</ele><time>2026-04-06T08:34:05Z</time></trkpt><trkpt lat="41.85632937461015" lon="12.59840931149654"><ele>58.0</ele><time>2026-04-06T08:34:06Z</time></trkpt><trkpt lat="41.85621992571176" lon="12.598656654875784"><ele>58.0</ele><time>2026-04-06T08:34:07Z</time></trkpt><trkpt lat="41.85612414689415" lon="12.598875813469284"><ele>58.0</ele><time>2026-04-06T08:34:08Z</time></trkpt><trkpt lat="41.85602742767683" lon="12.59908899363105"><ele>58.33333333333333</ele><time>2026-04-06T08:34:09Z</time></trkpt><trkpt lat="41.8559218975342" lon="12.599297087180709"><ele>58.66666666666667</ele><time>2026-04-06T08:34:10Z</time></trkpt><trkpt lat="41.85579619784654" lon="12.599486993673407"><ele>59.0</ele><time>2026-04-06T08:34:11Z</time></trkpt><trkpt lat="41.855652032561814" lon="12.599654390063254"><ele>59.333333333333336</ele><time>2026-04-06T08:34:12Z</time></trkpt><trkpt lat="41.85549784637773" lon="12.599803136287935"><ele>59.66666666666667</ele><time>2026-04-06T08:34:13Z</time></trkpt><trkpt lat="41.855371224706914" lon="12.599907162202344"><ele>60.0</ele><time>2026-04-06T08:34:14Z</time></trkpt><trkpt lat="41.85522703928634" lon="12.600013427034366"><ele>59.25</ele><time>2026-04-06T08:34:15Z</time></trkpt><trkpt lat="41.85508726930258" lon="12.600093709912914"><ele>58.5</ele><time>2026-04-06T08:34:16Z</time></trkpt><trkpt lat="41.8549657823449" lon="12.600185141853624"><ele>57.75</ele><time>2026-04-06T08:34:17Z</time></trkpt><trkpt lat="41.85486765812902" lon="12.600300992391022"><ele>57.0</ele><time>2026-04-06T08:34:18Z</time></trkpt><trkpt lat="41.85479790783208" lon="12.600452345907"><ele>57.0</ele><time>2026-04-06T08:34:19Z</time></trkpt><trkpt lat="41.85477388712793" lon="12.600640450903814"><ele>57.0</ele><time>2026-04-06T08:34:20Z</time></trkpt><trkpt lat="41.854768061820664" lon="12.600829554830709"><ele>57.0</ele><time>2026-04-06T08:34:21Z</time></trkpt><trkpt lat="41.854764752802396" lon="12.601043928202772"><ele>57.0</ele><time>2026-04-06T08:34:22Z</time></trkpt><trkpt lat="41.854754816183934" lon="12.601287446540676"><ele>57.66666666666667</ele><time>2026-04-06T08:34:23Z</time></trkpt><trkpt lat="41.85476297746516" lon="12.601516829849007"><ele>58.333333333333336</ele><time>2026-04-06T08:34:24Z</time></trkpt><trkpt lat="41.85476568074567" lon="12.601738126542267"><ele>59.0</ele><time>2026-04-06T08:34:25Z</time></trkpt><trkpt lat="41.85476570899394" lon="12.60197241101304"><ele>60.66666666666667</ele><time>2026-04-06T08:34:26Z</time></trkpt><trkpt lat="41.854766279730775" lon="12.602211241375738"><ele>62.33333333333333</ele><time>2026-04-06T08:34:27Z</time></trkpt><trkpt lat="41.85476713203479" lon="12.602458409027992"><ele>64.0</ele><time>2026-04-06T08:34:28Z</time></trkpt><trkpt lat="41.85476707734599" lon="12.602712433716011"><ele>64.33333333333333</ele><time>2026-04-06T08:34:29Z</time></trkpt><trkpt lat="41.85477530178599" lon="12.602978652593213"><ele>64.66666666666667</ele><time>2026-04-06T08:34:30Z</time></trkpt><trkpt lat="41.854775131173156" lon="12.603237110801237"><ele>65.0</ele><time>2026-04-06T08:34:31Z</time></trkpt><trkpt lat="41.854779775255274" lon="12.603496399248364"><ele>65.66666666666667</ele><time>2026-04-06T08:34:32Z</time></trkpt><trkpt lat="41.854780699807066" lon="12.603772322972985"><ele>66.33333333333333</ele><time>2026-04-06T08:34:33Z</time></trkpt><trkpt lat="41.85477935606421" lon="12.604088195160228"><ele>67.0</ele><time>2026-04-06T08:34:34Z</time></trkpt><trkpt lat="41.854776427597564" lon="12.604371320106171"><ele>66.0</ele><time>2026-04-06T08:34:35Z</time></trkpt><trkpt lat="41.854767866707526" lon="12.604676870212945"><ele>65.0</ele><time>2026-04-06T08:34:36Z</time></trkpt><trkpt lat="41.854757372320684" lon="12.604987517124776"><ele>65.0</ele><time>2026-04-06T08:34:37Z</time></trkpt><trkpt lat="41.85475450300301" lon="12.605270086556963"><ele>65.0</ele><time>2026-04-06T08:34:38Z</time></trkpt><trkpt lat="41.85475966037044" lon="12.605536349719173"><ele>65.0</ele><time>2026-04-06T08:34:39Z</time></trkpt><trkpt lat="41.85476417229259" lon="12.605805826595072"><ele>66.33333333333334</ele><time>2026-04-06T08:34:40Z</time></trkpt><trkpt lat="41.854758397895594" lon="12.606037094342316"><ele>67.66666666666667</ele><time>2026-04-06T08:34:41Z</time></trkpt><trkpt lat="41.854754937658605" lon="12.606251212965468"><ele>69.0</ele><time>2026-04-06T08:34:42Z</time></trkpt><trkpt lat="41.85475387805995" lon="12.606450816352469"><ele>69.60000000000001</ele><time>2026-04-06T08:34:43Z</time></trkpt><trkpt lat="41.85475504710426" lon="12.606623540588753"><ele>70.2</ele><time>2026-04-06T08:34:44Z</time></trkpt><trkpt lat="41.85475272301181" lon="12.60677974262633"><ele>70.80000000000001</ele><time>2026-04-06T08:34:45Z</time></trkpt><trkpt lat="41.854744960746416" lon="12.606919249759803"><ele>71.4</ele><time>2026-04-06T08:34:46Z</time></trkpt><trkpt lat="41.854734027794066" lon="12.607045303118227"><ele>72.0</ele><time>2026-04-06T08:34:47Z</time></trkpt><trkpt lat="41.85472148815509" lon="12.607161663344714"><ele>72.0</ele><time>2026-04-06T08:34:48Z</time></trkpt><trkpt lat="41.8547050824792" lon="12.607280729463499"><ele>72.0</ele><time>2026-04-06T08:34:49Z</time></trkpt><trkpt lat="41.85468326117757" lon="12.607398608602406"><ele>72.0</ele><time>2026-04-06T08:34:50Z</time></trkpt><trkpt lat="41.854657213907856" lon="12.607516792089706"><ele>72.0</ele><time>2026-04-06T08:34:51Z</time></trkpt><trkpt lat="41.85463182699963" lon="12.607640442008714"><ele>72.0</ele><time>2026-04-06T08:34:52Z</time></trkpt><trkpt lat="41.854601415305396" lon="12.607762757789414"><ele>71.4</ele><time>2026-04-06T08:34:53Z</time></trkpt><trkpt lat="41.8545648677" lon="12.607885673398137"><ele>70.80000000000001</ele><time>2026-04-06T08:34:54Z</time></trkpt><trkpt lat="41.854530437869975" lon="12.608012377481106"><ele>70.2</ele><time>2026-04-06T08:34:55Z</time></trkpt><trkpt lat="41.85449616498265" lon="12.60814349004191"><ele>69.60000000000001</ele><time>2026-04-06T08:34:56Z</time></trkpt><trkpt lat="41.854460654700894" lon="12.608274799799592"><ele>69.0</ele><time>2026-04-06T08:34:57Z</time></trkpt><trkpt lat="41.854424391426654" lon="12.608405505228554"><ele>69.0</ele><time>2026-04-06T08:34:58Z</time></trkpt><trkpt lat="41.85438814568409" lon="12.608537266049405"><ele>69.0</ele><time>2026-04-06T08:34:59Z</time></trkpt><trkpt lat="41.85435173539103" lon="12.608671279174397"><ele>69.0</ele><time>2026-04-06T08:35:00Z</time></trkpt><trkpt lat="41.8543136043586" lon="12.608805398158083"><ele>69.0</ele><time>2026-04-06T08:35:01Z</time></trkpt><trkpt lat="41.85427202690252" lon="12.608951396119053"><ele>69.0</ele><time>2026-04-06T08:35:02Z</time></trkpt><trkpt lat="41.854227489599054" lon="12.609118839234974"><ele>69.66666666666667</ele><time>2026-04-06T08:35:03Z</time></trkpt><trkpt lat="41.85417558521859" lon="12.609327013117898"><ele>70.33333333333334</ele><time>2026-04-06T08:35:04Z</time></trkpt><trkpt lat="41.85413427422365" lon="12.609518252678754"><ele>71.0</ele><time>2026-04-06T08:35:05Z</time></trkpt><trkpt lat="41.85410113580869" lon="12.609702628525328"><ele>71.0</ele><time>2026-04-06T08:35:06Z</time></trkpt><trkpt lat="41.854075129503855" lon="12.609900967703942"><ele>71.0</ele><time>2026-04-06T08:35:07Z</time></trkpt><trkpt lat="41.8540661134239" lon="12.610104824127122"><ele>71.0</ele><time>2026-04-06T08:35:08Z</time></trkpt><trkpt lat="41.85406726814363" lon="12.610303103928214"><ele>70.0</ele><time>2026-04-06T08:35:09Z</time></trkpt><trkpt lat="41.85408494638097" lon="12.610516893666126"><ele>69.0</ele><time>2026-04-06T08:35:10Z</time></trkpt><trkpt lat="41.85410884882287" lon="12.610727798520065"><ele>68.0</ele><time>2026-04-06T08:35:11Z</time></trkpt><trkpt lat="41.85414403006566" lon="12.610944724862199"><ele>67.33333333333334</ele><time>2026-04-06T08:35:12Z</time></trkpt><trkpt lat="41.85419304819975" lon="12.61116255905733"><ele>66.66666666666667</ele><time>2026-04-06T08:35:13Z</time></trkpt><trkpt lat="41.85425542442004" lon="12.611378234354973"><ele>66.0</ele><time>2026-04-06T08:35:14Z</time></trkpt><trkpt lat="41.854327824435764" lon="12.611584373754607"><ele>65.0</ele><time>2026-04-06T08:35:15Z</time></trkpt><trkpt lat="41.854411786201474" lon="12.611789480846511"><ele>64.0</ele><time>2026-04-06T08:35:16Z</time></trkpt><trkpt lat="41.85450696866026" lon="12.611991358425607"><ele>63.0</ele><time>2026-04-06T08:35:17Z</time></trkpt><trkpt lat="41.85462798454931" lon="12.6122052372473"><ele>63.0</ele><time>2026-04-06T08:35:18Z</time></trkpt><trkpt lat="41.854765439916946" lon="12.612415545993107"><ele>63.0</ele><time>2026-04-06T08:35:19Z</time></trkpt><trkpt lat="41.85488637978685" lon="12.61260672522254"><ele>63.0</ele><time>2026-04-06T08:35:20Z</time></trkpt><trkpt lat="41.854992666984366" lon="12.612796046748748"><ele>62.0</ele><time>2026-04-06T08:35:21Z</time></trkpt><trkpt lat="41.85510408265941" lon="12.612998366971988"><ele>61.0</ele><time>2026-04-06T08:35:22Z</time></trkpt><trkpt lat="41.85521497029282" lon="12.6132032769514"><ele>60.0</ele><time>2026-04-06T08:35:23Z</time></trkpt><trkpt lat="41.85531673575644" lon="12.613400732432783"><ele>60.0</ele><time>2026-04-06T08:35:24Z</time></trkpt><trkpt lat="41.855402649159366" lon="12.613598011655357"><ele>60.0</ele><time>2026-04-06T08:35:25Z</time></trkpt><trkpt lat="41.85547568080576" lon="12.613797788623765"><ele>60.0</ele><time>2026-04-06T08:35:26Z</time></trkpt><trkpt lat="41.85554682718511" lon="12.61399898663818"><ele>60.0</ele><time>2026-04-06T08:35:27Z</time></trkpt><trkpt lat="41.855613174375" lon="12.614203659624831"><ele>60.0</ele><time>2026-04-06T08:35:28Z</time></trkpt><trkpt lat="41.8556694066556" lon="12.614415744728786"><ele>60.0</ele><time>2026-04-06T08:35:29Z</time></trkpt><trkpt lat="41.85571005437293" lon="12.614639402757595"><ele>60.0</ele><time>2026-04-06T08:35:30Z</time></trkpt><trkpt lat="41.8557419220686" lon="12.614854729916948"><ele>60.0</ele><time>2026-04-06T08:35:31Z</time></trkpt><trkpt lat="41.85576529910325" lon="12.615056907424737"><ele>60.0</ele><time>2026-04-06T08:35:32Z</time></trkpt><trkpt lat="41.85578385830692" lon="12.615263494574426"><ele>61.0</ele><time>2026-04-06T08:35:33Z</time></trkpt><trkpt lat="41.855797093989004" lon="12.615477567562289"><ele>62.0</ele><time>2026-04-06T08:35:34Z</time></trkpt><trkpt lat="41.85580458184806" lon="12.61568693081958"><ele>63.0</ele><time>2026-04-06T08:35:35Z</time></trkpt><trkpt lat="41.85580899175142" lon="12.615879363394397"><ele>63.0</ele><time>2026-04-06T08:35:36Z</time></trkpt><trkpt lat="41.85581205145547" lon="12.616071685454093"><ele>63.0</ele><time>2026-04-06T08:35:37Z</time></trkpt><trkpt lat="41.855810498319464" lon="12.616251950442278"><ele>63.0</ele><time>2026-04-06T08:35:38Z</time></trkpt><trkpt lat="41.85578401549091" lon="12.616427806273263"><ele>63.0</ele><time>2026-04-06T08:35:39Z</time></trkpt><trkpt lat="41.85575061308932" lon="12.61659434212767"><ele>63.0</ele><time>2026-04-06T08:35:40Z</time></trkpt><trkpt lat="41.85566956206552" lon="12.616735180966952"><ele>63.0</ele><time>2026-04-06T08:35:41Z</time></trkpt><trkpt lat="41.85565071832595" lon="12.61688152025218"><ele>63.0</ele><time>2026-04-06T08:35:42Z</time></trkpt><trkpt lat="41.855662144276835" lon="12.617021756626773"><ele>63.0</ele><time>2026-04-06T08:35:43Z</time></trkpt><trkpt lat="41.85570106986846" lon="12.617165526182491"><ele>63.0</ele><time>2026-04-06T08:35:44Z</time></trkpt><trkpt lat="41.855769661273065" lon="12.617343027812474"><ele>63.0</ele><time>2026-04-06T08:35:45Z</time></trkpt><trkpt lat="41.85584234584969" lon="12.617533970760492"><ele>63.0</ele><time>2026-04-06T08:35:46Z</time></trkpt><trkpt lat="41.85588255059912" lon="12.617718155283828"><ele>64.0</ele><time>2026-04-06T08:35:47Z</time></trkpt><trkpt lat="41.85589523373911" lon="12.617908406747283"><ele>65.0</ele><time>2026-04-06T08:35:48Z</time></trkpt><trkpt lat="41.855899701379236" lon="12.618100052976326"><ele>66.0</ele><time>2026-04-06T08:35:49Z</time></trkpt><trkpt lat="41.85590684078037" lon="12.618289515647355"><ele>67.0</ele><time>2026-04-06T08:35:50Z</time></trkpt><trkpt lat="41.85591991600492" lon="12.618486541904943"><ele>66.66666666666666</ele><time>2026-04-06T08:35:51Z</time></trkpt><trkpt lat="41.8559400718075" lon="12.618691031415972"><ele>66.33333333333333</ele><time>2026-04-06T08:35:52Z</time></trkpt><trkpt lat="41.85596671668997" lon="12.618898153836236"><ele>66.0</ele><time>2026-04-06T08:35:53Z</time></trkpt><trkpt lat="41.85600084452103" lon="12.619108953196065"><ele>66.0</ele><time>2026-04-06T08:35:54Z</time></trkpt><trkpt lat="41.856039912589296" lon="12.619326202979165"><ele>66.0</ele><time>2026-04-06T08:35:55Z</time></trkpt><trkpt lat="41.856082216414926" lon="12.61954501117994"><ele>66.0</ele><time>2026-04-06T08:35:56Z</time></trkpt><trkpt lat="41.85612286818588" lon="12.619744766460627"><ele>66.5</ele><time>2026-04-06T08:35:57Z</time></trkpt><trkpt lat="41.85615826314325" lon="12.619932551723661"><ele>67.0</ele><time>2026-04-06T08:35:58Z</time></trkpt><trkpt lat="41.85618900341098" lon="12.6201117431042"><ele>67.5</ele><time>2026-04-06T08:35:59Z</time></trkpt><trkpt lat="41.8562083378057" lon="12.620278293495646"><ele>68.0</ele><time>2026-04-06T08:36:00Z</time></trkpt><trkpt lat="41.85620681987878" lon="12.620444293285018"><ele>68.75</ele><time>2026-04-06T08:36:01Z</time></trkpt><trkpt lat="41.85618057147318" lon="12.6206153881656"><ele>69.5</ele><time>2026-04-06T08:36:02Z</time></trkpt><trkpt lat="41.8561401529315" lon="12.620788864138436"><ele>70.25</ele><time>2026-04-06T08:36:03Z</time></trkpt><trkpt lat="41.85612379290587" lon="12.620953608863047"><ele>71.0</ele><time>2026-04-06T08:36:04Z</time></trkpt><trkpt lat="41.85615295677344" lon="12.621112998411164"><ele>70.25</ele><time>2026-04-06T08:36:05Z</time></trkpt><trkpt lat="41.85622474137994" lon="12.621263199819538"><ele>69.5</ele><time>2026-04-06T08:36:06Z</time></trkpt><trkpt lat="41.85632035016632" lon="12.621397154650946"><ele>68.75</ele><time>2026-04-06T08:36:07Z</time></trkpt><trkpt lat="41.85641886642795" lon="12.621529856025443"><ele>68.0</ele><time>2026-04-06T08:36:08Z</time></trkpt><trkpt lat="41.8564918097528" lon="12.621689855341343"><ele>68.0</ele><time>2026-04-06T08:36:09Z</time></trkpt><trkpt lat="41.85653544703097" lon="12.621873301419738"><ele>68.0</ele><time>2026-04-06T08:36:10Z</time></trkpt><trkpt lat="41.85656444675863" lon="12.622059826494127"><ele>68.0</ele><time>2026-04-06T08:36:11Z</time></trkpt><trkpt lat="41.85659371212075" lon="12.622244767473026"><ele>68.0</ele><time>2026-04-06T08:36:12Z</time></trkpt><trkpt lat="41.85662750506354" lon="12.622427934234096"><ele>67.5</ele><time>2026-04-06T08:36:13Z</time></trkpt><trkpt lat="41.856663345580955" lon="12.622613429194349"><ele>67.0</ele><time>2026-04-06T08:36:14Z</time></trkpt><trkpt lat="41.856696325848816" lon="12.622799890070574"><ele>66.5</ele><time>2026-04-06T08:36:15Z</time></trkpt><trkpt lat="41.85672842610947" lon="12.62298293105938"><ele>66.0</ele><time>2026-04-06T08:36:16Z</time></trkpt><trkpt lat="41.856760297632896" lon="12.623153321691598"><ele>66.25</ele><time>2026-04-06T08:36:17Z</time></trkpt><trkpt lat="41.8567869435337" lon="12.6233105976047"><ele>66.5</ele><time>2026-04-06T08:36:18Z</time></trkpt><trkpt lat="41.85680518799686" lon="12.623461947423353"><ele>66.75</ele><time>2026-04-06T08:36:19Z</time></trkpt><trkpt lat="41.85681071352416" lon="12.623610155662195"><ele>67.0</ele><time>2026-04-06T08:36:20Z</time></trkpt><trkpt lat="41.856809365319094" lon="12.623755652673964"><ele>67.4</ele><time>2026-04-06T08:36:21Z</time></trkpt><trkpt lat="41.85680574716418" lon="12.623897533930245"><ele>67.80000000000001</ele><time>2026-04-06T08:36:22Z</time></trkpt><trkpt lat="41.856801766202715" lon="12.624030049416199"><ele>68.2</ele><time>2026-04-06T08:36:23Z</time></trkpt><trkpt lat="41.85679479726181" lon="12.624151593375103"><ele>68.60000000000001</ele><time>2026-04-06T08:36:24Z</time></trkpt><trkpt lat="41.856783484622056" lon="12.624254977921185"><ele>69.0</ele><time>2026-04-06T08:36:25Z</time></trkpt><trkpt lat="41.856757515869255" lon="12.624400420739198"><ele>68.66666666666667</ele><time>2026-04-06T08:36:27Z</time></trkpt><trkpt lat="41.85670198935006" lon="12.624518709038318"><ele>68.33333333333333</ele><time>2026-04-06T08:36:29Z</time></trkpt><trkpt lat="41.856639190492885" lon="12.624586101461537"><ele>68.0</ele><time>2026-04-06T08:36:30Z</time></trkpt><trkpt lat="41.85656742128284" lon="12.624642242130397"><ele>67.66666666666666</ele><time>2026-04-06T08:36:31Z</time></trkpt><trkpt lat="41.85651077887717" lon="12.624731664636196"><ele>67.33333333333333</ele><time>2026-04-06T08:36:32Z</time></trkpt><trkpt lat="41.85643429818983" lon="12.62478744612699"><ele>67.0</ele><time>2026-04-06T08:36:33Z</time></trkpt><trkpt lat="41.85636925877841" lon="12.624855843940539"><ele>67.0</ele><time>2026-04-06T08:36:34Z</time></trkpt><trkpt lat="41.85630457467422" lon="12.624946174334772"><ele>67.0</ele><time>2026-04-06T08:36:35Z</time></trkpt><trkpt lat="41.85624559873883" lon="12.625051723297622"><ele>67.0</ele><time>2026-04-06T08:36:36Z</time></trkpt><trkpt lat="41.85622114032373" lon="12.62516464842458"><ele>67.0</ele><time>2026-04-06T08:36:37Z</time></trkpt><trkpt lat="41.85619789765221" lon="12.625282872381016"><ele>67.0</ele><time>2026-04-06T08:36:38Z</time></trkpt><trkpt lat="41.85618534651756" lon="12.625403791299592"><ele>67.6</ele><time>2026-04-06T08:36:39Z</time></trkpt><trkpt lat="41.85619391037534" lon="12.625521757280973"><ele>68.2</ele><time>2026-04-06T08:36:40Z</time></trkpt><trkpt lat="41.856209306656226" lon="12.625642194810002"><ele>68.8</ele><time>2026-04-06T08:36:41Z</time></trkpt><trkpt lat="41.85622729215426" lon="12.625768885267057"><ele>69.4</ele><time>2026-04-06T08:36:42Z</time></trkpt><trkpt lat="41.85625230188429" lon="12.625889240737681"><ele>70.0</ele><time>2026-04-06T08:36:43Z</time></trkpt><trkpt lat="41.856287270902264" lon="12.625996894491117"><ele>70.0</ele><time>2026-04-06T08:36:44Z</time></trkpt><trkpt lat="41.85633826425537" lon="12.62610419502044"><ele>70.0</ele><time>2026-04-06T08:36:45Z</time></trkpt><trkpt lat="41.8564228301219" lon="12.626213627876972"><ele>70.0</ele><time>2026-04-06T08:36:46Z</time></trkpt><trkpt lat="41.85648385555176" lon="12.626375990332338"><ele>70.0</ele><time>2026-04-06T08:36:47Z</time></trkpt><trkpt lat="41.85651516981173" lon="12.626530854987761"><ele>70.25</ele><time>2026-04-06T08:36:48Z</time></trkpt><trkpt lat="41.856535539702016" lon="12.626687409133435"><ele>70.5</ele><time>2026-04-06T08:36:49Z</time></trkpt><trkpt lat="41.856529513334145" lon="12.62685715590419"><ele>70.75</ele><time>2026-04-06T08:36:50Z</time></trkpt><trkpt lat="41.85653119136946" lon="12.627035208934567"><ele>71.0</ele><time>2026-04-06T08:36:51Z</time></trkpt><trkpt lat="41.8565416186461" lon="12.627228188671351"><ele>71.0</ele><time>2026-04-06T08:36:52Z</time></trkpt><trkpt lat="41.85654488130582" lon="12.627416981090175"><ele>71.0</ele><time>2026-04-06T08:36:53Z</time></trkpt><trkpt lat="41.85654742268043" lon="12.627603092583474"><ele>71.0</ele><time>2026-04-06T08:36:54Z</time></trkpt><trkpt lat="41.856552957628566" lon="12.627795571771468"><ele>71.0</ele><time>2026-04-06T08:36:55Z</time></trkpt><trkpt lat="41.85655348971268" lon="12.627995488694134"><ele>71.66666666666667</ele><time>2026-04-06T08:36:56Z</time></trkpt><trkpt lat="41.856537889000236" lon="12.628204874632388"><ele>72.33333333333333</ele><time>2026-04-06T08:36:57Z</time></trkpt><trkpt lat="41.85650818552729" lon="12.628414375029339"><ele>73.0</ele><time>2026-04-06T08:36:58Z</time></trkpt><trkpt lat="41.85645480177371" lon="12.628640930289992"><ele>71.0</ele><time>2026-04-06T08:36:59Z</time></trkpt><trkpt lat="41.856393281375226" lon="12.628838075659868"><ele>69.0</ele><time>2026-04-06T08:37:00Z</time></trkpt><trkpt lat="41.856323051734314" lon="12.629023314534814"><ele>67.0</ele><time>2026-04-06T08:37:01Z</time></trkpt><trkpt lat="41.856247452634584" lon="12.629180341226188"><ele>67.0</ele><time>2026-04-06T08:37:02Z</time></trkpt><trkpt lat="41.85616866693425" lon="12.629320576099499"><ele>67.0</ele><time>2026-04-06T08:37:03Z</time></trkpt><trkpt lat="41.856090065068734" lon="12.62944678695741"><ele>67.0</ele><time>2026-04-06T08:37:04Z</time></trkpt><trkpt lat="41.85601084283572" lon="12.629559082797952"><ele>67.0</ele><time>2026-04-06T08:37:05Z</time></trkpt><trkpt lat="41.855936165045186" lon="12.629648747940841"><ele>67.16666666666666</ele><time>2026-04-06T08:37:06Z</time></trkpt><trkpt lat="41.85588484287156" lon="12.629727007369642"><ele>67.33333333333333</ele><time>2026-04-06T08:37:07Z</time></trkpt><trkpt lat="41.855822488477266" lon="12.62975435525107"><ele>67.5</ele><time>2026-04-06T08:37:08Z</time></trkpt><trkpt lat="41.85572995830952" lon="12.62981610590149"><ele>67.66666666666667</ele><time>2026-04-06T08:37:10Z</time></trkpt><trkpt lat="41.85564453689508" lon="12.62979205006613"><ele>67.83333333333334</ele><time>2026-04-06T08:37:11Z</time></trkpt><trkpt lat="41.855559795886094" lon="12.629815821348359"><ele>68.0</ele><time>2026-04-06T08:37:12Z</time></trkpt><trkpt lat="41.85547737168676" lon="12.629870269563307"><ele>68.0</ele><time>2026-04-06T08:37:13Z</time></trkpt><trkpt lat="41.85541411720904" lon="12.629928853621054"><ele>68.0</ele><time>2026-04-06T08:37:14Z</time></trkpt><trkpt lat="41.85535286996869" lon="12.630003953708982"><ele>68.0</ele><time>2026-04-06T08:37:15Z</time></trkpt><trkpt lat="41.85530343327262" lon="12.630110527333569"><ele>68.0</ele><time>2026-04-06T08:37:16Z</time></trkpt><trkpt lat="41.85526811087103" lon="12.63023003728237"><ele>68.0</ele><time>2026-04-06T08:37:17Z</time></trkpt><trkpt lat="41.85527236418164" lon="12.630359280359109"><ele>68.0</ele><time>2026-04-06T08:37:18Z</time></trkpt><trkpt lat="41.85518960175489" lon="12.630466744052118"><ele>68.5</ele><time>2026-04-06T08:37:19Z</time></trkpt><trkpt lat="41.85510774734157" lon="12.630567835241923"><ele>69.0</ele><time>2026-04-06T08:37:20Z</time></trkpt><trkpt lat="41.85501528648079" lon="12.63067524579793"><ele>69.5</ele><time>2026-04-06T08:37:21Z</time></trkpt><trkpt lat="41.85492295784844" lon="12.63079285216571"><ele>70.0</ele><time>2026-04-06T08:37:22Z</time></trkpt><trkpt lat="41.854804562433934" lon="12.63093459111035"><ele>70.0</ele><time>2026-04-06T08:37:23Z</time></trkpt><trkpt lat="41.85468469218731" lon="12.63106576575984"><ele>70.0</ele><time>2026-04-06T08:37:24Z</time></trkpt><trkpt lat="41.85455296605715" lon="12.631209215093936"><ele>70.0</ele><time>2026-04-06T08:37:25Z</time></trkpt><trkpt lat="41.85438566372248" lon="12.631391596108324"><ele>70.66666666666666</ele><time>2026-04-06T08:37:26Z</time></trkpt><trkpt lat="41.85421973400283" lon="12.631562169673549"><ele>71.33333333333333</ele><time>2026-04-06T08:37:27Z</time></trkpt><trkpt lat="41.85407100606356" lon="12.631710322794461"><ele>72.0</ele><time>2026-04-06T08:37:28Z</time></trkpt><trkpt lat="41.85393764356572" lon="12.631853531882763"><ele>72.0</ele><time>2026-04-06T08:37:29Z</time></trkpt><trkpt lat="41.853819682471965" lon="12.631987735600573"><ele>72.0</ele><time>2026-04-06T08:37:30Z</time></trkpt><trkpt lat="41.85371566734487" lon="12.632103228581832"><ele>72.0</ele><time>2026-04-06T08:37:31Z</time></trkpt><trkpt lat="41.853622611422864" lon="12.632200335028744"><ele>72.0</ele><time>2026-04-06T08:37:32Z</time></trkpt><trkpt lat="41.85354163167652" lon="12.632287772332766"><ele>72.0</ele><time>2026-04-06T08:37:33Z</time></trkpt><trkpt lat="41.85345657333202" lon="12.632362224041724"><ele>72.0</ele><time>2026-04-06T08:37:34Z</time></trkpt><trkpt lat="41.85335107097207" lon="12.632409742014072"><ele>72.0</ele><time>2026-04-06T08:37:35Z</time></trkpt><trkpt lat="41.85323294335954" lon="12.632426729103097"><ele>72.0</ele><time>2026-04-06T08:37:36Z</time></trkpt><trkpt lat="41.85312539774139" lon="12.632479729754134"><ele>72.0</ele><time>2026-04-06T08:37:37Z</time></trkpt><trkpt lat="41.85301374930569" lon="12.632561343659262"><ele>73.0</ele><time>2026-04-06T08:37:38Z</time></trkpt><trkpt lat="41.85292525233031" lon="12.632690924376824"><ele>74.0</ele><time>2026-04-06T08:37:39Z</time></trkpt><trkpt lat="41.852888246218846" lon="12.632857826201493"><ele>75.0</ele><time>2026-04-06T08:37:40Z</time></trkpt><trkpt lat="41.85284081081923" lon="12.63301429517009"><ele>76.0</ele><time>2026-04-06T08:37:41Z</time></trkpt><trkpt lat="41.852755970043354" lon="12.633143648082253"><ele>76.0</ele><time>2026-04-06T08:37:42Z</time></trkpt><trkpt lat="41.852669752523866" lon="12.633243585690781"><ele>76.0</ele><time>2026-04-06T08:37:43Z</time></trkpt><trkpt lat="41.852587924129296" lon="12.633357600827196"><ele>76.0</ele><time>2026-04-06T08:37:44Z</time></trkpt><trkpt lat="41.85248164426218" lon="12.633447759685295"><ele>76.0</ele><time>2026-04-06T08:37:45Z</time></trkpt><trkpt lat="41.85238438861971" lon="12.633561878521693"><ele>76.25</ele><time>2026-04-06T08:37:46Z</time></trkpt><trkpt lat="41.852285288598225" lon="12.63367643036762"><ele>76.5</ele><time>2026-04-06T08:37:47Z</time></trkpt><trkpt lat="41.85218489694681" lon="12.633796266109746"><ele>76.75</ele><time>2026-04-06T08:37:48Z</time></trkpt><trkpt lat="41.85208741619257" lon="12.633918055942077"><ele>77.0</ele><time>2026-04-06T08:37:49Z</time></trkpt><trkpt lat="41.85199435559878" lon="12.634050166400316"><ele>77.0</ele><time>2026-04-06T08:37:50Z</time></trkpt><trkpt lat="41.85189506918469" lon="12.63419119548364"><ele>77.0</ele><time>2026-04-06T08:37:51Z</time></trkpt><trkpt lat="41.85179176699437" lon="12.634331018388677"><ele>77.0</ele><time>2026-04-06T08:37:52Z</time></trkpt><trkpt lat="41.85168597800795" lon="12.634465625610165"><ele>77.0</ele><time>2026-04-06T08:37:53Z</time></trkpt><trkpt lat="41.851588047960846" lon="12.634615970837503"><ele>77.0</ele><time>2026-04-06T08:37:54Z</time></trkpt><trkpt lat="41.85150258879964" lon="12.634775606188718"><ele>77.0</ele><time>2026-04-06T08:37:55Z</time></trkpt><trkpt lat="41.85141894276643" lon="12.634940555101384"><ele>77.0</ele><time>2026-04-06T08:37:56Z</time></trkpt><trkpt lat="41.85134022904222" lon="12.635120216574373"><ele>77.0</ele><time>2026-04-06T08:37:57Z</time></trkpt><trkpt lat="41.85127642516546" lon="12.635296827826727"><ele>77.0</ele><time>2026-04-06T08:37:58Z</time></trkpt><trkpt lat="41.851217178764614" lon="12.635485372154129"><ele>77.0</ele><time>2026-04-06T08:37:59Z</time></trkpt><trkpt lat="41.851167088918295" lon="12.635680600201336"><ele>77.66666666666667</ele><time>2026-04-06T08:38:00Z</time></trkpt><trkpt lat="41.85112766517605" lon="12.635888845024768"><ele>78.33333333333333</ele><time>2026-04-06T08:38:01Z</time></trkpt><trkpt lat="41.85109935097465" lon="12.636110471520173"><ele>79.0</ele><time>2026-04-06T08:38:02Z</time></trkpt><trkpt lat="41.851073474821085" lon="12.636344790905497"><ele>79.33333333333333</ele><time>2026-04-06T08:38:03Z</time></trkpt><trkpt lat="41.85107661441905" lon="12.636584562952386"><ele>79.66666666666667</ele><time>2026-04-06T08:38:04Z</time></trkpt><trkpt lat="41.85105202571739" lon="12.636823856730818"><ele>80.0</ele><time>2026-04-06T08:38:05Z</time></trkpt><trkpt lat="41.851036916833195" lon="12.637055609501067"><ele>80.0</ele><time>2026-04-06T08:38:06Z</time></trkpt><trkpt lat="41.851003968109445" lon="12.637266849078742"><ele>80.0</ele><time>2026-04-06T08:38:07Z</time></trkpt><trkpt lat="41.85095697152211" lon="12.63747690162537"><ele>80.0</ele><time>2026-04-06T08:38:08Z</time></trkpt><trkpt lat="41.85089576599818" lon="12.637677508264545"><ele>80.0</ele><time>2026-04-06T08:38:09Z</time></trkpt><trkpt lat="41.8508195512627" lon="12.637865895083143"><ele>80.0</ele><time>2026-04-06T08:38:10Z</time></trkpt><trkpt lat="41.850727642429725" lon="12.638045055222461"><ele>80.0</ele><time>2026-04-06T08:38:11Z</time></trkpt><trkpt lat="41.850623353686714" lon="12.638213020003267"><ele>80.0</ele><time>2026-04-06T08:38:12Z</time></trkpt><trkpt lat="41.85051813606375" lon="12.638364674079154"><ele>80.0</ele><time>2026-04-06T08:38:13Z</time></trkpt><trkpt lat="41.85041909524505" lon="12.638496768638356"><ele>80.0</ele><time>2026-04-06T08:38:14Z</time></trkpt><trkpt lat="41.85031730503638" lon="12.638619191544661"><ele>80.0</ele><time>2026-04-06T08:38:15Z</time></trkpt><trkpt lat="41.850210127841926" lon="12.638742344805973"><ele>79.66666666666667</ele><time>2026-04-06T08:38:16Z</time></trkpt><trkpt lat="41.85009072074218" lon="12.638874241407203"><ele>79.33333333333333</ele><time>2026-04-06T08:38:17Z</time></trkpt><trkpt lat="41.84995922963695" lon="12.638995699692833"><ele>79.0</ele><time>2026-04-06T08:38:18Z</time></trkpt><trkpt lat="41.84982523155032" lon="12.639090875445298"><ele>79.0</ele><time>2026-04-06T08:38:19Z</time></trkpt><trkpt lat="41.8496832360045" lon="12.639179119420499"><ele>79.0</ele><time>2026-04-06T08:38:20Z</time></trkpt><trkpt lat="41.8495353425261" lon="12.639268377517942"><ele>79.0</ele><time>2026-04-06T08:38:21Z</time></trkpt><trkpt lat="41.849376560428716" lon="12.6393480457765"><ele>79.0</ele><time>2026-04-06T08:38:22Z</time></trkpt><trkpt lat="41.849211511290505" lon="12.639413568942656"><ele>79.0</ele><time>2026-04-06T08:38:23Z</time></trkpt><trkpt lat="41.84904204334467" lon="12.639475032554047"><ele>79.0</ele><time>2026-04-06T08:38:24Z</time></trkpt><trkpt lat="41.848873008350296" lon="12.639540095671862"><ele>79.66666666666666</ele><time>2026-04-06T08:38:25Z</time></trkpt><trkpt lat="41.84870394272175" lon="12.63961165088252"><ele>80.33333333333333</ele><time>2026-04-06T08:38:26Z</time></trkpt><trkpt lat="41.848537479628845" lon="12.639680701195653"><ele>81.0</ele><time>2026-04-06T08:38:27Z</time></trkpt><trkpt lat="41.84834908920297" lon="12.639756807825774"><ele>81.33333333333333</ele><time>2026-04-06T08:38:28Z</time></trkpt><trkpt lat="41.84815904829391" lon="12.639826822285766"><ele>81.66666666666666</ele><time>2026-04-06T08:38:29Z</time></trkpt><trkpt lat="41.8479717292495" lon="12.639900756673795"><ele>82.0</ele><time>2026-04-06T08:38:30Z</time></trkpt><trkpt lat="41.84779638135966" lon="12.639974352427513"><ele>82.66666666666666</ele><time>2026-04-06T08:38:31Z</time></trkpt><trkpt lat="41.84762475860221" lon="12.640040291032498"><ele>83.33333333333333</ele><time>2026-04-06T08:38:32Z</time></trkpt><trkpt lat="41.84744696695713" lon="12.640105508934578"><ele>84.0</ele><time>2026-04-06T08:38:33Z</time></trkpt><trkpt lat="41.84726455792776" lon="12.640178565721301"><ele>84.0</ele><time>2026-04-06T08:38:34Z</time></trkpt><trkpt lat="41.84707987771612" lon="12.640250095177233"><ele>84.0</ele><time>2026-04-06T08:38:35Z</time></trkpt><trkpt lat="41.8468925751838" lon="12.640318365854073"><ele>84.0</ele><time>2026-04-06T08:38:36Z</time></trkpt><trkpt lat="41.84670235758495" lon="12.640387349262012"><ele>83.66666666666667</ele><time>2026-04-06T08:38:37Z</time></trkpt><trkpt lat="41.846517486358124" lon="12.640466499993746"><ele>83.33333333333334</ele><time>2026-04-06T08:38:38Z</time></trkpt><trkpt lat="41.84633064621548" lon="12.640547836653491"><ele>83.0</ele><time>2026-04-06T08:38:39Z</time></trkpt><trkpt lat="41.846144446542446" lon="12.640620513114637"><ele>83.0</ele><time>2026-04-06T08:38:40Z</time></trkpt><trkpt lat="41.84596268356398" lon="12.640697008595641"><ele>83.0</ele><time>2026-04-06T08:38:41Z</time></trkpt><trkpt lat="41.84577931746615" lon="12.640765162043838"><ele>83.0</ele><time>2026-04-06T08:38:42Z</time></trkpt><trkpt lat="41.845600132718495" lon="12.640836420111377"><ele>82.33333333333334</ele><time>2026-04-06T08:38:43Z</time></trkpt><trkpt lat="41.84542087063452" lon="12.640910044248145"><ele>81.66666666666667</ele><time>2026-04-06T08:38:44Z</time></trkpt><trkpt lat="41.84523864054835" lon="12.64098741075365"><ele>81.0</ele><time>2026-04-06T08:38:45Z</time></trkpt><trkpt lat="41.84505926987668" lon="12.641056132030863"><ele>83.0</ele><time>2026-04-06T08:38:46Z</time></trkpt><trkpt lat="41.84488043173004" lon="12.64112115192186"><ele>85.0</ele><time>2026-04-06T08:38:47Z</time></trkpt><trkpt lat="41.844701479287025" lon="12.641189510360814"><ele>87.0</ele><time>2026-04-06T08:38:48Z</time></trkpt><trkpt lat="41.8445200190283" lon="12.641261786694194"><ele>87.66666666666667</ele><time>2026-04-06T08:38:49Z</time></trkpt><trkpt lat="41.84433882859316" lon="12.641335989991836"><ele>88.33333333333334</ele><time>2026-04-06T08:38:50Z</time></trkpt><trkpt lat="41.84419173089058" lon="12.64140259229933"><ele>89.0</ele><time>2026-04-06T08:38:51Z</time></trkpt><trkpt lat="41.84402325581883" lon="12.641465769057536"><ele>90.0</ele><time>2026-04-06T08:38:52Z</time></trkpt><trkpt lat="41.843859834982" lon="12.641532903622501"><ele>91.0</ele><time>2026-04-06T08:38:52.999Z</time></trkpt><trkpt lat="41.84370783157459" lon="12.641592325820755"><ele>92.0</ele><time>2026-04-06T08:38:53.999Z</time></trkpt><trkpt lat="41.84354693484884" lon="12.641661401091161"><ele>91.25</ele><time>2026-04-06T08:38:55Z</time></trkpt><trkpt lat="41.84339140174118" lon="12.641710793110263"><ele>90.5</ele><time>2026-04-06T08:38:56Z</time></trkpt><trkpt lat="41.84326374312055" lon="12.641774537627112"><ele>89.75</ele><time>2026-04-06T08:38:57Z</time></trkpt><trkpt lat="41.84314045266072" lon="12.641819574146568"><ele>89.0</ele><time>2026-04-06T08:38:58Z</time></trkpt><trkpt lat="41.8430285718936" lon="12.64184146132811"><ele>89.0</ele><time>2026-04-06T08:38:59Z</time></trkpt><trkpt lat="41.84292018894034" lon="12.64185320496271"><ele>89.0</ele><time>2026-04-06T08:39:00Z</time></trkpt><trkpt lat="41.84282300424609" lon="12.64185399768759"><ele>89.0</ele><time>2026-04-06T08:39:01Z</time></trkpt><trkpt lat="41.842750653116425" lon="12.641842896352966"><ele>89.0</ele><time>2026-04-06T08:39:02Z</time></trkpt><trkpt lat="41.842631773338276" lon="12.641810242970486"><ele>89.0</ele><time>2026-04-06T08:39:04Z</time></trkpt><trkpt lat="41.84255897836914" lon="12.641782937078657"><ele>89.66666666666667</ele><time>2026-04-06T08:39:05Z</time></trkpt><trkpt lat="41.84247547822857" lon="12.641743254283295"><ele>90.33333333333334</ele><time>2026-04-06T08:39:06Z</time></trkpt><trkpt lat="41.84239816312035" lon="12.641697138421515"><ele>91.0</ele><time>2026-04-06T08:39:07Z</time></trkpt><trkpt lat="41.84232272157942" lon="12.641657371277134"><ele>91.66666666666667</ele><time>2026-04-06T08:39:08Z</time></trkpt><trkpt lat="41.84224987218622" lon="12.64162183645056"><ele>92.33333333333333</ele><time>2026-04-06T08:39:09Z</time></trkpt><trkpt lat="41.842165629261125" lon="12.641596473277918"><ele>93.0</ele><time>2026-04-06T08:39:10Z</time></trkpt><trkpt lat="41.8420829680492" lon="12.64160014274087"><ele>93.0</ele><time>2026-04-06T08:39:11Z</time></trkpt><trkpt lat="41.84200626498313" lon="12.641629250386202"><ele>93.0</ele><time>2026-04-06T08:39:12Z</time></trkpt><trkpt lat="41.841929718590684" lon="12.641673451987735"><ele>93.0</ele><time>2026-04-06T08:39:13Z</time></trkpt><trkpt lat="41.84186143975973" lon="12.64173635871309"><ele>93.0</ele><time>2026-04-06T08:39:14Z</time></trkpt><trkpt lat="41.841803653661344" lon="12.641816619895362"><ele>93.0</ele><time>2026-04-06T08:39:15Z</time></trkpt><trkpt lat="41.84174879051615" lon="12.641913285730386"><ele>93.0</ele><time>2026-04-06T08:39:16Z</time></trkpt><trkpt lat="41.84170743994947" lon="12.642028414778437"><ele>93.2</ele><time>2026-04-06T08:39:17Z</time></trkpt><trkpt lat="41.84168451568795" lon="12.642155204805572"><ele>93.4</ele><time>2026-04-06T08:39:18Z</time></trkpt><trkpt lat="41.84168183828336" lon="12.642284689714687"><ele>93.60000000000001</ele><time>2026-04-06T08:39:19Z</time></trkpt><trkpt lat="41.841700554273174" lon="12.642418233992833"><ele>93.80000000000001</ele><time>2026-04-06T08:39:20Z</time></trkpt><trkpt lat="41.84174054770517" lon="12.642539952407821"><ele>94.0</ele><time>2026-04-06T08:39:21Z</time></trkpt><trkpt lat="41.84179891582944" lon="12.642651627885076"><ele>94.0</ele><time>2026-04-06T08:39:22Z</time></trkpt><trkpt lat="41.84187729481426" lon="12.642761899960062"><ele>94.0</ele><time>2026-04-06T08:39:23Z</time></trkpt><trkpt lat="41.84197767420583" lon="12.642867577687367"><ele>94.0</ele><time>2026-04-06T08:39:24Z</time></trkpt><trkpt lat="41.842076954261934" lon="12.642963214605338"><ele>94.0</ele><time>2026-04-06T08:39:25Z</time></trkpt><trkpt lat="41.842178376957754" lon="12.643062943262855"><ele>94.0</ele><time>2026-04-06T08:39:26Z</time></trkpt><trkpt lat="41.842266779802316" lon="12.643185815459981"><ele>94.0</ele><time>2026-04-06T08:39:27Z</time></trkpt><trkpt lat="41.84233766209163" lon="12.643318072146597"><ele>94.0</ele><time>2026-04-06T08:39:28Z</time></trkpt><trkpt lat="41.842388075916766" lon="12.64345897195536"><ele>94.0</ele><time>2026-04-06T08:39:29Z</time></trkpt><trkpt lat="41.84242794345973" lon="12.643616686998955"><ele>94.5</ele><time>2026-04-06T08:39:30Z</time></trkpt><trkpt lat="41.842467227187925" lon="12.643792736215063"><ele>95.0</ele><time>2026-04-06T08:39:31Z</time></trkpt><trkpt lat="41.84250450985185" lon="12.643978015014312"><ele>95.5</ele><time>2026-04-06T08:39:32Z</time></trkpt><trkpt lat="41.84254488174393" lon="12.644176885988934"><ele>96.0</ele><time>2026-04-06T08:39:33Z</time></trkpt><trkpt lat="41.84259016625858" lon="12.644380864997109"><ele>96.0</ele><time>2026-04-06T08:39:34Z</time></trkpt><trkpt lat="41.842640788289806" lon="12.644590615011301"><ele>96.0</ele><time>2026-04-06T08:39:35Z</time></trkpt><trkpt lat="41.84268863583614" lon="12.64479246394843"><ele>96.0</ele><time>2026-04-06T08:39:36Z</time></trkpt><trkpt lat="41.84272836279283" lon="12.644981198953403"><ele>96.0</ele><time>2026-04-06T08:39:37Z</time></trkpt><trkpt lat="41.8427690985831" lon="12.645172631682271"><ele>96.0</ele><time>2026-04-06T08:39:38Z</time></trkpt><trkpt lat="41.84282376571713" lon="12.645387680534576"><ele>96.0</ele><time>2026-04-06T08:39:39Z</time></trkpt><trkpt lat="41.842895514216245" lon="12.645645486282536"><ele>97.0</ele><time>2026-04-06T08:39:40Z</time></trkpt><trkpt lat="41.8429654860827" lon="12.645917447063797"><ele>98.0</ele><time>2026-04-06T08:39:41Z</time></trkpt><trkpt lat="41.8430164507238" lon="12.646140445460471"><ele>99.0</ele><time>2026-04-06T08:39:42Z</time></trkpt><trkpt lat="41.843059383544585" lon="12.64633216282181"><ele>99.6</ele><time>2026-04-06T08:39:43Z</time></trkpt><trkpt lat="41.84309763608325" lon="12.646502781262845"><ele>100.2</ele><time>2026-04-06T08:39:44Z</time></trkpt><trkpt lat="41.84313129868319" lon="12.646655745205281"><ele>100.8</ele><time>2026-04-06T08:39:45Z</time></trkpt><trkpt lat="41.84315816211603" lon="12.646787216937732"><ele>101.39999999999999</ele><time>2026-04-06T08:39:46Z</time></trkpt><trkpt lat="41.84317654541127" lon="12.64689751971551"><ele>102.0</ele><time>2026-04-06T08:39:47Z</time></trkpt><trkpt lat="41.84319018578333" lon="12.647035460603973"><ele>102.66666666666667</ele><time>2026-04-06T08:39:49Z</time></trkpt><trkpt lat="41.84317307152052" lon="12.647141083780962"><ele>103.33333333333334</ele><time>2026-04-06T08:39:51Z</time></trkpt><trkpt lat="41.84312729676197" lon="12.647291631503368"><ele>104.0</ele><time>2026-04-06T08:39:53Z</time></trkpt><trkpt lat="41.84308803901148" lon="12.64738503562533"><ele>104.66666666666667</ele><time>2026-04-06T08:39:54Z</time></trkpt><trkpt lat="41.84303498217858" lon="12.647482787677665"><ele>105.33333333333334</ele><time>2026-04-06T08:39:55Z</time></trkpt><trkpt lat="41.84303026800324" lon="12.647585367892697"><ele>106.0</ele><time>2026-04-06T08:39:56Z</time></trkpt><trkpt lat="41.8430092166321" lon="12.647680295116297"><ele>106.0</ele><time>2026-04-06T08:39:57Z</time></trkpt><trkpt lat="41.84281044167186" lon="12.647704294289428"><ele>106.0</ele><time>2026-04-06T08:39:58Z</time></trkpt><trkpt lat="41.842717962906434" lon="12.647756625509034"><ele>106.0</ele><time>2026-04-06T08:39:59Z</time></trkpt><trkpt lat="41.84262251557037" lon="12.64780976419669"><ele>106.0</ele><time>2026-04-06T08:40:00Z</time></trkpt><trkpt lat="41.842510843035434" lon="12.647892075514935"><ele>105.5</ele><time>2026-04-06T08:40:01Z</time></trkpt><trkpt lat="41.84240752854933" lon="12.648004915001527"><ele>105.0</ele><time>2026-04-06T08:40:02Z</time></trkpt><trkpt lat="41.84233193960711" lon="12.648122409763603"><ele>104.5</ele><time>2026-04-06T08:40:03Z</time></trkpt><trkpt lat="41.84226407444099" lon="12.648257949655044"><ele>104.0</ele><time>2026-04-06T08:40:04Z</time></trkpt><trkpt lat="41.84220777728625" lon="12.648404599287849"><ele>104.0</ele><time>2026-04-06T08:40:05Z</time></trkpt><trkpt lat="41.842171463571646" lon="12.648558094872245"><ele>104.0</ele><time>2026-04-06T08:40:06Z</time></trkpt><trkpt lat="41.842151393424004" lon="12.64872359967049"><ele>104.0</ele><time>2026-04-06T08:40:07Z</time></trkpt><trkpt lat="41.84214555091985" lon="12.648896890208412"><ele>104.0</ele><time>2026-04-06T08:40:08Z</time></trkpt><trkpt lat="41.84215505861576" lon="12.649079456727073"><ele>103.0</ele><time>2026-04-06T08:40:09Z</time></trkpt><trkpt lat="41.84215453327297" lon="12.64926300313578"><ele>102.0</ele><time>2026-04-06T08:40:10Z</time></trkpt><trkpt lat="41.842138201892844" lon="12.649447967051085"><ele>101.0</ele><time>2026-04-06T08:40:11Z</time></trkpt><trkpt lat="41.842127732265325" lon="12.649637817263843"><ele>100.0</ele><time>2026-04-06T08:40:12Z</time></trkpt><trkpt lat="41.842122309233325" lon="12.649827865925392"><ele>98.0</ele><time>2026-04-06T08:40:13Z</time></trkpt><trkpt lat="41.842117730546065" lon="12.65003298454736"><ele>96.0</ele><time>2026-04-06T08:40:14Z</time></trkpt><trkpt lat="41.84211143316615" lon="12.650259326161654"><ele>94.0</ele><time>2026-04-06T08:40:15Z</time></trkpt><trkpt lat="41.84210196369147" lon="12.65045993457092"><ele>94.0</ele><time>2026-04-06T08:40:16Z</time></trkpt><trkpt lat="41.84209431283068" lon="12.650652335591444"><ele>94.0</ele><time>2026-04-06T08:40:17Z</time></trkpt><trkpt lat="41.84208603378392" lon="12.650849359696675"><ele>94.0</ele><time>2026-04-06T08:40:18Z</time></trkpt><trkpt lat="41.84207241448647" lon="12.651049502421023"><ele>94.0</ele><time>2026-04-06T08:40:19Z</time></trkpt><trkpt lat="41.84206167703395" lon="12.651245270390094"><ele>94.0</ele><time>2026-04-06T08:40:20Z</time></trkpt><trkpt lat="41.84205477389207" lon="12.651442487147632"><ele>94.0</ele><time>2026-04-06T08:40:21Z</time></trkpt><trkpt lat="41.842048063140695" lon="12.651635629742945"><ele>94.0</ele><time>2026-04-06T08:40:22Z</time></trkpt><trkpt lat="41.84203917322877" lon="12.651816700657783"><ele>94.0</ele><time>2026-04-06T08:40:23Z</time></trkpt><trkpt lat="41.8420318078331" lon="12.65199810251883"><ele>94.25</ele><time>2026-04-06T08:40:24Z</time></trkpt><trkpt lat="41.84202773395666" lon="12.652183887208986"><ele>94.5</ele><time>2026-04-06T08:40:25Z</time></trkpt><trkpt lat="41.84202293744" lon="12.652370908322984"><ele>94.75</ele><time>2026-04-06T08:40:26Z</time></trkpt><trkpt lat="41.842016917693904" lon="12.652552571173002"><ele>95.0</ele><time>2026-04-06T08:40:27Z</time></trkpt><trkpt lat="41.84200792932296" lon="12.652725536835957"><ele>95.5</ele><time>2026-04-06T08:40:28Z</time></trkpt><trkpt lat="41.84200035351663" lon="12.652907527545604"><ele>96.0</ele><time>2026-04-06T08:40:29Z</time></trkpt><trkpt lat="41.84199062702178" lon="12.653097160849047"><ele>96.5</ele><time>2026-04-06T08:40:30Z</time></trkpt><trkpt lat="41.84196322544339" lon="12.653290251207462"><ele>97.0</ele><time>2026-04-06T08:40:31Z</time></trkpt><trkpt lat="41.84190398979596" lon="12.653478247674812"><ele>96.75</ele><time>2026-04-06T08:40:32Z</time></trkpt><trkpt lat="41.84182745290475" lon="12.653652549107086"><ele>96.5</ele><time>2026-04-06T08:40:33Z</time></trkpt><trkpt lat="41.84173830750807" lon="12.653794197042453"><ele>96.25</ele><time>2026-04-06T08:40:34Z</time></trkpt><trkpt lat="41.84163303859695" lon="12.653904456995472"><ele>96.0</ele><time>2026-04-06T08:40:35Z</time></trkpt><trkpt lat="41.84151874510126" lon="12.654004126610648"><ele>97.0</ele><time>2026-04-06T08:40:36Z</time></trkpt><trkpt lat="41.84140844332406" lon="12.654098423495876"><ele>98.0</ele><time>2026-04-06T08:40:37Z</time></trkpt><trkpt lat="41.84130926588281" lon="12.654195309360379"><ele>99.0</ele><time>2026-04-06T08:40:38Z</time></trkpt><trkpt lat="41.841216162344494" lon="12.654272734352025"><ele>100.0</ele><time>2026-04-06T08:40:39Z</time></trkpt><trkpt lat="41.84113360214206" lon="12.654344100977488"><ele>100.0</ele><time>2026-04-06T08:40:40Z</time></trkpt><trkpt lat="41.841059944275415" lon="12.654410626676713"><ele>100.0</ele><time>2026-04-06T08:40:41Z</time></trkpt><trkpt lat="41.84099835015921" lon="12.654467594657964"><ele>100.0</ele><time>2026-04-06T08:40:42Z</time></trkpt><trkpt lat="41.840917581923186" lon="12.654535113919838"><ele>100.0</ele><time>2026-04-06T08:40:44Z</time></trkpt><trkpt lat="41.84085103413898" lon="12.65455756285961"><ele>100.0</ele><time>2026-04-06T08:40:47Z</time></trkpt><trkpt lat="41.84071944208356" lon="12.654551419475895"><ele>100.75</ele><time>2026-04-06T08:40:49Z</time></trkpt><trkpt lat="41.84061736456099" lon="12.654526869211246"><ele>101.5</ele><time>2026-04-06T08:40:51Z</time></trkpt><trkpt lat="41.84050543169484" lon="12.654573841303115"><ele>102.25</ele><time>2026-04-06T08:40:53Z</time></trkpt><trkpt lat="41.840432645560995" lon="12.654700323510642"><ele>103.0</ele><time>2026-04-06T08:40:55Z</time></trkpt><trkpt lat="41.840397077349415" lon="12.654878640800652"><ele>103.0</ele><time>2026-04-06T08:40:57Z</time></trkpt><trkpt lat="41.840395972067704" lon="12.654988678441441"><ele>103.0</ele><time>2026-04-06T08:40:58Z</time></trkpt><trkpt lat="41.840395972067824" lon="12.655083623877266"><ele>103.0</ele><time>2026-04-06T08:40:59Z</time></trkpt><trkpt lat="41.8402521637149" lon="12.655174442454296"><ele>103.0</ele><time>2026-04-06T08:41:00Z</time></trkpt><trkpt lat="41.84013393261738" lon="12.655270371682946"><ele>104.66666666666667</ele><time>2026-04-06T08:41:01Z</time></trkpt><trkpt lat="41.84002313284536" lon="12.6553721813507"><ele>106.33333333333334</ele><time>2026-04-06T08:41:02Z</time></trkpt><trkpt lat="41.83989101966808" lon="12.655482974531186"><ele>108.0</ele><time>2026-04-06T08:41:03Z</time></trkpt><trkpt lat="41.83976422201343" lon="12.655619458326614"><ele>108.0</ele><time>2026-04-06T08:41:04Z</time></trkpt><trkpt lat="41.83963298125629" lon="12.655726182116961"><ele>108.0</ele><time>2026-04-06T08:41:05Z</time></trkpt><trkpt lat="41.839505098456684" lon="12.655839905235737"><ele>108.0</ele><time>2026-04-06T08:41:06Z</time></trkpt><trkpt lat="41.839383217409996" lon="12.655956295777482"><ele>109.0</ele><time>2026-04-06T08:41:07Z</time></trkpt><trkpt lat="41.83925929968567" lon="12.656069454154018"><ele>110.0</ele><time>2026-04-06T08:41:08Z</time></trkpt><trkpt lat="41.83913434159097" lon="12.656189914426399"><ele>111.0</ele><time>2026-04-06T08:41:09Z</time></trkpt><trkpt lat="41.839009174613835" lon="12.65630044689603"><ele>111.0</ele><time>2026-04-06T08:41:10Z</time></trkpt><trkpt lat="41.83889349524728" lon="12.65640299767743"><ele>111.0</ele><time>2026-04-06T08:41:11Z</time></trkpt><trkpt lat="41.8387684316939" lon="12.656508274683945"><ele>111.0</ele><time>2026-04-06T08:41:12Z</time></trkpt><trkpt lat="41.83864665119202" lon="12.656618822855208"><ele>111.0</ele><time>2026-04-06T08:41:13Z</time></trkpt><trkpt lat="41.83852461017078" lon="12.65673134570524"><ele>111.33333333333334</ele><time>2026-04-06T08:41:14Z</time></trkpt><trkpt lat="41.83840082759131" lon="12.656840433069439"><ele>111.66666666666667</ele><time>2026-04-06T08:41:15Z</time></trkpt><trkpt lat="41.83827232407019" lon="12.65694460526759"><ele>112.0</ele><time>2026-04-06T08:41:16Z</time></trkpt><trkpt lat="41.838144500532785" lon="12.657059481966694"><ele>111.0</ele><time>2026-04-06T08:41:17Z</time></trkpt><trkpt lat="41.83801757532031" lon="12.657180023174558"><ele>110.0</ele><time>2026-04-06T08:41:18Z</time></trkpt><trkpt lat="41.83787585213967" lon="12.657302969447885"><ele>109.0</ele><time>2026-04-06T08:41:19Z</time></trkpt><trkpt lat="41.837736353308756" lon="12.657441841762877"><ele>109.0</ele><time>2026-04-06T08:41:20Z</time></trkpt><trkpt lat="41.837608352584034" lon="12.657570522279764"><ele>109.0</ele><time>2026-04-06T08:41:21Z</time></trkpt><trkpt lat="41.83748440426654" lon="12.65769103480356"><ele>109.0</ele><time>2026-04-06T08:41:22Z</time></trkpt><trkpt lat="41.837378565255364" lon="12.657796196694681"><ele>109.0</ele><time>2026-04-06T08:41:23Z</time></trkpt><trkpt lat="41.83727990208887" lon="12.657901405449264"><ele>109.0</ele><time>2026-04-06T08:41:24Z</time></trkpt><trkpt lat="41.8371883564456" lon="12.657992979044444"><ele>109.0</ele><time>2026-04-06T08:41:25Z</time></trkpt><trkpt lat="41.83711466243722" lon="12.658079424843788"><ele>109.0</ele><time>2026-04-06T08:41:26Z</time></trkpt><trkpt lat="41.83704546221981" lon="12.658166684648277"><ele>109.0</ele><time>2026-04-06T08:41:27Z</time></trkpt><trkpt lat="41.83698631451441" lon="12.658248577366686"><ele>109.0</ele><time>2026-04-06T08:41:28Z</time></trkpt><trkpt lat="41.836934563741245" lon="12.658321811421578"><ele>109.0</ele><time>2026-04-06T08:41:29Z</time></trkpt><trkpt lat="41.83687577574502" lon="12.658379359627547"><ele>109.0</ele><time>2026-04-06T08:41:30Z</time></trkpt><trkpt lat="41.83679958273318" lon="12.658407350720942"><ele>109.0</ele><time>2026-04-06T08:41:31Z</time></trkpt><trkpt lat="41.83672203883421" lon="12.658422580291495"><ele>109.0</ele><time>2026-04-06T08:41:32Z</time></trkpt><trkpt lat="41.836649332320114" lon="12.658444738679483"><ele>109.0</ele><time>2026-04-06T08:41:33Z</time></trkpt><trkpt lat="41.83659345236381" lon="12.65849670348376"><ele>109.0</ele><time>2026-04-06T08:41:34Z</time></trkpt><trkpt lat="41.83655535794858" lon="12.65857495171592"><ele>109.0</ele><time>2026-04-06T08:41:35Z</time></trkpt><trkpt lat="41.836537153948186" lon="12.658673325426042"><ele>110.5</ele><time>2026-04-06T08:41:36Z</time></trkpt><trkpt lat="41.836532018676365" lon="12.658791775247623"><ele>112.0</ele><time>2026-04-06T08:41:37Z</time></trkpt><trkpt lat="41.83652867675812" lon="12.658918514204872"><ele>113.5</ele><time>2026-04-06T08:41:38Z</time></trkpt><trkpt lat="41.836536527488086" lon="12.659019808195369"><ele>115.0</ele><time>2026-04-06T08:41:39Z</time></trkpt><trkpt lat="41.83637575268369" lon="12.659172814083357"><ele>115.0</ele><time>2026-04-06T08:41:41Z</time></trkpt><trkpt lat="41.83627704703245" lon="12.659228993550421"><ele>115.0</ele><time>2026-04-06T08:41:42Z</time></trkpt><trkpt lat="41.836149638613115" lon="12.659320026197534"><ele>115.0</ele><time>2026-04-06T08:41:43Z</time></trkpt><trkpt lat="41.836002454157956" lon="12.659437861873174"><ele>115.0</ele><time>2026-04-06T08:41:44Z</time></trkpt><trkpt lat="41.835877098501996" lon="12.659533967666045"><ele>116.25</ele><time>2026-04-06T08:41:45Z</time></trkpt><trkpt lat="41.835761940017356" lon="12.659618876390295"><ele>117.5</ele><time>2026-04-06T08:41:46Z</time></trkpt><trkpt lat="41.83564748573001" lon="12.659703848273892"><ele>118.75</ele><time>2026-04-06T08:41:47Z</time></trkpt><trkpt lat="41.8355252221249" lon="12.659782535824798"><ele>120.0</ele><time>2026-04-06T08:41:48Z</time></trkpt><trkpt lat="41.835385412577146" lon="12.659830027883507"><ele>120.0</ele><time>2026-04-06T08:41:49Z</time></trkpt><trkpt lat="41.8352519787038" lon="12.659855176940356"><ele>120.0</ele><time>2026-04-06T08:41:50Z</time></trkpt><trkpt lat="41.8351241219046" lon="12.659863153649445"><ele>120.0</ele><time>2026-04-06T08:41:51Z</time></trkpt><trkpt lat="41.83499498212464" lon="12.659865495464674"><ele>120.0</ele><time>2026-04-06T08:41:52Z</time></trkpt><trkpt lat="41.83486678784465" lon="12.659873678627832"><ele>120.5</ele><time>2026-04-06T08:41:53Z</time></trkpt><trkpt lat="41.83473884991486" lon="12.659897068653768"><ele>121.0</ele><time>2026-04-06T08:41:54Z</time></trkpt><trkpt lat="41.834615363044165" lon="12.65994230476663"><ele>121.5</ele><time>2026-04-06T08:41:55Z</time></trkpt><trkpt lat="41.83448780545888" lon="12.660024981741216"><ele>122.0</ele><time>2026-04-06T08:41:56Z</time></trkpt><trkpt lat="41.83433982847809" lon="12.66015248549756"><ele>125.33333333333333</ele><time>2026-04-06T08:41:57Z</time></trkpt><trkpt lat="41.83416840892788" lon="12.660296157454576"><ele>128.66666666666666</ele><time>2026-04-06T08:41:58Z</time></trkpt><trkpt lat="41.83400512985256" lon="12.660418809759545"><ele>132.0</ele><time>2026-04-06T08:41:59Z</time></trkpt><trkpt lat="41.8338659136037" lon="12.660539005924935"><ele>132.0</ele><time>2026-04-06T08:42:00Z</time></trkpt><trkpt lat="41.83373108293466" lon="12.660659109839253"><ele>132.0</ele><time>2026-04-06T08:42:01Z</time></trkpt><trkpt lat="41.83359578430492" lon="12.66077080730028"><ele>132.0</ele><time>2026-04-06T08:42:02Z</time></trkpt><trkpt lat="41.83346305516488" lon="12.660879462904314"><ele>132.33333333333334</ele><time>2026-04-06T08:42:03Z</time></trkpt><trkpt lat="41.833328277684295" lon="12.660989347146808"><ele>132.66666666666669</ele><time>2026-04-06T08:42:04Z</time></trkpt><trkpt lat="41.833192553199076" lon="12.661100981854878"><ele>133.0</ele><time>2026-04-06T08:42:05Z</time></trkpt><trkpt lat="41.83306067961686" lon="12.661217668231906"><ele>133.0</ele><time>2026-04-06T08:42:06Z</time></trkpt><trkpt lat="41.83292752237483" lon="12.661329997246046"><ele>133.0</ele><time>2026-04-06T08:42:07Z</time></trkpt><trkpt lat="41.83278978746106" lon="12.661431776619315"><ele>133.0</ele><time>2026-04-06T08:42:08Z</time></trkpt><trkpt lat="41.832655671243344" lon="12.661542578549158"><ele>132.75</ele><time>2026-04-06T08:42:09Z</time></trkpt><trkpt lat="41.83252424337863" lon="12.661656935503075"><ele>132.5</ele><time>2026-04-06T08:42:10Z</time></trkpt><trkpt lat="41.83240296673409" lon="12.66176117818254"><ele>132.25</ele><time>2026-04-06T08:42:11Z</time></trkpt><trkpt lat="41.832280288126306" lon="12.661866460367738"><ele>132.0</ele><time>2026-04-06T08:42:12Z</time></trkpt><trkpt lat="41.83215664193956" lon="12.661963034767465"><ele>132.0</ele><time>2026-04-06T08:42:13Z</time></trkpt><trkpt lat="41.83203988273467" lon="12.662046158021699"><ele>132.0</ele><time>2026-04-06T08:42:14Z</time></trkpt><trkpt lat="41.83192024750165" lon="12.662133041892115"><ele>132.0</ele><time>2026-04-06T08:42:15Z</time></trkpt><trkpt lat="41.831800319035864" lon="12.66224041802446"><ele>132.0</ele><time>2026-04-06T08:42:16Z</time></trkpt><trkpt lat="41.83168367431359" lon="12.662337061669836"><ele>133.5</ele><time>2026-04-06T08:42:17Z</time></trkpt><trkpt lat="41.83155826046109" lon="12.662434841092223"><ele>135.0</ele><time>2026-04-06T08:42:18Z</time></trkpt><trkpt lat="41.83143205143306" lon="12.662540784219537"><ele>136.5</ele><time>2026-04-06T08:42:19Z</time></trkpt><trkpt lat="41.83131538507395" lon="12.662638007714294"><ele>138.0</ele><time>2026-04-06T08:42:20Z</time></trkpt><trkpt lat="41.831200688019315" lon="12.662722320254893"><ele>138.0</ele><time>2026-04-06T08:42:21Z</time></trkpt><trkpt lat="41.831087560887774" lon="12.662789178984609"><ele>138.0</ele><time>2026-04-06T08:42:22Z</time></trkpt><trkpt lat="41.83097861096445" lon="12.662832884605463"><ele>138.0</ele><time>2026-04-06T08:42:23Z</time></trkpt><trkpt lat="41.830869214582854" lon="12.662846498822965"><ele>138.0</ele><time>2026-04-06T08:42:24Z</time></trkpt><trkpt lat="41.830763344842836" lon="12.662824275635485"><ele>139.0</ele><time>2026-04-06T08:42:25Z</time></trkpt><trkpt lat="41.83065940230301" lon="12.662762263685076"><ele>140.0</ele><time>2026-04-06T08:42:26Z</time></trkpt><trkpt lat="41.83058763326167" lon="12.662661583139613"><ele>141.0</ele><time>2026-04-06T08:42:27Z</time></trkpt><trkpt lat="41.83051141604562" lon="12.66253285528339"><ele>142.0</ele><time>2026-04-06T08:42:28Z</time></trkpt><trkpt lat="41.83040658350365" lon="12.662390070510062"><ele>142.0</ele><time>2026-04-06T08:42:29Z</time></trkpt><trkpt lat="41.830329460672374" lon="12.662243132139764"><ele>142.0</ele><time>2026-04-06T08:42:30Z</time></trkpt><trkpt lat="41.830251517947154" lon="12.662119678698664"><ele>142.0</ele><time>2026-04-06T08:42:31Z</time></trkpt><trkpt lat="41.8301734306211" lon="12.66201537566153"><ele>142.0</ele><time>2026-04-06T08:42:32Z</time></trkpt><trkpt lat="41.83008089973303" lon="12.661929362899178"><ele>140.5</ele><time>2026-04-06T08:42:33Z</time></trkpt><trkpt lat="41.829966424797995" lon="12.66186103463445"><ele>139.0</ele><time>2026-04-06T08:42:34Z</time></trkpt><trkpt lat="41.829839756186274" lon="12.661800046200202"><ele>137.5</ele><time>2026-04-06T08:42:35Z</time></trkpt><trkpt lat="41.82973542891346" lon="12.661741916155828"><ele>136.0</ele><time>2026-04-06T08:42:36Z</time></trkpt><trkpt lat="41.82963823999138" lon="12.661683887468294"><ele>136.0</ele><time>2026-04-06T08:42:37Z</time></trkpt><trkpt lat="41.82953747481672" lon="12.66162393066264"><ele>136.0</ele><time>2026-04-06T08:42:38Z</time></trkpt><trkpt lat="41.829425444476726" lon="12.661611071894795"><ele>136.0</ele><time>2026-04-06T08:42:39Z</time></trkpt><trkpt lat="41.82931778377504" lon="12.66164435130177"><ele>136.0</ele><time>2026-04-06T08:42:40Z</time></trkpt><trkpt lat="41.82922123069154" lon="12.6617159784613"><ele>136.0</ele><time>2026-04-06T08:42:41Z</time></trkpt><trkpt lat="41.82914258051345" lon="12.661817021825337"><ele>135.5</ele><time>2026-04-06T08:42:42Z</time></trkpt><trkpt lat="41.829066392591315" lon="12.661931271545738"><ele>135.0</ele><time>2026-04-06T08:42:43Z</time></trkpt><trkpt lat="41.82900395350993" lon="12.66207208686785"><ele>134.5</ele><time>2026-04-06T08:42:44Z</time></trkpt><trkpt lat="41.82894337137737" lon="12.66219784431203"><ele>134.0</ele><time>2026-04-06T08:42:45Z</time></trkpt><trkpt lat="41.82888520347121" lon="12.662317626849655"><ele>136.2</ele><time>2026-04-06T08:42:46Z</time></trkpt><trkpt lat="41.82882343122989" lon="12.662433486662575"><ele>138.4</ele><time>2026-04-06T08:42:47Z</time></trkpt><trkpt lat="41.82876406005909" lon="12.662547711291554"><ele>140.6</ele><time>2026-04-06T08:42:48Z</time></trkpt><trkpt lat="41.82870929623122" lon="12.662666745307478"><ele>142.8</ele><time>2026-04-06T08:42:49Z</time></trkpt><trkpt lat="41.82865278557924" lon="12.662786347427971"><ele>145.0</ele><time>2026-04-06T08:42:50Z</time></trkpt><trkpt lat="41.82859236951156" lon="12.662907560107575"><ele>145.75</ele><time>2026-04-06T08:42:51Z</time></trkpt><trkpt lat="41.82852702396869" lon="12.663031494948903"><ele>146.5</ele><time>2026-04-06T08:42:52Z</time></trkpt><trkpt lat="41.8284581785281" lon="12.663163764791372"><ele>147.25</ele><time>2026-04-06T08:42:53Z</time></trkpt><trkpt lat="41.828374439291224" lon="12.663302036222317"><ele>148.0</ele><time>2026-04-06T08:42:54Z</time></trkpt><trkpt lat="41.82832133938367" lon="12.663439809460217"><ele>148.25</ele><time>2026-04-06T08:42:55Z</time></trkpt><trkpt lat="41.82825376657755" lon="12.663590521293239"><ele>148.5</ele><time>2026-04-06T08:42:56Z</time></trkpt><trkpt lat="41.82817924304031" lon="12.663739109741725"><ele>148.75</ele><time>2026-04-06T08:42:57.001Z</time></trkpt><trkpt lat="41.828099987005245" lon="12.663885649834613"><ele>149.0</ele><time>2026-04-06T08:42:58.001Z</time></trkpt><trkpt lat="41.82801878559267" lon="12.66403248915119"><ele>149.66666666666666</ele><time>2026-04-06T08:42:59.001Z</time></trkpt><trkpt lat="41.827937912242405" lon="12.664199600401803"><ele>150.33333333333334</ele><time>2026-04-06T08:43:00.001Z</time></trkpt><trkpt lat="41.827856078917115" lon="12.664380510350009"><ele>151.0</ele><time>2026-04-06T08:43:01.001Z</time></trkpt><trkpt lat="41.82776870886988" lon="12.664562224064364"><ele>151.33333333333334</ele><time>2026-04-06T08:43:02.001Z</time></trkpt><trkpt lat="41.82767992337677" lon="12.664745365499167"><ele>151.66666666666666</ele><time>2026-04-06T08:43:03.001Z</time></trkpt><trkpt lat="41.82759610286742" lon="12.664915011156877"><ele>152.0</ele><time>2026-04-06T08:43:04.001Z</time></trkpt><trkpt lat="41.82751918281488" lon="12.66507455007578"><ele>154.25</ele><time>2026-04-06T08:43:05Z</time></trkpt><trkpt lat="41.82743746204513" lon="12.6652333269902"><ele>156.5</ele><time>2026-04-06T08:43:06Z</time></trkpt><trkpt lat="41.82735661874167" lon="12.665394257317667"><ele>158.75</ele><time>2026-04-06T08:43:07Z</time></trkpt><trkpt lat="41.82728468385111" lon="12.665563321568444"><ele>161.0</ele><time>2026-04-06T08:43:08Z</time></trkpt><trkpt lat="41.82723211624128" lon="12.665753049668139"><ele>161.66666666666666</ele><time>2026-04-06T08:43:09Z</time></trkpt><trkpt lat="41.82718142861807" lon="12.66594867297907"><ele>162.33333333333334</ele><time>2026-04-06T08:43:10Z</time></trkpt><trkpt lat="41.827125801220646" lon="12.666135970504138"><ele>163.0</ele><time>2026-04-06T08:43:11Z</time></trkpt><trkpt lat="41.82706812665376" lon="12.666318153625758"><ele>163.0</ele><time>2026-04-06T08:43:12Z</time></trkpt><trkpt lat="41.827012511189544" lon="12.66649917668213"><ele>163.0</ele><time>2026-04-06T08:43:13Z</time></trkpt><trkpt lat="41.82695903838953" lon="12.666685565912807"><ele>163.0</ele><time>2026-04-06T08:43:14Z</time></trkpt><trkpt lat="41.82689683074727" lon="12.666869249706204"><ele>163.0</ele><time>2026-04-06T08:43:15Z</time></trkpt><trkpt lat="41.82681932471443" lon="12.667045629706601"><ele>166.0</ele><time>2026-04-06T08:43:16Z</time></trkpt><trkpt lat="41.826726756698235" lon="12.667207005122382"><ele>169.0</ele><time>2026-04-06T08:43:17Z</time></trkpt><trkpt lat="41.82662587567699" lon="12.667358936621739"><ele>172.0</ele><time>2026-04-06T08:43:18Z</time></trkpt><trkpt lat="41.82652439709045" lon="12.667510829618951"><ele>172.0</ele><time>2026-04-06T08:43:19Z</time></trkpt><trkpt lat="41.826423396067796" lon="12.667657098912148"><ele>172.0</ele><time>2026-04-06T08:43:20Z</time></trkpt><trkpt lat="41.82631941033469" lon="12.667806868000417"><ele>172.0</ele><time>2026-04-06T08:43:21Z</time></trkpt><trkpt lat="41.82621215872535" lon="12.667950257917198"><ele>172.0</ele><time>2026-04-06T08:43:22Z</time></trkpt><trkpt lat="41.826116055345274" lon="12.668080979952418"><ele>172.0</ele><time>2026-04-06T08:43:23Z</time></trkpt><trkpt lat="41.82601008872912" lon="12.668232361719129"><ele>172.0</ele><time>2026-04-06T08:43:24Z</time></trkpt><trkpt lat="41.825890255822166" lon="12.668407473028083"><ele>173.75</ele><time>2026-04-06T08:43:25Z</time></trkpt><trkpt lat="41.82578858927561" lon="12.668552796803846"><ele>175.5</ele><time>2026-04-06T08:43:26Z</time></trkpt><trkpt lat="41.82569770521859" lon="12.668680652885087"><ele>177.25</ele><time>2026-04-06T08:43:27Z</time></trkpt><trkpt lat="41.825610515194924" lon="12.668807605859621"><ele>179.0</ele><time>2026-04-06T08:43:28Z</time></trkpt><trkpt lat="41.8255160138461" lon="12.668952834576237"><ele>179.5</ele><time>2026-04-06T08:43:29Z</time></trkpt><trkpt lat="41.825431801509275" lon="12.669081055059973"><ele>180.0</ele><time>2026-04-06T08:43:30Z</time></trkpt><trkpt lat="41.82537955190876" lon="12.66915394869588"><ele>180.5</ele><time>2026-04-06T08:43:31Z</time></trkpt><trkpt lat="41.82532610340075" lon="12.669245468710393"><ele>181.0</ele><time>2026-04-06T08:43:35Z</time></trkpt><trkpt lat="41.825447650751876" lon="12.669411172688243"><ele>181.16666666666669</ele><time>2026-04-06T08:43:37Z</time></trkpt><trkpt lat="41.825514555159444" lon="12.669484985436204"><ele>181.33333333333334</ele><time>2026-04-06T08:43:38Z</time></trkpt><trkpt lat="41.825571388671214" lon="12.669563558225498"><ele>181.5</ele><time>2026-04-06T08:43:39Z</time></trkpt><trkpt lat="41.82561543632692" lon="12.669648291267231"><ele>181.66666666666666</ele><time>2026-04-06T08:43:40Z</time></trkpt><trkpt lat="41.825657911374954" lon="12.669749543975168"><ele>181.83333333333331</ele><time>2026-04-06T08:43:41Z</time></trkpt><trkpt lat="41.82569728826428" lon="12.669857908125277"><ele>182.0</ele><time>2026-04-06T08:43:42Z</time></trkpt><trkpt lat="41.82572615242678" lon="12.669947098132157"><ele>182.0</ele><time>2026-04-06T08:43:43Z</time></trkpt><trkpt lat="41.82576694967381" lon="12.670060410282208"><ele>182.0</ele><time>2026-04-06T08:43:45Z</time></trkpt><trkpt lat="41.82580867079133" lon="12.67018123405241"><ele>182.0</ele><time>2026-04-06T08:43:47Z</time></trkpt><trkpt lat="41.82584922926908" lon="12.67029100608883"><ele>182.0</ele><time>2026-04-06T08:43:49Z</time></trkpt><trkpt lat="41.82589626977186" lon="12.670438906856383"><ele>182.0</ele><time>2026-04-06T08:43:51Z</time></trkpt><trkpt lat="41.825930141978496" lon="12.670534318810958"><ele>182.0</ele><time>2026-04-06T08:43:52Z</time></trkpt><trkpt lat="41.82596318741011" lon="12.670624098962707"><ele>182.0</ele><time>2026-04-06T08:43:53Z</time></trkpt><trkpt lat="41.82599860014817" lon="12.67073003244333"><ele>182.0</ele><time>2026-04-06T08:43:54Z</time></trkpt><trkpt lat="41.82603293382769" lon="12.670825194101894"><ele>182.0</ele><time>2026-04-06T08:43:55Z</time></trkpt><trkpt lat="41.82606689727852" lon="12.670922492692126"><ele>182.0</ele><time>2026-04-06T08:43:56Z</time></trkpt><trkpt lat="41.82608907277994" lon="12.671019895956709"><ele>182.0</ele><time>2026-04-06T08:43:57Z</time></trkpt><trkpt lat="41.826101471056624" lon="12.671121768882816"><ele>182.8</ele><time>2026-04-06T08:43:58Z</time></trkpt><trkpt lat="41.82611048310068" lon="12.671235159871769"><ele>183.6</ele><time>2026-04-06T08:43:59Z</time></trkpt><trkpt lat="41.82609668728068" lon="12.671356307953774"><ele>184.4</ele><time>2026-04-06T08:44:00Z</time></trkpt><trkpt lat="41.826073747492295" lon="12.671481951138984"><ele>185.20000000000002</ele><time>2026-04-06T08:44:01Z</time></trkpt><trkpt lat="41.826048978661134" lon="12.671611363620842"><ele>186.0</ele><time>2026-04-06T08:44:02Z</time></trkpt><trkpt lat="41.82602613543364" lon="12.67172610257559"><ele>186.0</ele><time>2026-04-06T08:44:03Z</time></trkpt><trkpt lat="41.825989494179346" lon="12.671837241651495"><ele>186.0</ele><time>2026-04-06T08:44:04Z</time></trkpt><trkpt lat="41.825945448390016" lon="12.67194401659312"><ele>186.0</ele><time>2026-04-06T08:44:05Z</time></trkpt><trkpt lat="41.82585213977425" lon="12.672010060613202"><ele>186.0</ele><time>2026-04-06T08:44:06Z</time></trkpt><trkpt lat="41.82577436512055" lon="12.67209193972569"><ele>186.0</ele><time>2026-04-06T08:44:07Z</time></trkpt><trkpt lat="41.82569626704086" lon="12.672172422514763"><ele>186.8</ele><time>2026-04-06T08:44:08Z</time></trkpt><trkpt lat="41.8256223492007" lon="12.672258546067397"><ele>187.60000000000002</ele><time>2026-04-06T08:44:09Z</time></trkpt><trkpt lat="41.825547699103474" lon="12.672342748562038"><ele>188.4</ele><time>2026-04-06T08:44:10Z</time></trkpt><trkpt lat="41.82546761711048" lon="12.67242266675198"><ele>189.2</ele><time>2026-04-06T08:44:11Z</time></trkpt><trkpt lat="41.82536135535417" lon="12.672538240447363"><ele>190.0</ele><time>2026-04-06T08:44:12Z</time></trkpt><trkpt lat="41.82524498246862" lon="12.67266910959411"><ele>191.75</ele><time>2026-04-06T08:44:13Z</time></trkpt><trkpt lat="41.82514819356306" lon="12.672777840142187"><ele>193.5</ele><time>2026-04-06T08:44:14Z</time></trkpt><trkpt lat="41.8250266518007" lon="12.672919077991095"><ele>195.25</ele><time>2026-04-06T08:44:15Z</time></trkpt><trkpt lat="41.824904037498754" lon="12.673059989654037"><ele>197.0</ele><time>2026-04-06T08:44:16Z</time></trkpt><trkpt lat="41.82479085496376" lon="12.673181106347027"><ele>197.25</ele><time>2026-04-06T08:44:17Z</time></trkpt><trkpt lat="41.82467404387707" lon="12.673305472075267"><ele>197.5</ele><time>2026-04-06T08:44:18Z</time></trkpt><trkpt lat="41.82456173103803" lon="12.673430268251629"><ele>197.75</ele><time>2026-04-06T08:44:19Z</time></trkpt><trkpt lat="41.82446356857636" lon="12.673541259923065"><ele>198.0</ele><time>2026-04-06T08:44:20Z</time></trkpt><trkpt lat="41.82436205946541" lon="12.673656165665074"><ele>198.0</ele><time>2026-04-06T08:44:21Z</time></trkpt><trkpt lat="41.824260735054494" lon="12.673768508067608"><ele>198.0</ele><time>2026-04-06T08:44:22Z</time></trkpt><trkpt lat="41.82415262771779" lon="12.67389295404364"><ele>198.0</ele><time>2026-04-06T08:44:23Z</time></trkpt><trkpt lat="41.824007263686404" lon="12.674055534365507"><ele>198.0</ele><time>2026-04-06T08:44:24Z</time></trkpt><trkpt lat="41.8238573097008" lon="12.67422065229147"><ele>198.0</ele><time>2026-04-06T08:44:25Z</time></trkpt><trkpt lat="41.82373765705136" lon="12.674359803397058"><ele>198.0</ele><time>2026-04-06T08:44:26Z</time></trkpt><trkpt lat="41.82362616888228" lon="12.674487622757434"><ele>200.0</ele><time>2026-04-06T08:44:27Z</time></trkpt><trkpt lat="41.82351754956114" lon="12.674601973898326"><ele>202.0</ele><time>2026-04-06T08:44:28Z</time></trkpt><trkpt lat="41.82339869089433" lon="12.67472310775279"><ele>204.0</ele><time>2026-04-06T08:44:29Z</time></trkpt><trkpt lat="41.823292074405025" lon="12.674843442720805"><ele>206.0</ele><time>2026-04-06T08:44:30Z</time></trkpt><trkpt lat="41.823189832538226" lon="12.674962013591754"><ele>207.0</ele><time>2026-04-06T08:44:31Z</time></trkpt><trkpt lat="41.8230825905604" lon="12.67507293945862"><ele>208.0</ele><time>2026-04-06T08:44:32Z</time></trkpt><trkpt lat="41.822954474035285" lon="12.675209320428678"><ele>209.0</ele><time>2026-04-06T08:44:33Z</time></trkpt><trkpt lat="41.82281254098667" lon="12.675363352700588"><ele>210.66666666666669</ele><time>2026-04-06T08:44:34Z</time></trkpt><trkpt lat="41.82268315648609" lon="12.67548836239668"><ele>212.33333333333331</ele><time>2026-04-06T08:44:35Z</time></trkpt><trkpt lat="41.82254909605832" lon="12.675611501289328"><ele>214.0</ele><time>2026-04-06T08:44:36Z</time></trkpt><trkpt lat="41.82243369342459" lon="12.675719034611562"><ele>216.25</ele><time>2026-04-06T08:44:37Z</time></trkpt><trkpt lat="41.82230153002095" lon="12.675839739661296"><ele>218.5</ele><time>2026-04-06T08:44:38Z</time></trkpt><trkpt lat="41.822175371130555" lon="12.675945542873427"><ele>220.75</ele><time>2026-04-06T08:44:39Z</time></trkpt><trkpt lat="41.82206643888709" lon="12.676051111169755"><ele>223.0</ele><time>2026-04-06T08:44:40Z</time></trkpt><trkpt lat="41.82197193572054" lon="12.676177400474845"><ele>223.60000000000002</ele><time>2026-04-06T08:44:41Z</time></trkpt><trkpt lat="41.82189475070563" lon="12.676292428136705"><ele>224.20000000000002</ele><time>2026-04-06T08:44:42Z</time></trkpt><trkpt lat="41.821804007046715" lon="12.676413724453756"><ele>224.8</ele><time>2026-04-06T08:44:43Z</time></trkpt><trkpt lat="41.82172924154738" lon="12.67651202176182"><ele>225.4</ele><time>2026-04-06T08:44:44Z</time></trkpt><trkpt lat="41.82166794914757" lon="12.676596354220495"><ele>226.0</ele><time>2026-04-06T08:44:45Z</time></trkpt><trkpt lat="41.821615593197365" lon="12.676672339106451"><ele>226.33333333333331</ele><time>2026-04-06T08:44:46Z</time></trkpt><trkpt lat="41.821545739431585" lon="12.67676587377798"><ele>226.66666666666666</ele><time>2026-04-06T08:44:47Z</time></trkpt><trkpt lat="41.8214848017991" lon="12.676847386206001"><ele>227.0</ele><time>2026-04-06T08:44:48Z</time></trkpt><trkpt lat="41.82143308518654" lon="12.676918805278001"><ele>227.33333333333331</ele><time>2026-04-06T08:44:49Z</time></trkpt><trkpt lat="41.821364695115506" lon="12.67700274729339"><ele>227.66666666666666</ele><time>2026-04-06T08:44:51Z</time></trkpt><trkpt lat="41.821299874725376" lon="12.6770480922413"><ele>228.0</ele><time>2026-04-06T08:44:54Z</time></trkpt><trkpt lat="41.82121107554798" lon="12.67700980716952"><ele>228.0</ele><time>2026-04-06T08:44:56Z</time></trkpt><trkpt lat="41.82113480965176" lon="12.677080011186096"><ele>228.0</ele><time>2026-04-06T08:44:58Z</time></trkpt><trkpt lat="41.821140879922126" lon="12.67716736112934"><ele>228.0</ele><time>2026-04-06T08:44:59Z</time></trkpt><trkpt lat="41.82118040778177" lon="12.677287070818773"><ele>228.0</ele><time>2026-04-06T08:45:01Z</time></trkpt><trkpt lat="41.821250461258636" lon="12.67738752196482"><ele>228.0</ele><time>2026-04-06T08:45:03Z</time></trkpt><trkpt lat="41.82131952868042" lon="12.677409990334816"><ele>228.0</ele><time>2026-04-06T08:45:04Z</time></trkpt><trkpt lat="41.821348727718174" lon="12.677509459729992"><ele>228.0</ele><time>2026-04-06T08:45:05Z</time></trkpt><trkpt lat="41.821423698624045" lon="12.677562981535774"><ele>228.0</ele><time>2026-04-06T08:45:06Z</time></trkpt><trkpt lat="41.82146885598741" lon="12.677651477234397"><ele>228.0</ele><time>2026-04-06T08:45:07Z</time></trkpt><trkpt lat="41.821522571807904" lon="12.677752950267617"><ele>228.0</ele><time>2026-04-06T08:45:08Z</time></trkpt><trkpt lat="41.821579543563004" lon="12.677858935046624"><ele>228.0</ele><time>2026-04-06T08:45:09Z</time></trkpt><trkpt lat="41.82163529059524" lon="12.677961960174706"><ele>228.4</ele><time>2026-04-06T08:45:10Z</time></trkpt><trkpt lat="41.82169543004758" lon="12.678073977256316"><ele>228.8</ele><time>2026-04-06T08:45:11Z</time></trkpt><trkpt lat="41.82175105619638" lon="12.678181594550749"><ele>229.2</ele><time>2026-04-06T08:45:12Z</time></trkpt><trkpt lat="41.82180479467616" lon="12.678287838528114"><ele>229.6</ele><time>2026-04-06T08:45:13Z</time></trkpt><trkpt lat="41.82185739943864" lon="12.678389581565218"><ele>230.0</ele><time>2026-04-06T08:45:14Z</time></trkpt><trkpt lat="41.82190829005564" lon="12.678491277125135"><ele>228.50000000000003</ele><time>2026-04-06T08:45:15Z</time></trkpt><trkpt lat="41.821956280094106" lon="12.678585799373524"><ele>227.0</ele><time>2026-04-06T08:45:16Z</time></trkpt><trkpt lat="41.822001187789304" lon="12.678678387822455"><ele>225.5</ele><time>2026-04-06T08:45:17Z</time></trkpt><trkpt lat="41.82204122625167" lon="12.678768303546756"><ele>224.0</ele><time>2026-04-06T08:45:18Z</time></trkpt><trkpt lat="41.822073995553346" lon="12.678856404594942"><ele>222.50000000000003</ele><time>2026-04-06T08:45:19Z</time></trkpt><trkpt lat="41.8220951452473" lon="12.678956332442322"><ele>221.0</ele><time>2026-04-06T08:45:20Z</time></trkpt><trkpt lat="41.822096291628824" lon="12.679057830280694"><ele>221.00000000000003</ele><time>2026-04-06T08:45:21Z</time></trkpt><trkpt lat="41.82208731680781" lon="12.679165235904216"><ele>221.0</ele><time>2026-04-06T08:45:22Z</time></trkpt><trkpt lat="41.8220769491637" lon="12.679272570459112"><ele>221.0</ele><time>2026-04-06T08:45:23Z</time></trkpt><trkpt lat="41.82204047598166" lon="12.679367242150706"><ele>221.0</ele><time>2026-04-06T08:45:24Z</time></trkpt><trkpt lat="41.821977882292806" lon="12.679451876477156"><ele>221.00000000000003</ele><time>2026-04-06T08:45:25Z</time></trkpt><trkpt lat="41.82190562616183" lon="12.679535321463714"><ele>221.0</ele><time>2026-04-06T08:45:26Z</time></trkpt><trkpt lat="41.82182619450436" lon="12.679621775262564"><ele>222.5</ele><time>2026-04-06T08:45:27Z</time></trkpt><trkpt lat="41.82173174644651" lon="12.679697627910567"><ele>224.0</ele><time>2026-04-06T08:45:28Z</time></trkpt><trkpt lat="41.821612267692906" lon="12.679794635078219"><ele>225.5</ele><time>2026-04-06T08:45:29Z</time></trkpt><trkpt lat="41.821483060735645" lon="12.679913414921739"><ele>227.0</ele><time>2026-04-06T08:45:30Z</time></trkpt><trkpt lat="41.821377471032804" lon="12.6800140547155"><ele>227.0</ele><time>2026-04-06T08:45:31Z</time></trkpt><trkpt lat="41.82127436151185" lon="12.680127231763802"><ele>227.0</ele><time>2026-04-06T08:45:32Z</time></trkpt><trkpt lat="41.82118803472686" lon="12.680261032811389"><ele>227.0</ele><time>2026-04-06T08:45:33Z</time></trkpt><trkpt lat="41.82110928276855" lon="12.680404392015209"><ele>227.0</ele><time>2026-04-06T08:45:34Z</time></trkpt><trkpt lat="41.821029345685865" lon="12.680563578580434"><ele>229.75</ele><time>2026-04-06T08:45:35Z</time></trkpt><trkpt lat="41.82096323378243" lon="12.680711888083483"><ele>232.5</ele><time>2026-04-06T08:45:36Z</time></trkpt><trkpt lat="41.82089253535045" lon="12.680857540505826"><ele>235.25</ele><time>2026-04-06T08:45:37Z</time></trkpt><trkpt lat="41.82081834152583" lon="12.68100056657862"><ele>238.0</ele><time>2026-04-06T08:45:38Z</time></trkpt><trkpt lat="41.82075063439556" lon="12.681155668702656"><ele>238.5</ele><time>2026-04-06T08:45:39Z</time></trkpt><trkpt lat="41.82068651662805" lon="12.68131305640375"><ele>239.0</ele><time>2026-04-06T08:45:40Z</time></trkpt><trkpt lat="41.82061902708725" lon="12.681465718755577"><ele>239.5</ele><time>2026-04-06T08:45:41Z</time></trkpt><trkpt lat="41.820547392368205" lon="12.681622086743216"><ele>240.0</ele><time>2026-04-06T08:45:42Z</time></trkpt><trkpt lat="41.82047866921576" lon="12.681771140038903"><ele>240.0</ele><time>2026-04-06T08:45:43Z</time></trkpt><trkpt lat="41.82040989135251" lon="12.681912179776809"><ele>240.0</ele><time>2026-04-06T08:45:44Z</time></trkpt><trkpt lat="41.82034795961114" lon="12.682024331569213"><ele>240.0</ele><time>2026-04-06T08:45:45Z</time></trkpt><trkpt lat="41.82029127125373" lon="12.682106495358138"><ele>240.0</ele><time>2026-04-06T08:45:46Z</time></trkpt><trkpt lat="41.820212453227384" lon="12.682197696044486"><ele>240.0</ele><time>2026-04-06T08:45:48Z</time></trkpt><trkpt lat="41.820177996799295" lon="12.682270587163524"><ele>241.33333333333334</ele><time>2026-04-06T08:45:49Z</time></trkpt><trkpt lat="41.82007531696925" lon="12.682263065372613"><ele>242.66666666666669</ele><time>2026-04-06T08:45:50Z</time></trkpt><trkpt lat="41.82000069891133" lon="12.682319939414695"><ele>244.0</ele><time>2026-04-06T08:45:51Z</time></trkpt><trkpt lat="41.81996681561076" lon="12.682399556479783"><ele>245.33333333333334</ele><time>2026-04-06T08:45:52Z</time></trkpt><trkpt lat="41.81996375784331" lon="12.682483932201565"><ele>246.66666666666669</ele><time>2026-04-06T08:45:53Z</time></trkpt><trkpt lat="41.8199937372668" lon="12.682568132501912"><ele>248.0</ele><time>2026-04-06T08:45:54Z</time></trkpt><trkpt lat="41.82004066049402" lon="12.682636315352264"><ele>247.2</ele><time>2026-04-06T08:45:55Z</time></trkpt><trkpt lat="41.82017213040505" lon="12.682632778407973"><ele>246.4</ele><time>2026-04-06T08:45:57Z</time></trkpt><trkpt lat="41.82024962913258" lon="12.682584410884889"><ele>245.59999999999997</ele><time>2026-04-06T08:45:58Z</time></trkpt><trkpt lat="41.8203089573269" lon="12.682538406742708"><ele>244.79999999999998</ele><time>2026-04-06T08:45:59Z</time></trkpt><trkpt lat="41.82042209363882" lon="12.682593673931244"><ele>244.0</ele><time>2026-04-06T08:46:00Z</time></trkpt><trkpt lat="41.82051346482886" lon="12.682603665654476"><ele>244.0</ele><time>2026-04-06T08:46:01Z</time></trkpt><trkpt lat="41.82061644193604" lon="12.682613146132079"><ele>243.99999999999997</ele><time>2026-04-06T08:46:02Z</time></trkpt><trkpt lat="41.82072357033709" lon="12.682622505920083"><ele>243.99999999999997</ele><time>2026-04-06T08:46:03Z</time></trkpt><trkpt lat="41.820840658497" lon="12.682631831423299"><ele>244.0</ele><time>2026-04-06T08:46:04Z</time></trkpt><trkpt lat="41.82095502543392" lon="12.682639076734311"><ele>244.0</ele><time>2026-04-06T08:46:05Z</time></trkpt><trkpt lat="41.82104740298825" lon="12.682645080272293"><ele>243.99999999999997</ele><time>2026-04-06T08:46:07Z</time></trkpt><trkpt lat="41.821125241272284" lon="12.682682593105673"><ele>244.0</ele><time>2026-04-06T08:46:08Z</time></trkpt><trkpt lat="41.82118460072421" lon="12.682731084254755"><ele>244.0</ele><time>2026-04-06T08:46:09Z</time></trkpt><trkpt lat="41.82123523884857" lon="12.68283520562832"><ele>244.0</ele><time>2026-04-06T08:46:11Z</time></trkpt><trkpt lat="41.82129003883445" lon="12.68295718395366"><ele>243.99999999999997</ele><time>2026-04-06T08:46:13Z</time></trkpt><trkpt lat="41.821345171127966" lon="12.6830328355344"><ele>244.0</ele><time>2026-04-06T08:46:14Z</time></trkpt><trkpt lat="41.82134448710963" lon="12.683172210275002"><ele>244.66666666666666</ele><time>2026-04-06T08:46:15Z</time></trkpt><trkpt lat="41.82136554771999" lon="12.683280639874233"><ele>245.33333333333331</ele><time>2026-04-06T08:46:16Z</time></trkpt><trkpt lat="41.82138713858046" lon="12.683383760442211"><ele>246.0</ele><time>2026-04-06T08:46:17Z</time></trkpt><trkpt lat="41.82141017176788" lon="12.683487515128354"><ele>246.66666666666669</ele><time>2026-04-06T08:46:18Z</time></trkpt><trkpt lat="41.821433304831594" lon="12.683606425519503"><ele>247.33333333333334</ele><time>2026-04-06T08:46:19Z</time></trkpt><trkpt lat="41.8214619947989" lon="12.683743870670124"><ele>248.0</ele><time>2026-04-06T08:46:20Z</time></trkpt><trkpt lat="41.821491421001674" lon="12.683878606270232"><ele>248.0</ele><time>2026-04-06T08:46:21Z</time></trkpt><trkpt lat="41.821512546574404" lon="12.684016138352051"><ele>248.0</ele><time>2026-04-06T08:46:22Z</time></trkpt><trkpt lat="41.82152663948357" lon="12.684166647305497"><ele>248.0</ele><time>2026-04-06T08:46:23Z</time></trkpt><trkpt lat="41.821528236243736" lon="12.684304414611654"><ele>248.0</ele><time>2026-04-06T08:46:24Z</time></trkpt><trkpt lat="41.821527661287014" lon="12.684430044553725"><ele>248.0</ele><time>2026-04-06T08:46:25Z</time></trkpt><trkpt lat="41.82153321660287" lon="12.684545181700189"><ele>248.0</ele><time>2026-04-06T08:46:26Z</time></trkpt><trkpt lat="41.82153774998685" lon="12.684676283085796"><ele>248.0</ele><time>2026-04-06T08:46:27Z</time></trkpt><trkpt lat="41.8215418947332" lon="12.684787097918226"><ele>248.0</ele><time>2026-04-06T08:46:28Z</time></trkpt><trkpt lat="41.82154298854931" lon="12.684908005072238"><ele>248.0</ele><time>2026-04-06T08:46:29Z</time></trkpt><trkpt lat="41.821546181860576" lon="12.685050973676342"><ele>248.0</ele><time>2026-04-06T08:46:30Z</time></trkpt><trkpt lat="41.82156461037092" lon="12.685209269778628"><ele>248.60000000000002</ele><time>2026-04-06T08:46:31Z</time></trkpt><trkpt lat="41.82158867351999" lon="12.685356343165195"><ele>249.20000000000002</ele><time>2026-04-06T08:46:32Z</time></trkpt><trkpt lat="41.82161533864775" lon="12.685502837526997"><ele>249.8</ele><time>2026-04-06T08:46:33Z</time></trkpt><trkpt lat="41.82164690539745" lon="12.685632987458751"><ele>250.4</ele><time>2026-04-06T08:46:34Z</time></trkpt><trkpt lat="41.821674649322595" lon="12.685747103339997"><ele>251.0</ele><time>2026-04-06T08:46:35Z</time></trkpt><trkpt lat="41.821710076757675" lon="12.68584627637048"><ele>251.0</ele><time>2026-04-06T08:46:36Z</time></trkpt><trkpt lat="41.82174658829812" lon="12.685948623890164"><ele>251.00000000000003</ele><time>2026-04-06T08:46:37Z</time></trkpt><trkpt lat="41.82178941803839" lon="12.686062104649894"><ele>251.00000000000003</ele><time>2026-04-06T08:46:38Z</time></trkpt><trkpt lat="41.8218356463638" lon="12.686168310835999"><ele>251.0</ele><time>2026-04-06T08:46:39Z</time></trkpt><trkpt lat="41.82189217340491" lon="12.686310112706218"><ele>251.0</ele><time>2026-04-06T08:46:40Z</time></trkpt><trkpt lat="41.82192956993517" lon="12.686444862346962"><ele>251.4</ele><time>2026-04-06T08:46:41Z</time></trkpt><trkpt lat="41.82193982647211" lon="12.686586724062984"><ele>251.8</ele><time>2026-04-06T08:46:42Z</time></trkpt><trkpt lat="41.821924261718436" lon="12.686724304742636"><ele>252.20000000000002</ele><time>2026-04-06T08:46:43Z</time></trkpt><trkpt lat="41.82188652862738" lon="12.686849818794256"><ele>252.60000000000002</ele><time>2026-04-06T08:46:44Z</time></trkpt><trkpt lat="41.82183771421396" lon="12.68697071937837"><ele>253.0</ele><time>2026-04-06T08:46:45Z</time></trkpt><trkpt lat="41.82176828846459" lon="12.68707600329638"><ele>254.4</ele><time>2026-04-06T08:46:46Z</time></trkpt><trkpt lat="41.82169295381534" lon="12.687145352165988"><ele>255.8</ele><time>2026-04-06T08:46:47Z</time></trkpt><trkpt lat="41.821630234808254" lon="12.687189465577347"><ele>257.2</ele><time>2026-04-06T08:46:48Z</time></trkpt><trkpt lat="41.82154046453239" lon="12.68723231123061"><ele>258.6</ele><time>2026-04-06T08:46:50Z</time></trkpt><trkpt lat="41.821403151717355" lon="12.687240700300517"><ele>260.0</ele><time>2026-04-06T08:46:52Z</time></trkpt><trkpt lat="41.82133194074097" lon="12.687258012214883"><ele>260.0</ele><time>2026-04-06T08:46:53Z</time></trkpt><trkpt lat="41.82127064830447" lon="12.687210870157331"><ele>260.0</ele><time>2026-04-06T08:46:54Z</time></trkpt><trkpt lat="41.821177952098374" lon="12.687326450655243"><ele>260.0</ele><time>2026-04-06T08:46:56Z</time></trkpt><trkpt lat="41.8211584243253" lon="12.687435007771448"><ele>260.0</ele><time>2026-04-06T08:46:57Z</time></trkpt><trkpt lat="41.82111526918251" lon="12.687543134635238"><ele>260.0</ele><time>2026-04-06T08:46:58Z</time></trkpt><trkpt lat="41.821034831717824" lon="12.687612589897283"><ele>262.0</ele><time>2026-04-06T08:46:59Z</time></trkpt><trkpt lat="41.82094206556542" lon="12.687659872569892"><ele>264.0</ele><time>2026-04-06T08:47:00Z</time></trkpt><trkpt lat="41.82085732497913" lon="12.687711848824009"><ele>266.0</ele><time>2026-04-06T08:47:01Z</time></trkpt><trkpt lat="41.82077052810399" lon="12.687767392461396"><ele>268.0</ele><time>2026-04-06T08:47:02Z</time></trkpt><trkpt lat="41.82067585135846" lon="12.687824448291009"><ele>270.0</ele><time>2026-04-06T08:47:03Z</time></trkpt><trkpt lat="41.82058979405286" lon="12.68787231974986"><ele>270.1666666666667</ele><time>2026-04-06T08:47:04Z</time></trkpt><trkpt lat="41.820512997786366" lon="12.687896768919163"><ele>270.3333333333333</ele><time>2026-04-06T08:47:05Z</time></trkpt><trkpt lat="41.82044625127586" lon="12.68790004389387"><ele>270.5</ele><time>2026-04-06T08:47:06Z</time></trkpt><trkpt lat="41.82032215065595" lon="12.687882515793431"><ele>270.66666666666663</ele><time>2026-04-06T08:47:08Z</time></trkpt><trkpt lat="41.82025144101231" lon="12.687897501413154"><ele>270.8333333333333</ele><time>2026-04-06T08:47:09Z</time></trkpt><trkpt lat="41.82018006375677" lon="12.687970189104774"><ele>271.0</ele><time>2026-04-06T08:47:10.001Z</time></trkpt><trkpt lat="41.820091115491664" lon="12.688031750977837"><ele>272.8</ele><time>2026-04-06T08:47:11.001Z</time></trkpt><trkpt lat="41.82000439408356" lon="12.688097269366294"><ele>274.6</ele><time>2026-04-06T08:47:12.001Z</time></trkpt><trkpt lat="41.81991428223355" lon="12.688164060120172"><ele>276.4</ele><time>2026-04-06T08:47:13.001Z</time></trkpt><trkpt lat="41.8198153160505" lon="12.688237413688112"><ele>278.2</ele><time>2026-04-06T08:47:14.001Z</time></trkpt><trkpt lat="41.819738359803296" lon="12.688294453516217"><ele>280.0</ele><time>2026-04-06T08:47:15.001Z</time></trkpt><trkpt lat="41.81968352446188" lon="12.68834008039882"><ele>280.0</ele><time>2026-04-06T08:47:16.001Z</time></trkpt><trkpt lat="41.81961800315996" lon="12.688396429894102"><ele>280.0</ele><time>2026-04-06T08:47:18Z</time></trkpt><trkpt lat="41.81955357658713" lon="12.688454820845749"><ele>280.0</ele><time>2026-04-06T08:47:22Z</time></trkpt><trkpt lat="41.819461470166765" lon="12.68837140639635"><ele>280.0</ele><time>2026-04-06T08:47:23Z</time></trkpt><trkpt lat="41.81935255415133" lon="12.688267576005503"><ele>280.0</ele><time>2026-04-06T08:47:25Z</time></trkpt><trkpt lat="41.81927453960554" lon="12.688214471326333"><ele>280.16666666666663</ele><time>2026-04-06T08:47:26Z</time></trkpt><trkpt lat="41.819212124127674" lon="12.688168445023116"><ele>280.3333333333333</ele><time>2026-04-06T08:47:27Z</time></trkpt><trkpt lat="41.81913112457036" lon="12.688121813708927"><ele>280.5</ele><time>2026-04-06T08:47:28Z</time></trkpt><trkpt lat="41.81905091174137" lon="12.688059248684096"><ele>280.6666666666667</ele><time>2026-04-06T08:47:29Z</time></trkpt><trkpt lat="41.818986906025096" lon="12.68805313327667"><ele>280.83333333333337</ele><time>2026-04-06T08:47:30Z</time></trkpt><trkpt lat="41.81892406802647" lon="12.688007641821978"><ele>281.0</ele><time>2026-04-06T08:47:35Z</time></trkpt><trkpt lat="41.818889029470455" lon="12.687908374014425"><ele>281.0</ele><time>2026-04-06T08:47:47Z</time></trkpt><trkpt lat="41.81881916483478" lon="12.687832870347176"><ele>281.0</ele><time>2026-04-06T08:47:49Z</time></trkpt><trkpt lat="41.81871180935929" lon="12.687991890876084"><ele>281.0</ele><time>2026-04-06T08:47:51Z</time></trkpt><trkpt lat="41.81862020788592" lon="12.688100507413484"><ele>281.0</ele><time>2026-04-06T08:47:53Z</time></trkpt><trkpt lat="41.818559523583666" lon="12.688137387086885"><ele>281.0</ele><time>2026-04-06T08:47:54Z</time></trkpt><trkpt lat="41.81849644874702" lon="12.688173927399246"><ele>282.8</ele><time>2026-04-06T08:47:55Z</time></trkpt><trkpt lat="41.81837205296469" lon="12.68827181651002"><ele>284.6</ele><time>2026-04-06T08:47:57Z</time></trkpt><trkpt lat="41.818288913095834" lon="12.68833606566482"><ele>286.4</ele><time>2026-04-06T08:47:58Z</time></trkpt><trkpt lat="41.8182124959308" lon="12.688402439006435"><ele>288.2</ele><time>2026-04-06T08:47:59Z</time></trkpt><trkpt lat="41.81813386212027" lon="12.68845788124603"><ele>290.0</ele><time>2026-04-06T08:48:00Z</time></trkpt><trkpt lat="41.81803934338173" lon="12.688530707647883"><ele>291.2</ele><time>2026-04-06T08:48:01Z</time></trkpt><trkpt lat="41.817955381119305" lon="12.688594994820253"><ele>292.4</ele><time>2026-04-06T08:48:02Z</time></trkpt><trkpt lat="41.81788557085998" lon="12.688639453805553"><ele>293.6</ele><time>2026-04-06T08:48:03Z</time></trkpt><trkpt lat="41.817793710941" lon="12.688734729153786"><ele>294.8</ele><time>2026-04-06T08:48:05Z</time></trkpt><trkpt lat="41.817723162207656" lon="12.68881045143171"><ele>296.0</ele><time>2026-04-06T08:48:06Z</time></trkpt><trkpt lat="41.81762674335128" lon="12.688882702333338"><ele>297.8</ele><time>2026-04-06T08:48:07Z</time></trkpt><trkpt lat="41.81755642533117" lon="12.688931873998445"><ele>299.6</ele><time>2026-04-06T08:48:08Z</time></trkpt><trkpt lat="41.81747190921956" lon="12.688982342920275"><ele>301.4</ele><time>2026-04-06T08:48:10Z</time></trkpt><trkpt lat="41.817398345636484" lon="12.68903201337539"><ele>303.2</ele><time>2026-04-06T08:48:13Z</time></trkpt><trkpt lat="41.817417919957634" lon="12.689173542625571"><ele>305.0</ele><time>2026-04-06T08:48:14Z</time></trkpt><trkpt lat="41.81744621942631" lon="12.689311433267259"><ele>305.25</ele><time>2026-04-06T08:48:15Z</time></trkpt><trkpt lat="41.81748109056835" lon="12.689493054235598"><ele>305.5</ele><time>2026-04-06T08:48:16Z</time></trkpt><trkpt lat="41.817490678565" lon="12.689654050484473"><ele>305.75</ele><time>2026-04-06T08:48:17Z</time></trkpt><trkpt lat="41.817525809055745" lon="12.689794737106325"><ele>306.0</ele><time>2026-04-06T08:48:18Z</time></trkpt><trkpt lat="41.81754032511176" lon="12.68993079021332"><ele>306.0</ele><time>2026-04-06T08:48:19Z</time></trkpt><trkpt lat="41.81754198055278" lon="12.690042222619823"><ele>306.0</ele><time>2026-04-06T08:48:20Z</time></trkpt><trkpt lat="41.817526888490136" lon="12.69013013076586"><ele>306.0</ele><time>2026-04-06T08:48:21Z</time></trkpt><trkpt lat="41.81744641530085" lon="12.690202515990187"><ele>306.0</ele><time>2026-04-06T08:48:23Z</time></trkpt><trkpt lat="41.81738014949615" lon="12.69022891119666"><ele>306.0</ele><time>2026-04-06T08:48:27Z</time></trkpt><trkpt lat="41.817318052189364" lon="12.690372362219108"><ele>306.0</ele><time>2026-04-06T08:48:29Z</time></trkpt><trkpt lat="41.8173035675575" lon="12.690493880560698"><ele>305.0</ele><time>2026-04-06T08:48:30Z</time></trkpt><trkpt lat="41.817286079830374" lon="12.690610584425954"><ele>304.0</ele><time>2026-04-06T08:48:31Z</time></trkpt><trkpt lat="41.8172653323955" lon="12.690734249159027"><ele>303.0</ele><time>2026-04-06T08:48:32Z</time></trkpt><trkpt lat="41.8172344062" lon="12.690894138059292"><ele>302.0</ele><time>2026-04-06T08:48:33Z</time></trkpt><trkpt lat="41.81719794790111" lon="12.691081481224437"><ele>301.0</ele><time>2026-04-06T08:48:34Z</time></trkpt><trkpt lat="41.81717246452856" lon="12.691250929521058"><ele>300.0</ele><time>2026-04-06T08:48:35Z</time></trkpt><trkpt lat="41.81713775753875" lon="12.691380439891143"><ele>299.0</ele><time>2026-04-06T08:48:36Z</time></trkpt><trkpt lat="41.81710662038654" lon="12.69154431742301"><ele>298.0</ele><time>2026-04-06T08:48:37Z</time></trkpt><trkpt lat="41.817079681244394" lon="12.691703844103499"><ele>298.0</ele><time>2026-04-06T08:48:38Z</time></trkpt><trkpt lat="41.81708029424928" lon="12.69187205871215"><ele>298.0</ele><time>2026-04-06T08:48:39Z</time></trkpt><trkpt lat="41.81708683425222" lon="12.692048490316639"><ele>298.0</ele><time>2026-04-06T08:48:40Z</time></trkpt><trkpt lat="41.81709856250645" lon="12.692233420828957"><ele>298.0</ele><time>2026-04-06T08:48:41Z</time></trkpt><trkpt lat="41.81711953422459" lon="12.692425353793007"><ele>298.3333333333333</ele><time>2026-04-06T08:48:42Z</time></trkpt><trkpt lat="41.817151716778916" lon="12.692616880181816"><ele>298.6666666666667</ele><time>2026-04-06T08:48:43Z</time></trkpt><trkpt lat="41.81719620906121" lon="12.69281531084179"><ele>299.0</ele><time>2026-04-06T08:48:44Z</time></trkpt><trkpt lat="41.817246092179374" lon="12.693007751054836"><ele>301.0</ele><time>2026-04-06T08:48:45Z</time></trkpt><trkpt lat="41.81729065423138" lon="12.69319282091284"><ele>303.0</ele><time>2026-04-06T08:48:46Z</time></trkpt><trkpt lat="41.81735626897557" lon="12.693372242875068"><ele>305.0</ele><time>2026-04-06T08:48:47Z</time></trkpt><trkpt lat="41.817443089705584" lon="12.69354364199702"><ele>307.0</ele><time>2026-04-06T08:48:48Z</time></trkpt><trkpt lat="41.817522105305784" lon="12.693719760846074"><ele>307.75</ele><time>2026-04-06T08:48:49Z</time></trkpt><trkpt lat="41.81759921979722" lon="12.693883697240326"><ele>308.5</ele><time>2026-04-06T08:48:50Z</time></trkpt><trkpt lat="41.81767026865029" lon="12.694035427944554"><ele>309.25</ele><time>2026-04-06T08:48:51Z</time></trkpt><trkpt lat="41.817733192585216" lon="12.694172636800634"><ele>310.0</ele><time>2026-04-06T08:48:52Z</time></trkpt><trkpt lat="41.81779480147656" lon="12.69430453659829"><ele>308.6</ele><time>2026-04-06T08:48:53Z</time></trkpt><trkpt lat="41.81785615073381" lon="12.694429002049102"><ele>307.2</ele><time>2026-04-06T08:48:54Z</time></trkpt><trkpt lat="41.81789765747736" lon="12.694519865369502"><ele>305.8</ele><time>2026-04-06T08:48:55Z</time></trkpt><trkpt lat="41.8179420937455" lon="12.6946147514355"><ele>304.4</ele><time>2026-04-06T08:48:57Z</time></trkpt><trkpt lat="41.817987720656525" lon="12.694713711339697"><ele>303.0</ele><time>2026-04-06T08:48:59Z</time></trkpt><trkpt lat="41.81803503296834" lon="12.694815108282544"><ele>303.0</ele><time>2026-04-06T08:49:01Z</time></trkpt><trkpt lat="41.81807244129" lon="12.694897425006546"><ele>303.0</ele><time>2026-04-06T08:49:03Z</time></trkpt><trkpt lat="41.8181105809974" lon="12.694994095450078"><ele>303.0</ele><time>2026-04-06T08:49:06Z</time></trkpt><trkpt lat="41.81815168550273" lon="12.695072563158368"><ele>303.0</ele><time>2026-04-06T08:50:14Z</time></trkpt><trkpt lat="41.818210467728065" lon="12.695191556947746"><ele>303.0</ele><time>2026-04-06T08:50:16Z</time></trkpt><trkpt lat="41.81827023707097" lon="12.695325149140759"><ele>303.0</ele><time>2026-04-06T08:50:18Z</time></trkpt><trkpt lat="41.81831147033416" lon="12.69541422923443"><ele>302.8333333333333</ele><time>2026-04-06T08:50:19Z</time></trkpt><trkpt lat="41.818332983859364" lon="12.69550757698727"><ele>302.6666666666667</ele><time>2026-04-06T08:50:20Z</time></trkpt><trkpt lat="41.81837110859913" lon="12.695601586371994"><ele>302.5</ele><time>2026-04-06T08:50:21Z</time></trkpt><trkpt lat="41.81840936339625" lon="12.695690935285652"><ele>302.33333333333337</ele><time>2026-04-06T08:50:22Z</time></trkpt><trkpt lat="41.81844966076191" lon="12.695781939691752"><ele>302.1666666666667</ele><time>2026-04-06T08:50:23Z</time></trkpt><trkpt lat="41.81849340376566" lon="12.695876522869527"><ele>302.0</ele><time>2026-04-06T08:50:24Z</time></trkpt><trkpt lat="41.818542216968325" lon="12.695982068964337"><ele>301.4</ele><time>2026-04-06T08:50:25Z</time></trkpt><trkpt lat="41.81859451106884" lon="12.696094986406507"><ele>300.79999999999995</ele><time>2026-04-06T08:50:26Z</time></trkpt><trkpt lat="41.81864798282648" lon="12.696210406739953"><ele>300.2</ele><time>2026-04-06T08:50:27Z</time></trkpt><trkpt lat="41.818704959620696" lon="12.696333392833559"><ele>299.59999999999997</ele><time>2026-04-06T08:50:28Z</time></trkpt><trkpt lat="41.81875782294985" lon="12.696448788678314"><ele>299.0</ele><time>2026-04-06T08:50:29Z</time></trkpt><trkpt lat="41.81881122926615" lon="12.696565823110333"><ele>299.0</ele><time>2026-04-06T08:50:30Z</time></trkpt><trkpt lat="41.818866746614134" lon="12.696687483663823"><ele>299.0</ele><time>2026-04-06T08:50:31Z</time></trkpt><trkpt lat="41.81892260015535" lon="12.696809880935792"><ele>299.0</ele><time>2026-04-06T08:50:32Z</time></trkpt><trkpt lat="41.819014324182305" lon="12.696916793262163"><ele>299.0</ele><time>2026-04-06T08:50:33Z</time></trkpt><trkpt lat="41.81906818601691" lon="12.697069401172518"><ele>299.5</ele><time>2026-04-06T08:50:34Z</time></trkpt><trkpt lat="41.81912041320016" lon="12.697220133706528"><ele>300.0</ele><time>2026-04-06T08:50:35Z</time></trkpt><trkpt lat="41.819177411540004" lon="12.697357967019721"><ele>300.5</ele><time>2026-04-06T08:50:36Z</time></trkpt><trkpt lat="41.81924190084933" lon="12.697495067407992"><ele>301.0</ele><time>2026-04-06T08:50:37Z</time></trkpt><trkpt lat="41.81931033191371" lon="12.69763979890124"><ele>299.75</ele><time>2026-04-06T08:50:38Z</time></trkpt><trkpt lat="41.81937916765166" lon="12.6977826395227"><ele>298.5</ele><time>2026-04-06T08:50:39Z</time></trkpt><trkpt lat="41.81944777369968" lon="12.697926590956527"><ele>297.25</ele><time>2026-04-06T08:50:40Z</time></trkpt><trkpt lat="41.81951308508989" lon="12.698074404971981"><ele>296.0</ele><time>2026-04-06T08:50:41Z</time></trkpt><trkpt lat="41.81958043890545" lon="12.698226411239446"><ele>296.0</ele><time>2026-04-06T08:50:42Z</time></trkpt><trkpt lat="41.819643526119165" lon="12.698366634274993"><ele>296.0</ele><time>2026-04-06T08:50:43Z</time></trkpt><trkpt lat="41.81970474319625" lon="12.698500779788958"><ele>296.0</ele><time>2026-04-06T08:50:44Z</time></trkpt><trkpt lat="41.81976405023491" lon="12.698631581528101"><ele>296.0</ele><time>2026-04-06T08:50:45Z</time></trkpt><trkpt lat="41.819825287074444" lon="12.69876280757047"><ele>297.0</ele><time>2026-04-06T08:50:46Z</time></trkpt><trkpt lat="41.81988728908643" lon="12.698901276952494"><ele>298.0</ele><time>2026-04-06T08:50:47Z</time></trkpt><trkpt lat="41.8199489340007" lon="12.699033126188418"><ele>299.0</ele><time>2026-04-06T08:50:48Z</time></trkpt><trkpt lat="41.8200087320656" lon="12.699162615533233"><ele>300.0</ele><time>2026-04-06T08:50:49Z</time></trkpt><trkpt lat="41.82007452055458" lon="12.699301948487767"><ele>299.5</ele><time>2026-04-06T08:50:50Z</time></trkpt><trkpt lat="41.8201405380374" lon="12.699440079524745"><ele>299.0</ele><time>2026-04-06T08:50:51Z</time></trkpt><trkpt lat="41.82020490144277" lon="12.699579489384158"><ele>298.5</ele><time>2026-04-06T08:50:52Z</time></trkpt><trkpt lat="41.82025545790778" lon="12.699728634499564"><ele>298.0</ele><time>2026-04-06T08:50:53Z</time></trkpt><trkpt lat="41.820329241441165" lon="12.699848254437603"><ele>297.8</ele><time>2026-04-06T08:50:54Z</time></trkpt><trkpt lat="41.820387019438186" lon="12.699977243989537"><ele>297.6</ele><time>2026-04-06T08:50:55Z</time></trkpt><trkpt lat="41.820444516622366" lon="12.70010949381797"><ele>297.4</ele><time>2026-04-06T08:50:56Z</time></trkpt><trkpt lat="41.82049328960161" lon="12.70022952329883"><ele>297.2</ele><time>2026-04-06T08:50:57Z</time></trkpt><trkpt lat="41.82055006233308" lon="12.70034533984528"><ele>297.0</ele><time>2026-04-06T08:50:58Z</time></trkpt><trkpt lat="41.82061236402557" lon="12.700469927976624"><ele>296.0</ele><time>2026-04-06T08:50:59Z</time></trkpt><trkpt lat="41.82067355696968" lon="12.700610146409891"><ele>295.0</ele><time>2026-04-06T08:51:00Z</time></trkpt><trkpt lat="41.820730800370214" lon="12.700749319916326"><ele>294.0</ele><time>2026-04-06T08:51:01Z</time></trkpt><trkpt lat="41.82078742239077" lon="12.700883176090871"><ele>293.0</ele><time>2026-04-06T08:51:02Z</time></trkpt><trkpt lat="41.82085993809309" lon="12.7010382614938"><ele>292.25</ele><time>2026-04-06T08:51:03Z</time></trkpt><trkpt lat="41.82092122557527" lon="12.701191952134508"><ele>291.5</ele><time>2026-04-06T08:51:04Z</time></trkpt><trkpt lat="41.82098468658912" lon="12.701369009552634"><ele>290.75</ele><time>2026-04-06T08:51:05Z</time></trkpt><trkpt lat="41.8210324594087" lon="12.701538705476702"><ele>290.0</ele><time>2026-04-06T08:51:06Z</time></trkpt><trkpt lat="41.821072629632596" lon="12.701712741432019"><ele>290.25</ele><time>2026-04-06T08:51:07Z</time></trkpt><trkpt lat="41.821100906816795" lon="12.701883254423935"><ele>290.5</ele><time>2026-04-06T08:51:08Z</time></trkpt><trkpt lat="41.82111961850926" lon="12.702044409245087"><ele>290.75</ele><time>2026-04-06T08:51:09Z</time></trkpt><trkpt lat="41.82113531845248" lon="12.702203066995756"><ele>291.0</ele><time>2026-04-06T08:51:10Z</time></trkpt><trkpt lat="41.82114382062256" lon="12.702362317103526"><ele>291.0</ele><time>2026-04-06T08:51:11Z</time></trkpt><trkpt lat="41.82114244526865" lon="12.702518757797886"><ele>291.0</ele><time>2026-04-06T08:51:12Z</time></trkpt><trkpt lat="41.82113631333625" lon="12.702674854122261"><ele>291.0</ele><time>2026-04-06T08:51:13Z</time></trkpt><trkpt lat="41.821126367077795" lon="12.702845340283728"><ele>291.0</ele><time>2026-04-06T08:51:14Z</time></trkpt><trkpt lat="41.82111528580906" lon="12.70300086916083"><ele>291.0</ele><time>2026-04-06T08:51:15Z</time></trkpt><trkpt lat="41.82109798420527" lon="12.703156058259136"><ele>291.0</ele><time>2026-04-06T08:51:16Z</time></trkpt><trkpt lat="41.82107247497549" lon="12.703306745249181"><ele>291.0</ele><time>2026-04-06T08:51:17Z</time></trkpt><trkpt lat="41.82104687635671" lon="12.703459809642204"><ele>291.0</ele><time>2026-04-06T08:51:18Z</time></trkpt><trkpt lat="41.82102434315437" lon="12.703608665909552"><ele>291.0</ele><time>2026-04-06T08:51:19Z</time></trkpt><trkpt lat="41.821004359637364" lon="12.703744675737333"><ele>291.0</ele><time>2026-04-06T08:51:20Z</time></trkpt><trkpt lat="41.82098294637272" lon="12.703877872567793"><ele>291.0</ele><time>2026-04-06T08:51:21.001Z</time></trkpt><trkpt lat="41.82096320841192" lon="12.70401444594532"><ele>291.0</ele><time>2026-04-06T08:51:22.001Z</time></trkpt><trkpt lat="41.82094343281718" lon="12.704149723820777"><ele>291.0</ele><time>2026-04-06T08:51:23.001Z</time></trkpt><trkpt lat="41.82092001602109" lon="12.704288982487554"><ele>293.40000000000003</ele><time>2026-04-06T08:51:24.001Z</time></trkpt><trkpt lat="41.820893416980425" lon="12.70443426645138"><ele>295.8</ele><time>2026-04-06T08:51:25.001Z</time></trkpt><trkpt lat="41.82086915617895" lon="12.704581189944873"><ele>298.20000000000005</ele><time>2026-04-06T08:51:26.001Z</time></trkpt><trkpt lat="41.82084704909952" lon="12.70472929841798"><ele>300.6</ele><time>2026-04-06T08:51:27.001Z</time></trkpt><trkpt lat="41.82082957842158" lon="12.704867246274944"><ele>303.0</ele><time>2026-04-06T08:51:28.001Z</time></trkpt><trkpt lat="41.82081833352826" lon="12.705008282957712"><ele>303.0</ele><time>2026-04-06T08:51:29Z</time></trkpt><trkpt lat="41.82079589927495" lon="12.705146935659508"><ele>303.0</ele><time>2026-04-06T08:51:30Z</time></trkpt><trkpt lat="41.8208117270687" lon="12.705289987345507"><ele>303.0</ele><time>2026-04-06T08:51:31Z</time></trkpt><trkpt lat="41.82080148326998" lon="12.705437258783036"><ele>303.0</ele><time>2026-04-06T08:51:32Z</time></trkpt><trkpt lat="41.82081403380146" lon="12.705579651335466"><ele>303.0</ele><time>2026-04-06T08:51:33Z</time></trkpt><trkpt lat="41.820843257399225" lon="12.705714695106083"><ele>303.2</ele><time>2026-04-06T08:51:34Z</time></trkpt><trkpt lat="41.82085924682241" lon="12.705860823228239"><ele>303.4</ele><time>2026-04-06T08:51:35Z</time></trkpt><trkpt lat="41.82087570317173" lon="12.70600540083547"><ele>303.59999999999997</ele><time>2026-04-06T08:51:36Z</time></trkpt><trkpt lat="41.820890074099026" lon="12.706148049699378"><ele>303.8</ele><time>2026-04-06T08:51:37Z</time></trkpt><trkpt lat="41.82090629305613" lon="12.706297174615177"><ele>304.0</ele><time>2026-04-06T08:51:38Z</time></trkpt><trkpt lat="41.82091833482656" lon="12.706455261613792"><ele>303.8333333333333</ele><time>2026-04-06T08:51:39Z</time></trkpt><trkpt lat="41.82093133705805" lon="12.70661019794976"><ele>303.66666666666663</ele><time>2026-04-06T08:51:40Z</time></trkpt><trkpt lat="41.82094648144177" lon="12.706709970732206"><ele>303.5</ele><time>2026-04-06T08:51:41Z</time></trkpt><trkpt lat="41.820962649567356" lon="12.706829556595336"><ele>303.3333333333333</ele><time>2026-04-06T08:51:42Z</time></trkpt><trkpt lat="41.82096691898151" lon="12.706941289182584"><ele>303.1666666666667</ele><time>2026-04-06T08:51:43Z</time></trkpt><trkpt lat="41.820977278156185" lon="12.707050992534143"><ele>303.0</ele><time>2026-04-06T08:51:44Z</time></trkpt><trkpt lat="41.82098925729385" lon="12.70714579778679"><ele>303.0</ele><time>2026-04-06T08:51:45Z</time></trkpt><trkpt lat="41.82099465199693" lon="12.707232826420901"><ele>303.0</ele><time>2026-04-06T08:51:46Z</time></trkpt><trkpt lat="41.82100088467429" lon="12.70732199052229"><ele>303.0</ele><time>2026-04-06T08:51:47Z</time></trkpt><trkpt lat="41.82100574315337" lon="12.70741276444813"><ele>303.0</ele><time>2026-04-06T08:51:48Z</time></trkpt><trkpt lat="41.82101023619944" lon="12.707501683161997"><ele>303.0</ele><time>2026-04-06T08:51:50Z</time></trkpt><trkpt lat="41.82096793708457" lon="12.707593383619717"><ele>303.0</ele><time>2026-04-06T08:51:53Z</time></trkpt><trkpt lat="41.82093732469766" lon="12.707689144600057"><ele>303.0</ele><time>2026-04-06T08:51:54Z</time></trkpt><trkpt lat="41.82091981229227" lon="12.707781591518712"><ele>304.0</ele><time>2026-04-06T08:51:55Z</time></trkpt><trkpt lat="41.82098822021866" lon="12.707889531095148"><ele>305.0</ele><time>2026-04-06T08:51:57Z</time></trkpt><trkpt lat="41.82105062505645" lon="12.707919863255636"><ele>306.0</ele><time>2026-04-06T08:51:58Z</time></trkpt><trkpt lat="41.82112962822789" lon="12.707925922792027"><ele>307.0</ele><time>2026-04-06T08:51:59Z</time></trkpt><trkpt lat="41.821219897793156" lon="12.70793689078593"><ele>308.0</ele><time>2026-04-06T08:52:00Z</time></trkpt><trkpt lat="41.821299750843785" lon="12.70795853559551"><ele>309.0</ele><time>2026-04-06T08:52:01Z</time></trkpt><trkpt lat="41.821382540855765" lon="12.70800659309493"><ele>309.0</ele><time>2026-04-06T08:52:02Z</time></trkpt><trkpt lat="41.821469737336365" lon="12.70807831847888"><ele>309.0</ele><time>2026-04-06T08:52:03Z</time></trkpt><trkpt lat="41.82156415837977" lon="12.708150422444616"><ele>309.0</ele><time>2026-04-06T08:52:04Z</time></trkpt><trkpt lat="41.82166463248549" lon="12.708228504728309"><ele>309.0</ele><time>2026-04-06T08:52:05Z</time></trkpt><trkpt lat="41.82176497144917" lon="12.708308710670034"><ele>309.0</ele><time>2026-04-06T08:52:06Z</time></trkpt><trkpt lat="41.82185542439804" lon="12.708386479616292"><ele>308.75</ele><time>2026-04-06T08:52:07Z</time></trkpt><trkpt lat="41.821953574169875" lon="12.708465677940557"><ele>308.5</ele><time>2026-04-06T08:52:08Z</time></trkpt><trkpt lat="41.82206174691069" lon="12.708541947306385"><ele>308.25</ele><time>2026-04-06T08:52:09Z</time></trkpt><trkpt lat="41.82216817041956" lon="12.70862112589148"><ele>308.0</ele><time>2026-04-06T08:52:10Z</time></trkpt><trkpt lat="41.822379599928965" lon="12.708810846848595"><ele>309.0</ele><time>2026-04-06T08:52:12Z</time></trkpt><trkpt lat="41.82248345545012" lon="12.708913435909732"><ele>310.0</ele><time>2026-04-06T08:52:13Z</time></trkpt><trkpt lat="41.82257708185064" lon="12.709030009061918"><ele>311.0</ele><time>2026-04-06T08:52:14Z</time></trkpt><trkpt lat="41.82265732877252" lon="12.709164245152637"><ele>312.0</ele><time>2026-04-06T08:52:15Z</time></trkpt><trkpt lat="41.82272371815696" lon="12.709308704076168"><ele>311.75</ele><time>2026-04-06T08:52:16Z</time></trkpt><trkpt lat="41.82276599978679" lon="12.709455735400994"><ele>311.5</ele><time>2026-04-06T08:52:17Z</time></trkpt><trkpt lat="41.82278813994509" lon="12.709599435441726"><ele>311.25</ele><time>2026-04-06T08:52:18Z</time></trkpt><trkpt lat="41.822787387805505" lon="12.709750807190549"><ele>311.0</ele><time>2026-04-06T08:52:19Z</time></trkpt><trkpt lat="41.822765680552536" lon="12.70991218563978"><ele>311.0</ele><time>2026-04-06T08:52:20Z</time></trkpt><trkpt lat="41.82272757098152" lon="12.710073639724792"><ele>311.0</ele><time>2026-04-06T08:52:21Z</time></trkpt><trkpt lat="41.82266492089623" lon="12.71025058748509"><ele>311.0</ele><time>2026-04-06T08:52:22Z</time></trkpt><trkpt lat="41.822587505586675" lon="12.710371754373044"><ele>311.0</ele><time>2026-04-06T08:52:23Z</time></trkpt><trkpt lat="41.82249181402864" lon="12.710491724797278"><ele>311.0</ele><time>2026-04-06T08:52:24Z</time></trkpt><trkpt lat="41.822392305607394" lon="12.710603345046076"><ele>311.0</ele><time>2026-04-06T08:52:25Z</time></trkpt><trkpt lat="41.82231277608449" lon="12.710741141471358"><ele>311.0</ele><time>2026-04-06T08:52:26Z</time></trkpt><trkpt lat="41.822270090469885" lon="12.710902350365982"><ele>311.0</ele><time>2026-04-06T08:52:27Z</time></trkpt><trkpt lat="41.822255593667485" lon="12.71107782651644"><ele>311.0</ele><time>2026-04-06T08:52:28Z</time></trkpt><trkpt lat="41.822266626763444" lon="12.71125483487545"><ele>311.0</ele><time>2026-04-06T08:52:29Z</time></trkpt><trkpt lat="41.82229800046192" lon="12.71143379178625"><ele>311.0</ele><time>2026-04-06T08:52:30Z</time></trkpt><trkpt lat="41.822349756085465" lon="12.711615422355493"><ele>311.0</ele><time>2026-04-06T08:52:31Z</time></trkpt><trkpt lat="41.82241100939343" lon="12.71180248280259"><ele>313.0</ele><time>2026-04-06T08:52:32Z</time></trkpt><trkpt lat="41.822471653268444" lon="12.711969490950175"><ele>315.0</ele><time>2026-04-06T08:52:33Z</time></trkpt><trkpt lat="41.82252905407402" lon="12.712138875939559"><ele>317.0</ele><time>2026-04-06T08:52:34Z</time></trkpt><trkpt lat="41.822575826627165" lon="12.712320219520352"><ele>319.0</ele><time>2026-04-06T08:52:35Z</time></trkpt><trkpt lat="41.82261140920677" lon="12.71251122416279"><ele>319.0</ele><time>2026-04-06T08:52:36Z</time></trkpt><trkpt lat="41.82263333979183" lon="12.712705093274517"><ele>319.0</ele><time>2026-04-06T08:52:37Z</time></trkpt><trkpt lat="41.822636578225975" lon="12.712902927319671"><ele>319.0</ele><time>2026-04-06T08:52:38Z</time></trkpt><trkpt lat="41.82264366841637" lon="12.713115643447757"><ele>312.66666666666663</ele><time>2026-04-06T08:52:39Z</time></trkpt><trkpt lat="41.82265356871326" lon="12.71333290187827"><ele>306.3333333333333</ele><time>2026-04-06T08:52:40Z</time></trkpt><trkpt lat="41.82266245383937" lon="12.713560771135887"><ele>300.0</ele><time>2026-04-06T08:52:41Z</time></trkpt><trkpt lat="41.82266628990211" lon="12.71378399046668"><ele>300.0</ele><time>2026-04-06T08:52:42Z</time></trkpt><trkpt lat="41.82267031513028" lon="12.714008081551171"><ele>300.0</ele><time>2026-04-06T08:52:43Z</time></trkpt><trkpt lat="41.822678127060755" lon="12.714233236520156"><ele>300.0</ele><time>2026-04-06T08:52:44Z</time></trkpt><trkpt lat="41.82268271062232" lon="12.71445857830488"><ele>300.0</ele><time>2026-04-06T08:52:45Z</time></trkpt><trkpt lat="41.8226884612162" lon="12.714673042777143"><ele>300.0</ele><time>2026-04-06T08:52:46Z</time></trkpt><trkpt lat="41.82269753662408" lon="12.714892214146852"><ele>300.0</ele><time>2026-04-06T08:52:47Z</time></trkpt><trkpt lat="41.82270450060343" lon="12.715105502963246"><ele>301.0</ele><time>2026-04-06T08:52:48Z</time></trkpt><trkpt lat="41.82270403583416" lon="12.715307505365049"><ele>302.0</ele><time>2026-04-06T08:52:49Z</time></trkpt><trkpt lat="41.822696749592545" lon="12.7155084695208"><ele>303.0</ele><time>2026-04-06T08:52:50Z</time></trkpt><trkpt lat="41.822673438094775" lon="12.7156989086015"><ele>304.0</ele><time>2026-04-06T08:52:51Z</time></trkpt><trkpt lat="41.822605413171175" lon="12.715875148190275"><ele>305.25</ele><time>2026-04-06T08:52:52Z</time></trkpt><trkpt lat="41.822548030235424" lon="12.716062177224579"><ele>306.5</ele><time>2026-04-06T08:52:53Z</time></trkpt><trkpt lat="41.8224706046359" lon="12.71622553907597"><ele>307.75</ele><time>2026-04-06T08:52:54Z</time></trkpt><trkpt lat="41.822405216384546" lon="12.716382390378351"><ele>309.0</ele><time>2026-04-06T08:52:55Z</time></trkpt><trkpt lat="41.822339134495756" lon="12.716542523773292"><ele>309.0</ele><time>2026-04-06T08:52:56Z</time></trkpt><trkpt lat="41.82227893501613" lon="12.716698486567344"><ele>309.0</ele><time>2026-04-06T08:52:57Z</time></trkpt><trkpt lat="41.82222320994476" lon="12.716849144362728"><ele>309.0</ele><time>2026-04-06T08:52:58Z</time></trkpt><trkpt lat="41.822164634665874" lon="12.717005798461008"><ele>309.0</ele><time>2026-04-06T08:52:59Z</time></trkpt><trkpt lat="41.822115372144765" lon="12.71717448987041"><ele>308.75</ele><time>2026-04-06T08:53:00Z</time></trkpt><trkpt lat="41.82208983103082" lon="12.717360322232544"><ele>308.5</ele><time>2026-04-06T08:53:01Z</time></trkpt><trkpt lat="41.822087377692455" lon="12.71755250048257"><ele>308.25</ele><time>2026-04-06T08:53:02Z</time></trkpt><trkpt lat="41.82211818965669" lon="12.717749532008257"><ele>308.0</ele><time>2026-04-06T08:53:03Z</time></trkpt><trkpt lat="41.82216422627225" lon="12.71795219602044"><ele>309.6666666666667</ele><time>2026-04-06T08:53:04Z</time></trkpt><trkpt lat="41.822223880470155" lon="12.718175886490279"><ele>311.3333333333333</ele><time>2026-04-06T08:53:05Z</time></trkpt><trkpt lat="41.82230646587343" lon="12.718418179616952"><ele>313.0</ele><time>2026-04-06T08:53:06Z</time></trkpt><trkpt lat="41.82237754820551" lon="12.718613333717487"><ele>314.0</ele><time>2026-04-06T08:53:07Z</time></trkpt><trkpt lat="41.82241979926655" lon="12.71878563020235"><ele>315.0</ele><time>2026-04-06T08:53:08Z</time></trkpt><trkpt lat="41.822459180484564" lon="12.718938669616604"><ele>316.0</ele><time>2026-04-06T08:53:09Z</time></trkpt><trkpt lat="41.82249245330983" lon="12.71908572637528"><ele>317.0</ele><time>2026-04-06T08:53:10Z</time></trkpt><trkpt lat="41.822518818657784" lon="12.719225849499619"><ele>317.0</ele><time>2026-04-06T08:53:11Z</time></trkpt><trkpt lat="41.82254218377505" lon="12.719382913206509"><ele>317.0</ele><time>2026-04-06T08:53:12Z</time></trkpt><trkpt lat="41.82252932722194" lon="12.719538240047743"><ele>317.0</ele><time>2026-04-06T08:53:13Z</time></trkpt><trkpt lat="41.82253112885805" lon="12.71967120738582"><ele>317.0</ele><time>2026-04-06T08:53:14Z</time></trkpt><trkpt lat="41.8225087017062" lon="12.71979486654437"><ele>317.0</ele><time>2026-04-06T08:53:15Z</time></trkpt><trkpt lat="41.82248703269026" lon="12.719935197585661"><ele>318.2</ele><time>2026-04-06T08:53:16Z</time></trkpt><trkpt lat="41.82245691403749" lon="12.720074410999283"><ele>319.4</ele><time>2026-04-06T08:53:17Z</time></trkpt><trkpt lat="41.82243636153146" lon="12.720214417477779"><ele>320.59999999999997</ele><time>2026-04-06T08:53:18Z</time></trkpt><trkpt lat="41.82241769315275" lon="12.720357559457861"><ele>321.79999999999995</ele><time>2026-04-06T08:53:19.001Z</time></trkpt><trkpt lat="41.82239573900953" lon="12.720514971863219"><ele>323.0</ele><time>2026-04-06T08:53:20.001Z</time></trkpt><trkpt lat="41.82236592339599" lon="12.720678163834352"><ele>323.0</ele><time>2026-04-06T08:53:21.001Z</time></trkpt><trkpt lat="41.82233644474012" lon="12.720830072355202"><ele>323.0</ele><time>2026-04-06T08:53:22.001Z</time></trkpt><trkpt lat="41.8223058030698" lon="12.720998797289552"><ele>323.0</ele><time>2026-04-06T08:53:23.001Z</time></trkpt><trkpt lat="41.82227606113879" lon="12.72116866522454"><ele>323.0</ele><time>2026-04-06T08:53:24.001Z</time></trkpt><trkpt lat="41.82225082405914" lon="12.721333724411195"><ele>320.75</ele><time>2026-04-06T08:53:25.001Z</time></trkpt><trkpt lat="41.82222113391539" lon="12.721491511072346"><ele>318.5</ele><time>2026-04-06T08:53:26.001Z</time></trkpt><trkpt lat="41.822192500240554" lon="12.721650773328925"><ele>316.25</ele><time>2026-04-06T08:53:27.001Z</time></trkpt><trkpt lat="41.82216410713784" lon="12.721811684298334"><ele>314.0</ele><time>2026-04-06T08:53:28.001Z</time></trkpt><trkpt lat="41.82214019421911" lon="12.721964704278156"><ele>313.25</ele><time>2026-04-06T08:53:29.001Z</time></trkpt><trkpt lat="41.822143298470095" lon="12.722118743573168"><ele>312.5</ele><time>2026-04-06T08:53:30.001Z</time></trkpt><trkpt lat="41.82217864616334" lon="12.722264668671983"><ele>311.75</ele><time>2026-04-06T08:53:31.001Z</time></trkpt><trkpt lat="41.82224101644999" lon="12.722403518099057"><ele>311.0</ele><time>2026-04-06T08:53:32.001Z</time></trkpt><trkpt lat="41.82233117566345" lon="12.72252396931423"><ele>311.0</ele><time>2026-04-06T08:53:33.001Z</time></trkpt><trkpt lat="41.82244575954651" lon="12.722613280728305"><ele>311.0</ele><time>2026-04-06T08:53:34.001Z</time></trkpt><trkpt lat="41.822577000818605" lon="12.722698199732267"><ele>311.0</ele><time>2026-04-06T08:53:35Z</time></trkpt><trkpt lat="41.82271338143021" lon="12.722793807396185"><ele>311.0</ele><time>2026-04-06T08:53:36Z</time></trkpt><trkpt lat="41.82283872920665" lon="12.722880480817247"><ele>312.75</ele><time>2026-04-06T08:53:37Z</time></trkpt><trkpt lat="41.82295627657538" lon="12.722961011631734"><ele>314.5</ele><time>2026-04-06T08:53:38Z</time></trkpt><trkpt lat="41.82304283815932" lon="12.72308969330643"><ele>316.25</ele><time>2026-04-06T08:53:39Z</time></trkpt><trkpt lat="41.823118470214176" lon="12.723234407697964"><ele>318.0</ele><time>2026-04-06T08:53:40Z</time></trkpt><trkpt lat="41.823181901910786" lon="12.723397597861034"><ele>318.0</ele><time>2026-04-06T08:53:41Z</time></trkpt><trkpt lat="41.82323892744473" lon="12.723550474835061"><ele>318.0</ele><time>2026-04-06T08:53:42Z</time></trkpt><trkpt lat="41.82326393713486" lon="12.723681689348757"><ele>318.0</ele><time>2026-04-06T08:53:43Z</time></trkpt><trkpt lat="41.82328045151581" lon="12.723850372960712"><ele>318.0</ele><time>2026-04-06T08:53:44Z</time></trkpt><trkpt lat="41.823277659627806" lon="12.724014116995866"><ele>318.0</ele><time>2026-04-06T08:53:45Z</time></trkpt><trkpt lat="41.823266012886506" lon="12.724191494430062"><ele>318.0</ele><time>2026-04-06T08:53:46Z</time></trkpt><trkpt lat="41.82327174425872" lon="12.724385597125291"><ele>318.0</ele><time>2026-04-06T08:53:47Z</time></trkpt><trkpt lat="41.823276757820594" lon="12.724568505932368"><ele>318.0</ele><time>2026-04-06T08:53:48Z</time></trkpt><trkpt lat="41.82327422893471" lon="12.72475220753028"><ele>316.3333333333333</ele><time>2026-04-06T08:53:49Z</time></trkpt><trkpt lat="41.82327107068466" lon="12.72493830077257"><ele>314.66666666666663</ele><time>2026-04-06T08:53:50Z</time></trkpt><trkpt lat="41.82326918941935" lon="12.725159484609971"><ele>313.0</ele><time>2026-04-06T08:53:51Z</time></trkpt><trkpt lat="41.82326710321379" lon="12.725376060391968"><ele>312.5</ele><time>2026-04-06T08:53:52Z</time></trkpt><trkpt lat="41.82325967381843" lon="12.725575984047248"><ele>312.0</ele><time>2026-04-06T08:53:53Z</time></trkpt><trkpt lat="41.823259648764925" lon="12.725759447517786"><ele>311.5</ele><time>2026-04-06T08:53:54Z</time></trkpt><trkpt lat="41.82325952467693" lon="12.725932210604944"><ele>311.0</ele><time>2026-04-06T08:53:55Z</time></trkpt><trkpt lat="41.8232553563137" lon="12.72609182962268"><ele>311.0</ele><time>2026-04-06T08:53:56Z</time></trkpt><trkpt lat="41.82325103026525" lon="12.726240039422208"><ele>311.0</ele><time>2026-04-06T08:53:57Z</time></trkpt><trkpt lat="41.8232502488807" lon="12.726384223855847"><ele>311.0</ele><time>2026-04-06T08:53:58Z</time></trkpt><trkpt lat="41.82324458990803" lon="12.72652171366861"><ele>311.0</ele><time>2026-04-06T08:53:59Z</time></trkpt><trkpt lat="41.823233131467866" lon="12.726658461973619"><ele>311.0</ele><time>2026-04-06T08:54:00Z</time></trkpt><trkpt lat="41.823211258476285" lon="12.726800718109311"><ele>309.25</ele><time>2026-04-06T08:54:01Z</time></trkpt><trkpt lat="41.82317893080519" lon="12.726939416115638"><ele>307.5</ele><time>2026-04-06T08:54:02Z</time></trkpt><trkpt lat="41.82312913104501" lon="12.727071981888225"><ele>305.75</ele><time>2026-04-06T08:54:03Z</time></trkpt><trkpt lat="41.82307263050045" lon="12.72720815856499"><ele>304.0</ele><time>2026-04-06T08:54:04Z</time></trkpt><trkpt lat="41.823003370548754" lon="12.727349427522993"><ele>304.0</ele><time>2026-04-06T08:54:05Z</time></trkpt><trkpt lat="41.82293400790883" lon="12.7274816432601"><ele>304.0</ele><time>2026-04-06T08:54:06Z</time></trkpt><trkpt lat="41.82286720178983" lon="12.72761008562171"><ele>304.0</ele><time>2026-04-06T08:54:07Z</time></trkpt><trkpt lat="41.822789782356466" lon="12.72773677267887"><ele>304.0</ele><time>2026-04-06T08:54:08Z</time></trkpt><trkpt lat="41.822705727816476" lon="12.727872278804528"><ele>303.25</ele><time>2026-04-06T08:54:09Z</time></trkpt><trkpt lat="41.822623025792275" lon="12.728006729257793"><ele>302.5</ele><time>2026-04-06T08:54:10Z</time></trkpt><trkpt lat="41.82254678556968" lon="12.72814101695898"><ele>301.75</ele><time>2026-04-06T08:54:11Z</time></trkpt><trkpt lat="41.822480680873994" lon="12.728284579502244"><ele>301.0</ele><time>2026-04-06T08:54:12Z</time></trkpt><trkpt lat="41.82243152179251" lon="12.728442148092304"><ele>302.0</ele><time>2026-04-06T08:54:13Z</time></trkpt><trkpt lat="41.822420246812335" lon="12.72861178409954"><ele>303.0</ele><time>2026-04-06T08:54:14Z</time></trkpt><trkpt lat="41.82244691554004" lon="12.72878513128356"><ele>304.0</ele><time>2026-04-06T08:54:15Z</time></trkpt><trkpt lat="41.82247370647868" lon="12.728949014758934"><ele>305.0</ele><time>2026-04-06T08:54:16Z</time></trkpt><trkpt lat="41.82252564309396" lon="12.72910744485685"><ele>305.0</ele><time>2026-04-06T08:54:17Z</time></trkpt><trkpt lat="41.82261033111868" lon="12.72923767807002"><ele>305.0</ele><time>2026-04-06T08:54:18Z</time></trkpt><trkpt lat="41.82271017889927" lon="12.729366256311522"><ele>305.0</ele><time>2026-04-06T08:54:19Z</time></trkpt><trkpt lat="41.822849497698456" lon="12.7294430691244"><ele>305.0</ele><time>2026-04-06T08:54:20Z</time></trkpt><trkpt lat="41.82299388996641" lon="12.729514827735803"><ele>305.75</ele><time>2026-04-06T08:54:21Z</time></trkpt><trkpt lat="41.82313422419054" lon="12.72957162611932"><ele>306.5</ele><time>2026-04-06T08:54:22Z</time></trkpt><trkpt lat="41.823271265767154" lon="12.729626329318275"><ele>307.25</ele><time>2026-04-06T08:54:23Z</time></trkpt><trkpt lat="41.823417098753886" lon="12.729681311584441"><ele>308.0</ele><time>2026-04-06T08:54:24Z</time></trkpt><trkpt lat="41.823566567747555" lon="12.729754624548741"><ele>305.33333333333337</ele><time>2026-04-06T08:54:25Z</time></trkpt><trkpt lat="41.82371142677741" lon="12.729813566943012"><ele>302.6666666666667</ele><time>2026-04-06T08:54:26Z</time></trkpt><trkpt lat="41.82385319468643" lon="12.729866130690283"><ele>300.0</ele><time>2026-04-06T08:54:27Z</time></trkpt><trkpt lat="41.824001969017914" lon="12.729935561920833"><ele>300.0</ele><time>2026-04-06T08:54:28Z</time></trkpt><trkpt lat="41.82415253783096" lon="12.730000861032101"><ele>300.0</ele><time>2026-04-06T08:54:29Z</time></trkpt><trkpt lat="41.824297587949395" lon="12.730096163673892"><ele>300.0</ele><time>2026-04-06T08:54:30Z</time></trkpt><trkpt lat="41.82444452055088" lon="12.730161663441802"><ele>299.75</ele><time>2026-04-06T08:54:31Z</time></trkpt><trkpt lat="41.82457299991943" lon="12.730239978987024"><ele>299.5</ele><time>2026-04-06T08:54:32Z</time></trkpt><trkpt lat="41.824703209000766" lon="12.730319343570844"><ele>299.25</ele><time>2026-04-06T08:54:33Z</time></trkpt><trkpt lat="41.8248395507757" lon="12.730406076549126"><ele>299.0</ele><time>2026-04-06T08:54:34Z</time></trkpt><trkpt lat="41.82497212499132" lon="12.730496347383141"><ele>299.0</ele><time>2026-04-06T08:54:35Z</time></trkpt><trkpt lat="41.82510102223414" lon="12.730591659999982"><ele>299.0</ele><time>2026-04-06T08:54:36Z</time></trkpt><trkpt lat="41.82522764491937" lon="12.730688559011048"><ele>299.0</ele><time>2026-04-06T08:54:37Z</time></trkpt><trkpt lat="41.82535788600076" lon="12.730781416486241"><ele>299.0</ele><time>2026-04-06T08:54:38Z</time></trkpt><trkpt lat="41.82549252271458" lon="12.730884440157356"><ele>297.0</ele><time>2026-04-06T08:54:39Z</time></trkpt><trkpt lat="41.825626915110846" lon="12.730992667221715"><ele>295.0</ele><time>2026-04-06T08:54:40Z</time></trkpt><trkpt lat="41.82575938103923" lon="12.731101501767695"><ele>293.0</ele><time>2026-04-06T08:54:41Z</time></trkpt><trkpt lat="41.825886607946885" lon="12.731214144136922"><ele>289.6666666666667</ele><time>2026-04-06T08:54:42Z</time></trkpt><trkpt lat="41.82602134385938" lon="12.73132222536603"><ele>286.3333333333333</ele><time>2026-04-06T08:54:43Z</time></trkpt><trkpt lat="41.826159453306296" lon="12.731433667517843"><ele>283.0</ele><time>2026-04-06T08:54:44Z</time></trkpt><trkpt lat="41.826297112795814" lon="12.73155007774371"><ele>283.0</ele><time>2026-04-06T08:54:45Z</time></trkpt><trkpt lat="41.8264359032041" lon="12.731669489810441"><ele>283.0</ele><time>2026-04-06T08:54:46Z</time></trkpt><trkpt lat="41.82657300405366" lon="12.731785061775383"><ele>283.0</ele><time>2026-04-06T08:54:47Z</time></trkpt><trkpt lat="41.82670845184357" lon="12.731893566432186"><ele>282.25</ele><time>2026-04-06T08:54:48Z</time></trkpt><trkpt lat="41.826840271911976" lon="12.732014043690596"><ele>281.5</ele><time>2026-04-06T08:54:49Z</time></trkpt><trkpt lat="41.82695967847953" lon="12.732151109311566"><ele>280.75</ele><time>2026-04-06T08:54:50Z</time></trkpt><trkpt lat="41.827058298275844" lon="12.732196634383591"><ele>280.0</ele><time>2026-04-06T08:54:51Z</time></trkpt><trkpt lat="41.82716738525192" lon="12.73228321718458"><ele>280.0</ele><time>2026-04-06T08:54:52Z</time></trkpt><trkpt lat="41.82727674917703" lon="12.732366842828494"><ele>280.0</ele><time>2026-04-06T08:54:53Z</time></trkpt><trkpt lat="41.82737201512358" lon="12.732453550629556"><ele>280.0</ele><time>2026-04-06T08:54:54Z</time></trkpt><trkpt lat="41.827467013990834" lon="12.732538111949943"><ele>280.0</ele><time>2026-04-06T08:54:55Z</time></trkpt><trkpt lat="41.82755049326921" lon="12.732628293561119"><ele>280.66666666666663</ele><time>2026-04-06T08:54:56Z</time></trkpt><trkpt lat="41.82762265407779" lon="12.732740747971866"><ele>281.3333333333333</ele><time>2026-04-06T08:54:57Z</time></trkpt><trkpt lat="41.827668675506615" lon="12.732836750317501"><ele>282.0</ele><time>2026-04-06T08:54:58Z</time></trkpt><trkpt lat="41.82769742316693" lon="12.732937337398376"><ele>282.6666666666667</ele><time>2026-04-06T08:54:59Z</time></trkpt><trkpt lat="41.8277239390082" lon="12.733017336699433"><ele>283.33333333333337</ele><time>2026-04-06T08:55:00Z</time></trkpt><trkpt lat="41.82773875224814" lon="12.733113167154483"><ele>284.0</ele><time>2026-04-06T08:55:02Z</time></trkpt><trkpt lat="41.82775837261015" lon="12.733222407760966"><ele>282.4</ele><time>2026-04-06T08:55:34.001Z</time></trkpt><trkpt lat="41.82777892788336" lon="12.733347149783901"><ele>280.79999999999995</ele><time>2026-04-06T08:55:36.001Z</time></trkpt><trkpt lat="41.82779216443268" lon="12.733492516069257"><ele>279.20000000000005</ele><time>2026-04-06T08:55:38.001Z</time></trkpt><trkpt lat="41.82779097465498" lon="12.73363984071"><ele>277.6</ele><time>2026-04-06T08:55:40.001Z</time></trkpt><trkpt lat="41.82774904833444" lon="12.733791033040184"><ele>276.0</ele><time>2026-04-06T08:55:42Z</time></trkpt><trkpt lat="41.82772291143006" lon="12.73390107272427"><ele>275.8333333333333</ele><time>2026-04-06T08:55:43Z</time></trkpt><trkpt lat="41.82769741285261" lon="12.734008424962765"><ele>275.6666666666667</ele><time>2026-04-06T08:55:44Z</time></trkpt><trkpt lat="41.82767535550424" lon="12.734103445970362"><ele>275.5</ele><time>2026-04-06T08:55:45Z</time></trkpt><trkpt lat="41.82765177763902" lon="12.734208220087764"><ele>275.33333333333337</ele><time>2026-04-06T08:55:46Z</time></trkpt><trkpt lat="41.82762656540579" lon="12.734326588501844"><ele>275.1666666666667</ele><time>2026-04-06T08:55:47Z</time></trkpt><trkpt lat="41.82762048920462" lon="12.73445306539554"><ele>275.0</ele><time>2026-04-06T08:55:48Z</time></trkpt><trkpt lat="41.82759238164225" lon="12.734570491055072"><ele>276.6666666666667</ele><time>2026-04-06T08:55:49Z</time></trkpt><trkpt lat="41.827572649512504" lon="12.734690384817641"><ele>278.33333333333337</ele><time>2026-04-06T08:55:50Z</time></trkpt><trkpt lat="41.82756189795169" lon="12.734800561524276"><ele>280.0</ele><time>2026-04-06T08:55:51Z</time></trkpt><trkpt lat="41.827554841958595" lon="12.734921551946783"><ele>281.6666666666667</ele><time>2026-04-06T08:55:52Z</time></trkpt><trkpt lat="41.82755370287014" lon="12.735033693912843"><ele>283.3333333333333</ele><time>2026-04-06T08:55:53Z</time></trkpt><trkpt lat="41.82755894059869" lon="12.735158695151771"><ele>285.0</ele><time>2026-04-06T08:55:54Z</time></trkpt><trkpt lat="41.82756565495841" lon="12.735291136092851"><ele>285.0</ele><time>2026-04-06T08:55:55Z</time></trkpt><trkpt lat="41.82757600690654" lon="12.735430969147425"><ele>285.0</ele><time>2026-04-06T08:55:56Z</time></trkpt><trkpt lat="41.82758976223123" lon="12.735578149960116"><ele>285.0</ele><time>2026-04-06T08:55:57Z</time></trkpt><trkpt lat="41.827603971858835" lon="12.735728320826505"><ele>285.0</ele><time>2026-04-06T08:55:58Z</time></trkpt><trkpt lat="41.827621604944845" lon="12.735882570276242"><ele>285.0</ele><time>2026-04-06T08:55:59Z</time></trkpt><trkpt lat="41.82764978402073" lon="12.736035503589983"><ele>282.0</ele><time>2026-04-06T08:56:00Z</time></trkpt><trkpt lat="41.82768655685233" lon="12.73619537378538"><ele>279.0</ele><time>2026-04-06T08:56:01Z</time></trkpt><trkpt lat="41.82772717919535" lon="12.736354634618275"><ele>276.0</ele><time>2026-04-06T08:56:02Z</time></trkpt><trkpt lat="41.82776871988605" lon="12.736514474915058"><ele>273.0</ele><time>2026-04-06T08:56:03Z</time></trkpt><trkpt lat="41.82781117244399" lon="12.736676221588729"><ele>273.0</ele><time>2026-04-06T08:56:04Z</time></trkpt><trkpt lat="41.82785593212125" lon="12.736836266415942"><ele>273.0</ele><time>2026-04-06T08:56:05Z</time></trkpt><trkpt lat="41.827903616457824" lon="12.736996549684092"><ele>273.0</ele><time>2026-04-06T08:56:06Z</time></trkpt><trkpt lat="41.82794959084735" lon="12.737152720759005"><ele>273.0</ele><time>2026-04-06T08:56:07Z</time></trkpt><trkpt lat="41.82799360025605" lon="12.737303410916075"><ele>273.25</ele><time>2026-04-06T08:56:08Z</time></trkpt><trkpt lat="41.82803502553912" lon="12.737452964766137"><ele>273.5</ele><time>2026-04-06T08:56:09Z</time></trkpt><trkpt lat="41.828077080594156" lon="12.737600102502851"><ele>273.75</ele><time>2026-04-06T08:56:10Z</time></trkpt><trkpt lat="41.828120187148784" lon="12.73775586729567"><ele>274.0</ele><time>2026-04-06T08:56:11Z</time></trkpt><trkpt lat="41.82816240237" lon="12.737909045050058"><ele>273.25</ele><time>2026-04-06T08:56:12Z</time></trkpt><trkpt lat="41.828205987628685" lon="12.738058405905228"><ele>272.5</ele><time>2026-04-06T08:56:13Z</time></trkpt><trkpt lat="41.82824648865368" lon="12.738205164882384"><ele>271.75</ele><time>2026-04-06T08:56:14Z</time></trkpt><trkpt lat="41.82828098055689" lon="12.738354765824917"><ele>271.0</ele><time>2026-04-06T08:56:15Z</time></trkpt><trkpt lat="41.828303426256554" lon="12.738509949416242"><ele>271.2</ele><time>2026-04-06T08:56:16Z</time></trkpt><trkpt lat="41.828311868422425" lon="12.738669805791519"><ele>271.40000000000003</ele><time>2026-04-06T08:56:17Z</time></trkpt><trkpt lat="41.82831292664782" lon="12.738820586033654"><ele>271.6</ele><time>2026-04-06T08:56:18Z</time></trkpt><trkpt lat="41.828312403853964" lon="12.73896137303438"><ele>271.8</ele><time>2026-04-06T08:56:19Z</time></trkpt><trkpt lat="41.82831219711522" lon="12.739084805965476"><ele>272.0</ele><time>2026-04-06T08:56:20Z</time></trkpt><trkpt lat="41.82831445780562" lon="12.73919165249215"><ele>272.0</ele><time>2026-04-06T08:56:21Z</time></trkpt><trkpt lat="41.82831364059725" lon="12.739315088536651"><ele>272.0</ele><time>2026-04-06T08:56:22Z</time></trkpt><trkpt lat="41.82831484494867" lon="12.739469580744265"><ele>272.0</ele><time>2026-04-06T08:56:23Z</time></trkpt><trkpt lat="41.82834355245757" lon="12.7396288477649"><ele>272.0</ele><time>2026-04-06T08:56:24Z</time></trkpt><trkpt lat="41.82839049144566" lon="12.739766179481583"><ele>272.0</ele><time>2026-04-06T08:56:25Z</time></trkpt><trkpt lat="41.82848039043806" lon="12.739885067450818"><ele>271.5</ele><time>2026-04-06T08:56:26Z</time></trkpt><trkpt lat="41.828590617299355" lon="12.739969981496214"><ele>271.0</ele><time>2026-04-06T08:56:27Z</time></trkpt><trkpt lat="41.82871241421885" lon="12.74001098409964"><ele>270.5</ele><time>2026-04-06T08:56:28Z</time></trkpt><trkpt lat="41.82884623367955" lon="12.740031292812457"><ele>270.0</ele><time>2026-04-06T08:56:29Z</time></trkpt><trkpt lat="41.82899139041954" lon="12.740051944446598"><ele>270.0</ele><time>2026-04-06T08:56:30Z</time></trkpt><trkpt lat="41.82912578200745" lon="12.740076733658654"><ele>270.0</ele><time>2026-04-06T08:56:31Z</time></trkpt><trkpt lat="41.82925162330872" lon="12.740107315677154"><ele>270.0</ele><time>2026-04-06T08:56:32Z</time></trkpt><trkpt lat="41.82937621769064" lon="12.740150761574753"><ele>270.0</ele><time>2026-04-06T08:56:33Z</time></trkpt><trkpt lat="41.829498628879435" lon="12.740222911932996"><ele>268.25</ele><time>2026-04-06T08:56:34Z</time></trkpt><trkpt lat="41.8296139306859" lon="12.740325958054187"><ele>266.5</ele><time>2026-04-06T08:56:35Z</time></trkpt><trkpt lat="41.829720662010395" lon="12.740454792678905"><ele>264.75</ele><time>2026-04-06T08:56:36Z</time></trkpt><trkpt lat="41.829812806306755" lon="12.740606287445996"><ele>263.0</ele><time>2026-04-06T08:56:37Z</time></trkpt><trkpt lat="41.82991223131237" lon="12.740807093690224"><ele>263.0</ele><time>2026-04-06T08:56:38Z</time></trkpt><trkpt lat="41.83001076141476" lon="12.741021597306428"><ele>263.0</ele><time>2026-04-06T08:56:39Z</time></trkpt><trkpt lat="41.830100942308405" lon="12.741211897541945"><ele>263.0</ele><time>2026-04-06T08:56:40Z</time></trkpt><trkpt lat="41.83018959797555" lon="12.741381176497903"><ele>263.75</ele><time>2026-04-06T08:56:41Z</time></trkpt><trkpt lat="41.83028175674984" lon="12.741534767372869"><ele>264.5</ele><time>2026-04-06T08:56:42Z</time></trkpt><trkpt lat="41.83037594112203" lon="12.74167511852515"><ele>265.25</ele><time>2026-04-06T08:56:43Z</time></trkpt><trkpt lat="41.830479793015044" lon="12.741805134899282"><ele>266.0</ele><time>2026-04-06T08:56:44Z</time></trkpt><trkpt lat="41.83058839964722" lon="12.741935404928943"><ele>266.0</ele><time>2026-04-06T08:56:45Z</time></trkpt><trkpt lat="41.830698232694886" lon="12.742072007659035"><ele>266.0</ele><time>2026-04-06T08:56:46Z</time></trkpt><trkpt lat="41.830812855750935" lon="12.74221211933264"><ele>266.0</ele><time>2026-04-06T08:56:47Z</time></trkpt><trkpt lat="41.83092664231685" lon="12.742340928118322"><ele>264.75</ele><time>2026-04-06T08:56:48Z</time></trkpt><trkpt lat="41.831029841799186" lon="12.74245841140074"><ele>263.5</ele><time>2026-04-06T08:56:49Z</time></trkpt><trkpt lat="41.8311249243849" lon="12.742577363270966"><ele>262.25</ele><time>2026-04-06T08:56:50Z</time></trkpt><trkpt lat="41.83122043439939" lon="12.742698105000219"><ele>261.0</ele><time>2026-04-06T08:56:51Z</time></trkpt><trkpt lat="41.831315696383676" lon="12.742814139006168"><ele>263.75</ele><time>2026-04-06T08:56:52Z</time></trkpt><trkpt lat="41.831404383870336" lon="12.742925436113271"><ele>266.5</ele><time>2026-04-06T08:56:53Z</time></trkpt><trkpt lat="41.831492904051764" lon="12.743059103017627"><ele>269.25</ele><time>2026-04-06T08:56:54Z</time></trkpt><trkpt lat="41.831572708002746" lon="12.743219023527448"><ele>272.0</ele><time>2026-04-06T08:56:55Z</time></trkpt><trkpt lat="41.83163377817929" lon="12.743400080022688"><ele>273.6666666666667</ele><time>2026-04-06T08:56:56Z</time></trkpt><trkpt lat="41.83167847753944" lon="12.743619616841515"><ele>275.3333333333333</ele><time>2026-04-06T08:56:57Z</time></trkpt><trkpt lat="41.831731623281016" lon="12.743846439836533"><ele>277.0</ele><time>2026-04-06T08:56:58Z</time></trkpt><trkpt lat="41.831766712196995" lon="12.744030618445553"><ele>277.0</ele><time>2026-04-06T08:56:59Z</time></trkpt><trkpt lat="41.83180290588193" lon="12.744196113519784"><ele>277.0</ele><time>2026-04-06T08:57:00Z</time></trkpt><trkpt lat="41.83183611568933" lon="12.744358070675897"><ele>277.0</ele><time>2026-04-06T08:57:01Z</time></trkpt><trkpt lat="41.83185953054801" lon="12.744514604322566"><ele>277.0</ele><time>2026-04-06T08:57:02Z</time></trkpt><trkpt lat="41.831870906542704" lon="12.744675332487951"><ele>278.0</ele><time>2026-04-06T08:57:03Z</time></trkpt><trkpt lat="41.831830159594666" lon="12.74481821084143"><ele>279.0</ele><time>2026-04-06T08:57:04Z</time></trkpt><trkpt lat="41.831786164888165" lon="12.744965388915201"><ele>280.0</ele><time>2026-04-06T08:57:05Z</time></trkpt><trkpt lat="41.831711634986654" lon="12.745084655323007"><ele>281.0</ele><time>2026-04-06T08:57:06Z</time></trkpt><trkpt lat="41.831630854838934" lon="12.745177993704703"><ele>282.75</ele><time>2026-04-06T08:57:07Z</time></trkpt><trkpt lat="41.831520925835356" lon="12.745228582266423"><ele>284.5</ele><time>2026-04-06T08:57:08Z</time></trkpt><trkpt lat="41.83140023229421" lon="12.745303728330342"><ele>286.25</ele><time>2026-04-06T08:57:09Z</time></trkpt><trkpt lat="41.831269602053716" lon="12.745355196246551"><ele>288.0</ele><time>2026-04-06T08:57:10Z</time></trkpt><trkpt lat="41.8311589519289" lon="12.745418105898807"><ele>288.0</ele><time>2026-04-06T08:57:11Z</time></trkpt><trkpt lat="41.83105949523325" lon="12.74549441442315"><ele>288.0</ele><time>2026-04-06T08:57:12Z</time></trkpt><trkpt lat="41.83097708692772" lon="12.745609213323306"><ele>288.0</ele><time>2026-04-06T08:57:13Z</time></trkpt><trkpt lat="41.830919071111865" lon="12.745744095779962"><ele>288.0</ele><time>2026-04-06T08:57:14Z</time></trkpt><trkpt lat="41.830875457787414" lon="12.745885731555735"><ele>288.25</ele><time>2026-04-06T08:57:15Z</time></trkpt><trkpt lat="41.83084795412321" lon="12.746034164548504"><ele>288.5</ele><time>2026-04-06T08:57:16Z</time></trkpt><trkpt lat="41.83083087863325" lon="12.746188110322528"><ele>288.75</ele><time>2026-04-06T08:57:17Z</time></trkpt><trkpt lat="41.830818183455136" lon="12.746341697376842"><ele>289.0</ele><time>2026-04-06T08:57:18.001Z</time></trkpt><trkpt lat="41.83080532661951" lon="12.746489841524122"><ele>289.59999999999997</ele><time>2026-04-06T08:57:19.001Z</time></trkpt><trkpt lat="41.830791955426236" lon="12.74663466015829"><ele>290.2</ele><time>2026-04-06T08:57:20.001Z</time></trkpt><trkpt lat="41.830775011572214" lon="12.74677855365165"><ele>290.79999999999995</ele><time>2026-04-06T08:57:21.001Z</time></trkpt><trkpt lat="41.83076104454102" lon="12.746908352712863"><ele>291.4</ele><time>2026-04-06T08:57:22.001Z</time></trkpt><trkpt lat="41.83074757129404" lon="12.747025947204431"><ele>292.0</ele><time>2026-04-06T08:57:23.001Z</time></trkpt><trkpt lat="41.830735272475486" lon="12.747135566751897"><ele>292.4</ele><time>2026-04-06T08:57:24.001Z</time></trkpt><trkpt lat="41.8307281562564" lon="12.747260673620078"><ele>292.79999999999995</ele><time>2026-04-06T08:57:25.001Z</time></trkpt><trkpt lat="41.830732699710644" lon="12.74741368477195"><ele>293.2</ele><time>2026-04-06T08:57:26.001Z</time></trkpt><trkpt lat="41.83074718197111" lon="12.74755713116733"><ele>293.59999999999997</ele><time>2026-04-06T08:57:27.001Z</time></trkpt><trkpt lat="41.83075869730867" lon="12.747690479365996"><ele>294.0</ele><time>2026-04-06T08:57:28.001Z</time></trkpt><trkpt lat="41.830773018426775" lon="12.747827361954613"><ele>294.1666666666667</ele><time>2026-04-06T08:57:29.001Z</time></trkpt><trkpt lat="41.83079090319334" lon="12.747952423164797"><ele>294.3333333333333</ele><time>2026-04-06T08:57:30.001Z</time></trkpt><trkpt lat="41.83081815214175" lon="12.748076919723319"><ele>294.5</ele><time>2026-04-06T08:57:31.001Z</time></trkpt><trkpt lat="41.8308446803574" lon="12.748188874334609"><ele>294.66666666666663</ele><time>2026-04-06T08:57:32.001Z</time></trkpt><trkpt lat="41.83087299829032" lon="12.748293540452519"><ele>294.8333333333333</ele><time>2026-04-06T08:57:33.001Z</time></trkpt><trkpt lat="41.830900152220885" lon="12.74838781210166"><ele>295.0</ele><time>2026-04-06T08:57:34.001Z</time></trkpt><trkpt lat="41.830928470493795" lon="12.74848588066839"><ele>294.8333333333333</ele><time>2026-04-06T08:57:35.001Z</time></trkpt><trkpt lat="41.83096059698722" lon="12.748587194975439"><ele>294.66666666666663</ele><time>2026-04-06T08:57:36.001Z</time></trkpt><trkpt lat="41.83099620642993" lon="12.748688529076478"><ele>294.5</ele><time>2026-04-06T08:57:37.001Z</time></trkpt><trkpt lat="41.83103128303895" lon="12.748777314507226"><ele>294.3333333333333</ele><time>2026-04-06T08:57:38.001Z</time></trkpt><trkpt lat="41.83107082152258" lon="12.748864827350943"><ele>294.1666666666667</ele><time>2026-04-06T08:57:39.001Z</time></trkpt><trkpt lat="41.83111092360988" lon="12.7489499466081"><ele>294.0</ele><time>2026-04-06T08:57:40.001Z</time></trkpt><trkpt lat="41.8311518170179" lon="12.74902912128687"><ele>294.2857142857143</ele><time>2026-04-06T08:57:41.001Z</time></trkpt><trkpt lat="41.831191940061245" lon="12.749103496359103"><ele>294.57142857142856</ele><time>2026-04-06T08:57:42.001Z</time></trkpt><trkpt lat="41.831231628645746" lon="12.749175090914697"><ele>294.8571428571429</ele><time>2026-04-06T08:57:43.001Z</time></trkpt><trkpt lat="41.83127900209166" lon="12.749249930138427"><ele>295.1428571428571</ele><time>2026-04-06T08:57:44.001Z</time></trkpt><trkpt lat="41.831333448332494" lon="12.749325502768805"><ele>295.42857142857144</ele><time>2026-04-06T08:57:45.001Z</time></trkpt><trkpt lat="41.83138694047833" lon="12.749387514733028"><ele>295.7142857142857</ele><time>2026-04-06T08:57:46.001Z</time></trkpt><trkpt lat="41.83143758154267" lon="12.749440335572743"><ele>296.0</ele><time>2026-04-06T08:57:47Z</time></trkpt><trkpt lat="41.83148911989316" lon="12.74949186954347"><ele>296.0</ele><time>2026-04-06T08:57:48Z</time></trkpt><trkpt lat="41.83154426495023" lon="12.749547702070377"><ele>296.0</ele><time>2026-04-06T08:57:49Z</time></trkpt><trkpt lat="41.83159879448346" lon="12.749608804618527"><ele>296.0</ele><time>2026-04-06T08:57:50Z</time></trkpt><trkpt lat="41.831654030549295" lon="12.749671037514528"><ele>296.0</ele><time>2026-04-06T08:57:51Z</time></trkpt><trkpt lat="41.8317060712324" lon="12.749729752547971"><ele>296.0</ele><time>2026-04-06T08:57:52Z</time></trkpt><trkpt lat="41.831755558556225" lon="12.749784985635703"><ele>296.0</ele><time>2026-04-06T08:57:53Z</time></trkpt><trkpt lat="41.831804986064505" lon="12.749845367467556"><ele>296.0</ele><time>2026-04-06T08:57:54Z</time></trkpt><trkpt lat="41.831888754301204" lon="12.749941543277329"><ele>298.0</ele><time>2026-04-06T08:57:56Z</time></trkpt><trkpt lat="41.831968603442725" lon="12.750052630714478"><ele>300.0</ele><time>2026-04-06T08:57:57.999Z</time></trkpt><trkpt lat="41.83202240593979" lon="12.750138919442803"><ele>302.0</ele><time>2026-04-06T08:57:58.999Z</time></trkpt><trkpt lat="41.832062655242616" lon="12.750210003696418"><ele>304.0</ele><time>2026-04-06T08:57:59.999Z</time></trkpt><trkpt lat="41.832107001598196" lon="12.75028929269789"><ele>306.0</ele><time>2026-04-06T08:58:01Z</time></trkpt><trkpt lat="41.832170297214994" lon="12.750417818488135"><ele>306.0</ele><time>2026-04-06T08:58:03Z</time></trkpt><trkpt lat="41.83221537129048" lon="12.750532609622269"><ele>306.0</ele><time>2026-04-06T08:58:05Z</time></trkpt><trkpt lat="41.83223623360784" lon="12.750623253600835"><ele>306.0</ele><time>2026-04-06T08:58:08Z</time></trkpt><trkpt lat="41.83222085591201" lon="12.750533807918663"><ele>306.0</ele><time>2026-04-06T08:59:03Z</time></trkpt><trkpt lat="41.832177573722966" lon="12.750439220766976"><ele>306.0</ele><time>2026-04-06T08:59:05Z</time></trkpt><trkpt lat="41.83213650600519" lon="12.7503570344892"><ele>306.0</ele><time>2026-04-06T09:01:13Z</time></trkpt></trkseg><trkseg><trkpt lat="41.832276745881686" lon="12.750651735236323"><ele>306.0</ele><time>2026-04-06T09:23:50.001Z</time></trkpt><trkpt lat="41.8323115251201" lon="12.750726153641173"><ele>306.0</ele><time>2026-04-06T09:23:51.001Z</time></trkpt><trkpt lat="41.832349653211764" lon="12.750806985951243"><ele>306.0</ele><time>2026-04-06T09:23:52.001Z</time></trkpt><trkpt lat="41.83237995863455" lon="12.750883504702408"><ele>306.0</ele><time>2026-04-06T09:23:53.001Z</time></trkpt><trkpt lat="41.83240901343374" lon="12.751001615941373"><ele>306.0</ele><time>2026-04-06T09:23:55.001Z</time></trkpt><trkpt lat="41.83243427831452" lon="12.751089755237237"><ele>306.0</ele><time>2026-04-06T09:23:56.001Z</time></trkpt><trkpt lat="41.83247118207185" lon="12.75120279317671"><ele>305.8333333333333</ele><time>2026-04-06T09:23:58.001Z</time></trkpt><trkpt lat="41.83249274288491" lon="12.751312261468662"><ele>305.6666666666667</ele><time>2026-04-06T09:24:00.001Z</time></trkpt><trkpt lat="41.83251719691563" lon="12.75145068075321"><ele>305.5</ele><time>2026-04-06T09:24:02.001Z</time></trkpt><trkpt lat="41.832534443277275" lon="12.751535308540339"><ele>305.33333333333337</ele><time>2026-04-06T09:24:03.001Z</time></trkpt><trkpt lat="41.832564065848544" lon="12.751695487955981"><ele>305.1666666666667</ele><time>2026-04-06T09:24:05.001Z</time></trkpt><trkpt lat="41.83256315559243" lon="12.751783159463935"><ele>305.0</ele><time>2026-04-06T09:24:06Z</time></trkpt><trkpt lat="41.83257287097812" lon="12.751873408723071"><ele>304.6666666666667</ele><time>2026-04-06T09:24:07Z</time></trkpt><trkpt lat="41.832583442147694" lon="12.75198480795875"><ele>304.33333333333337</ele><time>2026-04-06T09:24:08Z</time></trkpt><trkpt lat="41.83259249820341" lon="12.75208801072429"><ele>304.0</ele><time>2026-04-06T09:24:09Z</time></trkpt><trkpt lat="41.83260152631512" lon="12.752190895025688"><ele>303.6666666666667</ele><time>2026-04-06T09:24:10Z</time></trkpt><trkpt lat="41.832625872849114" lon="12.752303163182356"><ele>303.3333333333333</ele><time>2026-04-06T09:24:11Z</time></trkpt><trkpt lat="41.8326359958657" lon="12.752425021850177"><ele>303.0</ele><time>2026-04-06T09:24:12Z</time></trkpt><trkpt lat="41.83264481032039" lon="12.752546195385477"><ele>304.0</ele><time>2026-04-06T09:24:13Z</time></trkpt><trkpt lat="41.83266277963991" lon="12.75267388412903"><ele>305.0</ele><time>2026-04-06T09:24:14Z</time></trkpt><trkpt lat="41.83267665496937" lon="12.752796344418487"><ele>306.0</ele><time>2026-04-06T09:24:15Z</time></trkpt><trkpt lat="41.83269291731056" lon="12.752922745932864"><ele>307.0</ele><time>2026-04-06T09:24:16Z</time></trkpt><trkpt lat="41.83272241133906" lon="12.75304718781375"><ele>308.0</ele><time>2026-04-06T09:24:17Z</time></trkpt><trkpt lat="41.83276376830721" lon="12.753181240939407"><ele>308.0</ele><time>2026-04-06T09:24:18Z</time></trkpt><trkpt lat="41.83281088789631" lon="12.75331299476118"><ele>308.0</ele><time>2026-04-06T09:24:19Z</time></trkpt><trkpt lat="41.83285775339161" lon="12.753428911397659"><ele>308.0</ele><time>2026-04-06T09:24:20Z</time></trkpt><trkpt lat="41.83290613471712" lon="12.753540096140776"><ele>308.0</ele><time>2026-04-06T09:24:21Z</time></trkpt><trkpt lat="41.83298785365204" lon="12.75362098864747"><ele>308.0</ele><time>2026-04-06T09:24:22Z</time></trkpt><trkpt lat="41.83305442461629" lon="12.753721376063355"><ele>305.8</ele><time>2026-04-06T09:24:23Z</time></trkpt><trkpt lat="41.83313111648135" lon="12.753821604761026"><ele>303.6</ele><time>2026-04-06T09:24:24Z</time></trkpt><trkpt lat="41.83320500756328" lon="12.75391839591043"><ele>301.4</ele><time>2026-04-06T09:24:25Z</time></trkpt><trkpt lat="41.83327153557872" lon="12.75400857979305"><ele>299.2</ele><time>2026-04-06T09:24:26Z</time></trkpt><trkpt lat="41.83334031228416" lon="12.754097297372562"><ele>297.0</ele><time>2026-04-06T09:24:27Z</time></trkpt><trkpt lat="41.83340002219579" lon="12.754186752618168"><ele>297.0</ele><time>2026-04-06T09:24:28Z</time></trkpt><trkpt lat="41.83346162471848" lon="12.754292315733366"><ele>297.0</ele><time>2026-04-06T09:24:29Z</time></trkpt><trkpt lat="41.83353219838701" lon="12.7543881335569"><ele>297.0</ele><time>2026-04-06T09:24:30Z</time></trkpt><trkpt lat="41.83359728619796" lon="12.754476502998306"><ele>297.0</ele><time>2026-04-06T09:24:31Z</time></trkpt><trkpt lat="41.833660051782424" lon="12.754561732348217"><ele>297.0</ele><time>2026-04-06T09:24:32Z</time></trkpt><trkpt lat="41.83373447540064" lon="12.754634264172726"><ele>296.3333333333333</ele><time>2026-04-06T09:24:33Z</time></trkpt><trkpt lat="41.83379600323918" lon="12.754711146745223"><ele>295.6666666666667</ele><time>2026-04-06T09:24:34Z</time></trkpt><trkpt lat="41.83386329750039" lon="12.754785375357264"><ele>295.0</ele><time>2026-04-06T09:24:35Z</time></trkpt><trkpt lat="41.833906716334916" lon="12.754870045332602"><ele>294.33333333333337</ele><time>2026-04-06T09:24:36Z</time></trkpt><trkpt lat="41.833949623457315" lon="12.754955792296354"><ele>293.6666666666667</ele><time>2026-04-06T09:24:37Z</time></trkpt><trkpt lat="41.833995231129975" lon="12.755041108755448"><ele>293.0</ele><time>2026-04-06T09:24:38Z</time></trkpt><trkpt lat="41.83401899386708" lon="12.755132721311998"><ele>291.6666666666667</ele><time>2026-04-06T09:24:39Z</time></trkpt><trkpt lat="41.83405506189591" lon="12.75522251226056"><ele>290.33333333333337</ele><time>2026-04-06T09:24:40Z</time></trkpt><trkpt lat="41.8340786538301" lon="12.75531411754088"><ele>289.0</ele><time>2026-04-06T09:24:41Z</time></trkpt><trkpt lat="41.834102273084106" lon="12.755412244194487"><ele>287.6666666666667</ele><time>2026-04-06T09:24:42Z</time></trkpt><trkpt lat="41.834119275683065" lon="12.755518724856433"><ele>286.3333333333333</ele><time>2026-04-06T09:24:43Z</time></trkpt><trkpt lat="41.83412706035672" lon="12.755619877752123"><ele>285.0</ele><time>2026-04-06T09:24:44Z</time></trkpt><trkpt lat="41.83412547243926" lon="12.755732774182732"><ele>285.0</ele><time>2026-04-06T09:24:45Z</time></trkpt><trkpt lat="41.83412556953154" lon="12.755846238189314"><ele>285.0</ele><time>2026-04-06T09:24:46Z</time></trkpt><trkpt lat="41.83412037050498" lon="12.755964623819104"><ele>285.0</ele><time>2026-04-06T09:24:47Z</time></trkpt><trkpt lat="41.83412008959594" lon="12.756086725465384"><ele>285.0</ele><time>2026-04-06T09:24:48Z</time></trkpt><trkpt lat="41.834112632725734" lon="12.756198058858743"><ele>285.0</ele><time>2026-04-06T09:24:49Z</time></trkpt><trkpt lat="41.83412081113077" lon="12.756302728199344"><ele>285.0</ele><time>2026-04-06T09:24:50Z</time></trkpt><trkpt lat="41.83412430783496" lon="12.756408151360151"><ele>284.5</ele><time>2026-04-06T09:24:51.001Z</time></trkpt><trkpt lat="41.83411286053318" lon="12.756500661547626"><ele>284.0</ele><time>2026-04-06T09:24:52.001Z</time></trkpt><trkpt lat="41.834116836255404" lon="12.756593956318733"><ele>283.5</ele><time>2026-04-06T09:24:53.001Z</time></trkpt><trkpt lat="41.83411462515935" lon="12.756710422063902"><ele>283.0</ele><time>2026-04-06T09:24:54.001Z</time></trkpt><trkpt lat="41.8341224076324" lon="12.756816496221601"><ele>282.5</ele><time>2026-04-06T09:24:55.001Z</time></trkpt><trkpt lat="41.83412922610011" lon="12.756932716368155"><ele>282.0</ele><time>2026-04-06T09:24:56.001Z</time></trkpt><trkpt lat="41.8341300602516" lon="12.757048713615108"><ele>281.6666666666667</ele><time>2026-04-06T09:24:57.001Z</time></trkpt><trkpt lat="41.83419017469151" lon="12.7571447677477"><ele>281.3333333333333</ele><time>2026-04-06T09:24:58.001Z</time></trkpt><trkpt lat="41.83424183982663" lon="12.757244271269458"><ele>281.0</ele><time>2026-04-06T09:24:59.001Z</time></trkpt><trkpt lat="41.83430186703367" lon="12.757329844305188"><ele>280.66666666666663</ele><time>2026-04-06T09:25:00.001Z</time></trkpt><trkpt lat="41.83436399780701" lon="12.757411351718861"><ele>280.3333333333333</ele><time>2026-04-06T09:25:01.001Z</time></trkpt><trkpt lat="41.83441496420515" lon="12.75749192627959"><ele>280.0</ele><time>2026-04-06T09:25:02.001Z</time></trkpt><trkpt lat="41.83448259129611" lon="12.757557719713308"><ele>279.5</ele><time>2026-04-06T09:25:03.001Z</time></trkpt><trkpt lat="41.83454406067645" lon="12.757620836735498"><ele>279.0</ele><time>2026-04-06T09:25:04.001Z</time></trkpt><trkpt lat="41.83460979817306" lon="12.757669397651691"><ele>278.5</ele><time>2026-04-06T09:25:05.001Z</time></trkpt><trkpt lat="41.83468195855006" lon="12.757706941234627"><ele>278.0</ele><time>2026-04-06T09:25:06.001Z</time></trkpt><trkpt lat="41.83474843673061" lon="12.757735628220752"><ele>277.5</ele><time>2026-04-06T09:25:07.001Z</time></trkpt><trkpt lat="41.83481613456727" lon="12.757758905162394"><ele>277.0</ele><time>2026-04-06T09:25:08.001Z</time></trkpt><trkpt lat="41.83490681718303" lon="12.757772862566576"><ele>275.6</ele><time>2026-04-06T09:25:09.001Z</time></trkpt><trkpt lat="41.83500913356655" lon="12.757782764501854"><ele>274.2</ele><time>2026-04-06T09:25:10.001Z</time></trkpt><trkpt lat="41.83511461011385" lon="12.757786995098838"><ele>272.8</ele><time>2026-04-06T09:25:11.001Z</time></trkpt><trkpt lat="41.83520982676348" lon="12.757795752400957"><ele>271.4</ele><time>2026-04-06T09:25:12.001Z</time></trkpt><trkpt lat="41.8353101612899" lon="12.757819353845015"><ele>270.0</ele><time>2026-04-06T09:25:13.001Z</time></trkpt><trkpt lat="41.8354123467022" lon="12.757850771903858"><ele>268.25</ele><time>2026-04-06T09:25:14.001Z</time></trkpt><trkpt lat="41.83550907458774" lon="12.757898900052929"><ele>266.5</ele><time>2026-04-06T09:25:15.001Z</time></trkpt><trkpt lat="41.83561070532613" lon="12.757961205667657"><ele>264.75</ele><time>2026-04-06T09:25:16.001Z</time></trkpt><trkpt lat="41.835717385671366" lon="12.758036366202138"><ele>263.0</ele><time>2026-04-06T09:25:17.001Z</time></trkpt><trkpt lat="41.835813268322724" lon="12.758126019855943"><ele>263.0</ele><time>2026-04-06T09:25:18.001Z</time></trkpt><trkpt lat="41.83590632790201" lon="12.758219759201168"><ele>263.0</ele><time>2026-04-06T09:25:19.001Z</time></trkpt><trkpt lat="41.8360018706529" lon="12.758316365412309"><ele>263.0</ele><time>2026-04-06T09:25:20.001Z</time></trkpt><trkpt lat="41.83610180738794" lon="12.758406594733092"><ele>263.0</ele><time>2026-04-06T09:25:21.001Z</time></trkpt><trkpt lat="41.83620346790783" lon="12.758499370536038"><ele>260.25</ele><time>2026-04-06T09:25:22.001Z</time></trkpt><trkpt lat="41.83630769750486" lon="12.75859055453217"><ele>257.5</ele><time>2026-04-06T09:25:23.001Z</time></trkpt><trkpt lat="41.83640954770768" lon="12.758688164433512"><ele>254.75</ele><time>2026-04-06T09:25:24.001Z</time></trkpt><trkpt lat="41.836510642540645" lon="12.758788108851446"><ele>252.0</ele><time>2026-04-06T09:25:25.001Z</time></trkpt><trkpt lat="41.83660616374437" lon="12.75888388257065"><ele>252.0</ele><time>2026-04-06T09:25:26.001Z</time></trkpt><trkpt lat="41.836700836457524" lon="12.758973724483145"><ele>252.0</ele><time>2026-04-06T09:25:27.001Z</time></trkpt><trkpt lat="41.83678452067291" lon="12.759052487822611"><ele>252.0</ele><time>2026-04-06T09:25:28.001Z</time></trkpt><trkpt lat="41.83686335552991" lon="12.759123981188688"><ele>252.0</ele><time>2026-04-06T09:25:29.001Z</time></trkpt><trkpt lat="41.83693970104412" lon="12.759191348154584"><ele>252.0</ele><time>2026-04-06T09:25:30.001Z</time></trkpt><trkpt lat="41.837007696824664" lon="12.759251299427119"><ele>251.0</ele><time>2026-04-06T09:25:31.001Z</time></trkpt><trkpt lat="41.83706863453916" lon="12.759302658370718"><ele>250.0</ele><time>2026-04-06T09:25:32.001Z</time></trkpt><trkpt lat="41.83712640781454" lon="12.759350169516901"><ele>249.0</ele><time>2026-04-06T09:25:33.001Z</time></trkpt><trkpt lat="41.837215901624674" lon="12.759408343908484"><ele>248.0</ele><time>2026-04-06T09:25:35.001Z</time></trkpt><trkpt lat="41.83728477777998" lon="12.759475240094897"><ele>247.0</ele><time>2026-04-06T09:25:37.001Z</time></trkpt><trkpt lat="41.83735287258708" lon="12.759504555402284"><ele>246.0</ele><time>2026-04-06T09:25:40.001Z</time></trkpt><trkpt lat="41.83742003218129" lon="12.759570998317724"><ele>245.4</ele><time>2026-04-06T09:25:43.001Z</time></trkpt><trkpt lat="41.837479201925724" lon="12.75961322054928"><ele>244.8</ele><time>2026-04-06T09:25:45.001Z</time></trkpt><trkpt lat="41.83755724906422" lon="12.759661391176031"><ele>244.20000000000002</ele><time>2026-04-06T09:25:47.001Z</time></trkpt><trkpt lat="41.83764514374743" lon="12.759719797812082"><ele>243.60000000000002</ele><time>2026-04-06T09:25:49.001Z</time></trkpt><trkpt lat="41.83774597383739" lon="12.759784742534515"><ele>243.0</ele><time>2026-04-06T09:25:51.001Z</time></trkpt><trkpt lat="41.83783372873831" lon="12.759845738108332"><ele>242.5</ele><time>2026-04-06T09:25:53.001Z</time></trkpt><trkpt lat="41.83790422588373" lon="12.759890604992457"><ele>242.0</ele><time>2026-04-06T09:25:55.001Z</time></trkpt><trkpt lat="41.83796296004663" lon="12.759931554606757"><ele>241.5</ele><time>2026-04-06T09:25:57.001Z</time></trkpt><trkpt lat="41.838032461182145" lon="12.759838451896249"><ele>241.0</ele><time>2026-04-06T09:26:01.001Z</time></trkpt><trkpt lat="41.8379888845427" lon="12.759721547580002"><ele>240.5</ele><time>2026-04-06T09:26:03.001Z</time></trkpt><trkpt lat="41.837915523877605" lon="12.759749704593517"><ele>240.0</ele><time>2026-04-06T09:26:05.001Z</time></trkpt><trkpt lat="41.83785322336881" lon="12.759718596443921"><ele>240.0</ele><time>2026-04-06T09:33:53.002Z</time></trkpt><trkpt lat="41.83778468827992" lon="12.75966897371559"><ele>240.0</ele><time>2026-04-06T09:33:55.002Z</time></trkpt><trkpt lat="41.8377239078853" lon="12.75963201387411"><ele>240.0</ele><time>2026-04-06T09:33:57.002Z</time></trkpt><trkpt lat="41.83768089978579" lon="12.759700437362959"><ele>240.0</ele><time>2026-04-06T09:34:06.002Z</time></trkpt><trkpt lat="41.8376935339868" lon="12.75979582906519"><ele>240.0</ele><time>2026-04-06T09:34:11.002Z</time></trkpt><trkpt lat="41.83777624741051" lon="12.759839680295302"><ele>240.0</ele><time>2026-04-06T09:34:13.002Z</time></trkpt><trkpt lat="41.8378934750243" lon="12.759902808719907"><ele>240.0</ele><time>2026-04-06T09:34:15.002Z</time></trkpt><trkpt lat="41.837961805565996" lon="12.759940121426245"><ele>240.0</ele><time>2026-04-06T09:34:16.002Z</time></trkpt><trkpt lat="41.83803073850934" lon="12.759984094351774"><ele>240.0</ele><time>2026-04-06T09:34:17.002Z</time></trkpt><trkpt lat="41.83809854679546" lon="12.76002431321099"><ele>240.0</ele><time>2026-04-06T09:34:18.002Z</time></trkpt><trkpt lat="41.83816843738406" lon="12.760071957251053"><ele>240.0</ele><time>2026-04-06T09:34:19.002Z</time></trkpt><trkpt lat="41.83823525788058" lon="12.760117771643664"><ele>240.0</ele><time>2026-04-06T09:34:20.002Z</time></trkpt><trkpt lat="41.83829487937884" lon="12.760155748205005"><ele>240.0</ele><time>2026-04-06T09:34:21.002Z</time></trkpt><trkpt lat="41.83839480025356" lon="12.760209168181834"><ele>240.4</ele><time>2026-04-06T09:34:23.002Z</time></trkpt><trkpt lat="41.838470152772956" lon="12.760261933824676"><ele>240.8</ele><time>2026-04-06T09:34:25.002Z</time></trkpt><trkpt lat="41.838525907256866" lon="12.760303126331838"><ele>241.2</ele><time>2026-04-06T09:34:27.002Z</time></trkpt><trkpt lat="41.83863136404205" lon="12.760351784071847"><ele>241.6</ele><time>2026-04-06T09:35:43.001Z</time></trkpt><trkpt lat="41.83873038940774" lon="12.76042182425726"><ele>242.0</ele><time>2026-04-06T09:35:45.001Z</time></trkpt><trkpt lat="41.838842014583186" lon="12.760468776637623"><ele>242.00000000000003</ele><time>2026-04-06T09:35:47.001Z</time></trkpt><trkpt lat="41.83890444749932" lon="12.76050599311909"><ele>242.0</ele><time>2026-04-06T09:35:48.001Z</time></trkpt><trkpt lat="41.838971899116174" lon="12.760535860734459"><ele>242.0</ele><time>2026-04-06T09:35:49.001Z</time></trkpt><trkpt lat="41.839041977375025" lon="12.760572306632952"><ele>242.0</ele><time>2026-04-06T09:35:50.001Z</time></trkpt><trkpt lat="41.83912408503412" lon="12.760612608305557"><ele>242.00000000000003</ele><time>2026-04-06T09:35:51.001Z</time></trkpt><trkpt lat="41.83921094163506" lon="12.760651588405"><ele>242.0</ele><time>2026-04-06T09:35:52.001Z</time></trkpt><trkpt lat="41.839312998563955" lon="12.760697532326672"><ele>241.25</ele><time>2026-04-06T09:35:53.001Z</time></trkpt><trkpt lat="41.83943141699252" lon="12.760756147709467"><ele>240.5</ele><time>2026-04-06T09:35:54.001Z</time></trkpt><trkpt lat="41.83956198286786" lon="12.760825034375177"><ele>239.75</ele><time>2026-04-06T09:35:55.001Z</time></trkpt><trkpt lat="41.839696716210355" lon="12.760889208527717"><ele>239.0</ele><time>2026-04-06T09:35:56.001Z</time></trkpt><trkpt lat="41.83982666785058" lon="12.760957221613317"><ele>239.0</ele><time>2026-04-06T09:35:57.001Z</time></trkpt><trkpt lat="41.839954116302344" lon="12.761020607978327"><ele>239.0</ele><time>2026-04-06T09:35:58.001Z</time></trkpt><trkpt lat="41.840079962216734" lon="12.761079196922397"><ele>239.0</ele><time>2026-04-06T09:35:59.001Z</time></trkpt><trkpt lat="41.84020202451901" lon="12.761143015897359"><ele>239.0</ele><time>2026-04-06T09:36:00.001Z</time></trkpt><trkpt lat="41.84033453503894" lon="12.761208323701311"><ele>240.0</ele><time>2026-04-06T09:36:01.001Z</time></trkpt><trkpt lat="41.84046762110412" lon="12.76128595679271"><ele>241.0</ele><time>2026-04-06T09:36:02.001Z</time></trkpt><trkpt lat="41.84061629841732" lon="12.761364579983848"><ele>242.0</ele><time>2026-04-06T09:36:03.001Z</time></trkpt><trkpt lat="41.840751795798916" lon="12.761438286914293"><ele>242.0</ele><time>2026-04-06T09:36:04.001Z</time></trkpt><trkpt lat="41.840870740830844" lon="12.761520516192912"><ele>242.0</ele><time>2026-04-06T09:36:05.001Z</time></trkpt><trkpt lat="41.84098590610172" lon="12.761611160416509"><ele>242.0</ele><time>2026-04-06T09:36:06.001Z</time></trkpt><trkpt lat="41.84109678940111" lon="12.76171258193049"><ele>242.0</ele><time>2026-04-06T09:36:07.001Z</time></trkpt><trkpt lat="41.841210015167356" lon="12.761836050432027"><ele>243.0</ele><time>2026-04-06T09:36:08.001Z</time></trkpt><trkpt lat="41.84132089064602" lon="12.761969890491846"><ele>244.0</ele><time>2026-04-06T09:36:09.001Z</time></trkpt><trkpt lat="41.841411577003086" lon="12.762107409745889"><ele>245.0</ele><time>2026-04-06T09:36:10.001Z</time></trkpt><trkpt lat="41.84149545085979" lon="12.762258102805987"><ele>246.0</ele><time>2026-04-06T09:36:11.001Z</time></trkpt><trkpt lat="41.84157305725742" lon="12.762413652815797"><ele>246.0</ele><time>2026-04-06T09:36:12.001Z</time></trkpt><trkpt lat="41.84165155932429" lon="12.762565822247453"><ele>246.0</ele><time>2026-04-06T09:36:13.001Z</time></trkpt><trkpt lat="41.84172866635116" lon="12.762719864402968"><ele>246.0</ele><time>2026-04-06T09:36:14.001Z</time></trkpt><trkpt lat="41.841806860021705" lon="12.76288523316762"><ele>246.0</ele><time>2026-04-06T09:36:15.001Z</time></trkpt><trkpt lat="41.84188081901352" lon="12.763043396236942"><ele>245.33333333333331</ele><time>2026-04-06T09:36:16.001Z</time></trkpt><trkpt lat="41.84196135825914" lon="12.763232523427359"><ele>244.66666666666666</ele><time>2026-04-06T09:36:17.001Z</time></trkpt><trkpt lat="41.84204164455537" lon="12.763425495950216"><ele>244.0</ele><time>2026-04-06T09:36:18.001Z</time></trkpt><trkpt lat="41.8421197065069" lon="12.763619300041551"><ele>244.0</ele><time>2026-04-06T09:36:19.001Z</time></trkpt><trkpt lat="41.84219055888724" lon="12.763801562469913"><ele>244.0</ele><time>2026-04-06T09:36:20.001Z</time></trkpt><trkpt lat="41.84226367687001" lon="12.763989814099734"><ele>244.0</ele><time>2026-04-06T09:36:21.001Z</time></trkpt><trkpt lat="41.842334279468005" lon="12.764170405934248"><ele>244.0</ele><time>2026-04-06T09:36:22.002Z</time></trkpt><trkpt lat="41.84240459509189" lon="12.764338158650196"><ele>244.0</ele><time>2026-04-06T09:36:23.002Z</time></trkpt><trkpt lat="41.842472775814336" lon="12.76451578884507"><ele>244.0</ele><time>2026-04-06T09:36:24.002Z</time></trkpt><trkpt lat="41.84253590200389" lon="12.764679151928236"><ele>244.0</ele><time>2026-04-06T09:36:25.002Z</time></trkpt><trkpt lat="41.84259805786913" lon="12.764844148460298"><ele>242.5</ele><time>2026-04-06T09:36:26.002Z</time></trkpt><trkpt lat="41.84266357075618" lon="12.765011157664151"><ele>241.0</ele><time>2026-04-06T09:36:27.002Z</time></trkpt><trkpt lat="41.84272940020105" lon="12.765179394958817"><ele>239.5</ele><time>2026-04-06T09:36:28.002Z</time></trkpt><trkpt lat="41.84279363808231" lon="12.765345541400375"><ele>238.0</ele><time>2026-04-06T09:36:29.002Z</time></trkpt><trkpt lat="41.84285723338202" lon="12.765511615561017"><ele>237.25</ele><time>2026-04-06T09:36:30.002Z</time></trkpt><trkpt lat="41.84292059705572" lon="12.7656766545242"><ele>236.5</ele><time>2026-04-06T09:36:31.002Z</time></trkpt><trkpt lat="41.84298686474561" lon="12.7658412045118"><ele>235.75</ele><time>2026-04-06T09:36:32.002Z</time></trkpt><trkpt lat="41.843068397638106" lon="12.766038862259366"><ele>235.0</ele><time>2026-04-06T09:36:33.002Z</time></trkpt><trkpt lat="41.84316299272394" lon="12.766238424252554"><ele>234.66666666666666</ele><time>2026-04-06T09:36:34.002Z</time></trkpt><trkpt lat="41.84325367112089" lon="12.766426593011563"><ele>234.33333333333331</ele><time>2026-04-06T09:36:35.002Z</time></trkpt><trkpt lat="41.84335006339008" lon="12.76660600316337"><ele>234.0</ele><time>2026-04-06T09:36:36.002Z</time></trkpt><trkpt lat="41.843449386789324" lon="12.766780207357336"><ele>231.33333333333331</ele><time>2026-04-06T09:36:37.002Z</time></trkpt><trkpt lat="41.84354590237585" lon="12.766940570224575"><ele>228.66666666666666</ele><time>2026-04-06T09:36:38.002Z</time></trkpt><trkpt lat="41.84364059942564" lon="12.767102392389589"><ele>226.0</ele><time>2026-04-06T09:36:39.002Z</time></trkpt><trkpt lat="41.843736209286504" lon="12.767269561159"><ele>226.0</ele><time>2026-04-06T09:36:40.002Z</time></trkpt><trkpt lat="41.84382486994255" lon="12.767417654240514"><ele>226.0</ele><time>2026-04-06T09:36:41.002Z</time></trkpt><trkpt lat="41.843913294680746" lon="12.767564835630921"><ele>226.0</ele><time>2026-04-06T09:36:42Z</time></trkpt><trkpt lat="41.844002046114696" lon="12.767723624373412"><ele>226.0</ele><time>2026-04-06T09:36:43Z</time></trkpt><trkpt lat="41.84408134735203" lon="12.76788672224652"><ele>227.0</ele><time>2026-04-06T09:36:44Z</time></trkpt><trkpt lat="41.84416574779299" lon="12.7680432385487"><ele>228.0</ele><time>2026-04-06T09:36:45Z</time></trkpt><trkpt lat="41.84424102510173" lon="12.76820302170369"><ele>229.0</ele><time>2026-04-06T09:36:46Z</time></trkpt><trkpt lat="41.84430569532692" lon="12.768380952112183"><ele>230.0</ele><time>2026-04-06T09:36:47Z</time></trkpt><trkpt lat="41.844362089176585" lon="12.768569102905028"><ele>226.33333333333334</ele><time>2026-04-06T09:36:48Z</time></trkpt><trkpt lat="41.84441960230813" lon="12.768764172005229"><ele>222.66666666666669</ele><time>2026-04-06T09:36:49Z</time></trkpt><trkpt lat="41.84447187816473" lon="12.768958602387094"><ele>219.0</ele><time>2026-04-06T09:36:50Z</time></trkpt><trkpt lat="41.844532194028424" lon="12.769146533391996"><ele>219.0</ele><time>2026-04-06T09:36:51Z</time></trkpt><trkpt lat="41.844604488435074" lon="12.769331029773547"><ele>219.0</ele><time>2026-04-06T09:36:52Z</time></trkpt><trkpt lat="41.84467847036187" lon="12.769513425529107"><ele>219.0</ele><time>2026-04-06T09:36:53Z</time></trkpt><trkpt lat="41.84475042152194" lon="12.769686528962723"><ele>219.33333333333331</ele><time>2026-04-06T09:36:54Z</time></trkpt><trkpt lat="41.84481894823571" lon="12.769852377063868"><ele>219.66666666666666</ele><time>2026-04-06T09:36:55Z</time></trkpt><trkpt lat="41.84489026622296" lon="12.770031274748632"><ele>220.0</ele><time>2026-04-06T09:36:56Z</time></trkpt><trkpt lat="41.84496757272444" lon="12.770231229446013"><ele>220.0</ele><time>2026-04-06T09:36:57Z</time></trkpt><trkpt lat="41.8450425867044" lon="12.770411952518222"><ele>220.0</ele><time>2026-04-06T09:36:58Z</time></trkpt><trkpt lat="41.84511853364436" lon="12.770588433703377"><ele>220.0</ele><time>2026-04-06T09:36:59Z</time></trkpt><trkpt lat="41.84520564113697" lon="12.770765647333288"><ele>218.66666666666666</ele><time>2026-04-06T09:37:00Z</time></trkpt><trkpt lat="41.845280319227626" lon="12.770958142913784"><ele>217.33333333333331</ele><time>2026-04-06T09:37:01Z</time></trkpt><trkpt lat="41.845344466596366" lon="12.771156225553826"><ele>216.0</ele><time>2026-04-06T09:37:02Z</time></trkpt><trkpt lat="41.84540927881905" lon="12.771342751712007"><ele>214.75</ele><time>2026-04-06T09:37:03Z</time></trkpt><trkpt lat="41.845471982099625" lon="12.771528605842727"><ele>213.5</ele><time>2026-04-06T09:37:04Z</time></trkpt><trkpt lat="41.84553052199947" lon="12.771707792039107"><ele>212.25</ele><time>2026-04-06T09:37:05Z</time></trkpt><trkpt lat="41.84558946719326" lon="12.771876295750767"><ele>211.0</ele><time>2026-04-06T09:37:06Z</time></trkpt><trkpt lat="41.84564749704959" lon="12.772045722164567"><ele>211.0</ele><time>2026-04-06T09:37:07Z</time></trkpt><trkpt lat="41.84570180492909" lon="12.772211307785122"><ele>211.0</ele><time>2026-04-06T09:37:08Z</time></trkpt><trkpt lat="41.84575645819426" lon="12.772375445148377"><ele>211.0</ele><time>2026-04-06T09:37:09Z</time></trkpt><trkpt lat="41.845815940721295" lon="12.772536670412181"><ele>211.0</ele><time>2026-04-06T09:37:10Z</time></trkpt><trkpt lat="41.84588129113017" lon="12.772712314864126"><ele>211.0</ele><time>2026-04-06T09:37:11Z</time></trkpt><trkpt lat="41.8459414328382" lon="12.772901485100125"><ele>211.0</ele><time>2026-04-06T09:37:12Z</time></trkpt><trkpt lat="41.84600302735405" lon="12.77309574294544"><ele>211.0</ele><time>2026-04-06T09:37:13Z</time></trkpt><trkpt lat="41.84606977568643" lon="12.773281329166752"><ele>210.5</ele><time>2026-04-06T09:37:14Z</time></trkpt><trkpt lat="41.8461320894021" lon="12.773452988903319"><ele>210.0</ele><time>2026-04-06T09:37:15Z</time></trkpt><trkpt lat="41.84619296176066" lon="12.773625127370373"><ele>209.5</ele><time>2026-04-06T09:37:16Z</time></trkpt><trkpt lat="41.846250829281864" lon="12.7738000571812"><ele>209.0</ele><time>2026-04-06T09:37:17Z</time></trkpt><trkpt lat="41.84630412245879" lon="12.773972458852707"><ele>210.0</ele><time>2026-04-06T09:37:18Z</time></trkpt><trkpt lat="41.84636198530093" lon="12.774144218134499"><ele>211.0</ele><time>2026-04-06T09:37:19Z</time></trkpt><trkpt lat="41.84642080204793" lon="12.774302757161342"><ele>212.0</ele><time>2026-04-06T09:37:20Z</time></trkpt><trkpt lat="41.84647804176147" lon="12.77444686715897"><ele>213.0</ele><time>2026-04-06T09:37:21Z</time></trkpt><trkpt lat="41.84654145945726" lon="12.774589423755838"><ele>213.0</ele><time>2026-04-06T09:37:22.001Z</time></trkpt><trkpt lat="41.8466060620919" lon="12.774742493746565"><ele>213.0</ele><time>2026-04-06T09:37:23.001Z</time></trkpt><trkpt lat="41.846662170822434" lon="12.774905009585169"><ele>213.0</ele><time>2026-04-06T09:37:24.001Z</time></trkpt><trkpt lat="41.846715598226815" lon="12.775080132646268"><ele>213.0</ele><time>2026-04-06T09:37:25.001Z</time></trkpt><trkpt lat="41.84676207831693" lon="12.775259741640872"><ele>213.0</ele><time>2026-04-06T09:37:26.001Z</time></trkpt><trkpt lat="41.84681144258298" lon="12.775442516054216"><ele>213.0</ele><time>2026-04-06T09:37:27.001Z</time></trkpt><trkpt lat="41.84686483041134" lon="12.775625072532687"><ele>213.0</ele><time>2026-04-06T09:37:28.001Z</time></trkpt><trkpt lat="41.846926190376685" lon="12.775810343840659"><ele>213.0</ele><time>2026-04-06T09:37:29.001Z</time></trkpt><trkpt lat="41.84699029817384" lon="12.776022966544792"><ele>213.66666666666669</ele><time>2026-04-06T09:37:30.001Z</time></trkpt><trkpt lat="41.84705896074459" lon="12.776277921334705"><ele>214.33333333333334</ele><time>2026-04-06T09:37:31.001Z</time></trkpt><trkpt lat="41.847120810873946" lon="12.776514270988322"><ele>215.0</ele><time>2026-04-06T09:37:32.001Z</time></trkpt><trkpt lat="41.84717791779094" lon="12.77672081305355"><ele>215.33333333333334</ele><time>2026-04-06T09:37:33.001Z</time></trkpt><trkpt lat="41.84723058594228" lon="12.776911722568233"><ele>215.66666666666669</ele><time>2026-04-06T09:37:34.001Z</time></trkpt><trkpt lat="41.84728380464724" lon="12.777104353831156"><ele>216.0</ele><time>2026-04-06T09:37:35.001Z</time></trkpt><trkpt lat="41.84733680127112" lon="12.777312672463419"><ele>216.0</ele><time>2026-04-06T09:37:36.001Z</time></trkpt><trkpt lat="41.847389909178496" lon="12.77751170478757"><ele>216.0</ele><time>2026-04-06T09:37:37.001Z</time></trkpt><trkpt lat="41.84744281899352" lon="12.77769346406314"><ele>216.0</ele><time>2026-04-06T09:37:38.001Z</time></trkpt><trkpt lat="41.84750132658673" lon="12.777885346947224"><ele>216.0</ele><time>2026-04-06T09:37:39.001Z</time></trkpt><trkpt lat="41.847577270407164" lon="12.778064901590358"><ele>216.0</ele><time>2026-04-06T09:37:40.001Z</time></trkpt><trkpt lat="41.84765899192507" lon="12.778238001114623"><ele>216.0</ele><time>2026-04-06T09:37:41.001Z</time></trkpt><trkpt lat="41.84774529482093" lon="12.778400407722568"><ele>216.66666666666669</ele><time>2026-04-06T09:37:42.001Z</time></trkpt><trkpt lat="41.84783736708726" lon="12.778559140260333"><ele>217.33333333333334</ele><time>2026-04-06T09:37:43.001Z</time></trkpt><trkpt lat="41.84793927555541" lon="12.778723900525286"><ele>218.0</ele><time>2026-04-06T09:37:44.001Z</time></trkpt><trkpt lat="41.84804050298636" lon="12.77887148854282"><ele>218.0</ele><time>2026-04-06T09:37:45.001Z</time></trkpt><trkpt lat="41.84814481886934" lon="12.779014782118743"><ele>218.0</ele><time>2026-04-06T09:37:46.001Z</time></trkpt><trkpt lat="41.84825057602993" lon="12.779159236385734"><ele>218.0</ele><time>2026-04-06T09:37:47.001Z</time></trkpt><trkpt lat="41.84835371544569" lon="12.779303853191673"><ele>218.0</ele><time>2026-04-06T09:37:48.001Z</time></trkpt><trkpt lat="41.84845361429847" lon="12.77945083916734"><ele>218.75</ele><time>2026-04-06T09:37:49.001Z</time></trkpt><trkpt lat="41.84854253018203" lon="12.77960530473888"><ele>219.5</ele><time>2026-04-06T09:37:50.001Z</time></trkpt><trkpt lat="41.848627848523435" lon="12.779764087644143"><ele>220.25</ele><time>2026-04-06T09:37:51.001Z</time></trkpt><trkpt lat="41.84870883485798" lon="12.779934607440065"><ele>221.0</ele><time>2026-04-06T09:37:52.001Z</time></trkpt><trkpt lat="41.848792228767536" lon="12.780096933876901"><ele>220.75</ele><time>2026-04-06T09:37:53.001Z</time></trkpt><trkpt lat="41.848862456577606" lon="12.7802528450717"><ele>220.5</ele><time>2026-04-06T09:37:54.001Z</time></trkpt><trkpt lat="41.84892748812369" lon="12.78041199990041"><ele>220.25</ele><time>2026-04-06T09:37:55.001Z</time></trkpt><trkpt lat="41.84898386457704" lon="12.780563830268076"><ele>220.0</ele><time>2026-04-06T09:37:56.001Z</time></trkpt><trkpt lat="41.849044888258696" lon="12.780719278644073"><ele>220.0</ele><time>2026-04-06T09:37:57.001Z</time></trkpt><trkpt lat="41.84910606010336" lon="12.780883276257375"><ele>220.0</ele><time>2026-04-06T09:37:58.001Z</time></trkpt><trkpt lat="41.84916040954412" lon="12.781067988495241"><ele>220.0</ele><time>2026-04-06T09:37:59.001Z</time></trkpt><trkpt lat="41.84922057340411" lon="12.78125438713295"><ele>220.0</ele><time>2026-04-06T09:38:00.001Z</time></trkpt><trkpt lat="41.84928501511427" lon="12.78144878735368"><ele>218.5</ele><time>2026-04-06T09:38:01.001Z</time></trkpt><trkpt lat="41.84934004074384" lon="12.781634493998872"><ele>217.0</ele><time>2026-04-06T09:38:02.001Z</time></trkpt><trkpt lat="41.84939837847528" lon="12.781805586907339"><ele>215.5</ele><time>2026-04-06T09:38:03.001Z</time></trkpt><trkpt lat="41.84945364134097" lon="12.781973212767737"><ele>214.0</ele><time>2026-04-06T09:38:04.001Z</time></trkpt><trkpt lat="41.84951602204694" lon="12.782153680241574"><ele>214.0</ele><time>2026-04-06T09:38:05.001Z</time></trkpt><trkpt lat="41.84958464177268" lon="12.782330647427983"><ele>214.0</ele><time>2026-04-06T09:38:06.001Z</time></trkpt><trkpt lat="41.84966248164326" lon="12.782506669784416"><ele>214.0</ele><time>2026-04-06T09:38:07.001Z</time></trkpt><trkpt lat="41.84974171875919" lon="12.782686249477203"><ele>214.33333333333331</ele><time>2026-04-06T09:38:08.001Z</time></trkpt><trkpt lat="41.849824015415976" lon="12.782873015861165"><ele>214.66666666666669</ele><time>2026-04-06T09:38:09.001Z</time></trkpt><trkpt lat="41.849908126910485" lon="12.783058217893823"><ele>215.0</ele><time>2026-04-06T09:38:10.001Z</time></trkpt><trkpt lat="41.84998576766654" lon="12.783233457112203"><ele>215.0</ele><time>2026-04-06T09:38:11.001Z</time></trkpt><trkpt lat="41.85006310454968" lon="12.783410092370838"><ele>215.0</ele><time>2026-04-06T09:38:12.001Z</time></trkpt><trkpt lat="41.85013881272145" lon="12.783584973987033"><ele>215.0</ele><time>2026-04-06T09:38:13.001Z</time></trkpt><trkpt lat="41.85021264835375" lon="12.783757464937214"><ele>216.0</ele><time>2026-04-06T09:38:14.001Z</time></trkpt><trkpt lat="41.85028692560672" lon="12.783931381245832"><ele>217.0</ele><time>2026-04-06T09:38:15.001Z</time></trkpt><trkpt lat="41.8503584730505" lon="12.784091107594971"><ele>218.0</ele><time>2026-04-06T09:38:16.001Z</time></trkpt><trkpt lat="41.85042423365922" lon="12.784237357419197"><ele>219.0</ele><time>2026-04-06T09:38:17.001Z</time></trkpt><trkpt lat="41.85048444354139" lon="12.78437774717806"><ele>219.0</ele><time>2026-04-06T09:38:18.001Z</time></trkpt><trkpt lat="41.85054852722023" lon="12.784521720454249"><ele>219.0</ele><time>2026-04-06T09:38:19.001Z</time></trkpt><trkpt lat="41.85061608677254" lon="12.784661519841336"><ele>219.0</ele><time>2026-04-06T09:38:20.001Z</time></trkpt><trkpt lat="41.850685449587644" lon="12.784811362816601"><ele>219.0</ele><time>2026-04-06T09:38:21.001Z</time></trkpt><trkpt lat="41.85075690343594" lon="12.78495909456414"><ele>219.0</ele><time>2026-04-06T09:38:22.001Z</time></trkpt><trkpt lat="41.85082194848559" lon="12.785098740486887"><ele>219.0</ele><time>2026-04-06T09:38:23.001Z</time></trkpt><trkpt lat="41.8508831934238" lon="12.785231929760583"><ele>219.0</ele><time>2026-04-06T09:38:24.001Z</time></trkpt><trkpt lat="41.85094869518132" lon="12.78537252943129"><ele>219.0</ele><time>2026-04-06T09:38:25.001Z</time></trkpt><trkpt lat="41.85101557866431" lon="12.785522595887105"><ele>218.75</ele><time>2026-04-06T09:38:26.001Z</time></trkpt><trkpt lat="41.851084618133434" lon="12.785677869521752"><ele>218.5</ele><time>2026-04-06T09:38:27.001Z</time></trkpt><trkpt lat="41.85115425317345" lon="12.785836997849865"><ele>218.25</ele><time>2026-04-06T09:38:28.001Z</time></trkpt><trkpt lat="41.85122618387635" lon="12.785995687388239"><ele>218.0</ele><time>2026-04-06T09:38:29.001Z</time></trkpt><trkpt lat="41.85131244532222" lon="12.786182553165736"><ele>218.0</ele><time>2026-04-06T09:38:30.001Z</time></trkpt><trkpt lat="41.85139396259884" lon="12.786376143160718"><ele>218.0</ele><time>2026-04-06T09:38:31.001Z</time></trkpt><trkpt lat="41.85147078849949" lon="12.786546984099525"><ele>218.0</ele><time>2026-04-06T09:38:32.001Z</time></trkpt><trkpt lat="41.85154425179519" lon="12.786713049343176"><ele>219.0</ele><time>2026-04-06T09:38:33.001Z</time></trkpt><trkpt lat="41.85162009925181" lon="12.786881253363918"><ele>220.0</ele><time>2026-04-06T09:38:34.001Z</time></trkpt><trkpt lat="41.851701635679554" lon="12.787059181002228"><ele>221.0</ele><time>2026-04-06T09:38:35.001Z</time></trkpt><trkpt lat="41.85177577603106" lon="12.787227639406263"><ele>222.0</ele><time>2026-04-06T09:38:36.001Z</time></trkpt><trkpt lat="41.85184932057266" lon="12.78738429964225"><ele>224.0</ele><time>2026-04-06T09:38:37.001Z</time></trkpt><trkpt lat="41.85192397227807" lon="12.78755638491711"><ele>226.0</ele><time>2026-04-06T09:38:38.001Z</time></trkpt><trkpt lat="41.8519987560364" lon="12.78774641308903"><ele>228.0</ele><time>2026-04-06T09:38:39.001Z</time></trkpt><trkpt lat="41.852072072117515" lon="12.787943705154667"><ele>229.0</ele><time>2026-04-06T09:38:40.001Z</time></trkpt><trkpt lat="41.85211130315268" lon="12.788129257617525"><ele>230.0</ele><time>2026-04-06T09:38:41.001Z</time></trkpt><trkpt lat="41.85214557264039" lon="12.788298715668667"><ele>231.0</ele><time>2026-04-06T09:38:42.001Z</time></trkpt><trkpt lat="41.85217551369427" lon="12.788443772382223"><ele>232.0</ele><time>2026-04-06T09:38:43.001Z</time></trkpt><trkpt lat="41.85220424372165" lon="12.788555439576944"><ele>232.16666666666666</ele><time>2026-04-06T09:38:44.001Z</time></trkpt><trkpt lat="41.852226023166764" lon="12.788644431853577"><ele>232.33333333333331</ele><time>2026-04-06T09:38:45.001Z</time></trkpt><trkpt lat="41.852256500811514" lon="12.788761157912306"><ele>232.5</ele><time>2026-04-06T09:38:47.002Z</time></trkpt><trkpt lat="41.85227756034147" lon="12.788884380044713"><ele>232.66666666666669</ele><time>2026-04-06T09:38:50Z</time></trkpt><trkpt lat="41.85230940322046" lon="12.78903735611662"><ele>232.83333333333334</ele><time>2026-04-06T09:38:52Z</time></trkpt><trkpt lat="41.85232562955948" lon="12.789120804819934"><ele>233.0</ele><time>2026-04-06T09:38:53Z</time></trkpt><trkpt lat="41.852352731134786" lon="12.789266242131148"><ele>233.8</ele><time>2026-04-06T09:38:55Z</time></trkpt><trkpt lat="41.852373431294424" lon="12.789358040012537"><ele>234.60000000000002</ele><time>2026-04-06T09:38:58Z</time></trkpt><trkpt lat="41.852396875049955" lon="12.789458846881155"><ele>235.39999999999998</ele><time>2026-04-06T09:39:04Z</time></trkpt><trkpt lat="41.85241548049541" lon="12.789546084430159"><ele>236.2</ele><time>2026-04-06T09:39:05Z</time></trkpt><trkpt lat="41.85246114879062" lon="12.789742948532721"><ele>237.0</ele><time>2026-04-06T09:39:07Z</time></trkpt><trkpt lat="41.85248973752133" lon="12.789890314572094"><ele>237.0</ele><time>2026-04-06T09:39:08Z</time></trkpt><trkpt lat="41.85251468244133" lon="12.79002309135497"><ele>237.0</ele><time>2026-04-06T09:39:09Z</time></trkpt><trkpt lat="41.85254564583073" lon="12.790170237595424"><ele>237.0</ele><time>2026-04-06T09:39:10Z</time></trkpt><trkpt lat="41.85257731083082" lon="12.79033028779122"><ele>237.0</ele><time>2026-04-06T09:39:11Z</time></trkpt><trkpt lat="41.8526131103855" lon="12.790486549497567"><ele>236.75</ele><time>2026-04-06T09:39:12Z</time></trkpt><trkpt lat="41.852655929098916" lon="12.790645988402987"><ele>236.5</ele><time>2026-04-06T09:39:13Z</time></trkpt><trkpt lat="41.85270821454867" lon="12.79080695717978"><ele>236.25</ele><time>2026-04-06T09:39:14Z</time></trkpt><trkpt lat="41.85276377720951" lon="12.790954929556424"><ele>236.0</ele><time>2026-04-06T09:39:15Z</time></trkpt><trkpt lat="41.852820892792614" lon="12.791112375638665"><ele>235.0</ele><time>2026-04-06T09:39:16Z</time></trkpt><trkpt lat="41.85287933954455" lon="12.791273437990327"><ele>234.0</ele><time>2026-04-06T09:39:17Z</time></trkpt><trkpt lat="41.852948333564605" lon="12.791441582091512"><ele>233.0</ele><time>2026-04-06T09:39:18Z</time></trkpt><trkpt lat="41.85301948698388" lon="12.79162324660128"><ele>232.0</ele><time>2026-04-06T09:39:19Z</time></trkpt><trkpt lat="41.8530887469937" lon="12.791799492975334"><ele>231.5</ele><time>2026-04-06T09:39:20Z</time></trkpt><trkpt lat="41.85316343255003" lon="12.79195983942197"><ele>231.0</ele><time>2026-04-06T09:39:21Z</time></trkpt><trkpt lat="41.85325128445463" lon="12.792122874143201"><ele>230.5</ele><time>2026-04-06T09:39:22Z</time></trkpt><trkpt lat="41.853337293656864" lon="12.792294449190646"><ele>230.0</ele><time>2026-04-06T09:39:23Z</time></trkpt><trkpt lat="41.8534309455861" lon="12.792479623587171"><ele>229.66666666666669</ele><time>2026-04-06T09:39:24Z</time></trkpt><trkpt lat="41.85351839509376" lon="12.792649817554093"><ele>229.33333333333331</ele><time>2026-04-06T09:39:25Z</time></trkpt><trkpt lat="41.853604948531796" lon="12.79281643657536"><ele>229.0</ele><time>2026-04-06T09:39:26Z</time></trkpt><trkpt lat="41.85369318909809" lon="12.79299319354902"><ele>230.33333333333331</ele><time>2026-04-06T09:39:27Z</time></trkpt><trkpt lat="41.853769517415174" lon="12.793184584281628"><ele>231.66666666666669</ele><time>2026-04-06T09:39:28Z</time></trkpt><trkpt lat="41.85383428074057" lon="12.79339001242435"><ele>233.0</ele><time>2026-04-06T09:39:29Z</time></trkpt><trkpt lat="41.853889974212755" lon="12.793586884111376"><ele>234.33333333333334</ele><time>2026-04-06T09:39:30Z</time></trkpt><trkpt lat="41.85393583895905" lon="12.793783440449257"><ele>235.66666666666669</ele><time>2026-04-06T09:39:31Z</time></trkpt><trkpt lat="41.853979694173006" lon="12.793987524746191"><ele>237.0</ele><time>2026-04-06T09:39:32Z</time></trkpt><trkpt lat="41.85402156156073" lon="12.794180447439583"><ele>237.75</ele><time>2026-04-06T09:39:33Z</time></trkpt><trkpt lat="41.85406109761196" lon="12.794369193830313"><ele>238.5</ele><time>2026-04-06T09:39:34Z</time></trkpt><trkpt lat="41.854095583767986" lon="12.794556170325778"><ele>239.25</ele><time>2026-04-06T09:39:35Z</time></trkpt><trkpt lat="41.85413783061451" lon="12.794754900602179"><ele>240.0</ele><time>2026-04-06T09:39:36Z</time></trkpt><trkpt lat="41.85417966622823" lon="12.794933013399818"><ele>240.0</ele><time>2026-04-06T09:39:37Z</time></trkpt><trkpt lat="41.854214805466086" lon="12.795113172769273"><ele>240.0</ele><time>2026-04-06T09:39:38Z</time></trkpt><trkpt lat="41.85424651160609" lon="12.795279096648951"><ele>240.0</ele><time>2026-04-06T09:39:39Z</time></trkpt><trkpt lat="41.85427920616175" lon="12.795449685224927"><ele>240.0</ele><time>2026-04-06T09:39:40Z</time></trkpt><trkpt lat="41.854315120648984" lon="12.795626351663385"><ele>242.0</ele><time>2026-04-06T09:39:41Z</time></trkpt><trkpt lat="41.85435301120068" lon="12.795778326189236"><ele>244.0</ele><time>2026-04-06T09:39:42Z</time></trkpt><trkpt lat="41.85438703029025" lon="12.795918242673885"><ele>246.0</ele><time>2026-04-06T09:39:43Z</time></trkpt><trkpt lat="41.854423121427665" lon="12.796066760393144"><ele>248.0</ele><time>2026-04-06T09:39:44Z</time></trkpt><trkpt lat="41.854468282247744" lon="12.79622146440437"><ele>248.0</ele><time>2026-04-06T09:39:45Z</time></trkpt><trkpt lat="41.854517863791976" lon="12.796376334261153"><ele>248.0</ele><time>2026-04-06T09:39:46Z</time></trkpt><trkpt lat="41.8545639874435" lon="12.796513816349536"><ele>248.0</ele><time>2026-04-06T09:39:47Z</time></trkpt><trkpt lat="41.8546077900045" lon="12.796646114529793"><ele>248.0</ele><time>2026-04-06T09:39:48Z</time></trkpt><trkpt lat="41.85465667737256" lon="12.796788047176323"><ele>247.75</ele><time>2026-04-06T09:39:49Z</time></trkpt><trkpt lat="41.85471196638959" lon="12.796935648234074"><ele>247.5</ele><time>2026-04-06T09:39:50Z</time></trkpt><trkpt lat="41.854773362125925" lon="12.797095010608254"><ele>247.25</ele><time>2026-04-06T09:39:51Z</time></trkpt><trkpt lat="41.854846854615154" lon="12.797264793922025"><ele>247.0</ele><time>2026-04-06T09:39:52Z</time></trkpt><trkpt lat="41.85492743234448" lon="12.797435670273467"><ele>247.0</ele><time>2026-04-06T09:39:53Z</time></trkpt><trkpt lat="41.85501471992051" lon="12.797610237066184"><ele>247.0</ele><time>2026-04-06T09:39:54Z</time></trkpt><trkpt lat="41.85511347325378" lon="12.79779570863663"><ele>247.0</ele><time>2026-04-06T09:39:55Z</time></trkpt><trkpt lat="41.855222019850636" lon="12.79799228269397"><ele>248.0</ele><time>2026-04-06T09:39:56Z</time></trkpt><trkpt lat="41.855317921454315" lon="12.798169488613508"><ele>249.0</ele><time>2026-04-06T09:39:57Z</time></trkpt><trkpt lat="41.85540791329928" lon="12.79835042495237"><ele>250.0</ele><time>2026-04-06T09:39:58Z</time></trkpt><trkpt lat="41.855499558987574" lon="12.798533390299783"><ele>251.66666666666666</ele><time>2026-04-06T09:39:59Z</time></trkpt><trkpt lat="41.85558911527451" lon="12.798710649870282"><ele>253.33333333333331</ele><time>2026-04-06T09:40:00Z</time></trkpt><trkpt lat="41.8556710028182" lon="12.798883069693737"><ele>255.0</ele><time>2026-04-06T09:40:01Z</time></trkpt><trkpt lat="41.8557492800351" lon="12.79906149917865"><ele>255.0</ele><time>2026-04-06T09:40:02Z</time></trkpt><trkpt lat="41.85582521154074" lon="12.799243066725642"><ele>255.0</ele><time>2026-04-06T09:40:03Z</time></trkpt><trkpt lat="41.855896519943755" lon="12.799418851616759"><ele>255.0</ele><time>2026-04-06T09:40:04Z</time></trkpt><trkpt lat="41.85595797647154" lon="12.799588233078504"><ele>255.0</ele><time>2026-04-06T09:40:05Z</time></trkpt><trkpt lat="41.85601024871884" lon="12.799755351752907"><ele>255.0</ele><time>2026-04-06T09:40:06Z</time></trkpt><trkpt lat="41.856050463221884" lon="12.799940483042546"><ele>255.0</ele><time>2026-04-06T09:40:07Z</time></trkpt><trkpt lat="41.85607881685471" lon="12.800134951454735"><ele>255.0</ele><time>2026-04-06T09:40:08Z</time></trkpt><trkpt lat="41.85610665055061" lon="12.800330454287849"><ele>255.0</ele><time>2026-04-06T09:40:09Z</time></trkpt><trkpt lat="41.85613326210841" lon="12.800529893276703"><ele>254.75</ele><time>2026-04-06T09:40:10Z</time></trkpt><trkpt lat="41.85615966432266" lon="12.800716084693484"><ele>254.5</ele><time>2026-04-06T09:40:11Z</time></trkpt><trkpt lat="41.856189227260025" lon="12.800913895809222"><ele>254.25</ele><time>2026-04-06T09:40:12Z</time></trkpt><trkpt lat="41.85621979754723" lon="12.801099357974012"><ele>254.0</ele><time>2026-04-06T09:40:13Z</time></trkpt><trkpt lat="41.856257281308864" lon="12.80128973196875"><ele>254.0</ele><time>2026-04-06T09:40:14Z</time></trkpt><trkpt lat="41.85630124646768" lon="12.80149000675582"><ele>254.0</ele><time>2026-04-06T09:40:15Z</time></trkpt><trkpt lat="41.856341649239525" lon="12.801674903678183"><ele>254.0</ele><time>2026-04-06T09:40:16Z</time></trkpt><trkpt lat="41.85638198431313" lon="12.801844200089063"><ele>254.0</ele><time>2026-04-06T09:40:17Z</time></trkpt><trkpt lat="41.85643016528515" lon="12.80202313988384"><ele>253.25</ele><time>2026-04-06T09:40:18Z</time></trkpt><trkpt lat="41.85647457859764" lon="12.802199388355415"><ele>252.5</ele><time>2026-04-06T09:40:19Z</time></trkpt><trkpt lat="41.856522821719125" lon="12.802367377217113"><ele>251.75</ele><time>2026-04-06T09:40:20Z</time></trkpt><trkpt lat="41.85658685020521" lon="12.802539332989877"><ele>251.0</ele><time>2026-04-06T09:40:21Z</time></trkpt><trkpt lat="41.85666460085846" lon="12.802714713832287"><ele>251.0</ele><time>2026-04-06T09:40:22Z</time></trkpt><trkpt lat="41.85674849083584" lon="12.802878816942044"><ele>251.0</ele><time>2026-04-06T09:40:23.001Z</time></trkpt><trkpt lat="41.85682906798411" lon="12.803033414912933"><ele>251.0</ele><time>2026-04-06T09:40:24.001Z</time></trkpt><trkpt lat="41.85690395061485" lon="12.803178935658563"><ele>251.0</ele><time>2026-04-06T09:40:25.001Z</time></trkpt><trkpt lat="41.8569760785162" lon="12.803323985718754"><ele>250.5</ele><time>2026-04-06T09:40:26.001Z</time></trkpt><trkpt lat="41.85705158337705" lon="12.80345278607729"><ele>250.0</ele><time>2026-04-06T09:40:27.001Z</time></trkpt><trkpt lat="41.857150055136316" lon="12.803557881239582"><ele>249.5</ele><time>2026-04-06T09:40:28.001Z</time></trkpt><trkpt lat="41.85726148799574" lon="12.803621477564526"><ele>249.0</ele><time>2026-04-06T09:40:29.001Z</time></trkpt><trkpt lat="41.857378711253844" lon="12.803631831691082"><ele>249.5</ele><time>2026-04-06T09:40:30.001Z</time></trkpt><trkpt lat="41.85750090702415" lon="12.803604339088977"><ele>250.0</ele><time>2026-04-06T09:40:31.001Z</time></trkpt><trkpt lat="41.857618567424296" lon="12.803537094705407"><ele>250.5</ele><time>2026-04-06T09:40:32.001Z</time></trkpt><trkpt lat="41.8577490140392" lon="12.803475516156617"><ele>251.0</ele><time>2026-04-06T09:40:33.001Z</time></trkpt><trkpt lat="41.85787988183958" lon="12.803401904961127"><ele>251.0</ele><time>2026-04-06T09:40:34.001Z</time></trkpt><trkpt lat="41.858002485776105" lon="12.80332666148552"><ele>251.0</ele><time>2026-04-06T09:40:35.001Z</time></trkpt><trkpt lat="41.85812541424815" lon="12.803254617144873"><ele>251.0</ele><time>2026-04-06T09:40:36.001Z</time></trkpt><trkpt lat="41.85825069862576" lon="12.803184504775269"><ele>251.0</ele><time>2026-04-06T09:40:37.001Z</time></trkpt><trkpt lat="41.85838760933108" lon="12.803107037147164"><ele>251.75</ele><time>2026-04-06T09:40:38.001Z</time></trkpt><trkpt lat="41.858526362234905" lon="12.803036661498112"><ele>252.5</ele><time>2026-04-06T09:40:39.001Z</time></trkpt><trkpt lat="41.85866352277176" lon="12.802963649957748"><ele>253.25</ele><time>2026-04-06T09:40:40.001Z</time></trkpt><trkpt lat="41.85880374976076" lon="12.80289045983641"><ele>254.0</ele><time>2026-04-06T09:40:41.001Z</time></trkpt><trkpt lat="41.8589473151996" lon="12.802828739678073"><ele>254.0</ele><time>2026-04-06T09:40:42.001Z</time></trkpt><trkpt lat="41.85909359265291" lon="12.802778062614896"><ele>254.0</ele><time>2026-04-06T09:40:43.001Z</time></trkpt><trkpt lat="41.85924240571587" lon="12.80272910487332"><ele>254.0</ele><time>2026-04-06T09:40:44.001Z</time></trkpt><trkpt lat="41.85938019147352" lon="12.802679864626935"><ele>254.0</ele><time>2026-04-06T09:40:45.001Z</time></trkpt><trkpt lat="41.85950564298789" lon="12.802637122776481"><ele>253.25</ele><time>2026-04-06T09:40:46.001Z</time></trkpt><trkpt lat="41.85962666559397" lon="12.8025963845266"><ele>252.5</ele><time>2026-04-06T09:40:47.001Z</time></trkpt><trkpt lat="41.85974395823372" lon="12.8025541531652"><ele>251.75</ele><time>2026-04-06T09:40:48.001Z</time></trkpt><trkpt lat="41.8598700156414" lon="12.80251317235767"><ele>251.0</ele><time>2026-04-06T09:40:49.001Z</time></trkpt><trkpt lat="41.86001544888379" lon="12.802456802879298"><ele>248.0</ele><time>2026-04-06T09:40:50.001Z</time></trkpt><trkpt lat="41.86017456382617" lon="12.802394776314323"><ele>245.0</ele><time>2026-04-06T09:40:51.001Z</time></trkpt><trkpt lat="41.86032213945952" lon="12.802343159647954"><ele>242.0</ele><time>2026-04-06T09:40:52.001Z</time></trkpt><trkpt lat="41.860480071244965" lon="12.802291259963116"><ele>242.0</ele><time>2026-04-06T09:40:53.001Z</time></trkpt><trkpt lat="41.860645706006416" lon="12.80223141476718"><ele>242.0</ele><time>2026-04-06T09:40:53.999Z</time></trkpt><trkpt lat="41.86081852194785" lon="12.80216943924669"><ele>242.0</ele><time>2026-04-06T09:40:54.999Z</time></trkpt><trkpt lat="41.86098114950302" lon="12.802108807223929"><ele>240.66666666666669</ele><time>2026-04-06T09:40:55.999Z</time></trkpt><trkpt lat="41.86114542112035" lon="12.802049091329659"><ele>239.33333333333331</ele><time>2026-04-06T09:40:57Z</time></trkpt><trkpt lat="41.8613283300109" lon="12.801984056877487"><ele>238.0</ele><time>2026-04-06T09:40:58Z</time></trkpt><trkpt lat="41.861496148681" lon="12.801930990838926"><ele>238.0</ele><time>2026-04-06T09:40:59Z</time></trkpt><trkpt lat="41.86165428499451" lon="12.801877455758147"><ele>238.0</ele><time>2026-04-06T09:41:00Z</time></trkpt><trkpt lat="41.86180770265975" lon="12.801822328030926"><ele>238.0</ele><time>2026-04-06T09:41:01Z</time></trkpt><trkpt lat="41.861953135533064" lon="12.801774445114837"><ele>239.0</ele><time>2026-04-06T09:41:02Z</time></trkpt><trkpt lat="41.862092241575326" lon="12.80172377511213"><ele>240.0</ele><time>2026-04-06T09:41:03Z</time></trkpt><trkpt lat="41.862246651923485" lon="12.801676003168966"><ele>241.0</ele><time>2026-04-06T09:41:04Z</time></trkpt><trkpt lat="41.862400935379505" lon="12.801632700931343"><ele>241.0</ele><time>2026-04-06T09:41:05Z</time></trkpt><trkpt lat="41.86254703165687" lon="12.801598816917211"><ele>241.0</ele><time>2026-04-06T09:41:06Z</time></trkpt><trkpt lat="41.86268574522597" lon="12.801565967538275"><ele>241.0</ele><time>2026-04-06T09:41:07Z</time></trkpt><trkpt lat="41.86281782439449" lon="12.801529916815111"><ele>241.0</ele><time>2026-04-06T09:41:08Z</time></trkpt><trkpt lat="41.86293117168721" lon="12.8015024580734"><ele>238.8</ele><time>2026-04-06T09:41:09Z</time></trkpt><trkpt lat="41.86302644601732" lon="12.801479204431327"><ele>236.60000000000002</ele><time>2026-04-06T09:41:10Z</time></trkpt><trkpt lat="41.8631198074393" lon="12.801467929096608"><ele>234.4</ele><time>2026-04-06T09:41:11Z</time></trkpt><trkpt lat="41.86319572523779" lon="12.8015099408578"><ele>232.2</ele><time>2026-04-06T09:41:12Z</time></trkpt><trkpt lat="41.86324281723452" lon="12.801610802955983"><ele>230.0</ele><time>2026-04-06T09:41:13Z</time></trkpt><trkpt lat="41.863236468382865" lon="12.80173734280672"><ele>227.6</ele><time>2026-04-06T09:41:14Z</time></trkpt><trkpt lat="41.86320449721301" lon="12.801850477846477"><ele>225.2</ele><time>2026-04-06T09:41:15Z</time></trkpt><trkpt lat="41.86315999456661" lon="12.801948236538259"><ele>222.8</ele><time>2026-04-06T09:41:16Z</time></trkpt><trkpt lat="41.86310378046206" lon="12.80203258835976"><ele>220.4</ele><time>2026-04-06T09:41:17Z</time></trkpt><trkpt lat="41.86303506103254" lon="12.802129522950322"><ele>218.0</ele><time>2026-04-06T09:41:18Z</time></trkpt><trkpt lat="41.862958943095414" lon="12.802240581216761"><ele>218.0</ele><time>2026-04-06T09:41:19Z</time></trkpt><trkpt lat="41.86288804682304" lon="12.8023432894882"><ele>218.0</ele><time>2026-04-06T09:41:20Z</time></trkpt><trkpt lat="41.86281878402303" lon="12.80244143272378"><ele>218.0</ele><time>2026-04-06T09:41:21Z</time></trkpt><trkpt lat="41.86273732706993" lon="12.80255490252181"><ele>218.0</ele><time>2026-04-06T09:41:22Z</time></trkpt><trkpt lat="41.86262854797028" lon="12.80270539407057"><ele>218.25</ele><time>2026-04-06T09:41:23Z</time></trkpt><trkpt lat="41.862531378258524" lon="12.802839731455704"><ele>218.5</ele><time>2026-04-06T09:41:24Z</time></trkpt><trkpt lat="41.862434546061856" lon="12.802974159107587"><ele>218.75</ele><time>2026-04-06T09:41:25Z</time></trkpt><trkpt lat="41.86234029085965" lon="12.803108512717579"><ele>219.0</ele><time>2026-04-06T09:41:26Z</time></trkpt><trkpt lat="41.86224836022579" lon="12.803242024071952"><ele>219.0</ele><time>2026-04-06T09:41:27Z</time></trkpt><trkpt lat="41.86215354842709" lon="12.80337455077302"><ele>219.0</ele><time>2026-04-06T09:41:28.001Z</time></trkpt><trkpt lat="41.862064919188676" lon="12.803505604080796"><ele>219.0</ele><time>2026-04-06T09:41:29.001Z</time></trkpt><trkpt lat="41.8619779738385" lon="12.803633625913253"><ele>219.0</ele><time>2026-04-06T09:41:30.001Z</time></trkpt><trkpt lat="41.86190064678674" lon="12.803759483533934"><ele>220.0</ele><time>2026-04-06T09:41:31.001Z</time></trkpt><trkpt lat="41.861832520237535" lon="12.803886214554737"><ele>221.0</ele><time>2026-04-06T09:41:32.001Z</time></trkpt><trkpt lat="41.86177966890725" lon="12.804028118641773"><ele>222.0</ele><time>2026-04-06T09:41:33.001Z</time></trkpt><trkpt lat="41.861734175631746" lon="12.804190499675077"><ele>223.0</ele><time>2026-04-06T09:41:34.001Z</time></trkpt><trkpt lat="41.86169082662726" lon="12.804364346216039"><ele>220.5</ele><time>2026-04-06T09:41:35.001Z</time></trkpt><trkpt lat="41.86164905035903" lon="12.804525837622453"><ele>218.0</ele><time>2026-04-06T09:41:36.001Z</time></trkpt><trkpt lat="41.8616123607606" lon="12.804688017479267"><ele>215.5</ele><time>2026-04-06T09:41:37.001Z</time></trkpt><trkpt lat="41.861574446466285" lon="12.804854977591651"><ele>213.0</ele><time>2026-04-06T09:41:38.001Z</time></trkpt><trkpt lat="41.8615408813142" lon="12.805026727134072"><ele>211.25</ele><time>2026-04-06T09:41:39.001Z</time></trkpt><trkpt lat="41.86151290269906" lon="12.805208396208743"><ele>209.5</ele><time>2026-04-06T09:41:40.001Z</time></trkpt><trkpt lat="41.86149861947478" lon="12.805396301017092"><ele>207.75</ele><time>2026-04-06T09:41:41.001Z</time></trkpt><trkpt lat="41.86150383783636" lon="12.805611605001719"><ele>206.0</ele><time>2026-04-06T09:41:42.001Z</time></trkpt><trkpt lat="41.86151654773897" lon="12.805826406824245"><ele>206.0</ele><time>2026-04-06T09:41:43.001Z</time></trkpt><trkpt lat="41.86153618188431" lon="12.806038189380807"><ele>206.0</ele><time>2026-04-06T09:41:44.001Z</time></trkpt><trkpt lat="41.86155242283077" lon="12.806240871287413"><ele>206.0</ele><time>2026-04-06T09:41:45.001Z</time></trkpt><trkpt lat="41.8615722578994" lon="12.806434535256964"><ele>206.0</ele><time>2026-04-06T09:41:46.001Z</time></trkpt><trkpt lat="41.86159217138393" lon="12.806633784345285"><ele>206.0</ele><time>2026-04-06T09:41:47.001Z</time></trkpt><trkpt lat="41.861622340439084" lon="12.80682043241982"><ele>206.0</ele><time>2026-04-06T09:41:48.001Z</time></trkpt><trkpt lat="41.861671023410274" lon="12.806991388559252"><ele>206.0</ele><time>2026-04-06T09:41:49.001Z</time></trkpt><trkpt lat="41.86174942587553" lon="12.807144114141517"><ele>203.66666666666669</ele><time>2026-04-06T09:41:50.001Z</time></trkpt><trkpt lat="41.861857125036686" lon="12.80729291902864"><ele>201.33333333333331</ele><time>2026-04-06T09:41:51.001Z</time></trkpt><trkpt lat="41.86198972658925" lon="12.807424456963467"><ele>199.0</ele><time>2026-04-06T09:41:52.001Z</time></trkpt><trkpt lat="41.86212817709259" lon="12.807549174249258"><ele>204.66666666666666</ele><time>2026-04-06T09:41:53.001Z</time></trkpt><trkpt lat="41.862256100615426" lon="12.807661336708636"><ele>210.33333333333331</ele><time>2026-04-06T09:41:54.001Z</time></trkpt><trkpt lat="41.86238867750105" lon="12.807765610061342"><ele>216.0</ele><time>2026-04-06T09:41:55.001Z</time></trkpt><trkpt lat="41.86251611250618" lon="12.807866856901446"><ele>213.0</ele><time>2026-04-06T09:41:56.001Z</time></trkpt><trkpt lat="41.862635365301784" lon="12.807970963226067"><ele>210.0</ele><time>2026-04-06T09:41:57.001Z</time></trkpt><trkpt lat="41.86276642793372" lon="12.808065462432738"><ele>207.0</ele><time>2026-04-06T09:41:58.001Z</time></trkpt><trkpt lat="41.86290451900396" lon="12.808147123197097"><ele>204.0</ele><time>2026-04-06T09:41:59.001Z</time></trkpt><trkpt lat="41.863052016200236" lon="12.808218295776692"><ele>204.0</ele><time>2026-04-06T09:42:00.001Z</time></trkpt><trkpt lat="41.863205130462184" lon="12.808281592799682"><ele>204.0</ele><time>2026-04-06T09:42:01.001Z</time></trkpt><trkpt lat="41.86336867555974" lon="12.808339415087653"><ele>204.0</ele><time>2026-04-06T09:42:02.001Z</time></trkpt><trkpt lat="41.86353493826094" lon="12.808398811825572"><ele>201.5</ele><time>2026-04-06T09:42:03.001Z</time></trkpt><trkpt lat="41.86368363839723" lon="12.808454392593811"><ele>199.0</ele><time>2026-04-06T09:42:04.001Z</time></trkpt><trkpt lat="41.86382374976533" lon="12.808509315193238"><ele>196.5</ele><time>2026-04-06T09:42:05.001Z</time></trkpt><trkpt lat="41.86395482067858" lon="12.808562891641177"><ele>194.0</ele><time>2026-04-06T09:42:06.001Z</time></trkpt><trkpt lat="41.864075267407685" lon="12.808614013418142"><ele>194.0</ele><time>2026-04-06T09:42:07.001Z</time></trkpt><trkpt lat="41.86419304523925" lon="12.80866126233648"><ele>194.0</ele><time>2026-04-06T09:42:08.001Z</time></trkpt><trkpt lat="41.864304564414965" lon="12.808712709260842"><ele>194.0</ele><time>2026-04-06T09:42:09.001Z</time></trkpt><trkpt lat="41.864413331133036" lon="12.808774185081518"><ele>194.0</ele><time>2026-04-06T09:42:10.001Z</time></trkpt><trkpt lat="41.86450722196711" lon="12.808860623191858"><ele>192.0</ele><time>2026-04-06T09:42:11.001Z</time></trkpt><trkpt lat="41.864599650357135" lon="12.808966752388386"><ele>190.0</ele><time>2026-04-06T09:42:12.001Z</time></trkpt><trkpt lat="41.86468405488201" lon="12.809078109900254"><ele>188.0</ele><time>2026-04-06T09:42:13.001Z</time></trkpt><trkpt lat="41.86475932745085" lon="12.809184760500948"><ele>186.0</ele><time>2026-04-06T09:42:14.001Z</time></trkpt><trkpt lat="41.8648307368075" lon="12.809285199725235"><ele>187.5</ele><time>2026-04-06T09:42:15.001Z</time></trkpt><trkpt lat="41.86489320526868" lon="12.80937410096604"><ele>189.0</ele><time>2026-04-06T09:42:16.001Z</time></trkpt><trkpt lat="41.86493653096428" lon="12.809464821975912"><ele>190.5</ele><time>2026-04-06T09:42:17.001Z</time></trkpt><trkpt lat="41.86499692229414" lon="12.809525096825938"><ele>192.0</ele><time>2026-04-06T09:42:18.001Z</time></trkpt><trkpt lat="41.86505022923752" lon="12.809621240293678"><ele>193.5</ele><time>2026-04-06T09:42:20.001Z</time></trkpt><trkpt lat="41.86509741147638" lon="12.809694235941198"><ele>195.0</ele><time>2026-04-06T09:42:37.002Z</time></trkpt><trkpt lat="41.86515816631523" lon="12.809765664092618"><ele>198.4</ele><time>2026-04-06T09:43:06.001Z</time></trkpt><trkpt lat="41.865252201357976" lon="12.809686433560188"><ele>201.8</ele><time>2026-04-06T09:43:07.001Z</time></trkpt><trkpt lat="41.86534777200945" lon="12.80960153190279"><ele>205.2</ele><time>2026-04-06T09:43:09.001Z</time></trkpt><trkpt lat="41.86544723050611" lon="12.809526004188983"><ele>208.6</ele><time>2026-04-06T09:43:11Z</time></trkpt><trkpt lat="41.86552382546432" lon="12.809459765670027"><ele>212.0</ele><time>2026-04-06T09:43:13Z</time></trkpt><trkpt lat="41.86557973052104" lon="12.809420851969682"><ele>212.0</ele><time>2026-04-06T09:43:15Z</time></trkpt><trkpt lat="41.865649675361965" lon="12.809368376120648"><ele>212.0</ele><time>2026-04-06T09:43:17Z</time></trkpt><trkpt lat="41.865723603037615" lon="12.809315049485956"><ele>212.0</ele><time>2026-04-06T09:43:19.001Z</time></trkpt><trkpt lat="41.86581164008685" lon="12.80925371079662"><ele>212.0</ele><time>2026-04-06T09:43:21.001Z</time></trkpt><trkpt lat="41.865929792447716" lon="12.809167772233543"><ele>212.0</ele><time>2026-04-06T09:43:23.001Z</time></trkpt><trkpt lat="41.86600789244976" lon="12.809110423576092"><ele>210.39999999999998</ele><time>2026-04-06T09:43:24.001Z</time></trkpt><trkpt lat="41.86609377610088" lon="12.809055927510766"><ele>208.79999999999998</ele><time>2026-04-06T09:43:25.001Z</time></trkpt><trkpt lat="41.86617247143724" lon="12.80901171460953"><ele>207.2</ele><time>2026-04-06T09:43:26.001Z</time></trkpt><trkpt lat="41.86625186477487" lon="12.808965212968367"><ele>205.6</ele><time>2026-04-06T09:43:27.001Z</time></trkpt><trkpt lat="41.866332356509446" lon="12.808916074852364"><ele>204.0</ele><time>2026-04-06T09:43:28.001Z</time></trkpt><trkpt lat="41.86642201066426" lon="12.80886273621373"><ele>204.0</ele><time>2026-04-06T09:43:29.001Z</time></trkpt><trkpt lat="41.86651382899623" lon="12.808808623611831"><ele>204.0</ele><time>2026-04-06T09:43:30.001Z</time></trkpt><trkpt lat="41.86660401027229" lon="12.808757237283979"><ele>204.0</ele><time>2026-04-06T09:43:31.001Z</time></trkpt><trkpt lat="41.86669786303343" lon="12.808697549903652"><ele>204.0</ele><time>2026-04-06T09:43:32.001Z</time></trkpt><trkpt lat="41.866806330123076" lon="12.808641169299126"><ele>204.0</ele><time>2026-04-06T09:43:33.001Z</time></trkpt><trkpt lat="41.86690817580261" lon="12.808558054668026"><ele>203.25</ele><time>2026-04-06T09:43:34.001Z</time></trkpt><trkpt lat="41.86700303260764" lon="12.808469660062979"><ele>202.5</ele><time>2026-04-06T09:43:35.001Z</time></trkpt><trkpt lat="41.86707937937325" lon="12.808348827346888"><ele>201.75</ele><time>2026-04-06T09:43:36.001Z</time></trkpt><trkpt lat="41.867170961093194" lon="12.80825720690728"><ele>201.0</ele><time>2026-04-06T09:43:37.001Z</time></trkpt><trkpt lat="41.8672590591839" lon="12.808177237808932"><ele>201.0</ele><time>2026-04-06T09:43:38.001Z</time></trkpt><trkpt lat="41.867338288075665" lon="12.808097876835223"><ele>201.0</ele><time>2026-04-06T09:43:39.001Z</time></trkpt><trkpt lat="41.86742680644272" lon="12.808041030631827"><ele>201.0</ele><time>2026-04-06T09:43:40.001Z</time></trkpt><trkpt lat="41.86749438308169" lon="12.807973169749124"><ele>201.0</ele><time>2026-04-06T09:43:41.001Z</time></trkpt><trkpt lat="41.86757166083998" lon="12.807877594828927"><ele>201.0</ele><time>2026-04-06T09:43:43.001Z</time></trkpt><trkpt lat="41.86766103854121" lon="12.807829691573023"><ele>203.8</ele><time>2026-04-06T09:43:46.001Z</time></trkpt><trkpt lat="41.867730552675035" lon="12.80777841637391"><ele>206.60000000000002</ele><time>2026-04-06T09:43:48.001Z</time></trkpt><trkpt lat="41.86782605048847" lon="12.80795521850376"><ele>209.4</ele><time>2026-04-06T09:43:52.001Z</time></trkpt><trkpt lat="41.867845003052174" lon="12.808058258713144"><ele>212.2</ele><time>2026-04-06T09:43:53.001Z</time></trkpt><trkpt lat="41.867868618382644" lon="12.808156173361438"><ele>215.0</ele><time>2026-04-06T09:43:54.001Z</time></trkpt><trkpt lat="41.86791671474384" lon="12.808313434591518"><ele>215.00000000000003</ele><time>2026-04-06T09:43:56.001Z</time></trkpt><trkpt lat="41.86797247671973" lon="12.808374851467745"><ele>215.0</ele><time>2026-04-06T09:43:57.001Z</time></trkpt><trkpt lat="41.8680254406835" lon="12.80845067715585"><ele>215.0</ele><time>2026-04-06T09:43:58.001Z</time></trkpt><trkpt lat="41.86808687856347" lon="12.808531216704283"><ele>215.0</ele><time>2026-04-06T09:43:59.001Z</time></trkpt><trkpt lat="41.868150021965256" lon="12.808625475826462"><ele>215.00000000000003</ele><time>2026-04-06T09:44:00.001Z</time></trkpt><trkpt lat="41.86822626433969" lon="12.808735061381384"><ele>215.0</ele><time>2026-04-06T09:44:01.001Z</time></trkpt><trkpt lat="41.868290651511" lon="12.808822454239435"><ele>214.66666666666669</ele><time>2026-04-06T09:44:02.001Z</time></trkpt><trkpt lat="41.86834523403039" lon="12.80890297780392"><ele>214.33333333333334</ele><time>2026-04-06T09:44:03.001Z</time></trkpt><trkpt lat="41.868388341117466" lon="12.80897654562282"><ele>214.0</ele><time>2026-04-06T09:44:04.001Z</time></trkpt><trkpt lat="41.86842585566061" lon="12.809049596653338"><ele>213.66666666666669</ele><time>2026-04-06T09:44:05.001Z</time></trkpt><trkpt lat="41.86844951997534" lon="12.809138202499174"><ele>213.33333333333334</ele><time>2026-04-06T09:44:06.001Z</time></trkpt><trkpt lat="41.86845107375416" lon="12.809259099581373"><ele>213.0</ele><time>2026-04-06T09:44:07.001Z</time></trkpt><trkpt lat="41.8684238374133" lon="12.809425187539901"><ele>210.5</ele><time>2026-04-06T09:44:08.001Z</time></trkpt><trkpt lat="41.86841497242198" lon="12.809591699535927"><ele>208.0</ele><time>2026-04-06T09:44:09.001Z</time></trkpt><trkpt lat="41.86839671833953" lon="12.809742242094197"><ele>205.5</ele><time>2026-04-06T09:44:10.001Z</time></trkpt><trkpt lat="41.8684044920011" lon="12.80989373908968"><ele>203.0</ele><time>2026-04-06T09:44:11.001Z</time></trkpt><trkpt lat="41.86842219855497" lon="12.81004119294333"><ele>200.8</ele><time>2026-04-06T09:44:12.001Z</time></trkpt><trkpt lat="41.86850112931368" lon="12.810151693508294"><ele>198.60000000000002</ele><time>2026-04-06T09:44:13.001Z</time></trkpt><trkpt lat="41.868576257213746" lon="12.810255819848017"><ele>196.39999999999998</ele><time>2026-04-06T09:44:14.001Z</time></trkpt><trkpt lat="41.868657839008335" lon="12.81034805635466"><ele>194.2</ele><time>2026-04-06T09:44:15.001Z</time></trkpt><trkpt lat="41.86875469159045" lon="12.810439338394131"><ele>192.0</ele><time>2026-04-06T09:44:16.001Z</time></trkpt><trkpt lat="41.86883266438067" lon="12.810569389283863"><ele>191.39999999999998</ele><time>2026-04-06T09:44:17.001Z</time></trkpt><trkpt lat="41.8689178272664" lon="12.81068100786256"><ele>190.79999999999998</ele><time>2026-04-06T09:44:18.001Z</time></trkpt><trkpt lat="41.86900301258355" lon="12.810772702871528"><ele>190.2</ele><time>2026-04-06T09:44:19.001Z</time></trkpt><trkpt lat="41.86907585010773" lon="12.810873610668216"><ele>189.6</ele><time>2026-04-06T09:44:20.001Z</time></trkpt><trkpt lat="41.869150332818265" lon="12.81097769389433"><ele>189.0</ele><time>2026-04-06T09:44:21.001Z</time></trkpt><trkpt lat="41.86922886661683" lon="12.811090209887347"><ele>190.75</ele><time>2026-04-06T09:44:22.001Z</time></trkpt><trkpt lat="41.869311225574585" lon="12.811219594093659"><ele>192.5</ele><time>2026-04-06T09:44:23.001Z</time></trkpt><trkpt lat="41.86939533304511" lon="12.811346283443317"><ele>194.25</ele><time>2026-04-06T09:44:24.001Z</time></trkpt><trkpt lat="41.869481837733964" lon="12.811460699493097"><ele>196.0</ele><time>2026-04-06T09:44:25.001Z</time></trkpt><trkpt lat="41.8695853923552" lon="12.811570183627074"><ele>196.0</ele><time>2026-04-06T09:44:26.001Z</time></trkpt><trkpt lat="41.86966307574305" lon="12.811679371625745"><ele>196.0</ele><time>2026-04-06T09:44:27.001Z</time></trkpt><trkpt lat="41.86972989653256" lon="12.811782557010714"><ele>196.0</ele><time>2026-04-06T09:44:28.002Z</time></trkpt><trkpt lat="41.86978657432323" lon="12.811884489023432"><ele>196.0</ele><time>2026-04-06T09:44:29.002Z</time></trkpt><trkpt lat="41.869840190804375" lon="12.811992422007487"><ele>196.0</ele><time>2026-04-06T09:44:30.002Z</time></trkpt><trkpt lat="41.86988790853441" lon="12.812106312949043"><ele>196.83333333333331</ele><time>2026-04-06T09:44:31.002Z</time></trkpt><trkpt lat="41.869913721962924" lon="12.81220713849128"><ele>197.66666666666666</ele><time>2026-04-06T09:44:32.002Z</time></trkpt><trkpt lat="41.869935105131475" lon="12.812305880681595"><ele>198.5</ele><time>2026-04-06T09:44:33.002Z</time></trkpt><trkpt lat="41.86995493994311" lon="12.812399853858524"><ele>199.33333333333331</ele><time>2026-04-06T09:44:34.002Z</time></trkpt><trkpt lat="41.86997500905722" lon="12.812494484107622"><ele>200.16666666666666</ele><time>2026-04-06T09:44:35.002Z</time></trkpt><trkpt lat="41.86999767924889" lon="12.812602975394627"><ele>201.0</ele><time>2026-04-06T09:44:36.002Z</time></trkpt><trkpt lat="41.87002364922609" lon="12.81272808103933"><ele>201.83333333333334</ele><time>2026-04-06T09:44:37.002Z</time></trkpt><trkpt lat="41.8700429223917" lon="12.812836495723918"><ele>202.66666666666669</ele><time>2026-04-06T09:44:38.002Z</time></trkpt><trkpt lat="41.8700587381018" lon="12.812953153503654"><ele>203.5</ele><time>2026-04-06T09:44:39.002Z</time></trkpt><trkpt lat="41.870076158350955" lon="12.813071412242008"><ele>204.33333333333334</ele><time>2026-04-06T09:44:40.002Z</time></trkpt><trkpt lat="41.870069757165595" lon="12.813168746193652"><ele>205.16666666666669</ele><time>2026-04-06T09:44:41.002Z</time></trkpt><trkpt lat="41.87007231400019" lon="12.813260934411174"><ele>206.0</ele><time>2026-04-06T09:44:42.002Z</time></trkpt><trkpt lat="41.87007352196312" lon="12.813356604085042"><ele>208.60000000000002</ele><time>2026-04-06T09:44:43.002Z</time></trkpt><trkpt lat="41.87017926034134" lon="12.813463212060023"><ele>211.2</ele><time>2026-04-06T09:44:45.002Z</time></trkpt><trkpt lat="41.87022542250192" lon="12.813528049543171"><ele>213.79999999999998</ele><time>2026-04-06T09:45:33.001Z</time></trkpt><trkpt lat="41.87031034206378" lon="12.813648105517741"><ele>216.39999999999998</ele><time>2026-04-06T09:45:35.001Z</time></trkpt><trkpt lat="41.87036292912731" lon="12.813756392765983"><ele>219.0</ele><time>2026-04-06T09:45:36.001Z</time></trkpt><trkpt lat="41.87041014136034" lon="12.813875156272221"><ele>220.5</ele><time>2026-04-06T09:45:37.001Z</time></trkpt><trkpt lat="41.8704604534977" lon="12.81399726622944"><ele>222.0</ele><time>2026-04-06T09:45:38.001Z</time></trkpt><trkpt lat="41.87051830859651" lon="12.814123879767617"><ele>223.5</ele><time>2026-04-06T09:45:39.001Z</time></trkpt><trkpt lat="41.870595999250945" lon="12.814268456528607"><ele>225.0</ele><time>2026-04-06T09:45:40.001Z</time></trkpt><trkpt lat="41.870670693282555" lon="12.814411662848666"><ele>225.75</ele><time>2026-04-06T09:45:41.001Z</time></trkpt><trkpt lat="41.870736326111114" lon="12.814542469648671"><ele>226.5</ele><time>2026-04-06T09:45:42.001Z</time></trkpt><trkpt lat="41.87081064775527" lon="12.814687937625171"><ele>227.25</ele><time>2026-04-06T09:45:43.001Z</time></trkpt><trkpt lat="41.870883931901176" lon="12.81484040141782"><ele>228.0</ele><time>2026-04-06T09:45:44.001Z</time></trkpt><trkpt lat="41.8709519266917" lon="12.814984205910005"><ele>228.25</ele><time>2026-04-06T09:45:45.001Z</time></trkpt><trkpt lat="41.87102714966244" lon="12.815138691292724"><ele>228.5</ele><time>2026-04-06T09:45:46.001Z</time></trkpt><trkpt lat="41.871098574112025" lon="12.815313834384561"><ele>228.75</ele><time>2026-04-06T09:45:47.001Z</time></trkpt><trkpt lat="41.8711488841947" lon="12.8154649045123"><ele>229.0</ele><time>2026-04-06T09:45:48.001Z</time></trkpt><trkpt lat="41.8712096295649" lon="12.815578032465655"><ele>229.0</ele><time>2026-04-06T09:45:49.001Z</time></trkpt><trkpt lat="41.8712318982641" lon="12.815687541038523"><ele>228.99999999999997</ele><time>2026-04-06T09:45:50.001Z</time></trkpt><trkpt lat="41.871225954437755" lon="12.815820713658054"><ele>228.99999999999997</ele><time>2026-04-06T09:45:51.001Z</time></trkpt><trkpt lat="41.87122588576064" lon="12.815937273637617"><ele>229.0</ele><time>2026-04-06T09:45:52.001Z</time></trkpt><trkpt lat="41.87121624007758" lon="12.816035341903088"><ele>229.0</ele><time>2026-04-06T09:45:53.001Z</time></trkpt><trkpt lat="41.87119212604501" lon="12.816174823215324"><ele>230.2</ele><time>2026-04-06T09:45:54.001Z</time></trkpt><trkpt lat="41.87116305693649" lon="12.816316220023287"><ele>231.39999999999998</ele><time>2026-04-06T09:45:55.001Z</time></trkpt><trkpt lat="41.87109123891783" lon="12.816411026820393"><ele>232.6</ele><time>2026-04-06T09:45:56.001Z</time></trkpt><trkpt lat="41.87101387087088" lon="12.816520699814479"><ele>233.8</ele><time>2026-04-06T09:45:57.001Z</time></trkpt><trkpt lat="41.87094661019802" lon="12.816636194222646"><ele>235.0</ele><time>2026-04-06T09:45:58.001Z</time></trkpt><trkpt lat="41.870898546711246" lon="12.816797845163821"><ele>232.5</ele><time>2026-04-06T09:45:59.001Z</time></trkpt><trkpt lat="41.870840708986904" lon="12.816977641790471"><ele>230.0</ele><time>2026-04-06T09:46:00.001Z</time></trkpt><trkpt lat="41.87076916484814" lon="12.817135695486916"><ele>227.5</ele><time>2026-04-06T09:46:01.001Z</time></trkpt><trkpt lat="41.87073148447937" lon="12.817308908921804"><ele>225.0</ele><time>2026-04-06T09:46:02.001Z</time></trkpt><trkpt lat="41.870682005227266" lon="12.817473911536318"><ele>225.0</ele><time>2026-04-06T09:46:03.001Z</time></trkpt><trkpt lat="41.870624033986296" lon="12.817623034729227"><ele>225.0</ele><time>2026-04-06T09:46:04.001Z</time></trkpt><trkpt lat="41.87059390592863" lon="12.817779526490867"><ele>225.0</ele><time>2026-04-06T09:46:05.001Z</time></trkpt><trkpt lat="41.87055423173995" lon="12.817918889336616"><ele>225.0</ele><time>2026-04-06T09:46:06.001Z</time></trkpt><trkpt lat="41.87053741328984" lon="12.81806283596073"><ele>224.0</ele><time>2026-04-06T09:46:07.001Z</time></trkpt><trkpt lat="41.8705341841802" lon="12.818203868352084"><ele>223.0</ele><time>2026-04-06T09:46:08.001Z</time></trkpt><trkpt lat="41.87053428071646" lon="12.818328529962098"><ele>222.0</ele><time>2026-04-06T09:46:09.001Z</time></trkpt><trkpt lat="41.87054455727056" lon="12.81843376300673"><ele>221.0</ele><time>2026-04-06T09:46:10.001Z</time></trkpt><trkpt lat="41.87059153614757" lon="12.818518406385687"><ele>220.0</ele><time>2026-04-06T09:46:11.001Z</time></trkpt><trkpt lat="41.87066329100773" lon="12.818560413568001"><ele>219.0</ele><time>2026-04-06T09:46:12.001Z</time></trkpt><trkpt lat="41.87074263240788" lon="12.818544627546899"><ele>219.0</ele><time>2026-04-06T09:46:13.001Z</time></trkpt><trkpt lat="41.87082080772237" lon="12.818480746731257"><ele>218.99999999999997</ele><time>2026-04-06T09:46:14.001Z</time></trkpt><trkpt lat="41.87087147794536" lon="12.818373717279849"><ele>218.99999999999997</ele><time>2026-04-06T09:46:15.001Z</time></trkpt><trkpt lat="41.87089789350747" lon="12.818229492431882"><ele>219.0</ele><time>2026-04-06T09:46:16.001Z</time></trkpt><trkpt lat="41.870954023251045" lon="12.818039765572282"><ele>219.0</ele><time>2026-04-06T09:46:17.001Z</time></trkpt><trkpt lat="41.870971240167414" lon="12.81787350984787"><ele>221.0</ele><time>2026-04-06T09:46:18.001Z</time></trkpt><trkpt lat="41.87100003001924" lon="12.817696500606877"><ele>223.0</ele><time>2026-04-06T09:46:19.001Z</time></trkpt><trkpt lat="41.87102543191702" lon="12.817523002832923"><ele>225.0</ele><time>2026-04-06T09:46:20.001Z</time></trkpt><trkpt lat="41.87103871561869" lon="12.817349105321322"><ele>227.0</ele><time>2026-04-06T09:46:21.001Z</time></trkpt><trkpt lat="41.87105692778176" lon="12.81717989549954"><ele>224.0</ele><time>2026-04-06T09:46:22.001Z</time></trkpt><trkpt lat="41.87111541224081" lon="12.817040906871151"><ele>221.0</ele><time>2026-04-06T09:46:23.001Z</time></trkpt><trkpt lat="41.87118186177473" lon="12.816924685768434"><ele>218.0</ele><time>2026-04-06T09:46:24.001Z</time></trkpt><trkpt lat="41.87126816438802" lon="12.816848586710174"><ele>215.0</ele><time>2026-04-06T09:46:25.001Z</time></trkpt><trkpt lat="41.871345549857885" lon="12.816808719113887"><ele>212.0</ele><time>2026-04-06T09:46:26.001Z</time></trkpt><trkpt lat="41.871414625625505" lon="12.816842613791675"><ele>211.39999999999998</ele><time>2026-04-06T09:46:27.001Z</time></trkpt><trkpt lat="41.87146694842756" lon="12.816915931037313"><ele>210.79999999999998</ele><time>2026-04-06T09:46:28.002Z</time></trkpt><trkpt lat="41.87151864599961" lon="12.817033463544385"><ele>210.2</ele><time>2026-04-06T09:46:29.002Z</time></trkpt><trkpt lat="41.87159347826781" lon="12.817167709643986"><ele>209.6</ele><time>2026-04-06T09:46:30.002Z</time></trkpt><trkpt lat="41.87165872750749" lon="12.817266697073157"><ele>209.0</ele><time>2026-04-06T09:46:31.002Z</time></trkpt><trkpt lat="41.871717362981066" lon="12.817322781604213"><ele>212.50000000000003</ele><time>2026-04-06T09:46:32.002Z</time></trkpt><trkpt lat="41.87178328045165" lon="12.817321732085304"><ele>216.0</ele><time>2026-04-06T09:46:33.002Z</time></trkpt><trkpt lat="41.87184867390871" lon="12.817289896801677"><ele>219.5</ele><time>2026-04-06T09:46:34.002Z</time></trkpt><trkpt lat="41.871928935880376" lon="12.81727323352956"><ele>223.0</ele><time>2026-04-06T09:46:35.002Z</time></trkpt><trkpt lat="41.87198492501579" lon="12.817222711450295"><ele>226.50000000000003</ele><time>2026-04-06T09:46:36.002Z</time></trkpt><trkpt lat="41.87206153255453" lon="12.817185274387818"><ele>230.0</ele><time>2026-04-06T09:46:37.002Z</time></trkpt><trkpt lat="41.87215475659002" lon="12.817163598722503"><ele>230.0</ele><time>2026-04-06T09:46:38.002Z</time></trkpt><trkpt lat="41.872249309416745" lon="12.817117919557365"><ele>230.0</ele><time>2026-04-06T09:46:39.002Z</time></trkpt><trkpt lat="41.872346478333505" lon="12.817070976530504"><ele>230.0</ele><time>2026-04-06T09:46:40.002Z</time></trkpt><trkpt lat="41.87246021862377" lon="12.81701602773319"><ele>230.0</ele><time>2026-04-06T09:46:41.002Z</time></trkpt><trkpt lat="41.8725867698312" lon="12.816952652880707"><ele>229.0</ele><time>2026-04-06T09:46:42.002Z</time></trkpt><trkpt lat="41.872692067058956" lon="12.81690463431669"><ele>228.0</ele><time>2026-04-06T09:46:43.002Z</time></trkpt><trkpt lat="41.87278541114943" lon="12.816884483138002"><ele>227.0</ele><time>2026-04-06T09:46:44.002Z</time></trkpt><trkpt lat="41.87290319663949" lon="12.816868505187502"><ele>226.0</ele><time>2026-04-06T09:46:45.002Z</time></trkpt><trkpt lat="41.87302119600374" lon="12.816872236820211"><ele>225.0</ele><time>2026-04-06T09:46:46.002Z</time></trkpt><trkpt lat="41.87315027057936" lon="12.816887073185969"><ele>225.0</ele><time>2026-04-06T09:46:47.002Z</time></trkpt><trkpt lat="41.87327923496659" lon="12.816906020109434"><ele>225.0</ele><time>2026-04-06T09:46:48.002Z</time></trkpt><trkpt lat="41.87339077968307" lon="12.816924738479496"><ele>225.0</ele><time>2026-04-06T09:46:49.002Z</time></trkpt><trkpt lat="41.873490277098306" lon="12.816945755879273"><ele>225.0</ele><time>2026-04-06T09:46:50.002Z</time></trkpt><trkpt lat="41.87357889988041" lon="12.81697250104367"><ele>225.0</ele><time>2026-04-06T09:46:51.002Z</time></trkpt><trkpt lat="41.87367460241241" lon="12.817019609732"><ele>222.4</ele><time>2026-04-06T09:46:52.002Z</time></trkpt><trkpt lat="41.87374125946988" lon="12.817119288071975"><ele>219.8</ele><time>2026-04-06T09:46:53.002Z</time></trkpt><trkpt lat="41.87377960413402" lon="12.817243758177892"><ele>217.2</ele><time>2026-04-06T09:46:54.002Z</time></trkpt><trkpt lat="41.87377450165953" lon="12.817375772440768"><ele>214.6</ele><time>2026-04-06T09:46:55.002Z</time></trkpt><trkpt lat="41.87373686389057" lon="12.81750409094977"><ele>212.0</ele><time>2026-04-06T09:46:56.002Z</time></trkpt><trkpt lat="41.87367546654984" lon="12.817633396086338"><ele>213.2</ele><time>2026-04-06T09:46:57.002Z</time></trkpt><trkpt lat="41.87359801311443" lon="12.817750222521747"><ele>214.39999999999998</ele><time>2026-04-06T09:46:58.002Z</time></trkpt><trkpt lat="41.873518073864965" lon="12.8178559854059"><ele>215.60000000000002</ele><time>2026-04-06T09:46:59.002Z</time></trkpt><trkpt lat="41.87344521239874" lon="12.817941242783423"><ele>216.8</ele><time>2026-04-06T09:47:00.002Z</time></trkpt><trkpt lat="41.873395130831575" lon="12.818033775522467"><ele>218.0</ele><time>2026-04-06T09:47:01.002Z</time></trkpt><trkpt lat="41.87335114843849" lon="12.818122417381556"><ele>219.4</ele><time>2026-04-06T09:47:02.002Z</time></trkpt><trkpt lat="41.873280986813114" lon="12.818228761780393"><ele>220.8</ele><time>2026-04-06T09:47:04.002Z</time></trkpt><trkpt lat="41.87331744065946" lon="12.818356566080398"><ele>222.2</ele><time>2026-04-06T09:47:06.002Z</time></trkpt><trkpt lat="41.873375239592455" lon="12.818423589753415"><ele>223.6</ele><time>2026-04-06T09:47:07.002Z</time></trkpt><trkpt lat="41.873464598393646" lon="12.818542724069676"><ele>225.0</ele><time>2026-04-06T09:47:09.002Z</time></trkpt><trkpt lat="41.87351001651513" lon="12.81860418812315"><ele>226.83333333333334</ele><time>2026-04-06T09:47:10.002Z</time></trkpt><trkpt lat="41.873562384505966" lon="12.818673474697908"><ele>228.66666666666669</ele><time>2026-04-06T09:47:11.002Z</time></trkpt><trkpt lat="41.87361899467388" lon="12.818743719153524"><ele>230.5</ele><time>2026-04-06T09:47:12.001Z</time></trkpt><trkpt lat="41.873699018240515" lon="12.818801514154348"><ele>232.33333333333334</ele><time>2026-04-06T09:47:14.001Z</time></trkpt><trkpt lat="41.87378077309869" lon="12.818802952096743"><ele>234.16666666666669</ele><time>2026-04-06T09:47:15.001Z</time></trkpt><trkpt lat="41.873880402659914" lon="12.81874987120504"><ele>236.0</ele><time>2026-04-06T09:47:16.001Z</time></trkpt><trkpt lat="41.87398208639162" lon="12.818653197009446"><ele>236.0</ele><time>2026-04-06T09:47:17.001Z</time></trkpt><trkpt lat="41.87408533662163" lon="12.818519701608462"><ele>236.00000000000003</ele><time>2026-04-06T09:47:18.001Z</time></trkpt><trkpt lat="41.874178812812715" lon="12.818460044742562"><ele>236.00000000000003</ele><time>2026-04-06T09:47:19.001Z</time></trkpt><trkpt lat="41.874252265712414" lon="12.8184070752577"><ele>236.0</ele><time>2026-04-06T09:47:20.001Z</time></trkpt><trkpt lat="41.874312292384225" lon="12.818379961099264"><ele>236.0</ele><time>2026-04-06T09:47:21.001Z</time></trkpt><trkpt lat="41.87440355887968" lon="12.818443806393827"><ele>235.5</ele><time>2026-04-06T09:47:22.001Z</time></trkpt><trkpt lat="41.87448317650357" lon="12.818464110906188"><ele>235.0</ele><time>2026-04-06T09:47:23.001Z</time></trkpt><trkpt lat="41.874562182305915" lon="12.81848777017158"><ele>234.5</ele><time>2026-04-06T09:47:24.001Z</time></trkpt><trkpt lat="41.874700907980696" lon="12.818533640794568"><ele>234.0</ele><time>2026-04-06T09:47:25.001Z</time></trkpt><trkpt lat="41.87484947212988" lon="12.818542123780155"><ele>234.0</ele><time>2026-04-06T09:47:26.001Z</time></trkpt><trkpt lat="41.874976744971605" lon="12.818517029789344"><ele>233.99999999999997</ele><time>2026-04-06T09:47:27.001Z</time></trkpt><trkpt lat="41.87508341179672" lon="12.818475070985635"><ele>233.99999999999997</ele><time>2026-04-06T09:47:28.001Z</time></trkpt><trkpt lat="41.875196595983574" lon="12.818462627146902"><ele>234.0</ele><time>2026-04-06T09:47:29.001Z</time></trkpt><trkpt lat="41.87529066954165" lon="12.818437682365001"><ele>234.0</ele><time>2026-04-06T09:47:30.001Z</time></trkpt><trkpt lat="41.875363546091286" lon="12.818425391827853"><ele>233.83333333333334</ele><time>2026-04-06T09:47:31.001Z</time></trkpt><trkpt lat="41.8754818292021" lon="12.818453552822897"><ele>233.66666666666669</ele><time>2026-04-06T09:47:33.001Z</time></trkpt><trkpt lat="41.87554042445348" lon="12.81849660179452"><ele>233.5</ele><time>2026-04-06T09:47:34.001Z</time></trkpt><trkpt lat="41.87560436010014" lon="12.81853709923684"><ele>233.33333333333334</ele><time>2026-04-06T09:47:35.001Z</time></trkpt><trkpt lat="41.87566556644592" lon="12.818591384780188"><ele>233.16666666666669</ele><time>2026-04-06T09:47:36.001Z</time></trkpt><trkpt lat="41.87573079153045" lon="12.81863403994451"><ele>233.0</ele><time>2026-04-06T09:47:37.001Z</time></trkpt><trkpt lat="41.87580191015052" lon="12.818677246875286"><ele>233.4</ele><time>2026-04-06T09:47:38.001Z</time></trkpt><trkpt lat="41.87588088060911" lon="12.818730058015241"><ele>233.8</ele><time>2026-04-06T09:47:39.001Z</time></trkpt><trkpt lat="41.87595890548473" lon="12.818788126354479"><ele>234.2</ele><time>2026-04-06T09:47:40.001Z</time></trkpt><trkpt lat="41.87606123532084" lon="12.81884635959364"><ele>234.6</ele><time>2026-04-06T09:47:41.001Z</time></trkpt><trkpt lat="41.87619908671154" lon="12.818935258367173"><ele>235.0</ele><time>2026-04-06T09:47:42.001Z</time></trkpt><trkpt lat="41.87630426969084" lon="12.819011397065987"><ele>236.2</ele><time>2026-04-06T09:47:43.001Z</time></trkpt><trkpt lat="41.87639435050334" lon="12.81907921033804"><ele>237.4</ele><time>2026-04-06T09:47:44.001Z</time></trkpt><trkpt lat="41.87647397963413" lon="12.819157046982252"><ele>238.60000000000002</ele><time>2026-04-06T09:47:45.001Z</time></trkpt><trkpt lat="41.87651012661448" lon="12.819267868926273"><ele>239.8</ele><time>2026-04-06T09:47:46.001Z</time></trkpt><trkpt lat="41.876493164884245" lon="12.819392897155353"><ele>241.0</ele><time>2026-04-06T09:47:47.001Z</time></trkpt><trkpt lat="41.8764401704556" lon="12.819509697667339"><ele>242.25</ele><time>2026-04-06T09:47:48.001Z</time></trkpt><trkpt lat="41.8763716170214" lon="12.819627399484567"><ele>243.5</ele><time>2026-04-06T09:47:49.001Z</time></trkpt><trkpt lat="41.87630004959045" lon="12.819767233274971"><ele>244.75</ele><time>2026-04-06T09:47:50.001Z</time></trkpt><trkpt lat="41.87623339044677" lon="12.819915058482222"><ele>246.0</ele><time>2026-04-06T09:47:51.001Z</time></trkpt><trkpt lat="41.87617499430474" lon="12.820041315926405"><ele>246.75</ele><time>2026-04-06T09:47:52.001Z</time></trkpt><trkpt lat="41.87613737252331" lon="12.820174074826777"><ele>247.5</ele><time>2026-04-06T09:47:53.001Z</time></trkpt><trkpt lat="41.876130332684575" lon="12.820340348595055"><ele>248.25</ele><time>2026-04-06T09:47:54.001Z</time></trkpt><trkpt lat="41.87612390344983" lon="12.820548720685263"><ele>249.0</ele><time>2026-04-06T09:47:55.001Z</time></trkpt><trkpt lat="41.87611681226231" lon="12.820750075884867"><ele>249.0</ele><time>2026-04-06T09:47:56.001Z</time></trkpt><trkpt lat="41.87610508094322" lon="12.820964084228354"><ele>249.0</ele><time>2026-04-06T09:47:57.001Z</time></trkpt><trkpt lat="41.87608089651271" lon="12.821166624283533"><ele>249.0</ele><time>2026-04-06T09:47:58.001Z</time></trkpt><trkpt lat="41.87604399779195" lon="12.821338471074592"><ele>249.0</ele><time>2026-04-06T09:47:59.001Z</time></trkpt><trkpt lat="41.87600904423022" lon="12.821505782430698"><ele>249.0</ele><time>2026-04-06T09:48:00.001Z</time></trkpt><trkpt lat="41.87597159401567" lon="12.821673461214589"><ele>249.0</ele><time>2026-04-06T09:48:01.001Z</time></trkpt><trkpt lat="41.8759342954275" lon="12.821828400973647"><ele>249.0</ele><time>2026-04-06T09:48:02.001Z</time></trkpt><trkpt lat="41.87589214559547" lon="12.82197945823049"><ele>249.0</ele><time>2026-04-06T09:48:03.001Z</time></trkpt><trkpt lat="41.87585027505998" lon="12.822141097838028"><ele>249.0</ele><time>2026-04-06T09:48:04.001Z</time></trkpt><trkpt lat="41.87580741950345" lon="12.822313380616059"><ele>249.0</ele><time>2026-04-06T09:48:05.001Z</time></trkpt><trkpt lat="41.87576901249212" lon="12.822499544174967"><ele>249.0</ele><time>2026-04-06T09:48:06.001Z</time></trkpt><trkpt lat="41.87573462947261" lon="12.822697109952363"><ele>249.0</ele><time>2026-04-06T09:48:07.001Z</time></trkpt><trkpt lat="41.87570773676387" lon="12.822901669160526"><ele>250.25</ele><time>2026-04-06T09:48:08.001Z</time></trkpt><trkpt lat="41.875682234256615" lon="12.823118148496727"><ele>251.5</ele><time>2026-04-06T09:48:09.001Z</time></trkpt><trkpt lat="41.875660874906025" lon="12.823309054186241"><ele>252.75</ele><time>2026-04-06T09:48:10.001Z</time></trkpt><trkpt lat="41.875629976121886" lon="12.823487054213528"><ele>254.0</ele><time>2026-04-06T09:48:11.001Z</time></trkpt><trkpt lat="41.875586717664014" lon="12.823652937894499"><ele>255.5</ele><time>2026-04-06T09:48:12.001Z</time></trkpt><trkpt lat="41.87552773927897" lon="12.823804756295901"><ele>257.0</ele><time>2026-04-06T09:48:13.001Z</time></trkpt><trkpt lat="41.875461444907046" lon="12.823957029405697"><ele>258.5</ele><time>2026-04-06T09:48:14.001Z</time></trkpt><trkpt lat="41.87539647402226" lon="12.824116546705403"><ele>260.0</ele><time>2026-04-06T09:48:15.001Z</time></trkpt><trkpt lat="41.87532497483699" lon="12.82427390554709"><ele>259.75</ele><time>2026-04-06T09:48:16.001Z</time></trkpt><trkpt lat="41.875242046043624" lon="12.82442478455132"><ele>259.5</ele><time>2026-04-06T09:48:17.001Z</time></trkpt><trkpt lat="41.87514718730546" lon="12.824564414052784"><ele>259.25</ele><time>2026-04-06T09:48:18.001Z</time></trkpt><trkpt lat="41.87504991016693" lon="12.82472161696002"><ele>259.0</ele><time>2026-04-06T09:48:19.001Z</time></trkpt><trkpt lat="41.87496011755877" lon="12.82486252237334"><ele>259.0</ele><time>2026-04-06T09:48:20.001Z</time></trkpt><trkpt lat="41.874875306709676" lon="12.825001803434356"><ele>259.0</ele><time>2026-04-06T09:48:21.001Z</time></trkpt><trkpt lat="41.87482018673905" lon="12.825095203478767"><ele>259.0</ele><time>2026-04-06T09:48:22.001Z</time></trkpt><trkpt lat="41.874801928029015" lon="12.825191817277808"><ele>259.0</ele><time>2026-04-06T09:48:23.001Z</time></trkpt><trkpt lat="41.87483051405494" lon="12.82530290828396"><ele>259.0</ele><time>2026-04-06T09:48:24.001Z</time></trkpt><trkpt lat="41.87489483992965" lon="12.825384794972768"><ele>261.0</ele><time>2026-04-06T09:48:25.001Z</time></trkpt><trkpt lat="41.874988791924345" lon="12.825424205089377"><ele>263.0</ele><time>2026-04-06T09:48:26.001Z</time></trkpt><trkpt lat="41.875089145458624" lon="12.825419380596527"><ele>265.0</ele><time>2026-04-06T09:48:27.001Z</time></trkpt><trkpt lat="41.875180251638085" lon="12.825350821884607"><ele>267.0</ele><time>2026-04-06T09:48:28.001Z</time></trkpt><trkpt lat="41.87527435991043" lon="12.825282508661783"><ele>269.0</ele><time>2026-04-06T09:48:29.001Z</time></trkpt><trkpt lat="41.875362717045306" lon="12.825216308368457"><ele>268.4</ele><time>2026-04-06T09:48:30.001Z</time></trkpt><trkpt lat="41.87544757736231" lon="12.8251313207465"><ele>267.79999999999995</ele><time>2026-04-06T09:48:31.001Z</time></trkpt><trkpt lat="41.87553692496032" lon="12.825097104205597"><ele>267.20000000000005</ele><time>2026-04-06T09:48:32.001Z</time></trkpt><trkpt lat="41.87561660962323" lon="12.825062151640163"><ele>266.6</ele><time>2026-04-06T09:48:33.001Z</time></trkpt><trkpt lat="41.87570501854948" lon="12.825056074227803"><ele>266.0</ele><time>2026-04-06T09:48:34.001Z</time></trkpt><trkpt lat="41.87580119666608" lon="12.825037301780851"><ele>266.0</ele><time>2026-04-06T09:48:35.001Z</time></trkpt><trkpt lat="41.87589017159167" lon="12.825062273762608"><ele>266.0</ele><time>2026-04-06T09:48:36.002Z</time></trkpt><trkpt lat="41.875970324004676" lon="12.825111019238326"><ele>266.0</ele><time>2026-04-06T09:48:37.002Z</time></trkpt><trkpt lat="41.87604510128432" lon="12.825188155147561"><ele>266.0</ele><time>2026-04-06T09:48:38.002Z</time></trkpt><trkpt lat="41.87611684620654" lon="12.825271639062118"><ele>266.0</ele><time>2026-04-06T09:48:39.002Z</time></trkpt><trkpt lat="41.876189689383224" lon="12.825361921787515"><ele>266.0</ele><time>2026-04-06T09:48:40.002Z</time></trkpt><trkpt lat="41.876268410455566" lon="12.825468934410056"><ele>266.0</ele><time>2026-04-06T09:48:41.002Z</time></trkpt><trkpt lat="41.87635442346051" lon="12.825608197616058"><ele>266.0</ele><time>2026-04-06T09:48:42.002Z</time></trkpt><trkpt lat="41.876427910621956" lon="12.825765770657785"><ele>266.0</ele><time>2026-04-06T09:48:43.002Z</time></trkpt><trkpt lat="41.87647441219856" lon="12.82592176132265"><ele>266.75</ele><time>2026-04-06T09:48:44.002Z</time></trkpt><trkpt lat="41.87650360490997" lon="12.826098923192117"><ele>267.5</ele><time>2026-04-06T09:48:45.002Z</time></trkpt><trkpt lat="41.876520147551915" lon="12.826288878098493"><ele>268.25</ele><time>2026-04-06T09:48:46.002Z</time></trkpt><trkpt lat="41.87653962138607" lon="12.826494626613552"><ele>269.0</ele><time>2026-04-06T09:48:47.002Z</time></trkpt><trkpt lat="41.87655985647401" lon="12.82667893884694"><ele>269.0</ele><time>2026-04-06T09:48:48.002Z</time></trkpt><trkpt lat="41.87657317999802" lon="12.82685334786131"><ele>269.0</ele><time>2026-04-06T09:48:49.002Z</time></trkpt><trkpt lat="41.87657552841561" lon="12.827033491463254"><ele>269.0</ele><time>2026-04-06T09:48:50.002Z</time></trkpt><trkpt lat="41.87655675725251" lon="12.827232776244694"><ele>269.0</ele><time>2026-04-06T09:48:51.002Z</time></trkpt><trkpt lat="41.87653124194405" lon="12.827477341829477"><ele>269.33333333333337</ele><time>2026-04-06T09:48:52.002Z</time></trkpt><trkpt lat="41.87650988475635" lon="12.827696264316858"><ele>269.6666666666667</ele><time>2026-04-06T09:48:53.002Z</time></trkpt><trkpt lat="41.87648607971359" lon="12.827902184115796"><ele>270.0</ele><time>2026-04-06T09:48:54.002Z</time></trkpt><trkpt lat="41.87646211901974" lon="12.828112715842781"><ele>270.0</ele><time>2026-04-06T09:48:55.002Z</time></trkpt><trkpt lat="41.87644034373964" lon="12.828329407530731"><ele>270.0</ele><time>2026-04-06T09:48:56.002Z</time></trkpt><trkpt lat="41.87641814337028" lon="12.828552974415478"><ele>270.0</ele><time>2026-04-06T09:48:57.002Z</time></trkpt><trkpt lat="41.876394674745406" lon="12.828774098411094"><ele>270.0</ele><time>2026-04-06T09:48:58.002Z</time></trkpt><trkpt lat="41.876367805611316" lon="12.82899696572071"><ele>270.0</ele><time>2026-04-06T09:48:59.002Z</time></trkpt><trkpt lat="41.87634092268654" lon="12.829212767511427"><ele>270.0</ele><time>2026-04-06T09:49:00.002Z</time></trkpt><trkpt lat="41.876315584972744" lon="12.829425509493483"><ele>270.6666666666667</ele><time>2026-04-06T09:49:01.002Z</time></trkpt><trkpt lat="41.87629275790309" lon="12.829640150996996"><ele>271.33333333333337</ele><time>2026-04-06T09:49:02.002Z</time></trkpt><trkpt lat="41.87627355135041" lon="12.82985085599023"><ele>272.0</ele><time>2026-04-06T09:49:03.002Z</time></trkpt><trkpt lat="41.87625198142809" lon="12.830062729965853"><ele>272.6666666666667</ele><time>2026-04-06T09:49:04.002Z</time></trkpt><trkpt lat="41.876241281199874" lon="12.830279099827068"><ele>273.3333333333333</ele><time>2026-04-06T09:49:05.002Z</time></trkpt><trkpt lat="41.876248549336744" lon="12.830506139967948"><ele>274.0</ele><time>2026-04-06T09:49:06.002Z</time></trkpt><trkpt lat="41.87626494792379" lon="12.830738166756381"><ele>274.0</ele><time>2026-04-06T09:49:07.002Z</time></trkpt><trkpt lat="41.87627209316667" lon="12.830972821527727"><ele>274.0</ele><time>2026-04-06T09:49:08.002Z</time></trkpt><trkpt lat="41.87629022447154" lon="12.831204342864032"><ele>274.0</ele><time>2026-04-06T09:49:09.002Z</time></trkpt><trkpt lat="41.87632646640946" lon="12.831447601963074"><ele>275.0</ele><time>2026-04-06T09:49:10.002Z</time></trkpt><trkpt lat="41.87633835698848" lon="12.83166522875677"><ele>276.0</ele><time>2026-04-06T09:49:11.002Z</time></trkpt><trkpt lat="41.87634982611256" lon="12.831889430628811"><ele>277.0</ele><time>2026-04-06T09:49:12.002Z</time></trkpt><trkpt lat="41.876367341005114" lon="12.832121231891735"><ele>278.3333333333333</ele><time>2026-04-06T09:49:13.002Z</time></trkpt><trkpt lat="41.876389514425824" lon="12.832356076641288"><ele>279.6666666666667</ele><time>2026-04-06T09:49:14.002Z</time></trkpt><trkpt lat="41.876407261607035" lon="12.832587070713895"><ele>281.0</ele><time>2026-04-06T09:49:15.002Z</time></trkpt><trkpt lat="41.876418986667595" lon="12.832820676604822"><ele>281.6666666666667</ele><time>2026-04-06T09:49:16.002Z</time></trkpt><trkpt lat="41.87643306708886" lon="12.833057511750187"><ele>282.3333333333333</ele><time>2026-04-06T09:49:17.002Z</time></trkpt><trkpt lat="41.87645018900688" lon="12.83329102344886"><ele>283.0</ele><time>2026-04-06T09:49:18.001Z</time></trkpt><trkpt lat="41.87646432704938" lon="12.833499434259851"><ele>283.0</ele><time>2026-04-06T09:49:19.001Z</time></trkpt><trkpt lat="41.87647482237222" lon="12.83370125008636"><ele>283.0</ele><time>2026-04-06T09:49:20.001Z</time></trkpt><trkpt lat="41.876487588914316" lon="12.833891711553669"><ele>283.0</ele><time>2026-04-06T09:49:21.001Z</time></trkpt><trkpt lat="41.87650152143266" lon="12.834062291796862"><ele>283.0</ele><time>2026-04-06T09:49:22.001Z</time></trkpt><trkpt lat="41.87652179187618" lon="12.834217827111544"><ele>283.0</ele><time>2026-04-06T09:49:23.001Z</time></trkpt><trkpt lat="41.876561810532486" lon="12.834361009515872"><ele>283.0</ele><time>2026-04-06T09:49:24.001Z</time></trkpt><trkpt lat="41.8766360289551" lon="12.834491182797072"><ele>283.0</ele><time>2026-04-06T09:49:25.001Z</time></trkpt><trkpt lat="41.876733421994395" lon="12.834603782128626"><ele>283.0</ele><time>2026-04-06T09:49:26Z</time></trkpt><trkpt lat="41.87684515490325" lon="12.834685335820593"><ele>281.0</ele><time>2026-04-06T09:49:27Z</time></trkpt><trkpt lat="41.876970728235" lon="12.834730412889037"><ele>279.0</ele><time>2026-04-06T09:49:28Z</time></trkpt><trkpt lat="41.87709754143867" lon="12.834731665485227"><ele>277.0</ele><time>2026-04-06T09:49:29Z</time></trkpt><trkpt lat="41.87721834051294" lon="12.834687194517874"><ele>275.0</ele><time>2026-04-06T09:49:30Z</time></trkpt><trkpt lat="41.877338038960815" lon="12.834615017394087"><ele>275.0</ele><time>2026-04-06T09:49:31Z</time></trkpt><trkpt lat="41.877445049020146" lon="12.834519011516962"><ele>275.0</ele><time>2026-04-06T09:49:32Z</time></trkpt><trkpt lat="41.87753695423962" lon="12.834422591984932"><ele>275.0</ele><time>2026-04-06T09:49:33Z</time></trkpt><trkpt lat="41.87762734094272" lon="12.834321548779092"><ele>275.0</ele><time>2026-04-06T09:49:34Z</time></trkpt><trkpt lat="41.877728620449965" lon="12.834209672997256"><ele>274.5</ele><time>2026-04-06T09:49:35Z</time></trkpt><trkpt lat="41.87783956979626" lon="12.834086831387138"><ele>274.0</ele><time>2026-04-06T09:49:36Z</time></trkpt><trkpt lat="41.87794225936605" lon="12.83397586530099"><ele>273.5</ele><time>2026-04-06T09:49:37Z</time></trkpt><trkpt lat="41.87804157666025" lon="12.833873080574499"><ele>273.0</ele><time>2026-04-06T09:49:38Z</time></trkpt><trkpt lat="41.878141117583645" lon="12.833778448819567"><ele>273.0</ele><time>2026-04-06T09:49:39Z</time></trkpt><trkpt lat="41.878223199585776" lon="12.833690604288256"><ele>273.0</ele><time>2026-04-06T09:49:40Z</time></trkpt><trkpt lat="41.87829924660145" lon="12.833613120719237"><ele>273.0</ele><time>2026-04-06T09:49:41Z</time></trkpt><trkpt lat="41.87837913875504" lon="12.833592842411717"><ele>273.0</ele><time>2026-04-06T09:49:42Z</time></trkpt><trkpt lat="41.878461094419784" lon="12.833646081177212"><ele>273.0</ele><time>2026-04-06T09:49:43Z</time></trkpt><trkpt lat="41.8784946866832" lon="12.833753467991032"><ele>273.0</ele><time>2026-04-06T09:49:44Z</time></trkpt><trkpt lat="41.87847121095762" lon="12.833876830521035"><ele>273.0</ele><time>2026-04-06T09:49:45Z</time></trkpt><trkpt lat="41.87840039698021" lon="12.833988741476253"><ele>273.0</ele><time>2026-04-06T09:49:46Z</time></trkpt><trkpt lat="41.87830599395236" lon="12.8340727928456"><ele>273.0</ele><time>2026-04-06T09:49:47Z</time></trkpt><trkpt lat="41.878213015693646" lon="12.834143072995781"><ele>273.0</ele><time>2026-04-06T09:49:48Z</time></trkpt><trkpt lat="41.87813448899502" lon="12.834216640110919"><ele>273.0</ele><time>2026-04-06T09:49:49Z</time></trkpt><trkpt lat="41.87805961677602" lon="12.834300747606443"><ele>273.0</ele><time>2026-04-06T09:49:50Z</time></trkpt><trkpt lat="41.877986235388775" lon="12.834397932925526"><ele>273.0</ele><time>2026-04-06T09:49:51Z</time></trkpt><trkpt lat="41.87791473477112" lon="12.834510042489812"><ele>273.0</ele><time>2026-04-06T09:49:52Z</time></trkpt><trkpt lat="41.87783414020827" lon="12.834622601244208"><ele>273.0</ele><time>2026-04-06T09:49:53Z</time></trkpt><trkpt lat="41.877746912003346" lon="12.834727514086593"><ele>273.5</ele><time>2026-04-06T09:49:54Z</time></trkpt><trkpt lat="41.877655944022415" lon="12.834830935733745"><ele>274.0</ele><time>2026-04-06T09:49:55Z</time></trkpt><trkpt lat="41.87755939028493" lon="12.834934621162311"><ele>274.5</ele><time>2026-04-06T09:49:56Z</time></trkpt><trkpt lat="41.87746673374665" lon="12.835043923116764"><ele>275.0</ele><time>2026-04-06T09:49:57Z</time></trkpt><trkpt lat="41.877368686494115" lon="12.835164215526667"><ele>270.5</ele><time>2026-04-06T09:49:58Z</time></trkpt><trkpt lat="41.87727509391604" lon="12.835273582099106"><ele>266.0</ele><time>2026-04-06T09:49:59Z</time></trkpt><trkpt lat="41.877175804002405" lon="12.835382670609373"><ele>261.5</ele><time>2026-04-06T09:50:00Z</time></trkpt><trkpt lat="41.877091725743796" lon="12.835490798759533"><ele>257.0</ele><time>2026-04-06T09:50:01Z</time></trkpt><trkpt lat="41.877017687885946" lon="12.83558534742018"><ele>257.0</ele><time>2026-04-06T09:50:02Z</time></trkpt><trkpt lat="41.8769568149966" lon="12.835682104285205"><ele>257.0</ele><time>2026-04-06T09:50:03Z</time></trkpt><trkpt lat="41.876928268260265" lon="12.835799049645265"><ele>257.0</ele><time>2026-04-06T09:50:04Z</time></trkpt><trkpt lat="41.87692337620578" lon="12.835933259559487"><ele>257.0</ele><time>2026-04-06T09:50:05Z</time></trkpt><trkpt lat="41.876903372940276" lon="12.83607525844078"><ele>257.0</ele><time>2026-04-06T09:50:06Z</time></trkpt><trkpt lat="41.87690655518225" lon="12.836230329380747"><ele>257.0</ele><time>2026-04-06T09:50:07Z</time></trkpt><trkpt lat="41.87688063767143" lon="12.836413439295855"><ele>257.0</ele><time>2026-04-06T09:50:08Z</time></trkpt><trkpt lat="41.87688512797165" lon="12.836597295725621"><ele>257.0</ele><time>2026-04-06T09:50:09Z</time></trkpt><trkpt lat="41.87687540100376" lon="12.836771410068087"><ele>257.0</ele><time>2026-04-06T09:50:10Z</time></trkpt><trkpt lat="41.87686100035249" lon="12.836938900045332"><ele>257.0</ele><time>2026-04-06T09:50:11Z</time></trkpt><trkpt lat="41.87683171545608" lon="12.837097150486784"><ele>257.0</ele><time>2026-04-06T09:50:12Z</time></trkpt><trkpt lat="41.876806733366244" lon="12.837248635453143"><ele>257.0</ele><time>2026-04-06T09:50:13Z</time></trkpt><trkpt lat="41.876788369027054" lon="12.837382623879144"><ele>257.0</ele><time>2026-04-06T09:50:14Z</time></trkpt><trkpt lat="41.87678574863128" lon="12.837515557439986"><ele>257.0</ele><time>2026-04-06T09:50:15Z</time></trkpt><trkpt lat="41.876814226337125" lon="12.837646112410384"><ele>257.8</ele><time>2026-04-06T09:50:16Z</time></trkpt><trkpt lat="41.87688327473197" lon="12.837759282611877"><ele>258.6</ele><time>2026-04-06T09:50:17Z</time></trkpt><trkpt lat="41.87695690416192" lon="12.83785768948069"><ele>259.40000000000003</ele><time>2026-04-06T09:50:18Z</time></trkpt><trkpt lat="41.87706007456439" lon="12.837891389962532"><ele>260.2</ele><time>2026-04-06T09:50:19Z</time></trkpt><trkpt lat="41.87715290306965" lon="12.837909630338531"><ele>261.0</ele><time>2026-04-06T09:50:20Z</time></trkpt><trkpt lat="41.877246167162774" lon="12.837826514886094"><ele>261.0</ele><time>2026-04-06T09:50:21Z</time></trkpt><trkpt lat="41.87731713494384" lon="12.837685224777996"><ele>261.0</ele><time>2026-04-06T09:50:22Z</time></trkpt><trkpt lat="41.87737842240098" lon="12.83750800504893"><ele>261.0</ele><time>2026-04-06T09:50:23Z</time></trkpt><trkpt lat="41.87744717444102" lon="12.837338031046484"><ele>261.0</ele><time>2026-04-06T09:50:24Z</time></trkpt><trkpt lat="41.87751114808734" lon="12.837186269058309"><ele>260.40000000000003</ele><time>2026-04-06T09:50:25Z</time></trkpt><trkpt lat="41.8775900650693" lon="12.837041203715348"><ele>259.8</ele><time>2026-04-06T09:50:26Z</time></trkpt><trkpt lat="41.877639582535366" lon="12.83694962252386"><ele>259.20000000000005</ele><time>2026-04-06T09:50:27Z</time></trkpt><trkpt lat="41.877694701132846" lon="12.836857347026815"><ele>258.6</ele><time>2026-04-06T09:50:28Z</time></trkpt><trkpt lat="41.87776227738394" lon="12.83681815611459"><ele>258.0</ele><time>2026-04-06T09:50:29Z</time></trkpt><trkpt lat="41.87782900230357" lon="12.836786955114501"><ele>258.0</ele><time>2026-04-06T09:50:30Z</time></trkpt><trkpt lat="41.87789231792708" lon="12.836779438465372"><ele>258.0</ele><time>2026-04-06T09:50:31Z</time></trkpt><trkpt lat="41.87795110936992" lon="12.836831086013373"><ele>258.0</ele><time>2026-04-06T09:50:32Z</time></trkpt><trkpt lat="41.877932711098204" lon="12.83711188764056"><ele>258.0</ele><time>2026-04-06T09:50:33Z</time></trkpt><trkpt lat="41.87788467915587" lon="12.83722047208886"><ele>258.0</ele><time>2026-04-06T09:50:34Z</time></trkpt><trkpt lat="41.87783280133511" lon="12.837341507264206"><ele>258.0</ele><time>2026-04-06T09:50:35Z</time></trkpt><trkpt lat="41.87775025968891" lon="12.837483973607563"><ele>258.0</ele><time>2026-04-06T09:50:36Z</time></trkpt><trkpt lat="41.87767352032391" lon="12.837635056406182"><ele>258.0</ele><time>2026-04-06T09:50:37Z</time></trkpt><trkpt lat="41.87758945805118" lon="12.837754176513906"><ele>258.0</ele><time>2026-04-06T09:50:38Z</time></trkpt><trkpt lat="41.8775175574742" lon="12.83788838001955"><ele>258.75</ele><time>2026-04-06T09:50:39Z</time></trkpt><trkpt lat="41.87745031011219" lon="12.838042497179952"><ele>259.5</ele><time>2026-04-06T09:50:40.001Z</time></trkpt><trkpt lat="41.877346111374045" lon="12.83820678249037"><ele>260.25</ele><time>2026-04-06T09:50:41.001Z</time></trkpt><trkpt lat="41.87726131321849" lon="12.838376265597098"><ele>261.0</ele><time>2026-04-06T09:50:42.001Z</time></trkpt><trkpt lat="41.877185501941604" lon="12.838557722848075"><ele>262.0</ele><time>2026-04-06T09:50:43.001Z</time></trkpt><trkpt lat="41.8771029170772" lon="12.838715116059127"><ele>263.0</ele><time>2026-04-06T09:50:44.001Z</time></trkpt><trkpt lat="41.8770263134792" lon="12.83887931789495"><ele>264.0</ele><time>2026-04-06T09:50:45.001Z</time></trkpt><trkpt lat="41.87694094166646" lon="12.839048903890415"><ele>265.0</ele><time>2026-04-06T09:50:46.001Z</time></trkpt><trkpt lat="41.876775628250414" lon="12.839385510044382"><ele>269.3333333333333</ele><time>2026-04-06T09:50:48.001Z</time></trkpt><trkpt lat="41.87669177003767" lon="12.839558415077382"><ele>273.6666666666667</ele><time>2026-04-06T09:50:49.001Z</time></trkpt><trkpt lat="41.87659633242101" lon="12.839749937763047"><ele>278.0</ele><time>2026-04-06T09:50:50.001Z</time></trkpt><trkpt lat="41.87649728004523" lon="12.839952532791166"><ele>282.33333333333337</ele><time>2026-04-06T09:50:51.001Z</time></trkpt><trkpt lat="41.876405612196564" lon="12.840139127323747"><ele>286.6666666666667</ele><time>2026-04-06T09:50:52.001Z</time></trkpt><trkpt lat="41.87632871107895" lon="12.84031625730823"><ele>291.0</ele><time>2026-04-06T09:50:53.001Z</time></trkpt><trkpt lat="41.8762466193462" lon="12.84049891919724"><ele>291.0</ele><time>2026-04-06T09:50:54.001Z</time></trkpt><trkpt lat="41.8761757485532" lon="12.840671171855163"><ele>291.0</ele><time>2026-04-06T09:50:55.001Z</time></trkpt><trkpt lat="41.87610011003725" lon="12.840860442355778"><ele>291.0</ele><time>2026-04-06T09:50:56.001Z</time></trkpt><trkpt lat="41.87602417926895" lon="12.841032237714634"><ele>290.0</ele><time>2026-04-06T09:50:57.001Z</time></trkpt><trkpt lat="41.87595674622393" lon="12.841203077586846"><ele>289.0</ele><time>2026-04-06T09:50:58.001Z</time></trkpt><trkpt lat="41.875886376579594" lon="12.841373540166023"><ele>288.0</ele><time>2026-04-06T09:50:59.001Z</time></trkpt><trkpt lat="41.875810701470854" lon="12.8415357588946"><ele>287.0</ele><time>2026-04-06T09:51:00.001Z</time></trkpt><trkpt lat="41.87572510404" lon="12.841697010552183"><ele>291.0</ele><time>2026-04-06T09:51:01.001Z</time></trkpt><trkpt lat="41.87562690316966" lon="12.841839834249908"><ele>295.0</ele><time>2026-04-06T09:51:02.001Z</time></trkpt><trkpt lat="41.8755283839897" lon="12.841992587693845"><ele>299.0</ele><time>2026-04-06T09:51:03.001Z</time></trkpt><trkpt lat="41.8754151804158" lon="12.842146567068314"><ele>299.0</ele><time>2026-04-06T09:51:04.001Z</time></trkpt><trkpt lat="41.87529985024922" lon="12.84229729916749"><ele>299.0</ele><time>2026-04-06T09:51:05.001Z</time></trkpt><trkpt lat="41.8751890516564" lon="12.842440917886032"><ele>299.0</ele><time>2026-04-06T09:51:06.001Z</time></trkpt><trkpt lat="41.87507601358726" lon="12.842580774299943"><ele>299.25</ele><time>2026-04-06T09:51:07.001Z</time></trkpt><trkpt lat="41.87497090427782" lon="12.842713535032672"><ele>299.5</ele><time>2026-04-06T09:51:08.001Z</time></trkpt><trkpt lat="41.874867831893226" lon="12.842844251145898"><ele>299.75</ele><time>2026-04-06T09:51:09.001Z</time></trkpt><trkpt lat="41.8747687509764" lon="12.842983734665532"><ele>300.0</ele><time>2026-04-06T09:51:10.001Z</time></trkpt><trkpt lat="41.87467601125791" lon="12.84313576685851"><ele>300.0</ele><time>2026-04-06T09:51:11.001Z</time></trkpt><trkpt lat="41.87459683396526" lon="12.843294938726267"><ele>300.0</ele><time>2026-04-06T09:51:12.001Z</time></trkpt><trkpt lat="41.874542029651" lon="12.843487557042794"><ele>300.0</ele><time>2026-04-06T09:51:13.001Z</time></trkpt><trkpt lat="41.87447944823216" lon="12.843680692213916"><ele>301.75</ele><time>2026-04-06T09:51:14.001Z</time></trkpt><trkpt lat="41.87441202479105" lon="12.843866951455581"><ele>303.5</ele><time>2026-04-06T09:51:15.001Z</time></trkpt><trkpt lat="41.87436701965972" lon="12.844035522943976"><ele>305.25</ele><time>2026-04-06T09:51:16.001Z</time></trkpt><trkpt lat="41.874328342162826" lon="12.844216060292688"><ele>307.0</ele><time>2026-04-06T09:51:17.001Z</time></trkpt><trkpt lat="41.87429177529727" lon="12.844389201863928"><ele>306.25</ele><time>2026-04-06T09:51:18.001Z</time></trkpt><trkpt lat="41.87424989191703" lon="12.844544231336888"><ele>305.5</ele><time>2026-04-06T09:51:19.001Z</time></trkpt><trkpt lat="41.87421099674843" lon="12.844679924201554"><ele>304.75</ele><time>2026-04-06T09:51:20.001Z</time></trkpt><trkpt lat="41.87414669186261" lon="12.844810641618105"><ele>304.0</ele><time>2026-04-06T09:51:21.001Z</time></trkpt><trkpt lat="41.87406001082852" lon="12.844898376139259"><ele>304.0</ele><time>2026-04-06T09:51:22.001Z</time></trkpt><trkpt lat="41.87394683050039" lon="12.84490112261836"><ele>304.0</ele><time>2026-04-06T09:51:23.001Z</time></trkpt><trkpt lat="41.87383138214767" lon="12.844926205824816"><ele>304.0</ele><time>2026-04-06T09:51:24Z</time></trkpt><trkpt lat="41.87371956784424" lon="12.844913296898442"><ele>304.0</ele><time>2026-04-06T09:51:25Z</time></trkpt><trkpt lat="41.8735905617782" lon="12.84493929617191"><ele>304.0</ele><time>2026-04-06T09:51:26Z</time></trkpt><trkpt lat="41.873473151934384" lon="12.844994365610857"><ele>304.0</ele><time>2026-04-06T09:51:27Z</time></trkpt><trkpt lat="41.87336514899059" lon="12.845074056992427"><ele>304.0</ele><time>2026-04-06T09:51:28Z</time></trkpt><trkpt lat="41.873253944989436" lon="12.845201923619909"><ele>304.0</ele><time>2026-04-06T09:51:29Z</time></trkpt><trkpt lat="41.87314362356469" lon="12.845328382248903"><ele>304.2</ele><time>2026-04-06T09:51:30Z</time></trkpt><trkpt lat="41.87307944857888" lon="12.845452996153359"><ele>304.4</ele><time>2026-04-06T09:51:31Z</time></trkpt><trkpt lat="41.8730181507932" lon="12.845585892459534"><ele>304.6</ele><time>2026-04-06T09:51:32Z</time></trkpt><trkpt lat="41.87297058309275" lon="12.845695747800187"><ele>304.8</ele><time>2026-04-06T09:51:33Z</time></trkpt><trkpt lat="41.872945837727" lon="12.845795747067735"><ele>305.0</ele><time>2026-04-06T09:51:34Z</time></trkpt><trkpt lat="41.872952513163455" lon="12.845906817866538"><ele>304.6</ele><time>2026-04-06T09:51:35Z</time></trkpt><trkpt lat="41.872996247124874" lon="12.846005915110444"><ele>304.2</ele><time>2026-04-06T09:51:36Z</time></trkpt><trkpt lat="41.87307020276555" lon="12.846090148724011"><ele>303.8</ele><time>2026-04-06T09:51:37Z</time></trkpt><trkpt lat="41.87317499077279" lon="12.84617109333642"><ele>303.4</ele><time>2026-04-06T09:51:38Z</time></trkpt><trkpt lat="41.87330182741463" lon="12.846266561736998"><ele>303.0</ele><time>2026-04-06T09:51:39Z</time></trkpt><trkpt lat="41.87340744932811" lon="12.846353784851582"><ele>305.8</ele><time>2026-04-06T09:51:40Z</time></trkpt><trkpt lat="41.87350601020282" lon="12.846430587993801"><ele>308.6</ele><time>2026-04-06T09:51:41Z</time></trkpt><trkpt lat="41.87359160655842" lon="12.846487377727275"><ele>311.4</ele><time>2026-04-06T09:51:42Z</time></trkpt><trkpt lat="41.8736627739281" lon="12.846553013379491"><ele>314.2</ele><time>2026-04-06T09:51:43Z</time></trkpt><trkpt lat="41.87370893011657" lon="12.84665308168984"><ele>317.0</ele><time>2026-04-06T09:51:44Z</time></trkpt><trkpt lat="41.87372584554678" lon="12.84678711393179"><ele>317.75</ele><time>2026-04-06T09:51:45Z</time></trkpt><trkpt lat="41.87371730504382" lon="12.846940158583443"><ele>318.5</ele><time>2026-04-06T09:51:46Z</time></trkpt><trkpt lat="41.87367302782934" lon="12.847101486973818"><ele>319.25</ele><time>2026-04-06T09:51:47Z</time></trkpt><trkpt lat="41.873614887667" lon="12.847264909677511"><ele>320.0</ele><time>2026-04-06T09:51:48Z</time></trkpt><trkpt lat="41.87357241991703" lon="12.847414208057923"><ele>320.0</ele><time>2026-04-06T09:51:49Z</time></trkpt><trkpt lat="41.8735580736507" lon="12.847577992511004"><ele>320.0</ele><time>2026-04-06T09:51:50Z</time></trkpt><trkpt lat="41.87357135544609" lon="12.847709179166754"><ele>320.0</ele><time>2026-04-06T09:51:51Z</time></trkpt><trkpt lat="41.87358254032691" lon="12.847858226881446"><ele>320.0</ele><time>2026-04-06T09:51:52Z</time></trkpt><trkpt lat="41.87360165501779" lon="12.848011950998517"><ele>320.0</ele><time>2026-04-06T09:51:53Z</time></trkpt><trkpt lat="41.87362841945565" lon="12.848179633748103"><ele>320.6</ele><time>2026-04-06T09:51:54Z</time></trkpt><trkpt lat="41.873655854178864" lon="12.84833242824309"><ele>321.2</ele><time>2026-04-06T09:51:55Z</time></trkpt><trkpt lat="41.8736741954425" lon="12.84847628680387"><ele>321.79999999999995</ele><time>2026-04-06T09:51:56Z</time></trkpt><trkpt lat="41.87369238138562" lon="12.848603154035487"><ele>322.4</ele><time>2026-04-06T09:51:57Z</time></trkpt><trkpt lat="41.873709874358255" lon="12.848737497016275"><ele>323.0</ele><time>2026-04-06T09:51:58Z</time></trkpt><trkpt lat="41.8737268302595" lon="12.8488884225149"><ele>323.0</ele><time>2026-04-06T09:51:59Z</time></trkpt><trkpt lat="41.87373848811585" lon="12.849030517845883"><ele>323.0</ele><time>2026-04-06T09:52:00Z</time></trkpt><trkpt lat="41.873751533522196" lon="12.84916158978947"><ele>323.0</ele><time>2026-04-06T09:52:01Z</time></trkpt><trkpt lat="41.87376007743065" lon="12.84929232323239"><ele>323.0</ele><time>2026-04-06T09:52:02Z</time></trkpt><trkpt lat="41.87374478983102" lon="12.849433737795053"><ele>323.0</ele><time>2026-04-06T09:52:03Z</time></trkpt><trkpt lat="41.87369281693329" lon="12.849575396404548"><ele>323.75</ele><time>2026-04-06T09:52:04Z</time></trkpt><trkpt lat="41.873631073107454" lon="12.849711816588508"><ele>324.5</ele><time>2026-04-06T09:52:05Z</time></trkpt><trkpt lat="41.87356252516886" lon="12.849848487766451"><ele>325.25</ele><time>2026-04-06T09:52:06Z</time></trkpt><trkpt lat="41.873497707598425" lon="12.849991302365817"><ele>326.0</ele><time>2026-04-06T09:52:07Z</time></trkpt><trkpt lat="41.87343773378468" lon="12.850154312270206"><ele>323.25</ele><time>2026-04-06T09:52:08Z</time></trkpt><trkpt lat="41.8733798924386" lon="12.850330004475982"><ele>320.5</ele><time>2026-04-06T09:52:09Z</time></trkpt><trkpt lat="41.87332026983281" lon="12.850513417700398"><ele>317.75</ele><time>2026-04-06T09:52:10Z</time></trkpt><trkpt lat="41.87327987977458" lon="12.850698034789636"><ele>315.0</ele><time>2026-04-06T09:52:11Z</time></trkpt><trkpt lat="41.87325198050701" lon="12.850870077381774"><ele>315.75</ele><time>2026-04-06T09:52:12Z</time></trkpt><trkpt lat="41.87323007370741" lon="12.851049305373524"><ele>316.5</ele><time>2026-04-06T09:52:13Z</time></trkpt><trkpt lat="41.87321110348148" lon="12.851243800716484"><ele>317.25</ele><time>2026-04-06T09:52:14Z</time></trkpt><trkpt lat="41.873195150727106" lon="12.85142350794152"><ele>318.0</ele><time>2026-04-06T09:52:15Z</time></trkpt><trkpt lat="41.87318174404014" lon="12.851584848694266"><ele>318.0</ele><time>2026-04-06T09:52:16Z</time></trkpt><trkpt lat="41.873168253237075" lon="12.851737200961884"><ele>318.0</ele><time>2026-04-06T09:52:17Z</time></trkpt><trkpt lat="41.873165913092976" lon="12.851892855095134"><ele>318.0</ele><time>2026-04-06T09:52:18Z</time></trkpt><trkpt lat="41.873182605077425" lon="12.852042202699447"><ele>318.0</ele><time>2026-04-06T09:52:19Z</time></trkpt><trkpt lat="41.873231744117966" lon="12.85218462923057"><ele>317.75</ele><time>2026-04-06T09:52:20Z</time></trkpt><trkpt lat="41.87331014552451" lon="12.852309089191468"><ele>317.5</ele><time>2026-04-06T09:52:21Z</time></trkpt><trkpt lat="41.87340453073218" lon="12.85242024743377"><ele>317.25</ele><time>2026-04-06T09:52:22Z</time></trkpt><trkpt lat="41.873499190972424" lon="12.85252157193307"><ele>317.0</ele><time>2026-04-06T09:52:23Z</time></trkpt><trkpt lat="41.873592124810465" lon="12.852623085108876"><ele>317.75</ele><time>2026-04-06T09:52:24Z</time></trkpt><trkpt lat="41.873701948069915" lon="12.852716597292925"><ele>318.5</ele><time>2026-04-06T09:52:25Z</time></trkpt><trkpt lat="41.87382923373269" lon="12.852800219871753"><ele>319.25</ele><time>2026-04-06T09:52:26Z</time></trkpt><trkpt lat="41.873946872103" lon="12.852872769792722"><ele>320.0</ele><time>2026-04-06T09:52:27Z</time></trkpt><trkpt lat="41.874058836251855" lon="12.852946883169784"><ele>320.0</ele><time>2026-04-06T09:52:28Z</time></trkpt><trkpt lat="41.87418032554121" lon="12.853024399371035"><ele>320.0</ele><time>2026-04-06T09:52:29Z</time></trkpt><trkpt lat="41.87430508639664" lon="12.853100317384856"><ele>320.0</ele><time>2026-04-06T09:52:30Z</time></trkpt><trkpt lat="41.87443132124508" lon="12.853187494753637"><ele>320.0</ele><time>2026-04-06T09:52:31Z</time></trkpt><trkpt lat="41.87456687725974" lon="12.853285670368304"><ele>320.6666666666667</ele><time>2026-04-06T09:52:32Z</time></trkpt><trkpt lat="41.87471304020196" lon="12.85337541820467"><ele>321.3333333333333</ele><time>2026-04-06T09:52:33Z</time></trkpt><trkpt lat="41.87484383288338" lon="12.853461444374563"><ele>322.0</ele><time>2026-04-06T09:52:34Z</time></trkpt><trkpt lat="41.874981817203405" lon="12.853552744090162"><ele>322.5</ele><time>2026-04-06T09:52:35Z</time></trkpt><trkpt lat="41.87511480136308" lon="12.853640546443819"><ele>323.0</ele><time>2026-04-06T09:52:36Z</time></trkpt><trkpt lat="41.87521089515701" lon="12.853729474251246"><ele>323.5</ele><time>2026-04-06T09:52:37Z</time></trkpt><trkpt lat="41.875329178547325" lon="12.853801078348111"><ele>324.0</ele><time>2026-04-06T09:52:38Z</time></trkpt><trkpt lat="41.87542396594514" lon="12.853868512715703"><ele>324.0</ele><time>2026-04-06T09:52:39Z</time></trkpt><trkpt lat="41.87553214489309" lon="12.853925495312831"><ele>324.0</ele><time>2026-04-06T09:52:40Z</time></trkpt><trkpt lat="41.875627892309154" lon="12.853984351535377"><ele>324.0</ele><time>2026-04-06T09:52:41Z</time></trkpt><trkpt lat="41.87574078100192" lon="12.854017931417424"><ele>324.0</ele><time>2026-04-06T09:52:42Z</time></trkpt><trkpt lat="41.87585789991993" lon="12.854040681245973"><ele>324.75</ele><time>2026-04-06T09:52:43Z</time></trkpt><trkpt lat="41.87597061571356" lon="12.85404077439266"><ele>325.5</ele><time>2026-04-06T09:52:44Z</time></trkpt><trkpt lat="41.87608054073437" lon="12.85401092938735"><ele>326.25</ele><time>2026-04-06T09:52:45.001Z</time></trkpt><trkpt lat="41.87618699050044" lon="12.853941939452389"><ele>327.0</ele><time>2026-04-06T09:52:46.001Z</time></trkpt><trkpt lat="41.876285052199556" lon="12.853843996501402"><ele>327.0</ele><time>2026-04-06T09:52:47.001Z</time></trkpt><trkpt lat="41.87637756201621" lon="12.853721228101294"><ele>327.0</ele><time>2026-04-06T09:52:48.001Z</time></trkpt><trkpt lat="41.87648075891076" lon="12.853639308770182"><ele>327.0</ele><time>2026-04-06T09:52:49.001Z</time></trkpt><trkpt lat="41.876581826271696" lon="12.853551612107697"><ele>327.0</ele><time>2026-04-06T09:52:50.001Z</time></trkpt><trkpt lat="41.87668319899309" lon="12.85347730904351"><ele>322.8</ele><time>2026-04-06T09:52:51.001Z</time></trkpt><trkpt lat="41.87678103746036" lon="12.853396342618325"><ele>318.6</ele><time>2026-04-06T09:52:52.001Z</time></trkpt><trkpt lat="41.87687872635495" lon="12.853360488373426"><ele>314.40000000000003</ele><time>2026-04-06T09:52:53.001Z</time></trkpt><trkpt lat="41.876977299930545" lon="12.853346807568746"><ele>310.20000000000005</ele><time>2026-04-06T09:52:54.001Z</time></trkpt><trkpt lat="41.87707147609948" lon="12.853363433538771"><ele>306.0</ele><time>2026-04-06T09:52:55.001Z</time></trkpt><trkpt lat="41.87715278784305" lon="12.853419393109542"><ele>307.2</ele><time>2026-04-06T09:52:56.001Z</time></trkpt><trkpt lat="41.87722293835748" lon="12.853485168176567"><ele>308.40000000000003</ele><time>2026-04-06T09:52:57.001Z</time></trkpt><trkpt lat="41.877281960268704" lon="12.853578363692227"><ele>309.6</ele><time>2026-04-06T09:52:58.001Z</time></trkpt><trkpt lat="41.87732037737223" lon="12.853690649418509"><ele>310.8</ele><time>2026-04-06T09:52:59.001Z</time></trkpt><trkpt lat="41.87733256374092" lon="12.853818535456398"><ele>312.0</ele><time>2026-04-06T09:53:00.001Z</time></trkpt><trkpt lat="41.87735357859599" lon="12.85397136952552"><ele>312.0</ele><time>2026-04-06T09:53:01.001Z</time></trkpt><trkpt lat="41.87736425760523" lon="12.854126509091444"><ele>312.0</ele><time>2026-04-06T09:53:02.001Z</time></trkpt><trkpt lat="41.87737460527903" lon="12.854276717640875"><ele>312.0</ele><time>2026-04-06T09:53:03.001Z</time></trkpt><trkpt lat="41.87738150813342" lon="12.854423153695624"><ele>312.0</ele><time>2026-04-06T09:53:04.001Z</time></trkpt><trkpt lat="41.87740099972016" lon="12.854561836839116"><ele>312.0</ele><time>2026-04-06T09:53:05.001Z</time></trkpt><trkpt lat="41.8774355271566" lon="12.854691642736828"><ele>312.4</ele><time>2026-04-06T09:53:06.001Z</time></trkpt><trkpt lat="41.877492505530164" lon="12.854793991838742"><ele>312.79999999999995</ele><time>2026-04-06T09:53:07.001Z</time></trkpt><trkpt lat="41.87757920661932" lon="12.85486430957027"><ele>313.2</ele><time>2026-04-06T09:53:08.001Z</time></trkpt><trkpt lat="41.87767875393212" lon="12.85491746283485"><ele>313.59999999999997</ele><time>2026-04-06T09:53:09.001Z</time></trkpt><trkpt lat="41.87780774807447" lon="12.85497220280663"><ele>314.0</ele><time>2026-04-06T09:53:10.001Z</time></trkpt><trkpt lat="41.877944211904385" lon="12.855023066565408"><ele>313.25</ele><time>2026-04-06T09:53:11.001Z</time></trkpt><trkpt lat="41.87806447138546" lon="12.855080601431744"><ele>312.5</ele><time>2026-04-06T09:53:12.001Z</time></trkpt><trkpt lat="41.87818670455313" lon="12.855142003273093"><ele>311.75</ele><time>2026-04-06T09:53:13.001Z</time></trkpt><trkpt lat="41.87831733884062" lon="12.85519670495281"><ele>311.0</ele><time>2026-04-06T09:53:14.001Z</time></trkpt><trkpt lat="41.87843408518758" lon="12.855256455670792"><ele>308.75</ele><time>2026-04-06T09:53:15.001Z</time></trkpt><trkpt lat="41.878545794711535" lon="12.855319138022818"><ele>306.5</ele><time>2026-04-06T09:53:16.001Z</time></trkpt><trkpt lat="41.87865246129539" lon="12.85538309416559"><ele>304.25</ele><time>2026-04-06T09:53:17.001Z</time></trkpt><trkpt lat="41.878761182374774" lon="12.85544821314398"><ele>302.0</ele><time>2026-04-06T09:53:18.001Z</time></trkpt><trkpt lat="41.8788686049582" lon="12.855492773878114"><ele>302.0</ele><time>2026-04-06T09:53:19.001Z</time></trkpt><trkpt lat="41.87897056529192" lon="12.85552180123564"><ele>302.0</ele><time>2026-04-06T09:53:20.001Z</time></trkpt><trkpt lat="41.87906302422055" lon="12.855569334434993"><ele>302.0</ele><time>2026-04-06T09:53:21.001Z</time></trkpt><trkpt lat="41.87915113932389" lon="12.8556055871608"><ele>302.0</ele><time>2026-04-06T09:53:22.001Z</time></trkpt><trkpt lat="41.879228314947525" lon="12.85563775621249"><ele>302.0</ele><time>2026-04-06T09:53:23.001Z</time></trkpt><trkpt lat="41.87928865727404" lon="12.85566195270917"><ele>302.0</ele><time>2026-04-06T09:53:24.001Z</time></trkpt><trkpt lat="41.87938431409299" lon="12.85572384390719"><ele>302.2</ele><time>2026-04-06T09:53:26.001Z</time></trkpt><trkpt lat="41.879446237967834" lon="12.855748592107615"><ele>302.4</ele><time>2026-04-06T09:53:28.001Z</time></trkpt><trkpt lat="41.8794723922225" lon="12.855939381384815"><ele>302.6</ele><time>2026-04-06T09:53:31Z</time></trkpt><trkpt lat="41.879452405915124" lon="12.856108683482713"><ele>302.8</ele><time>2026-04-06T09:53:33Z</time></trkpt><trkpt lat="41.87944342960827" lon="12.85621367608686"><ele>303.0</ele><time>2026-04-06T09:53:34Z</time></trkpt><trkpt lat="41.87943662279317" lon="12.856342378508813"><ele>303.0</ele><time>2026-04-06T09:53:35Z</time></trkpt><trkpt lat="41.8794245813498" lon="12.856460501987868"><ele>303.0</ele><time>2026-04-06T09:53:36Z</time></trkpt><trkpt lat="41.87941091067871" lon="12.856582419406301"><ele>303.0</ele><time>2026-04-06T09:53:37Z</time></trkpt><trkpt lat="41.87940412032038" lon="12.856715853017038"><ele>303.0</ele><time>2026-04-06T09:53:38Z</time></trkpt><trkpt lat="41.879397775784795" lon="12.856844340333023"><ele>303.0</ele><time>2026-04-06T09:53:39Z</time></trkpt><trkpt lat="41.879388686568035" lon="12.856964619853342"><ele>303.4</ele><time>2026-04-06T09:53:40Z</time></trkpt><trkpt lat="41.87937603496" lon="12.85708511307587"><ele>303.8</ele><time>2026-04-06T09:53:41Z</time></trkpt><trkpt lat="41.87936810284154" lon="12.85724484936822"><ele>304.2</ele><time>2026-04-06T09:53:42Z</time></trkpt><trkpt lat="41.879367576062116" lon="12.857392456448983"><ele>304.6</ele><time>2026-04-06T09:53:43Z</time></trkpt><trkpt lat="41.87938393660791" lon="12.857532942770975"><ele>305.0</ele><time>2026-04-06T09:53:44Z</time></trkpt><trkpt lat="41.879424467111164" lon="12.857690606995995"><ele>305.5</ele><time>2026-04-06T09:53:45Z</time></trkpt><trkpt lat="41.87951598543568" lon="12.857820944690587"><ele>306.0</ele><time>2026-04-06T09:53:46Z</time></trkpt><trkpt lat="41.87956662840517" lon="12.857915457751472"><ele>306.5</ele><time>2026-04-06T09:53:47Z</time></trkpt><trkpt lat="41.879688419201436" lon="12.85800798884305"><ele>307.0</ele><time>2026-04-06T09:53:48Z</time></trkpt><trkpt lat="41.87980426280404" lon="12.858113310618139"><ele>307.0</ele><time>2026-04-06T09:53:49Z</time></trkpt><trkpt lat="41.879920392951945" lon="12.858228322292437"><ele>307.0</ele><time>2026-04-06T09:53:50Z</time></trkpt><trkpt lat="41.88003368169067" lon="12.858341223623897"><ele>307.0</ele><time>2026-04-06T09:53:51Z</time></trkpt><trkpt lat="41.88014392325566" lon="12.85845644263849"><ele>307.0</ele><time>2026-04-06T09:53:52Z</time></trkpt><trkpt lat="41.88025526183604" lon="12.858569915231246"><ele>310.0</ele><time>2026-04-06T09:53:53Z</time></trkpt><trkpt lat="41.88036315151987" lon="12.858678510584035"><ele>313.0</ele><time>2026-04-06T09:53:54Z</time></trkpt><trkpt lat="41.88047112363328" lon="12.858785688691842"><ele>316.0</ele><time>2026-04-06T09:53:55Z</time></trkpt><trkpt lat="41.880578800737325" lon="12.858902157253118"><ele>319.0</ele><time>2026-04-06T09:53:56Z</time></trkpt><trkpt lat="41.88067882316651" lon="12.859011053705087"><ele>319.0</ele><time>2026-04-06T09:53:57Z</time></trkpt><trkpt lat="41.88077865723818" lon="12.859106931694308"><ele>319.0</ele><time>2026-04-06T09:53:58Z</time></trkpt><trkpt lat="41.88089006723614" lon="12.859214588504951"><ele>319.0</ele><time>2026-04-06T09:53:59Z</time></trkpt><trkpt lat="41.880985042473114" lon="12.859312031699393"><ele>319.0</ele><time>2026-04-06T09:54:00Z</time></trkpt><trkpt lat="41.88106687600427" lon="12.85941339015021"><ele>325.5</ele><time>2026-04-06T09:54:01Z</time></trkpt><trkpt lat="41.88114327717434" lon="12.859545045019063"><ele>332.0</ele><time>2026-04-06T09:54:02Z</time></trkpt><trkpt lat="41.881166805830254" lon="12.859722014525378"><ele>338.5</ele><time>2026-04-06T09:54:03Z</time></trkpt><trkpt lat="41.881192366330545" lon="12.85990147596467"><ele>345.0</ele><time>2026-04-06T09:54:04Z</time></trkpt><trkpt lat="41.881212472748906" lon="12.860101162109327"><ele>343.6666666666667</ele><time>2026-04-06T09:54:05Z</time></trkpt><trkpt lat="41.88123288064541" lon="12.860338268629604"><ele>342.33333333333337</ele><time>2026-04-06T09:54:06Z</time></trkpt><trkpt lat="41.881250009361786" lon="12.86057468474746"><ele>341.0</ele><time>2026-04-06T09:54:07Z</time></trkpt><trkpt lat="41.88126336383064" lon="12.86076575421184"><ele>341.0</ele><time>2026-04-06T09:54:08Z</time></trkpt><trkpt lat="41.88126220907862" lon="12.860939915393393"><ele>341.0</ele><time>2026-04-06T09:54:09Z</time></trkpt><trkpt lat="41.8813042651387" lon="12.861072818767239"><ele>341.0</ele><time>2026-04-06T09:54:10Z</time></trkpt><trkpt lat="41.88136753769798" lon="12.861168882246842"><ele>341.0</ele><time>2026-04-06T09:54:11Z</time></trkpt><trkpt lat="41.88145559836844" lon="12.861240880100027"><ele>341.0</ele><time>2026-04-06T09:54:12Z</time></trkpt><trkpt lat="41.88157852243075" lon="12.861297976839435"><ele>339.25</ele><time>2026-04-06T09:54:13Z</time></trkpt><trkpt lat="41.88171512174332" lon="12.861360034412538"><ele>337.5</ele><time>2026-04-06T09:54:14Z</time></trkpt><trkpt lat="41.88182058835926" lon="12.861433195468937"><ele>335.75</ele><time>2026-04-06T09:54:15Z</time></trkpt><trkpt lat="41.8819357841569" lon="12.861500373605958"><ele>334.0</ele><time>2026-04-06T09:54:16Z</time></trkpt><trkpt lat="41.88202437310662" lon="12.861604705335974"><ele>337.4</ele><time>2026-04-06T09:54:17Z</time></trkpt><trkpt lat="41.8821054371871" lon="12.861699277067014"><ele>340.79999999999995</ele><time>2026-04-06T09:54:18Z</time></trkpt><trkpt lat="41.88214799301755" lon="12.861810447566704"><ele>344.20000000000005</ele><time>2026-04-06T09:54:19Z</time></trkpt><trkpt lat="41.88216434149171" lon="12.861930525281945"><ele>347.6</ele><time>2026-04-06T09:54:20Z</time></trkpt><trkpt lat="41.88214939916237" lon="12.862068237940095"><ele>351.0</ele><time>2026-04-06T09:54:21Z</time></trkpt><trkpt lat="41.882097697291464" lon="12.862199374746718"><ele>351.5</ele><time>2026-04-06T09:54:22Z</time></trkpt><trkpt lat="41.882046287472406" lon="12.862368299781785"><ele>352.0</ele><time>2026-04-06T09:54:23Z</time></trkpt><trkpt lat="41.881961285645474" lon="12.862544524241919"><ele>352.5</ele><time>2026-04-06T09:54:24Z</time></trkpt><trkpt lat="41.88190335679899" lon="12.862697757727208"><ele>353.0</ele><time>2026-04-06T09:54:25Z</time></trkpt><trkpt lat="41.8818753472308" lon="12.862865473598646"><ele>353.5</ele><time>2026-04-06T09:54:26Z</time></trkpt><trkpt lat="41.881859753217576" lon="12.863022360384873"><ele>354.0</ele><time>2026-04-06T09:54:27Z</time></trkpt><trkpt lat="41.881867583337936" lon="12.863190430232736"><ele>354.5</ele><time>2026-04-06T09:54:28Z</time></trkpt><trkpt lat="41.881902891345874" lon="12.86334772181717"><ele>355.0</ele><time>2026-04-06T09:54:29Z</time></trkpt><trkpt lat="41.88194728851174" lon="12.863476702342655"><ele>353.4</ele><time>2026-04-06T09:54:30Z</time></trkpt><trkpt lat="41.88200564998224" lon="12.863589602994319"><ele>351.8</ele><time>2026-04-06T09:54:31Z</time></trkpt><trkpt lat="41.88208412776259" lon="12.863696198548388"><ele>350.20000000000005</ele><time>2026-04-06T09:54:32Z</time></trkpt><trkpt lat="41.88217916231809" lon="12.863791336530916"><ele>348.6</ele><time>2026-04-06T09:54:33Z</time></trkpt><trkpt lat="41.88228140568498" lon="12.863867704946388"><ele>347.0</ele><time>2026-04-06T09:54:34Z</time></trkpt><trkpt lat="41.88238048651373" lon="12.863923014369123"><ele>347.0</ele><time>2026-04-06T09:54:35Z</time></trkpt><trkpt lat="41.88247797541217" lon="12.863963798449454"><ele>347.0</ele><time>2026-04-06T09:54:36Z</time></trkpt><trkpt lat="41.88257035090118" lon="12.863992731164801"><ele>347.0</ele><time>2026-04-06T09:54:37Z</time></trkpt><trkpt lat="41.88267947836978" lon="12.864002008419297"><ele>347.0</ele><time>2026-04-06T09:54:38Z</time></trkpt><trkpt lat="41.88279815406558" lon="12.864018212099491"><ele>347.0</ele><time>2026-04-06T09:54:39Z</time></trkpt><trkpt lat="41.8828976914993" lon="12.864047961390119"><ele>347.5</ele><time>2026-04-06T09:54:40Z</time></trkpt><trkpt lat="41.88297929841662" lon="12.864150415249798"><ele>348.0</ele><time>2026-04-06T09:54:41Z</time></trkpt><trkpt lat="41.88305872971964" lon="12.864271641526761"><ele>348.5</ele><time>2026-04-06T09:54:42Z</time></trkpt><trkpt lat="41.88312027103233" lon="12.864434618233012"><ele>349.0</ele><time>2026-04-06T09:54:43Z</time></trkpt><trkpt lat="41.88317644393142" lon="12.864629900045875"><ele>349.0</ele><time>2026-04-06T09:54:44Z</time></trkpt><trkpt lat="41.8832388296731" lon="12.864780747586464"><ele>349.0</ele><time>2026-04-06T09:54:45Z</time></trkpt><trkpt lat="41.883312366532024" lon="12.86491929961047"><ele>349.0</ele><time>2026-04-06T09:54:46Z</time></trkpt><trkpt lat="41.88343755630537" lon="12.865017359018116"><ele>349.0</ele><time>2026-04-06T09:54:47Z</time></trkpt><trkpt lat="41.883575851910656" lon="12.865127654297835"><ele>350.66666666666663</ele><time>2026-04-06T09:54:48Z</time></trkpt><trkpt lat="41.883734356780884" lon="12.865260422981116"><ele>352.3333333333333</ele><time>2026-04-06T09:54:49Z</time></trkpt><trkpt lat="41.88390924384651" lon="12.865379813306046"><ele>354.0</ele><time>2026-04-06T09:54:50Z</time></trkpt><trkpt lat="41.88405776056804" lon="12.865478581727638"><ele>354.0</ele><time>2026-04-06T09:54:51Z</time></trkpt><trkpt lat="41.88419725049198" lon="12.865556107665089"><ele>354.0</ele><time>2026-04-06T09:54:52Z</time></trkpt><trkpt lat="41.884322121140634" lon="12.865634060833578"><ele>354.0</ele><time>2026-04-06T09:54:53.001Z</time></trkpt><trkpt lat="41.884423348207264" lon="12.865745281011092"><ele>354.0</ele><time>2026-04-06T09:54:54.001Z</time></trkpt><trkpt lat="41.88452674686565" lon="12.865867484772357"><ele>354.6666666666667</ele><time>2026-04-06T09:54:55.001Z</time></trkpt><trkpt lat="41.88466201689089" lon="12.866005458061364"><ele>355.33333333333337</ele><time>2026-04-06T09:54:56.001Z</time></trkpt><trkpt lat="41.88477994966108" lon="12.866147986341945"><ele>356.0</ele><time>2026-04-06T09:54:57.001Z</time></trkpt><trkpt lat="41.884894956984446" lon="12.866259636400779"><ele>356.0</ele><time>2026-04-06T09:54:58.001Z</time></trkpt><trkpt lat="41.88502449340046" lon="12.86634746554562"><ele>356.0</ele><time>2026-04-06T09:54:59.001Z</time></trkpt><trkpt lat="41.8851300036935" lon="12.866410747518087"><ele>356.0</ele><time>2026-04-06T09:55:00.001Z</time></trkpt><trkpt lat="41.88523990230694" lon="12.866545257739041"><ele>356.0</ele><time>2026-04-06T09:55:01.001Z</time></trkpt><trkpt lat="41.8853535595909" lon="12.866695823340745"><ele>357.0</ele><time>2026-04-06T09:55:02.001Z</time></trkpt><trkpt lat="41.88548229489072" lon="12.86684751019028"><ele>358.0</ele><time>2026-04-06T09:55:03.001Z</time></trkpt><trkpt lat="41.88557935289111" lon="12.866987782521594"><ele>359.0</ele><time>2026-04-06T09:55:04.001Z</time></trkpt><trkpt lat="41.885676166769336" lon="12.867096059567071"><ele>360.0</ele><time>2026-04-06T09:55:05.001Z</time></trkpt><trkpt lat="41.88578192649678" lon="12.867178348089414"><ele>360.0</ele><time>2026-04-06T09:55:06.001Z</time></trkpt><trkpt lat="41.88589157151687" lon="12.867246013865271"><ele>360.0</ele><time>2026-04-06T09:55:07.001Z</time></trkpt><trkpt lat="41.885987102042776" lon="12.867336686475383"><ele>360.0</ele><time>2026-04-06T09:55:08.001Z</time></trkpt><trkpt lat="41.88607905533784" lon="12.867439228768434"><ele>360.0</ele><time>2026-04-06T09:55:09.001Z</time></trkpt><trkpt lat="41.88617320559347" lon="12.867536754104165"><ele>361.6</ele><time>2026-04-06T09:55:10.001Z</time></trkpt><trkpt lat="41.886250055388906" lon="12.867636110709503"><ele>363.2</ele><time>2026-04-06T09:55:11.001Z</time></trkpt><trkpt lat="41.88631550613362" lon="12.867726179719513"><ele>364.79999999999995</ele><time>2026-04-06T09:55:12.001Z</time></trkpt><trkpt lat="41.88637882380117" lon="12.867802215502008"><ele>366.4</ele><time>2026-04-06T09:55:13.001Z</time></trkpt><trkpt lat="41.88644756904291" lon="12.86790488987488"><ele>368.0</ele><time>2026-04-06T09:55:14.001Z</time></trkpt><trkpt lat="41.88652887029309" lon="12.868013893833428"><ele>368.0</ele><time>2026-04-06T09:55:15.001Z</time></trkpt><trkpt lat="41.886608694489304" lon="12.868150875931043"><ele>368.0</ele><time>2026-04-06T09:55:16.001Z</time></trkpt><trkpt lat="41.886680470202485" lon="12.868278155478253"><ele>368.0</ele><time>2026-04-06T09:55:17.001Z</time></trkpt><trkpt lat="41.886748734705066" lon="12.868402259831209"><ele>368.0</ele><time>2026-04-06T09:55:18.001Z</time></trkpt><trkpt lat="41.886836709487625" lon="12.868524444424866"><ele>370.0</ele><time>2026-04-06T09:55:19.001Z</time></trkpt><trkpt lat="41.88694209511592" lon="12.86864983940618"><ele>372.0</ele><time>2026-04-06T09:55:20.001Z</time></trkpt><trkpt lat="41.88704965031954" lon="12.86877240392025"><ele>374.0</ele><time>2026-04-06T09:55:21.001Z</time></trkpt><trkpt lat="41.8871576030017" lon="12.868893131162347"><ele>376.0</ele><time>2026-04-06T09:55:22.001Z</time></trkpt><trkpt lat="41.88726800240463" lon="12.869018388264506"><ele>376.0</ele><time>2026-04-06T09:55:23.001Z</time></trkpt><trkpt lat="41.887356486695566" lon="12.869153243769183"><ele>376.0</ele><time>2026-04-06T09:55:24.001Z</time></trkpt><trkpt lat="41.88743027507029" lon="12.869278047298641"><ele>376.0</ele><time>2026-04-06T09:55:25.001Z</time></trkpt><trkpt lat="41.88749566057952" lon="12.869390274281173"><ele>376.0</ele><time>2026-04-06T09:55:26.001Z</time></trkpt><trkpt lat="41.88756205719572" lon="12.869496043855891"><ele>378.3333333333333</ele><time>2026-04-06T09:55:27.001Z</time></trkpt><trkpt lat="41.887627768676595" lon="12.869600126686892"><ele>380.66666666666663</ele><time>2026-04-06T09:55:28.001Z</time></trkpt><trkpt lat="41.8876830578452" lon="12.869698355152442"><ele>383.0</ele><time>2026-04-06T09:55:29.001Z</time></trkpt><trkpt lat="41.88773613889911" lon="12.869793566360874"><ele>385.3333333333333</ele><time>2026-04-06T09:55:30.001Z</time></trkpt><trkpt lat="41.88778461559373" lon="12.869890229688767"><ele>387.6666666666667</ele><time>2026-04-06T09:55:31.001Z</time></trkpt><trkpt lat="41.88783216867533" lon="12.869977521392736"><ele>390.0</ele><time>2026-04-06T09:55:32.001Z</time></trkpt><trkpt lat="41.88787388121883" lon="12.870062013005283"><ele>388.1666666666667</ele><time>2026-04-06T09:55:33.001Z</time></trkpt><trkpt lat="41.887902121441165" lon="12.87015864735081"><ele>386.3333333333333</ele><time>2026-04-06T09:55:34.001Z</time></trkpt><trkpt lat="41.88795227800129" lon="12.870222074529455"><ele>384.5</ele><time>2026-04-06T09:55:35Z</time></trkpt><trkpt lat="41.88798552589812" lon="12.870295077192182"><ele>382.66666666666663</ele><time>2026-04-06T09:55:36Z</time></trkpt><trkpt lat="41.888017438312396" lon="12.87039691478548"><ele>380.8333333333333</ele><time>2026-04-06T09:55:37Z</time></trkpt><trkpt lat="41.888087441216086" lon="12.870543040538701"><ele>379.0</ele><time>2026-04-06T09:55:38Z</time></trkpt><trkpt lat="41.88815160230923" lon="12.870679812554624"><ele>379.0</ele><time>2026-04-06T09:55:39Z</time></trkpt><trkpt lat="41.88821555730766" lon="12.87078775224693"><ele>379.0</ele><time>2026-04-06T09:55:40Z</time></trkpt><trkpt lat="41.8882654675888" lon="12.87088698716683"><ele>379.0</ele><time>2026-04-06T09:55:41Z</time></trkpt><trkpt lat="41.88830839064835" lon="12.87098736205489"><ele>379.0</ele><time>2026-04-06T09:55:42Z</time></trkpt><trkpt lat="41.88836456015963" lon="12.871092707903538"><ele>379.0</ele><time>2026-04-06T09:55:43Z</time></trkpt><trkpt lat="41.88841429829938" lon="12.871246152993358"><ele>382.0</ele><time>2026-04-06T09:55:44Z</time></trkpt><trkpt lat="41.88844746940018" lon="12.871427893935813"><ele>385.0</ele><time>2026-04-06T09:55:45Z</time></trkpt><trkpt lat="41.888468959684324" lon="12.871614049463641"><ele>388.0</ele><time>2026-04-06T09:55:46Z</time></trkpt><trkpt lat="41.88851772435499" lon="12.871750651309352"><ele>391.0</ele><time>2026-04-06T09:55:47Z</time></trkpt><trkpt lat="41.88856738483141" lon="12.871887060346745"><ele>391.0</ele><time>2026-04-06T09:55:48Z</time></trkpt><trkpt lat="41.888607664867926" lon="12.872026215316327"><ele>391.0</ele><time>2026-04-06T09:55:49Z</time></trkpt><trkpt lat="41.88863755059335" lon="12.87216631323862"><ele>391.0</ele><time>2026-04-06T09:55:50Z</time></trkpt><trkpt lat="41.88866404072875" lon="12.87231480677683"><ele>391.0</ele><time>2026-04-06T09:55:51Z</time></trkpt><trkpt lat="41.88868439680474" lon="12.872457364326193"><ele>391.0</ele><time>2026-04-06T09:55:52Z</time></trkpt><trkpt lat="41.88870200777746" lon="12.872591650112906"><ele>387.4</ele><time>2026-04-06T09:55:53Z</time></trkpt><trkpt lat="41.88872405213523" lon="12.872722990229903"><ele>383.8</ele><time>2026-04-06T09:55:54Z</time></trkpt><trkpt lat="41.88875065027218" lon="12.87284416568229"><ele>380.2</ele><time>2026-04-06T09:55:55Z</time></trkpt><trkpt lat="41.88879223345595" lon="12.872951384659086"><ele>376.59999999999997</ele><time>2026-04-06T09:55:56Z</time></trkpt><trkpt lat="41.88885695950163" lon="12.873050921528954"><ele>373.0</ele><time>2026-04-06T09:55:57Z</time></trkpt><trkpt lat="41.88895134871906" lon="12.873125638954244"><ele>373.0</ele><time>2026-04-06T09:55:58Z</time></trkpt><trkpt lat="41.88905366372053" lon="12.873196129678828"><ele>373.0</ele><time>2026-04-06T09:55:59Z</time></trkpt><trkpt lat="41.88915631348569" lon="12.873273534282662"><ele>373.0</ele><time>2026-04-06T09:56:00Z</time></trkpt><trkpt lat="41.88925238256528" lon="12.873348345655565"><ele>373.0</ele><time>2026-04-06T09:56:01Z</time></trkpt><trkpt lat="41.88933703842819" lon="12.87342716027867"><ele>373.0</ele><time>2026-04-06T09:56:02Z</time></trkpt><trkpt lat="41.88941225972612" lon="12.873510714972314"><ele>376.59999999999997</ele><time>2026-04-06T09:56:03Z</time></trkpt><trkpt lat="41.889470578650254" lon="12.873612967417012"><ele>380.2</ele><time>2026-04-06T09:56:04Z</time></trkpt><trkpt lat="41.8895128639429" lon="12.873746567089842"><ele>383.8</ele><time>2026-04-06T09:56:05Z</time></trkpt><trkpt lat="41.889539023595084" lon="12.87389904640937"><ele>387.4</ele><time>2026-04-06T09:56:06Z</time></trkpt><trkpt lat="41.88956532630772" lon="12.874047959760427"><ele>391.0</ele><time>2026-04-06T09:56:07Z</time></trkpt><trkpt lat="41.88958802511165" lon="12.874192265793008"><ele>390.25</ele><time>2026-04-06T09:56:08Z</time></trkpt><trkpt lat="41.88960785796106" lon="12.874348244702672"><ele>389.5</ele><time>2026-04-06T09:56:09Z</time></trkpt><trkpt lat="41.889621233447464" lon="12.874513530585322"><ele>388.75</ele><time>2026-04-06T09:56:10Z</time></trkpt><trkpt lat="41.88962529692434" lon="12.874700105040136"><ele>388.0</ele><time>2026-04-06T09:56:11Z</time></trkpt><trkpt lat="41.88963677213167" lon="12.8748939101497"><ele>388.0</ele><time>2026-04-06T09:56:12Z</time></trkpt><trkpt lat="41.889641001708384" lon="12.875049214392922"><ele>388.0</ele><time>2026-04-06T09:56:13Z</time></trkpt><trkpt lat="41.889650570273915" lon="12.875187058904904"><ele>388.0</ele><time>2026-04-06T09:56:14Z</time></trkpt><trkpt lat="41.88966600293476" lon="12.875314645562959"><ele>388.0</ele><time>2026-04-06T09:56:15Z</time></trkpt><trkpt lat="41.88967930736187" lon="12.875449045248331"><ele>388.0</ele><time>2026-04-06T09:56:16Z</time></trkpt><trkpt lat="41.889691252944004" lon="12.875595107473087"><ele>388.2</ele><time>2026-04-06T09:56:17Z</time></trkpt><trkpt lat="41.88970173712086" lon="12.875738340442478"><ele>388.4</ele><time>2026-04-06T09:56:18Z</time></trkpt><trkpt lat="41.88970394526172" lon="12.875879966030766"><ele>388.59999999999997</ele><time>2026-04-06T09:56:19Z</time></trkpt><trkpt lat="41.889704143699234" lon="12.876017470735167"><ele>388.79999999999995</ele><time>2026-04-06T09:56:20Z</time></trkpt><trkpt lat="41.88970433057407" lon="12.876159045307617"><ele>389.0</ele><time>2026-04-06T09:56:21Z</time></trkpt><trkpt lat="41.88970114570173" lon="12.876294246816299"><ele>389.0</ele><time>2026-04-06T09:56:22Z</time></trkpt><trkpt lat="41.8897056041791" lon="12.87643802893845"><ele>389.0</ele><time>2026-04-06T09:56:23Z</time></trkpt><trkpt lat="41.8897062875601" lon="12.876591880247457"><ele>389.0</ele><time>2026-04-06T09:56:24Z</time></trkpt><trkpt lat="41.88969414647923" lon="12.87674558336272"><ele>389.0</ele><time>2026-04-06T09:56:25Z</time></trkpt><trkpt lat="41.88964812046669" lon="12.87691476626572"><ele>390.25</ele><time>2026-04-06T09:56:26Z</time></trkpt><trkpt lat="41.8896046213736" lon="12.877107307858635"><ele>391.5</ele><time>2026-04-06T09:56:27Z</time></trkpt><trkpt lat="41.8895764479199" lon="12.87726683885995"><ele>392.75</ele><time>2026-04-06T09:56:28Z</time></trkpt><trkpt lat="41.889547502110396" lon="12.8774168637972"><ele>394.0</ele><time>2026-04-06T09:56:29Z</time></trkpt><trkpt lat="41.88952707413175" lon="12.877563457814908"><ele>394.2</ele><time>2026-04-06T09:56:30Z</time></trkpt><trkpt lat="41.889525122994065" lon="12.877709604200938"><ele>394.4</ele><time>2026-04-06T09:56:31Z</time></trkpt><trkpt lat="41.889518871950564" lon="12.877849243104292"><ele>394.6</ele><time>2026-04-06T09:56:32Z</time></trkpt><trkpt lat="41.889505818319854" lon="12.877996716560114"><ele>394.8</ele><time>2026-04-06T09:56:33Z</time></trkpt><trkpt lat="41.88949326910618" lon="12.878159366278597"><ele>395.0</ele><time>2026-04-06T09:56:34Z</time></trkpt><trkpt lat="41.88948677268923" lon="12.87831531753938"><ele>393.5</ele><time>2026-04-06T09:56:35Z</time></trkpt><trkpt lat="41.88948066622641" lon="12.878462345920552"><ele>392.0</ele><time>2026-04-06T09:56:36Z</time></trkpt><trkpt lat="41.88948101971324" lon="12.878613434396385"><ele>390.5</ele><time>2026-04-06T09:56:37Z</time></trkpt><trkpt lat="41.88948279551744" lon="12.878771302541399"><ele>389.0</ele><time>2026-04-06T09:56:38Z</time></trkpt><trkpt lat="41.88948712412222" lon="12.878935328640747"><ele>389.0</ele><time>2026-04-06T09:56:39Z</time></trkpt><trkpt lat="41.88950086435873" lon="12.87910216236371"><ele>389.0</ele><time>2026-04-06T09:56:40Z</time></trkpt><trkpt lat="41.88952763274444" lon="12.879266718750973"><ele>389.0</ele><time>2026-04-06T09:56:41Z</time></trkpt><trkpt lat="41.889555373390394" lon="12.879428118476541"><ele>389.0</ele><time>2026-04-06T09:56:42Z</time></trkpt><trkpt lat="41.88958886329771" lon="12.879582458525972"><ele>386.2</ele><time>2026-04-06T09:56:43Z</time></trkpt><trkpt lat="41.88962037653946" lon="12.87973088556591"><ele>383.4</ele><time>2026-04-06T09:56:44Z</time></trkpt><trkpt lat="41.88965038676436" lon="12.87987391808124"><ele>380.6</ele><time>2026-04-06T09:56:45Z</time></trkpt><trkpt lat="41.8896883799874" lon="12.880010085861409"><ele>377.8</ele><time>2026-04-06T09:56:46Z</time></trkpt><trkpt lat="41.88974272651343" lon="12.88014481876096"><ele>375.0</ele><time>2026-04-06T09:56:47Z</time></trkpt><trkpt lat="41.889805314528" lon="12.880264441775804"><ele>374.8</ele><time>2026-04-06T09:56:48Z</time></trkpt><trkpt lat="41.889883944286886" lon="12.880378604372208"><ele>374.6</ele><time>2026-04-06T09:56:49Z</time></trkpt><trkpt lat="41.889977556990864" lon="12.880471862190918"><ele>374.4</ele><time>2026-04-06T09:56:50Z</time></trkpt><trkpt lat="41.890069916588885" lon="12.880544285006497"><ele>374.2</ele><time>2026-04-06T09:56:51Z</time></trkpt><trkpt lat="41.8901651721516" lon="12.880611985768024"><ele>374.0</ele><time>2026-04-06T09:56:52Z</time></trkpt><trkpt lat="41.89026686433312" lon="12.880677544582653"><ele>374.0</ele><time>2026-04-06T09:56:53Z</time></trkpt><trkpt lat="41.89036335537889" lon="12.880730050386054"><ele>374.0</ele><time>2026-04-06T09:56:54Z</time></trkpt><trkpt lat="41.890454832905846" lon="12.880779411868895"><ele>374.0</ele><time>2026-04-06T09:56:55Z</time></trkpt><trkpt lat="41.890532600849674" lon="12.880828581453196"><ele>374.0</ele><time>2026-04-06T09:56:56.001Z</time></trkpt><trkpt lat="41.89060348910318" lon="12.88090204869843"><ele>374.0</ele><time>2026-04-06T09:56:57.001Z</time></trkpt><trkpt lat="41.89063702272276" lon="12.88100681628288"><ele>374.6666666666667</ele><time>2026-04-06T09:56:58.001Z</time></trkpt><trkpt lat="41.890637476442144" lon="12.881115801111317"><ele>375.33333333333337</ele><time>2026-04-06T09:56:59.001Z</time></trkpt><trkpt lat="41.890610971413565" lon="12.881222005738511"><ele>376.0</ele><time>2026-04-06T09:57:00.001Z</time></trkpt><trkpt lat="41.89055364142673" lon="12.881304576716747"><ele>376.6666666666667</ele><time>2026-04-06T09:57:01.001Z</time></trkpt><trkpt lat="41.89047653974342" lon="12.881359554869523"><ele>377.3333333333333</ele><time>2026-04-06T09:57:02.001Z</time></trkpt><trkpt lat="41.89039757746362" lon="12.881416994755094"><ele>378.0</ele><time>2026-04-06T09:57:03.001Z</time></trkpt><trkpt lat="41.890317739579686" lon="12.881486191256327"><ele>378.0</ele><time>2026-04-06T09:57:04.001Z</time></trkpt><trkpt lat="41.89024710885108" lon="12.881599354044988"><ele>378.0</ele><time>2026-04-06T09:57:05.001Z</time></trkpt><trkpt lat="41.89020047855067" lon="12.881739816506652"><ele>378.0</ele><time>2026-04-06T09:57:06.001Z</time></trkpt><trkpt lat="41.890157104432916" lon="12.881903548228928"><ele>378.0</ele><time>2026-04-06T09:57:07.001Z</time></trkpt><trkpt lat="41.89012235195194" lon="12.882043645344709"><ele>376.2</ele><time>2026-04-06T09:57:08.001Z</time></trkpt><trkpt lat="41.89010220395626" lon="12.882186764772035"><ele>374.4</ele><time>2026-04-06T09:57:09.001Z</time></trkpt><trkpt lat="41.89008730981452" lon="12.882333310929544"><ele>372.59999999999997</ele><time>2026-04-06T09:57:10.001Z</time></trkpt><trkpt lat="41.89008305090227" lon="12.882473984065381"><ele>370.79999999999995</ele><time>2026-04-06T09:57:11.001Z</time></trkpt><trkpt lat="41.89009463661466" lon="12.882618376525562"><ele>369.0</ele><time>2026-04-06T09:57:12.001Z</time></trkpt><trkpt lat="41.89009994146712" lon="12.88276817949827"><ele>369.25</ele><time>2026-04-06T09:57:13.001Z</time></trkpt><trkpt lat="41.89009651698068" lon="12.882917584082383"><ele>369.5</ele><time>2026-04-06T09:57:14.001Z</time></trkpt><trkpt lat="41.89009436171698" lon="12.883073179899565"><ele>369.75</ele><time>2026-04-06T09:57:15.001Z</time></trkpt><trkpt lat="41.89009135322336" lon="12.883233276752282"><ele>370.0</ele><time>2026-04-06T09:57:16.001Z</time></trkpt><trkpt lat="41.890087840628844" lon="12.883392401583837"><ele>370.25</ele><time>2026-04-06T09:57:17.001Z</time></trkpt><trkpt lat="41.89007260841688" lon="12.88355739104415"><ele>370.5</ele><time>2026-04-06T09:57:18.001Z</time></trkpt><trkpt lat="41.890050340670975" lon="12.883721877893159"><ele>370.75</ele><time>2026-04-06T09:57:19.001Z</time></trkpt><trkpt lat="41.89000603004749" lon="12.883870542662082"><ele>371.0</ele><time>2026-04-06T09:57:20.001Z</time></trkpt><trkpt lat="41.88996190417983" lon="12.884003771189674"><ele>371.0</ele><time>2026-04-06T09:57:21.001Z</time></trkpt><trkpt lat="41.88992489150816" lon="12.884136634101502"><ele>371.0</ele><time>2026-04-06T09:57:22.001Z</time></trkpt><trkpt lat="41.88989077789733" lon="12.884276451991525"><ele>371.0</ele><time>2026-04-06T09:57:23.001Z</time></trkpt><trkpt lat="41.889822294181066" lon="12.884403784587565"><ele>371.0</ele><time>2026-04-06T09:57:24.001Z</time></trkpt><trkpt lat="41.88975481251335" lon="12.88453512338576"><ele>373.20000000000005</ele><time>2026-04-06T09:57:25.001Z</time></trkpt><trkpt lat="41.88970579835955" lon="12.884653703472587"><ele>375.40000000000003</ele><time>2026-04-06T09:57:26.001Z</time></trkpt><trkpt lat="41.88965548568336" lon="12.884754655672879"><ele>377.6</ele><time>2026-04-06T09:57:27.001Z</time></trkpt><trkpt lat="41.889617943240246" lon="12.884891683004904"><ele>379.8</ele><time>2026-04-06T09:57:28.001Z</time></trkpt><trkpt lat="41.889568881191465" lon="12.885061835687047"><ele>382.0</ele><time>2026-04-06T09:57:29.001Z</time></trkpt><trkpt lat="41.88948793425814" lon="12.88526916479835"><ele>381.0</ele><time>2026-04-06T09:57:30.001Z</time></trkpt><trkpt lat="41.88938092089648" lon="12.885503107931042"><ele>380.0</ele><time>2026-04-06T09:57:31.001Z</time></trkpt><trkpt lat="41.88928090339059" lon="12.885713575015311"><ele>379.0</ele><time>2026-04-06T09:57:32.001Z</time></trkpt><trkpt lat="41.88920241949224" lon="12.885896464467626"><ele>382.25</ele><time>2026-04-06T09:57:33.001Z</time></trkpt><trkpt lat="41.88912588270938" lon="12.886090426379715"><ele>385.5</ele><time>2026-04-06T09:57:34.001Z</time></trkpt><trkpt lat="41.88906927712756" lon="12.88628158177979"><ele>388.75</ele><time>2026-04-06T09:57:35.001Z</time></trkpt><trkpt lat="41.88902611747266" lon="12.886441799277925"><ele>392.0</ele><time>2026-04-06T09:57:36.001Z</time></trkpt><trkpt lat="41.8889884435845" lon="12.886592532405569"><ele>392.0</ele><time>2026-04-06T09:57:37.001Z</time></trkpt><trkpt lat="41.88897536591993" lon="12.88675557281823"><ele>392.0</ele><time>2026-04-06T09:57:38.001Z</time></trkpt><trkpt lat="41.888960896195016" lon="12.886929523771572"><ele>392.0</ele><time>2026-04-06T09:57:39.001Z</time></trkpt><trkpt lat="41.88893992682628" lon="12.887114596211328"><ele>392.0</ele><time>2026-04-06T09:57:40.001Z</time></trkpt><trkpt lat="41.88890658593546" lon="12.887319239840322"><ele>394.5</ele><time>2026-04-06T09:57:41Z</time></trkpt><trkpt lat="41.88888343862704" lon="12.887510102845377"><ele>397.0</ele><time>2026-04-06T09:57:42Z</time></trkpt><trkpt lat="41.8888752782098" lon="12.887679724752203"><ele>399.5</ele><time>2026-04-06T09:57:43Z</time></trkpt><trkpt lat="41.88886516920745" lon="12.887853709101906"><ele>402.0</ele><time>2026-04-06T09:57:44Z</time></trkpt><trkpt lat="41.888862008729014" lon="12.888003265865603"><ele>403.25</ele><time>2026-04-06T09:57:45Z</time></trkpt><trkpt lat="41.888861580219306" lon="12.888154762130375"><ele>404.5</ele><time>2026-04-06T09:57:46Z</time></trkpt><trkpt lat="41.88887654876099" lon="12.888310871738765"><ele>405.75</ele><time>2026-04-06T09:57:47Z</time></trkpt><trkpt lat="41.888909610758894" lon="12.888463009673895"><ele>407.0</ele><time>2026-04-06T09:57:48Z</time></trkpt><trkpt lat="41.88895481002833" lon="12.888611196443813"><ele>407.0</ele><time>2026-04-06T09:57:49Z</time></trkpt><trkpt lat="41.88900752622325" lon="12.8887606773153"><ele>407.0</ele><time>2026-04-06T09:57:50Z</time></trkpt><trkpt lat="41.88906968406017" lon="12.888930948916752"><ele>407.0</ele><time>2026-04-06T09:57:51Z</time></trkpt><trkpt lat="41.889117878540446" lon="12.889123339011556"><ele>407.0</ele><time>2026-04-06T09:57:52Z</time></trkpt><trkpt lat="41.88916694902422" lon="12.889284916700767"><ele>407.0</ele><time>2026-04-06T09:57:53Z</time></trkpt><trkpt lat="41.889209040111155" lon="12.889442344197846"><ele>407.0</ele><time>2026-04-06T09:57:53.999Z</time></trkpt><trkpt lat="41.889242474597964" lon="12.889601680132362"><ele>407.0</ele><time>2026-04-06T09:57:54.999Z</time></trkpt><trkpt lat="41.889267807606366" lon="12.889779252604441"><ele>407.0</ele><time>2026-04-06T09:57:55.999Z</time></trkpt><trkpt lat="41.8892820690386" lon="12.8899546997332"><ele>413.5</ele><time>2026-04-06T09:57:56.999Z</time></trkpt><trkpt lat="41.8892873450607" lon="12.890139798685095"><ele>420.0</ele><time>2026-04-06T09:57:57.999Z</time></trkpt><trkpt lat="41.88928543216378" lon="12.890325279752743"><ele>426.5</ele><time>2026-04-06T09:57:59Z</time></trkpt><trkpt lat="41.8892801862896" lon="12.890504517858423"><ele>433.0</ele><time>2026-04-06T09:58:00Z</time></trkpt><trkpt lat="41.88928576256269" lon="12.890680821594744"><ele>433.0</ele><time>2026-04-06T09:58:01Z</time></trkpt><trkpt lat="41.88927330036481" lon="12.890860292136354"><ele>433.0</ele><time>2026-04-06T09:58:02Z</time></trkpt><trkpt lat="41.88923792063055" lon="12.89104295633744"><ele>433.0</ele><time>2026-04-06T09:58:03Z</time></trkpt><trkpt lat="41.88920723683074" lon="12.89121326688747"><ele>433.0</ele><time>2026-04-06T09:58:04Z</time></trkpt><trkpt lat="41.88916350885959" lon="12.891380498872298"><ele>430.25</ele><time>2026-04-06T09:58:05Z</time></trkpt><trkpt lat="41.8891102407299" lon="12.891564578198556"><ele>427.5</ele><time>2026-04-06T09:58:06Z</time></trkpt><trkpt lat="41.88905858803997" lon="12.891755930363614"><ele>424.75</ele><time>2026-04-06T09:58:07Z</time></trkpt><trkpt lat="41.889025087194696" lon="12.891943232961669"><ele>422.0</ele><time>2026-04-06T09:58:08Z</time></trkpt><trkpt lat="41.88902207484191" lon="12.892169323775883"><ele>422.0</ele><time>2026-04-06T09:58:09Z</time></trkpt><trkpt lat="41.88903062186581" lon="12.892417445682485"><ele>422.0</ele><time>2026-04-06T09:58:10Z</time></trkpt><trkpt lat="41.889026842969706" lon="12.892628570591143"><ele>422.0</ele><time>2026-04-06T09:58:11Z</time></trkpt><trkpt lat="41.889023936490034" lon="12.892802060691796"><ele>423.0</ele><time>2026-04-06T09:58:12Z</time></trkpt><trkpt lat="41.88901848891622" lon="12.892953032439928"><ele>424.0</ele><time>2026-04-06T09:58:13Z</time></trkpt><trkpt lat="41.88901024198873" lon="12.8930937910801"><ele>425.0</ele><time>2026-04-06T09:58:14Z</time></trkpt><trkpt lat="41.88900324948586" lon="12.893247576938887"><ele>426.0</ele><time>2026-04-06T09:58:15Z</time></trkpt><trkpt lat="41.888995314004816" lon="12.89341043848294"><ele>427.4</ele><time>2026-04-06T09:58:16Z</time></trkpt><trkpt lat="41.88898833203442" lon="12.893555858989101"><ele>428.8</ele><time>2026-04-06T09:58:17Z</time></trkpt><trkpt lat="41.88897635381649" lon="12.893691902275346"><ele>430.19999999999993</ele><time>2026-04-06T09:58:18Z</time></trkpt><trkpt lat="41.88896378399467" lon="12.893821529977757"><ele>431.59999999999997</ele><time>2026-04-06T09:58:19Z</time></trkpt><trkpt lat="41.888945089717375" lon="12.89392815818141"><ele>433.0</ele><time>2026-04-06T09:58:20Z</time></trkpt><trkpt lat="41.888911528623424" lon="12.8940236438745"><ele>433.0</ele><time>2026-04-06T09:58:21Z</time></trkpt><trkpt lat="41.88881786676293" lon="12.894033632341849"><ele>432.99999999999994</ele><time>2026-04-06T09:58:22Z</time></trkpt><trkpt lat="41.88874069965864" lon="12.894017747241124"><ele>432.99999999999994</ele><time>2026-04-06T09:58:23Z</time></trkpt><trkpt lat="41.888672504497784" lon="12.894020975522343"><ele>433.0</ele><time>2026-04-06T09:58:24Z</time></trkpt><trkpt lat="41.888566377050154" lon="12.894001236299696"><ele>433.0</ele><time>2026-04-06T09:58:26Z</time></trkpt><trkpt lat="41.8885060004387" lon="12.894145301340286"><ele>433.00000000000006</ele><time>2026-04-06T09:58:28Z</time></trkpt><trkpt lat="41.888520916024916" lon="12.894244976820186"><ele>433.0</ele><time>2026-04-06T09:58:29Z</time></trkpt><trkpt lat="41.88853357180004" lon="12.8943339743363"><ele>433.0</ele><time>2026-04-06T09:58:30Z</time></trkpt><trkpt lat="41.88854512198579" lon="12.89442857079553"><ele>433.0</ele><time>2026-04-06T09:58:31Z</time></trkpt><trkpt lat="41.88854398904292" lon="12.894535820611743"><ele>433.00000000000006</ele><time>2026-04-06T09:58:32Z</time></trkpt><trkpt lat="41.888537755766265" lon="12.894656134833856"><ele>433.0</ele><time>2026-04-06T09:58:33Z</time></trkpt><trkpt lat="41.88852551929107" lon="12.894774926113998"><ele>435.25</ele><time>2026-04-06T09:58:34Z</time></trkpt><trkpt lat="41.88851508647497" lon="12.894917390355403"><ele>437.5</ele><time>2026-04-06T09:58:35Z</time></trkpt><trkpt lat="41.88850459684586" lon="12.895089863646655"><ele>439.75</ele><time>2026-04-06T09:58:36Z</time></trkpt><trkpt lat="41.888490535971556" lon="12.89525879455154"><ele>442.0</ele><time>2026-04-06T09:58:37Z</time></trkpt><trkpt lat="41.888446301981794" lon="12.895371825619392"><ele>441.6</ele><time>2026-04-06T09:58:38Z</time></trkpt><trkpt lat="41.88840917880153" lon="12.895447039384921"><ele>441.20000000000005</ele><time>2026-04-06T09:58:39Z</time></trkpt><trkpt lat="41.888361102704856" lon="12.895570845601485"><ele>440.8</ele><time>2026-04-06T09:58:41Z</time></trkpt><trkpt lat="41.88824417345667" lon="12.895706417024982"><ele>440.4</ele><time>2026-04-06T09:58:43Z</time></trkpt><trkpt lat="41.88817188863579" lon="12.895785105215822"><ele>440.0</ele><time>2026-04-06T09:58:44Z</time></trkpt><trkpt lat="41.88809793846468" lon="12.895842784935116"><ele>439.99999999999994</ele><time>2026-04-06T09:58:45Z</time></trkpt><trkpt lat="41.888016758703046" lon="12.895901491234923"><ele>440.0</ele><time>2026-04-06T09:58:46Z</time></trkpt><trkpt lat="41.88794008598697" lon="12.895940352923946"><ele>440.0</ele><time>2026-04-06T09:58:47Z</time></trkpt><trkpt lat="41.88786410356025" lon="12.89593176260615"><ele>440.0</ele><time>2026-04-06T09:58:48Z</time></trkpt><trkpt lat="41.88779718106119" lon="12.89584597546942"><ele>439.99999999999994</ele><time>2026-04-06T09:58:49Z</time></trkpt><trkpt lat="41.887711012660404" lon="12.895789282409613"><ele>440.0</ele><time>2026-04-06T09:58:50Z</time></trkpt><trkpt lat="41.8876330308873" lon="12.89570610028104"><ele>439.99999999999994</ele><time>2026-04-06T09:58:51Z</time></trkpt><trkpt lat="41.88758289386181" lon="12.8956023913972"><ele>440.0</ele><time>2026-04-06T09:58:52Z</time></trkpt><trkpt lat="41.88753735112731" lon="12.89548653900398"><ele>440.0</ele><time>2026-04-06T09:58:53Z</time></trkpt><trkpt lat="41.88750330790109" lon="12.89537178872327"><ele>440.0</ele><time>2026-04-06T09:58:54Z</time></trkpt><trkpt lat="41.88746503643502" lon="12.895284160534482"><ele>439.99999999999994</ele><time>2026-04-06T09:58:55Z</time></trkpt><trkpt lat="41.8874493745679" lon="12.895167528116678"><ele>440.0</ele><time>2026-04-06T09:58:56Z</time></trkpt><trkpt lat="41.88743475537527" lon="12.895055562487459"><ele>438.8333333333333</ele><time>2026-04-06T09:58:57Z</time></trkpt><trkpt lat="41.8874301982672" lon="12.894948865207741"><ele>437.66666666666663</ele><time>2026-04-06T09:58:58Z</time></trkpt><trkpt lat="41.8874282879904" lon="12.894852478474629"><ele>436.5</ele><time>2026-04-06T09:58:59Z</time></trkpt><trkpt lat="41.88743132232998" lon="12.894747003856835"><ele>435.33333333333337</ele><time>2026-04-06T09:59:00Z</time></trkpt><trkpt lat="41.88742557863584" lon="12.894662531375806"><ele>434.1666666666667</ele><time>2026-04-06T09:59:01Z</time></trkpt><trkpt lat="41.88740556421275" lon="12.894570800202139"><ele>433.0</ele><time>2026-04-06T09:59:03Z</time></trkpt><trkpt lat="41.88730982501406" lon="12.894611445648495"><ele>433.0</ele><time>2026-04-06T09:59:29.001Z</time></trkpt><trkpt lat="41.88727520996595" lon="12.894799395487498"><ele>433.0</ele><time>2026-04-06T09:59:32.001Z</time></trkpt><trkpt lat="41.887247319734655" lon="12.894912089696104"><ele>433.0</ele><time>2026-04-06T09:59:34.001Z</time></trkpt><trkpt lat="41.88724139154147" lon="12.89506759512665"><ele>433.0</ele><time>2026-04-06T09:59:45.001Z</time></trkpt><trkpt lat="41.8871963206034" lon="12.895202781604993"><ele>434.1666666666667</ele><time>2026-04-06T09:59:47Z</time></trkpt><trkpt lat="41.88710569247667" lon="12.895316117787472"><ele>435.33333333333337</ele><time>2026-04-06T09:59:49Z</time></trkpt><trkpt lat="41.88704626231932" lon="12.895435995936044"><ele>436.5</ele><time>2026-04-06T09:59:51Z</time></trkpt><trkpt lat="41.88702722053779" lon="12.895519259811193"><ele>437.66666666666663</ele><time>2026-04-06T09:59:52Z</time></trkpt><trkpt lat="41.88700499086538" lon="12.895610491996136"><ele>438.8333333333333</ele><time>2026-04-06T09:59:53Z</time></trkpt><trkpt lat="41.8869944469846" lon="12.895711578469976"><ele>440.0</ele><time>2026-04-06T09:59:54Z</time></trkpt><trkpt lat="41.88698689313579" lon="12.895817805950902"><ele>441.4</ele><time>2026-04-06T09:59:55Z</time></trkpt><trkpt lat="41.88698637445769" lon="12.895951603091891"><ele>442.8</ele><time>2026-04-06T09:59:56Z</time></trkpt><trkpt lat="41.886993555955804" lon="12.896080932205054"><ele>444.20000000000005</ele><time>2026-04-06T09:59:57Z</time></trkpt><trkpt lat="41.886987277089624" lon="12.89617371857917"><ele>445.6</ele><time>2026-04-06T09:59:58Z</time></trkpt><trkpt lat="41.88696377893399" lon="12.896296761643429"><ele>447.0</ele><time>2026-04-06T10:00:00Z</time></trkpt><trkpt lat="41.887001364150386" lon="12.896406164668143"><ele>447.0</ele><time>2026-04-06T10:00:03Z</time></trkpt><trkpt lat="41.88701645808116" lon="12.89650547231281"><ele>447.00000000000006</ele><time>2026-04-06T10:00:04Z</time></trkpt><trkpt lat="41.88703907805208" lon="12.896626237715571"><ele>447.00000000000006</ele><time>2026-04-06T10:00:05Z</time></trkpt><trkpt lat="41.88706543930784" lon="12.89674069866111"><ele>447.0</ele><time>2026-04-06T10:00:07Z</time></trkpt><trkpt lat="41.88704361824317" lon="12.896649044069298"><ele>447.0</ele><time>2026-04-06T10:00:16Z</time></trkpt><trkpt lat="41.886978597347465" lon="12.896375273794217"><ele>447.0</ele><time>2026-04-06T10:00:17Z</time></trkpt><trkpt lat="41.88704897683727" lon="12.896498856638324"><ele>447.00000000000006</ele><time>2026-04-06T10:00:18Z</time></trkpt><trkpt lat="41.88702104956809" lon="12.896354502634525"><ele>447.00000000000006</ele><time>2026-04-06T10:00:20Z</time></trkpt><trkpt lat="41.887003615257875" lon="12.896254396464215"><ele>447.0</ele><time>2026-04-06T10:00:22Z</time></trkpt><trkpt lat="41.88699458993739" lon="12.896147602745547"><ele>447.0</ele><time>2026-04-06T10:00:25Z</time></trkpt><trkpt lat="41.8869919244221" lon="12.896038487081498"><ele>445.6</ele><time>2026-04-06T10:00:28Z</time></trkpt><trkpt lat="41.88699790416756" lon="12.895911458756226"><ele>444.20000000000005</ele><time>2026-04-06T10:00:30Z</time></trkpt><trkpt lat="41.88699899818242" lon="12.895774335007154"><ele>442.8</ele><time>2026-04-06T10:00:32Z</time></trkpt><trkpt lat="41.88700207424313" lon="12.895646822890374"><ele>441.4</ele><time>2026-04-06T10:00:34Z</time></trkpt><trkpt lat="41.88703352158499" lon="12.89551249723702"><ele>440.0</ele><time>2026-04-06T10:00:36Z</time></trkpt><trkpt lat="41.88706170285547" lon="12.895421179526043"><ele>439.99999999999994</ele><time>2026-04-06T10:00:37Z</time></trkpt><trkpt lat="41.88710194459491" lon="12.895336605548803"><ele>440.0</ele><time>2026-04-06T10:00:38Z</time></trkpt><trkpt lat="41.887139934642065" lon="12.895239137337184"><ele>440.0</ele><time>2026-04-06T10:00:39Z</time></trkpt><trkpt lat="41.887223346702235" lon="12.895208776419723"><ele>440.0</ele><time>2026-04-06T10:00:40Z</time></trkpt><trkpt lat="41.88726671223293" lon="12.895135087321265"><ele>439.99999999999994</ele><time>2026-04-06T10:00:41Z</time></trkpt><trkpt lat="41.887273038265604" lon="12.894990379117214"><ele>440.0</ele><time>2026-04-06T10:00:43Z</time></trkpt><trkpt lat="41.887282501649295" lon="12.89489336845572"><ele>440.0</ele><time>2026-04-06T10:00:45Z</time></trkpt><trkpt lat="41.88737658569825" lon="12.895023746394234"><ele>440.0</ele><time>2026-04-06T10:00:53Z</time></trkpt><trkpt lat="41.88738867367441" lon="12.895124527939547"><ele>440.0</ele><time>2026-04-06T10:00:54Z</time></trkpt><trkpt lat="41.88740318024229" lon="12.895208628923623"><ele>440.0</ele><time>2026-04-06T10:00:56Z</time></trkpt><trkpt lat="41.88744744856262" lon="12.895053956847146"><ele>440.0</ele><time>2026-04-06T10:01:00Z</time></trkpt><trkpt lat="41.88744148423153" lon="12.894958400633763"><ele>438.6</ele><time>2026-04-06T10:01:02Z</time></trkpt><trkpt lat="41.887443839765744" lon="12.894872976225109"><ele>437.2</ele><time>2026-04-06T10:01:05Z</time></trkpt><trkpt lat="41.88743257859673" lon="12.894764408894167"><ele>435.79999999999995</ele><time>2026-04-06T10:01:13Z</time></trkpt><trkpt lat="41.88741118999152" lon="12.894659592138629"><ele>434.4</ele><time>2026-04-06T10:01:16Z</time></trkpt><trkpt lat="41.887224460640795" lon="12.894593024538482"><ele>433.0</ele><time>2026-04-06T10:01:22Z</time></trkpt><trkpt lat="41.88711957431178" lon="12.894575398463623"><ele>432.99999999999994</ele><time>2026-04-06T10:01:24Z</time></trkpt><trkpt lat="41.887055234664615" lon="12.894567569101236"><ele>433.0</ele><time>2026-04-06T10:01:25.001Z</time></trkpt><trkpt lat="41.88697008957789" lon="12.894576556066498"><ele>433.0</ele><time>2026-04-06T10:01:27.001Z</time></trkpt><trkpt lat="41.886901429518815" lon="12.89455563060599"><ele>433.0</ele><time>2026-04-06T10:01:29.001Z</time></trkpt><trkpt lat="41.88682611999395" lon="12.894530584949498"><ele>433.0</ele><time>2026-04-06T10:01:36.001Z</time></trkpt><trkpt lat="41.886758584870385" lon="12.894519751111854"><ele>432.99999999999994</ele><time>2026-04-06T10:01:37.001Z</time></trkpt><trkpt lat="41.88668954881844" lon="12.894510062611026"><ele>433.0</ele><time>2026-04-06T10:01:38.001Z</time></trkpt><trkpt lat="41.886626832616464" lon="12.894498720248668"><ele>433.50000000000006</ele><time>2026-04-06T10:01:39.001Z</time></trkpt><trkpt lat="41.886562462854116" lon="12.894477297325961"><ele>434.0</ele><time>2026-04-06T10:01:40.001Z</time></trkpt><trkpt lat="41.886492994713926" lon="12.894451104781417"><ele>434.5</ele><time>2026-04-06T10:01:41.001Z</time></trkpt><trkpt lat="41.88645430055226" lon="12.894358576994506"><ele>435.0</ele><time>2026-04-06T10:01:42.001Z</time></trkpt><trkpt lat="41.88639894822787" lon="12.894271267093476"><ele>435.50000000000006</ele><time>2026-04-06T10:01:43.001Z</time></trkpt><trkpt lat="41.88632427882373" lon="12.894151753472462"><ele>436.0</ele><time>2026-04-06T10:01:44.001Z</time></trkpt><trkpt lat="41.8862702391784" lon="12.894019394877487"><ele>437.00000000000006</ele><time>2026-04-06T10:01:45.001Z</time></trkpt><trkpt lat="41.88621027842285" lon="12.893935897280405"><ele>438.0</ele><time>2026-04-06T10:01:46.001Z</time></trkpt><trkpt lat="41.88615954907091" lon="12.89386459955627"><ele>439.0</ele><time>2026-04-06T10:01:47.001Z</time></trkpt><trkpt lat="41.886096123295665" lon="12.893816166983417"><ele>440.0</ele><time>2026-04-06T10:01:48.001Z</time></trkpt><trkpt lat="41.8859743298071" lon="12.893780384151983"><ele>441.00000000000006</ele><time>2026-04-06T10:01:50.001Z</time></trkpt><trkpt lat="41.88590610341063" lon="12.893830332629392"><ele>442.0</ele><time>2026-04-06T10:01:51.001Z</time></trkpt><trkpt lat="41.88584879277441" lon="12.893908481368246"><ele>442.00000000000006</ele><time>2026-04-06T10:01:52.001Z</time></trkpt><trkpt lat="41.88579498658461" lon="12.893989656817203"><ele>442.0</ele><time>2026-04-06T10:01:52.999Z</time></trkpt><trkpt lat="41.88573761793159" lon="12.894060019696228"><ele>442.0</ele><time>2026-04-06T10:01:53.999Z</time></trkpt><trkpt lat="41.88565593975322" lon="12.894083496023335"><ele>442.0</ele><time>2026-04-06T10:01:54.999Z</time></trkpt><trkpt lat="41.88559238673835" lon="12.894142643736762"><ele>442.00000000000006</ele><time>2026-04-06T10:01:55.999Z</time></trkpt><trkpt lat="41.885541146663684" lon="12.894210480653014"><ele>442.0</ele><time>2026-04-06T10:01:56.999Z</time></trkpt><trkpt lat="41.88549693517398" lon="12.894280582691085"><ele>444.50000000000006</ele><time>2026-04-06T10:01:57.999Z</time></trkpt><trkpt lat="41.88546914311046" lon="12.894367239255828"><ele>447.0</ele><time>2026-04-06T10:01:58.999Z</time></trkpt><trkpt lat="41.885430581205554" lon="12.894457842622652"><ele>449.5</ele><time>2026-04-06T10:01:59.999Z</time></trkpt><trkpt lat="41.8853800129081" lon="12.894530619171121"><ele>452.0</ele><time>2026-04-06T10:02:00.999Z</time></trkpt><trkpt lat="41.88534114411466" lon="12.894650680781844"><ele>454.50000000000006</ele><time>2026-04-06T10:02:02.999Z</time></trkpt><trkpt lat="41.88526928593631" lon="12.894725311342077"><ele>457.0</ele><time>2026-04-06T10:02:04.999Z</time></trkpt><trkpt lat="41.88516661541531" lon="12.894663570569131"><ele>457.00000000000006</ele><time>2026-04-06T10:02:07Z</time></trkpt><trkpt lat="41.88520630959964" lon="12.894523687467027"><ele>457.0</ele><time>2026-04-06T10:02:09Z</time></trkpt><trkpt lat="41.885213207993964" lon="12.894435901821256"><ele>457.0</ele><time>2026-04-06T10:02:10Z</time></trkpt><trkpt lat="41.88520255383093" lon="12.894343876986733"><ele>457.0</ele><time>2026-04-06T10:02:11Z</time></trkpt><trkpt lat="41.885181192946575" lon="12.894263123815593"><ele>457.00000000000006</ele><time>2026-04-06T10:02:12Z</time></trkpt><trkpt lat="41.88514248114694" lon="12.894193840850988"><ele>457.0</ele><time>2026-04-06T10:02:13Z</time></trkpt><trkpt lat="41.88508315851605" lon="12.894131293148927"><ele>456.50000000000006</ele><time>2026-04-06T10:02:14Z</time></trkpt><trkpt lat="41.88502893486706" lon="12.894062945671248"><ele>456.0</ele><time>2026-04-06T10:02:15Z</time></trkpt><trkpt lat="41.88497726014102" lon="12.893994907741316"><ele>455.5</ele><time>2026-04-06T10:02:16Z</time></trkpt><trkpt lat="41.884933662052816" lon="12.893933369686676"><ele>455.0</ele><time>2026-04-06T10:02:17Z</time></trkpt><trkpt lat="41.88483308896654" lon="12.893833139916614"><ele>454.50000000000006</ele><time>2026-04-06T10:02:19Z</time></trkpt><trkpt lat="41.884752290958" lon="12.893829180502747"><ele>454.0</ele><time>2026-04-06T10:02:20Z</time></trkpt><trkpt lat="41.88467524197962" lon="12.893811177496056"><ele>454.0</ele><time>2026-04-06T10:02:21Z</time></trkpt><trkpt lat="41.88455446873474" lon="12.893792790980728"><ele>454.0</ele><time>2026-04-06T10:02:23Z</time></trkpt><trkpt lat="41.884491284181" lon="12.893781925804157"><ele>454.0</ele><time>2026-04-06T10:02:24Z</time></trkpt><trkpt lat="41.88443260993958" lon="12.893743864737226"><ele>454.0</ele><time>2026-04-06T10:02:25Z</time></trkpt><trkpt lat="41.88432299853166" lon="12.893686895812825"><ele>454.0</ele><time>2026-04-06T10:02:27Z</time></trkpt><trkpt lat="41.88420455434147" lon="12.893703578417767"><ele>454.2</ele><time>2026-04-06T10:02:29Z</time></trkpt><trkpt lat="41.88410399179722" lon="12.893781553166725"><ele>454.4</ele><time>2026-04-06T10:02:31Z</time></trkpt><trkpt lat="41.88402827294024" lon="12.89384542060494"><ele>454.6</ele><time>2026-04-06T10:02:33Z</time></trkpt><trkpt lat="41.88398129886751" lon="12.893906649143146"><ele>454.8</ele><time>2026-04-06T10:02:36Z</time></trkpt><trkpt lat="41.88391165480112" lon="12.893942437382286"><ele>455.0</ele><time>2026-04-06T10:03:51.001Z</time></trkpt><trkpt lat="41.883826265414626" lon="12.894047385082557"><ele>455.0</ele><time>2026-04-06T10:03:53.001Z</time></trkpt><trkpt lat="41.8837461983554" lon="12.894139454123554"><ele>455.0</ele><time>2026-04-06T10:03:55.001Z</time></trkpt><trkpt lat="41.883629014193836" lon="12.894196111263133"><ele>455.0</ele><time>2026-04-06T10:03:57.001Z</time></trkpt><trkpt lat="41.883565238889794" lon="12.89417455151086"><ele>455.0</ele><time>2026-04-06T10:03:58.001Z</time></trkpt><trkpt lat="41.883467479189136" lon="12.894219621933278"><ele>455.0</ele><time>2026-04-06T10:03:59.999Z</time></trkpt><trkpt lat="41.88335689732249" lon="12.894222297445049"><ele>451.99999999999994</ele><time>2026-04-06T10:04:01.999Z</time></trkpt><trkpt lat="41.88324270116134" lon="12.894210354652493"><ele>449.0</ele><time>2026-04-06T10:04:03.999Z</time></trkpt><trkpt lat="41.88317633024454" lon="12.894176721993771"><ele>446.0</ele><time>2026-04-06T10:04:04.999Z</time></trkpt><trkpt lat="41.88311409267588" lon="12.894157214966999"><ele>443.0</ele><time>2026-04-06T10:04:05.999Z</time></trkpt><trkpt lat="41.88304032121648" lon="12.894157258803874"><ele>439.99999999999994</ele><time>2026-04-06T10:04:06.999Z</time></trkpt><trkpt lat="41.88296712026253" lon="12.894124431118719"><ele>437.0</ele><time>2026-04-06T10:04:07.999Z</time></trkpt><trkpt lat="41.882886518092214" lon="12.894106129982001"><ele>437.0</ele><time>2026-04-06T10:04:08.999Z</time></trkpt><trkpt lat="41.88277189489147" lon="12.894130758841161"><ele>437.00000000000006</ele><time>2026-04-06T10:04:10.999Z</time></trkpt><trkpt lat="41.88270477028064" lon="12.894182881436103"><ele>437.00000000000006</ele><time>2026-04-06T10:04:11.999Z</time></trkpt><trkpt lat="41.88259405989827" lon="12.894178797941834"><ele>437.0</ele><time>2026-04-06T10:04:13.999Z</time></trkpt><trkpt lat="41.88252169263035" lon="12.894147949514458"><ele>437.0</ele><time>2026-04-06T10:04:14.999Z</time></trkpt><trkpt lat="41.88245089715545" lon="12.89411332246165"><ele>433.5</ele><time>2026-04-06T10:04:16Z</time></trkpt><trkpt lat="41.88234132132775" lon="12.894093165785893"><ele>430.0</ele><time>2026-04-06T10:04:18Z</time></trkpt><trkpt lat="41.882239320266386" lon="12.894175537052567"><ele>426.5</ele><time>2026-04-06T10:04:20Z</time></trkpt><trkpt lat="41.88224891885706" lon="12.89398241278478"><ele>423.0</ele><time>2026-04-06T10:04:26Z</time></trkpt><trkpt lat="41.88231379737932" lon="12.893863679587406"><ele>423.0</ele><time>2026-04-06T10:04:28Z</time></trkpt><trkpt lat="41.88238255856461" lon="12.893749715184184"><ele>423.0</ele><time>2026-04-06T10:04:30Z</time></trkpt><trkpt lat="41.88246407694511" lon="12.893648303205902"><ele>423.0</ele><time>2026-04-06T10:04:32Z</time></trkpt><trkpt lat="41.88251662321868" lon="12.893554000482641"><ele>423.0</ele><time>2026-04-06T10:04:34Z</time></trkpt><trkpt lat="41.88245700389288" lon="12.89342283565485"><ele>423.0</ele><time>2026-04-06T10:04:36Z</time></trkpt><trkpt lat="41.88244807246764" lon="12.893335891283956"><ele>420.79999999999995</ele><time>2026-04-06T10:04:37Z</time></trkpt><trkpt lat="41.88239973449817" lon="12.893234750574388"><ele>418.6</ele><time>2026-04-06T10:04:39Z</time></trkpt><trkpt lat="41.88229877207638" lon="12.893241741404195"><ele>416.4</ele><time>2026-04-06T10:04:42Z</time></trkpt><trkpt lat="41.88222624827915" lon="12.893280526887054"><ele>414.20000000000005</ele><time>2026-04-06T10:04:43Z</time></trkpt><trkpt lat="41.88211969726351" lon="12.893306289124872"><ele>412.0</ele><time>2026-04-06T10:04:44Z</time></trkpt><trkpt lat="41.88203135048329" lon="12.89337392620721"><ele>413.33333333333337</ele><time>2026-04-06T10:04:45Z</time></trkpt><trkpt lat="41.88196390093786" lon="12.893429316599322"><ele>414.6666666666667</ele><time>2026-04-06T10:04:46Z</time></trkpt><trkpt lat="41.88191847295568" lon="12.893490387022565"><ele>416.0</ele><time>2026-04-06T10:04:47Z</time></trkpt><trkpt lat="41.881869093411474" lon="12.893568725155276"><ele>417.33333333333337</ele><time>2026-04-06T10:04:48Z</time></trkpt><trkpt lat="41.88179865341123" lon="12.893650106323292"><ele>418.6666666666667</ele><time>2026-04-06T10:04:49Z</time></trkpt><trkpt lat="41.88173858174306" lon="12.893719148524589"><ele>420.0</ele><time>2026-04-06T10:04:50Z</time></trkpt><trkpt lat="41.881675844457284" lon="12.893788061449499"><ele>420.0</ele><time>2026-04-06T10:04:51Z</time></trkpt><trkpt lat="41.88161993783258" lon="12.893842301314493"><ele>420.0</ele><time>2026-04-06T10:04:52Z</time></trkpt><trkpt lat="41.881553522902315" lon="12.89389812444161"><ele>420.0</ele><time>2026-04-06T10:04:53Z</time></trkpt><trkpt lat="41.88148018897038" lon="12.89395215293909"><ele>420.0</ele><time>2026-04-06T10:04:54Z</time></trkpt><trkpt lat="41.8814000912468" lon="12.894010672246116"><ele>420.0</ele><time>2026-04-06T10:04:55Z</time></trkpt><trkpt lat="41.8813277419613" lon="12.89406495216988"><ele>420.0</ele><time>2026-04-06T10:04:56Z</time></trkpt><trkpt lat="41.8812572154241" lon="12.894132177587384"><ele>420.0</ele><time>2026-04-06T10:04:57Z</time></trkpt><trkpt lat="41.8811826569353" lon="12.894221680845892"><ele>420.0</ele><time>2026-04-06T10:04:58Z</time></trkpt><trkpt lat="41.881119794829985" lon="12.894312249754716"><ele>420.0</ele><time>2026-04-06T10:04:59Z</time></trkpt><trkpt lat="41.8810558063327" lon="12.894387052924472"><ele>420.0</ele><time>2026-04-06T10:05:00Z</time></trkpt><trkpt lat="41.881002793973174" lon="12.894452142728712"><ele>420.0</ele><time>2026-04-06T10:05:01Z</time></trkpt><trkpt lat="41.88089057495248" lon="12.894529528482888"><ele>422.4</ele><time>2026-04-06T10:05:03Z</time></trkpt><trkpt lat="41.88083043281506" lon="12.89455699591712"><ele>424.8</ele><time>2026-04-06T10:05:04Z</time></trkpt><trkpt lat="41.880761601087066" lon="12.894594934529385"><ele>427.20000000000005</ele><time>2026-04-06T10:05:05Z</time></trkpt><trkpt lat="41.880697945901524" lon="12.89465578547663"><ele>429.6</ele><time>2026-04-06T10:05:06Z</time></trkpt><trkpt lat="41.8806129518092" lon="12.894732465007525"><ele>432.0</ele><time>2026-04-06T10:05:07Z</time></trkpt><trkpt lat="41.880501293524034" lon="12.894831298360002"><ele>432.0</ele><time>2026-04-06T10:05:08Z</time></trkpt><trkpt lat="41.88038601932652" lon="12.894925219627519"><ele>432.00000000000006</ele><time>2026-04-06T10:05:09Z</time></trkpt><trkpt lat="41.88030250149871" lon="12.894972077513062"><ele>432.00000000000006</ele><time>2026-04-06T10:05:10Z</time></trkpt><trkpt lat="41.8802094499305" lon="12.895003235089234"><ele>432.0</ele><time>2026-04-06T10:05:11Z</time></trkpt><trkpt lat="41.88012253433968" lon="12.894994877022162"><ele>432.0</ele><time>2026-04-06T10:05:12Z</time></trkpt><trkpt lat="41.88002309583588" lon="12.895010740240659"><ele>431.5</ele><time>2026-04-06T10:05:13Z</time></trkpt><trkpt lat="41.87991244216537" lon="12.895049811952433"><ele>431.0</ele><time>2026-04-06T10:05:14Z</time></trkpt><trkpt lat="41.87979893608288" lon="12.895132841375558"><ele>430.5</ele><time>2026-04-06T10:05:15Z</time></trkpt><trkpt lat="41.87966242917423" lon="12.895180135298409"><ele>430.0</ele><time>2026-04-06T10:05:16Z</time></trkpt><trkpt lat="41.87954167049535" lon="12.89524042961403"><ele>430.0</ele><time>2026-04-06T10:05:17Z</time></trkpt><trkpt lat="41.87941346072276" lon="12.895312303065797"><ele>430.0</ele><time>2026-04-06T10:05:18Z</time></trkpt><trkpt lat="41.87930809875875" lon="12.89541886989595"><ele>430.0</ele><time>2026-04-06T10:05:19Z</time></trkpt><trkpt lat="41.87920858708293" lon="12.895494001446306"><ele>430.0</ele><time>2026-04-06T10:05:20Z</time></trkpt><trkpt lat="41.8791094302939" lon="12.89556018914344"><ele>432.4</ele><time>2026-04-06T10:05:21Z</time></trkpt><trkpt lat="41.879017784209545" lon="12.89557831421526"><ele>434.8</ele><time>2026-04-06T10:05:22Z</time></trkpt><trkpt lat="41.87893335466199" lon="12.89561494900877"><ele>437.20000000000005</ele><time>2026-04-06T10:05:23Z</time></trkpt><trkpt lat="41.87884679761663" lon="12.895665597172462"><ele>439.6</ele><time>2026-04-06T10:05:24Z</time></trkpt><trkpt lat="41.87873408216857" lon="12.89573692139903"><ele>442.0</ele><time>2026-04-06T10:05:25Z</time></trkpt><trkpt lat="41.878628315538" lon="12.895805562044302"><ele>442.00000000000006</ele><time>2026-04-06T10:05:26Z</time></trkpt><trkpt lat="41.878552251704114" lon="12.895857714437522"><ele>442.0</ele><time>2026-04-06T10:05:27Z</time></trkpt><trkpt lat="41.87847752946007" lon="12.895905244566144"><ele>442.0</ele><time>2026-04-06T10:05:28Z</time></trkpt><trkpt lat="41.87840857061437" lon="12.895942582614222"><ele>442.0</ele><time>2026-04-06T10:05:29Z</time></trkpt><trkpt lat="41.87833218103527" lon="12.89598286256058"><ele>442.00000000000006</ele><time>2026-04-06T10:05:30.001Z</time></trkpt><trkpt lat="41.8782414721049" lon="12.89602494970346"><ele>442.0</ele><time>2026-04-06T10:05:31.001Z</time></trkpt><trkpt lat="41.87815617171644" lon="12.896055415732704"><ele>441.83333333333337</ele><time>2026-04-06T10:05:32.001Z</time></trkpt><trkpt lat="41.87807432649913" lon="12.89608858919164"><ele>441.6666666666667</ele><time>2026-04-06T10:05:33.001Z</time></trkpt><trkpt lat="41.87799672487986" lon="12.896127338739026"><ele>441.5</ele><time>2026-04-06T10:05:34.001Z</time></trkpt><trkpt lat="41.8779246811768" lon="12.896168732775312"><ele>441.33333333333337</ele><time>2026-04-06T10:05:35.001Z</time></trkpt><trkpt lat="41.87785299190336" lon="12.89621127349513"><ele>441.1666666666667</ele><time>2026-04-06T10:05:36.001Z</time></trkpt><trkpt lat="41.877789000377255" lon="12.89625262402099"><ele>441.0</ele><time>2026-04-06T10:05:37.001Z</time></trkpt><trkpt lat="41.87772587866247" lon="12.896301778115784"><ele>441.0</ele><time>2026-04-06T10:05:38.001Z</time></trkpt><trkpt lat="41.87766276430786" lon="12.896351364834029"><ele>441.0</ele><time>2026-04-06T10:05:39.001Z</time></trkpt><trkpt lat="41.877602730381206" lon="12.89639632315501"><ele>441.0</ele><time>2026-04-06T10:05:40.001Z</time></trkpt><trkpt lat="41.877543617705435" lon="12.896429825959421"><ele>441.0</ele><time>2026-04-06T10:05:41.001Z</time></trkpt><trkpt lat="41.87747415839388" lon="12.896449483594639"><ele>441.0</ele><time>2026-04-06T10:05:42.001Z</time></trkpt><trkpt lat="41.87741177524518" lon="12.896503897561681"><ele>441.0</ele><time>2026-04-06T10:05:43.001Z</time></trkpt><trkpt lat="41.877348592151336" lon="12.896532703080487"><ele>441.0</ele><time>2026-04-06T10:05:44.001Z</time></trkpt><trkpt lat="41.87727760095234" lon="12.896567453252537"><ele>440.8</ele><time>2026-04-06T10:05:45.001Z</time></trkpt><trkpt lat="41.87719560878023" lon="12.896607710903123"><ele>440.6</ele><time>2026-04-06T10:05:46.001Z</time></trkpt><trkpt lat="41.877094663669304" lon="12.896668458872824"><ele>440.4</ele><time>2026-04-06T10:05:47.001Z</time></trkpt><trkpt lat="41.87701279402831" lon="12.896713723463698"><ele>440.2</ele><time>2026-04-06T10:05:48.001Z</time></trkpt><trkpt lat="41.87693483835702" lon="12.89677600553027"><ele>440.0</ele><time>2026-04-06T10:05:49.001Z</time></trkpt><trkpt lat="41.876856412420786" lon="12.896841362894264"><ele>439.99999999999994</ele><time>2026-04-06T10:05:50.001Z</time></trkpt><trkpt lat="41.876791236027145" lon="12.896892371178392"><ele>440.0</ele><time>2026-04-06T10:05:51.001Z</time></trkpt><trkpt lat="41.87673275593937" lon="12.896937770666273"><ele>440.0</ele><time>2026-04-06T10:05:52.001Z</time></trkpt><trkpt lat="41.87666486991986" lon="12.89699687995995"><ele>440.0</ele><time>2026-04-06T10:05:53.001Z</time></trkpt><trkpt lat="41.876608061225326" lon="12.897050581897853"><ele>439.99999999999994</ele><time>2026-04-06T10:05:54.001Z</time></trkpt><trkpt lat="41.87652775145986" lon="12.897126344179734"><ele>440.0</ele><time>2026-04-06T10:05:56.001Z</time></trkpt><trkpt lat="41.876452126867" lon="12.897191139680832"><ele>442.16666666666663</ele><time>2026-04-06T10:05:58.001Z</time></trkpt><trkpt lat="41.87635961927371" lon="12.897256102845747"><ele>444.3333333333333</ele><time>2026-04-06T10:06:00.001Z</time></trkpt><trkpt lat="41.87631112543386" lon="12.897319829251492"><ele>446.5</ele><time>2026-04-06T10:06:01.001Z</time></trkpt><trkpt lat="41.87623470344272" lon="12.897376663599733"><ele>448.66666666666663</ele><time>2026-04-06T10:06:02.001Z</time></trkpt><trkpt lat="41.87615809939095" lon="12.897437418999816"><ele>450.8333333333333</ele><time>2026-04-06T10:06:03.001Z</time></trkpt><trkpt lat="41.876098394821256" lon="12.897501547631318"><ele>453.0</ele><time>2026-04-06T10:06:04.001Z</time></trkpt><trkpt lat="41.87603097645888" lon="12.897563926991904"><ele>453.1666666666667</ele><time>2026-04-06T10:06:04.999Z</time></trkpt><trkpt lat="41.87596558656479" lon="12.897606751867412"><ele>453.33333333333337</ele><time>2026-04-06T10:06:05.999Z</time></trkpt><trkpt lat="41.87589587989381" lon="12.89764874712073"><ele>453.5</ele><time>2026-04-06T10:06:06.999Z</time></trkpt><trkpt lat="41.875823110457716" lon="12.89769905358303"><ele>453.6666666666667</ele><time>2026-04-06T10:06:07.999Z</time></trkpt><trkpt lat="41.87574092785747" lon="12.897744337493585"><ele>453.83333333333337</ele><time>2026-04-06T10:06:08.999Z</time></trkpt><trkpt lat="41.875669383722126" lon="12.897780509516314"><ele>454.0</ele><time>2026-04-06T10:06:09.999Z</time></trkpt><trkpt lat="41.87559848903297" lon="12.89780987207543"><ele>454.0</ele><time>2026-04-06T10:06:10.999Z</time></trkpt><trkpt lat="41.87552964211018" lon="12.897841532014544"><ele>454.00000000000006</ele><time>2026-04-06T10:06:11.999Z</time></trkpt><trkpt lat="41.875458841230795" lon="12.897855200967841"><ele>454.0</ele><time>2026-04-06T10:06:12.999Z</time></trkpt><trkpt lat="41.87539740226712" lon="12.897885314604547"><ele>454.0</ele><time>2026-04-06T10:06:13.999Z</time></trkpt><trkpt lat="41.87533052414779" lon="12.897929211569467"><ele>454.00000000000006</ele><time>2026-04-06T10:06:14.999Z</time></trkpt><trkpt lat="41.87525117181598" lon="12.897945262609458"><ele>454.0</ele><time>2026-04-06T10:06:15.999Z</time></trkpt><trkpt lat="41.875172823773546" lon="12.897924214765487"><ele>454.0</ele><time>2026-04-06T10:06:16.999Z</time></trkpt><trkpt lat="41.87509736638126" lon="12.897939033577805"><ele>456.1666666666667</ele><time>2026-04-06T10:06:17.999Z</time></trkpt><trkpt lat="41.875030663377835" lon="12.897938408460472"><ele>458.33333333333337</ele><time>2026-04-06T10:06:19Z</time></trkpt><trkpt lat="41.874964013446544" lon="12.897943964947974"><ele>460.5</ele><time>2026-04-06T10:06:20Z</time></trkpt><trkpt lat="41.87489855474151" lon="12.897960213892159"><ele>462.66666666666663</ele><time>2026-04-06T10:06:21Z</time></trkpt><trkpt lat="41.87477565076072" lon="12.898008423769054"><ele>464.8333333333333</ele><time>2026-04-06T10:06:23Z</time></trkpt><trkpt lat="41.87470572834263" lon="12.898042666670934"><ele>467.0</ele><time>2026-04-06T10:06:24Z</time></trkpt><trkpt lat="41.874646074056365" lon="12.898088549677952"><ele>467.0</ele><time>2026-04-06T10:06:25Z</time></trkpt><trkpt lat="41.87457407938243" lon="12.898130299096469"><ele>467.00000000000006</ele><time>2026-04-06T10:06:26Z</time></trkpt><trkpt lat="41.87449463133697" lon="12.89817534685139"><ele>467.00000000000006</ele><time>2026-04-06T10:06:27Z</time></trkpt><trkpt lat="41.87440300105702" lon="12.898228282668596"><ele>467.0</ele><time>2026-04-06T10:06:28Z</time></trkpt><trkpt lat="41.87429813022" lon="12.898285793661941"><ele>467.0</ele><time>2026-04-06T10:06:29Z</time></trkpt><trkpt lat="41.87421445626546" lon="12.898333104606163"><ele>470.3333333333333</ele><time>2026-04-06T10:06:30Z</time></trkpt><trkpt lat="41.874136647483816" lon="12.898359682921257"><ele>473.66666666666663</ele><time>2026-04-06T10:06:31Z</time></trkpt><trkpt lat="41.874051695983006" lon="12.898333237693151"><ele>477.0</ele><time>2026-04-06T10:06:32Z</time></trkpt><trkpt lat="41.873956084893635" lon="12.898304646211756"><ele>480.33333333333337</ele><time>2026-04-06T10:06:33Z</time></trkpt><trkpt lat="41.873854940532475" lon="12.898287489818964"><ele>483.6666666666667</ele><time>2026-04-06T10:06:34Z</time></trkpt><trkpt lat="41.8737754331205" lon="12.898271007036966"><ele>487.0</ele><time>2026-04-06T10:06:35Z</time></trkpt><trkpt lat="41.87369245897051" lon="12.898283117163569"><ele>487.0</ele><time>2026-04-06T10:06:36Z</time></trkpt><trkpt lat="41.87360027618887" lon="12.898311919259672"><ele>487.00000000000006</ele><time>2026-04-06T10:06:37Z</time></trkpt><trkpt lat="41.873507664254475" lon="12.898371160731479"><ele>487.00000000000006</ele><time>2026-04-06T10:06:38Z</time></trkpt><trkpt lat="41.873410127437126" lon="12.89840139366063"><ele>487.0</ele><time>2026-04-06T10:06:39Z</time></trkpt><trkpt lat="41.87333510440691" lon="12.898459878252755"><ele>487.0</ele><time>2026-04-06T10:06:40Z</time></trkpt><trkpt lat="41.873229187919904" lon="12.898499053813083"><ele>486.20000000000005</ele><time>2026-04-06T10:06:41Z</time></trkpt><trkpt lat="41.87311495351609" lon="12.89851296658554"><ele>485.40000000000003</ele><time>2026-04-06T10:06:42Z</time></trkpt><trkpt lat="41.87302144004988" lon="12.89852696847052"><ele>484.59999999999997</ele><time>2026-04-06T10:06:43Z</time></trkpt><trkpt lat="41.87293334886533" lon="12.898555677282069"><ele>483.79999999999995</ele><time>2026-04-06T10:06:44Z</time></trkpt><trkpt lat="41.872846788208" lon="12.898565203425646"><ele>483.0</ele><time>2026-04-06T10:06:45Z</time></trkpt><trkpt lat="41.872751239998415" lon="12.898579237476572"><ele>483.0</ele><time>2026-04-06T10:06:46Z</time></trkpt><trkpt lat="41.87265105838056" lon="12.898583182911247"><ele>482.99999999999994</ele><time>2026-04-06T10:06:47Z</time></trkpt><trkpt lat="41.87256216726394" lon="12.898554597839324"><ele>482.99999999999994</ele><time>2026-04-06T10:06:48Z</time></trkpt><trkpt lat="41.87246998785587" lon="12.898541006905015"><ele>483.0</ele><time>2026-04-06T10:06:49Z</time></trkpt><trkpt lat="41.872374052798314" lon="12.898554797446865"><ele>483.0</ele><time>2026-04-06T10:06:50Z</time></trkpt><trkpt lat="41.87227380065086" lon="12.89857141930534"><ele>486.59999999999997</ele><time>2026-04-06T10:06:51Z</time></trkpt><trkpt lat="41.872170900348635" lon="12.898599644697542"><ele>490.19999999999993</ele><time>2026-04-06T10:06:52Z</time></trkpt><trkpt lat="41.872082493160185" lon="12.898631032329382"><ele>493.8</ele><time>2026-04-06T10:06:53Z</time></trkpt><trkpt lat="41.871998992935076" lon="12.898649325833867"><ele>497.4</ele><time>2026-04-06T10:06:54Z</time></trkpt><trkpt lat="41.87190897491485" lon="12.898649107818033"><ele>501.0</ele><time>2026-04-06T10:06:55Z</time></trkpt><trkpt lat="41.871822515828846" lon="12.89865739673336"><ele>504.0</ele><time>2026-04-06T10:06:56Z</time></trkpt><trkpt lat="41.871741646425455" lon="12.898680307112375"><ele>507.0</ele><time>2026-04-06T10:06:57Z</time></trkpt><trkpt lat="41.87163031289434" lon="12.89866450917529"><ele>510.0</ele><time>2026-04-06T10:06:58Z</time></trkpt><trkpt lat="41.871507785014494" lon="12.898653013233652"><ele>513.0</ele><time>2026-04-06T10:06:59Z</time></trkpt><trkpt lat="41.871396801395754" lon="12.898650601150782"><ele>516.0</ele><time>2026-04-06T10:07:00Z</time></trkpt><trkpt lat="41.87131509469436" lon="12.89862701360792"><ele>516.0</ele><time>2026-04-06T10:07:01Z</time></trkpt><trkpt lat="41.87123888690107" lon="12.898603137287946"><ele>516.0</ele><time>2026-04-06T10:07:02Z</time></trkpt><trkpt lat="41.87112401921453" lon="12.89853063966071"><ele>516.0</ele><time>2026-04-06T10:07:04Z</time></trkpt><trkpt lat="41.87106345999483" lon="12.898495486790212"><ele>516.0</ele><time>2026-04-06T10:07:05Z</time></trkpt><trkpt lat="41.870992428511606" lon="12.898473068056806"><ele>516.0</ele><time>2026-04-06T10:07:06Z</time></trkpt><trkpt lat="41.87091355036807" lon="12.898466182695124"><ele>516.0</ele><time>2026-04-06T10:07:07Z</time></trkpt><trkpt lat="41.870828522485894" lon="12.898468213214644"><ele>518.6</ele><time>2026-04-06T10:07:08Z</time></trkpt><trkpt lat="41.870726786787415" lon="12.898490358556895"><ele>521.2</ele><time>2026-04-06T10:07:09Z</time></trkpt><trkpt lat="41.870635030900566" lon="12.89854224836709"><ele>523.8</ele><time>2026-04-06T10:07:10Z</time></trkpt><trkpt lat="41.8705341143725" lon="12.898581108710264"><ele>526.4</ele><time>2026-04-06T10:07:11Z</time></trkpt><trkpt lat="41.870433169969715" lon="12.898622853930252"><ele>529.0</ele><time>2026-04-06T10:07:12Z</time></trkpt><trkpt lat="41.870351363906025" lon="12.898647150056892"><ele>529.0</ele><time>2026-04-06T10:07:13Z</time></trkpt><trkpt lat="41.8702751865468" lon="12.898671017098986"><ele>529.0</ele><time>2026-04-06T10:07:14Z</time></trkpt><trkpt lat="41.87019402378766" lon="12.898696717884611"><ele>529.0</ele><time>2026-04-06T10:07:15Z</time></trkpt><trkpt lat="41.87010684930774" lon="12.898725714769075"><ele>529.0</ele><time>2026-04-06T10:07:16Z</time></trkpt><trkpt lat="41.87001850278134" lon="12.89875510156297"><ele>529.0</ele><time>2026-04-06T10:07:17Z</time></trkpt><trkpt lat="41.86993401487408" lon="12.898784253893323"><ele>529.0</ele><time>2026-04-06T10:07:18Z</time></trkpt><trkpt lat="41.86985721207862" lon="12.898824724975988"><ele>531.8</ele><time>2026-04-06T10:07:19Z</time></trkpt><trkpt lat="41.869770760726176" lon="12.898845032087367"><ele>534.5999999999999</ele><time>2026-04-06T10:07:20Z</time></trkpt><trkpt lat="41.86968879980715" lon="12.898868713148497"><ele>537.4</ele><time>2026-04-06T10:07:21Z</time></trkpt><trkpt lat="41.86959008014784" lon="12.898897666333875"><ele>540.1999999999999</ele><time>2026-04-06T10:07:22Z</time></trkpt><trkpt lat="41.86948230013912" lon="12.898916365301119"><ele>543.0</ele><time>2026-04-06T10:07:23Z</time></trkpt><trkpt lat="41.86941236239138" lon="12.898931230313487"><ele>543.0</ele><time>2026-04-06T10:07:24Z</time></trkpt><trkpt lat="41.86933981616423" lon="12.898952867319919"><ele>543.0</ele><time>2026-04-06T10:07:25Z</time></trkpt><trkpt lat="41.86926542698585" lon="12.898973929756924"><ele>543.0</ele><time>2026-04-06T10:07:26Z</time></trkpt><trkpt lat="41.86919033335584" lon="12.898995089515523"><ele>543.0</ele><time>2026-04-06T10:07:27Z</time></trkpt><trkpt lat="41.86911579814239" lon="12.899025093869694"><ele>543.0</ele><time>2026-04-06T10:07:28Z</time></trkpt><trkpt lat="41.86903470198084" lon="12.89903381845879"><ele>543.0</ele><time>2026-04-06T10:07:29Z</time></trkpt><trkpt lat="41.86894578179367" lon="12.899088537808876"><ele>543.6</ele><time>2026-04-06T10:07:30Z</time></trkpt><trkpt lat="41.868841904720576" lon="12.899128516100003"><ele>544.1999999999999</ele><time>2026-04-06T10:07:31.001Z</time></trkpt><trkpt lat="41.868734219582365" lon="12.899168671540059"><ele>544.8</ele><time>2026-04-06T10:07:32.001Z</time></trkpt><trkpt lat="41.86864249319666" lon="12.899203342827148"><ele>545.4</ele><time>2026-04-06T10:07:33.001Z</time></trkpt><trkpt lat="41.86854621264859" lon="12.899236263470362"><ele>546.0</ele><time>2026-04-06T10:07:34.001Z</time></trkpt><trkpt lat="41.868449308391845" lon="12.89927154741589"><ele>550.5</ele><time>2026-04-06T10:07:35.001Z</time></trkpt><trkpt lat="41.86833781671917" lon="12.89930300061928"><ele>555.0</ele><time>2026-04-06T10:07:36.001Z</time></trkpt><trkpt lat="41.86822196867626" lon="12.899322111431811"><ele>559.5</ele><time>2026-04-06T10:07:37.001Z</time></trkpt><trkpt lat="41.86809970327789" lon="12.899339483095266"><ele>564.0</ele><time>2026-04-06T10:07:38.001Z</time></trkpt><trkpt lat="41.86798076194904" lon="12.899321358982975"><ele>564.0</ele><time>2026-04-06T10:07:39.001Z</time></trkpt><trkpt lat="41.867874938623466" lon="12.899356041977224"><ele>564.0</ele><time>2026-04-06T10:07:40.001Z</time></trkpt><trkpt lat="41.867761880314184" lon="12.899400261338746"><ele>564.0</ele><time>2026-04-06T10:07:41.001Z</time></trkpt><trkpt lat="41.86764027052443" lon="12.899466604045834"><ele>564.0</ele><time>2026-04-06T10:07:42.001Z</time></trkpt><trkpt lat="41.86750393309767" lon="12.899524208188165"><ele>569.6666666666666</ele><time>2026-04-06T10:07:43.001Z</time></trkpt><trkpt lat="41.86735575521768" lon="12.899556990834029"><ele>575.3333333333333</ele><time>2026-04-06T10:07:44.001Z</time></trkpt><trkpt lat="41.86717702740188" lon="12.899627799030798"><ele>581.0</ele><time>2026-04-06T10:07:45.001Z</time></trkpt><trkpt lat="41.86698960532159" lon="12.899639496092094"><ele>581.0</ele><time>2026-04-06T10:07:46.001Z</time></trkpt><trkpt lat="41.86683747575982" lon="12.89964920485968"><ele>581.0</ele><time>2026-04-06T10:07:47.001Z</time></trkpt><trkpt lat="41.86669262569708" lon="12.899680474538773"><ele>581.0</ele><time>2026-04-06T10:07:48.001Z</time></trkpt><trkpt lat="41.866549804073" lon="12.89971196644659"><ele>581.0</ele><time>2026-04-06T10:07:49.001Z</time></trkpt><trkpt lat="41.86638657385992" lon="12.899745811349705"><ele>584.75</ele><time>2026-04-06T10:07:50.001Z</time></trkpt><trkpt lat="41.86623355934788" lon="12.899784774160201"><ele>588.5</ele><time>2026-04-06T10:07:51.001Z</time></trkpt><trkpt lat="41.86609544117772" lon="12.899800891462196"><ele>592.25</ele><time>2026-04-06T10:07:52.001Z</time></trkpt><trkpt lat="41.86599733176073" lon="12.899805337985041"><ele>596.0</ele><time>2026-04-06T10:07:53.001Z</time></trkpt><trkpt lat="41.86590733825346" lon="12.89980775719609"><ele>598.3333333333333</ele><time>2026-04-06T10:07:54.001Z</time></trkpt><trkpt lat="41.865834601176225" lon="12.899821822597799"><ele>600.6666666666666</ele><time>2026-04-06T10:07:55.001Z</time></trkpt><trkpt lat="41.86577531240831" lon="12.899899655493135"><ele>603.0</ele><time>2026-04-06T10:07:56.001Z</time></trkpt><trkpt lat="41.865708027505605" lon="12.899972408108539"><ele>605.3333333333334</ele><time>2026-04-06T10:07:57.001Z</time></trkpt><trkpt lat="41.865624368407715" lon="12.900036657470753"><ele>607.6666666666667</ele><time>2026-04-06T10:07:58.001Z</time></trkpt><trkpt lat="41.86555514883937" lon="12.900110379012293"><ele>610.0</ele><time>2026-04-06T10:07:59.001Z</time></trkpt><trkpt lat="41.8654833064642" lon="12.900188359635637"><ele>610.0</ele><time>2026-04-06T10:08:00.001Z</time></trkpt><trkpt lat="41.865399280427035" lon="12.900280277923894"><ele>610.0</ele><time>2026-04-06T10:08:01.001Z</time></trkpt><trkpt lat="41.86532161880797" lon="12.900362881656884"><ele>610.0</ele><time>2026-04-06T10:08:02.001Z</time></trkpt><trkpt lat="41.86523741647983" lon="12.900449291163143"><ele>610.0</ele><time>2026-04-06T10:08:03.001Z</time></trkpt><trkpt lat="41.86512675474132" lon="12.900562853882619"><ele>617.0</ele><time>2026-04-06T10:08:04.001Z</time></trkpt><trkpt lat="41.86502124245507" lon="12.900699103140921"><ele>624.0</ele><time>2026-04-06T10:08:05.001Z</time></trkpt><trkpt lat="41.8649355421023" lon="12.900808363874752"><ele>631.0</ele><time>2026-04-06T10:08:06.001Z</time></trkpt><trkpt lat="41.86486973034366" lon="12.900919295179976"><ele>638.0</ele><time>2026-04-06T10:08:07.001Z</time></trkpt><trkpt lat="41.86482367006953" lon="12.901024681296667"><ele>639.5</ele><time>2026-04-06T10:08:08.001Z</time></trkpt><trkpt lat="41.8648075562931" lon="12.901127590831113"><ele>641.0</ele><time>2026-04-06T10:08:09.001Z</time></trkpt><trkpt lat="41.86481716450663" lon="12.901243698514744"><ele>642.5</ele><time>2026-04-06T10:08:10.001Z</time></trkpt><trkpt lat="41.86484122076994" lon="12.901362062614243"><ele>644.0</ele><time>2026-04-06T10:08:11Z</time></trkpt><trkpt lat="41.86486030146404" lon="12.901484635454171"><ele>645.5</ele><time>2026-04-06T10:08:12Z</time></trkpt><trkpt lat="41.86493119438319" lon="12.901568459948692"><ele>647.0</ele><time>2026-04-06T10:08:13Z</time></trkpt><trkpt lat="41.86501197781833" lon="12.90164573685001"><ele>647.0</ele><time>2026-04-06T10:08:14Z</time></trkpt><trkpt lat="41.86510764635763" lon="12.901712775395834"><ele>647.0</ele><time>2026-04-06T10:08:15Z</time></trkpt><trkpt lat="41.8652205919967" lon="12.901823410742773"><ele>647.0</ele><time>2026-04-06T10:08:16Z</time></trkpt><trkpt lat="41.86532277767126" lon="12.901971136536396"><ele>647.0</ele><time>2026-04-06T10:08:17Z</time></trkpt><trkpt lat="41.865416948521215" lon="12.902085378160207"><ele>645.6666666666666</ele><time>2026-04-06T10:08:18Z</time></trkpt><trkpt lat="41.86548675680896" lon="12.902177834138621"><ele>644.3333333333333</ele><time>2026-04-06T10:08:19Z</time></trkpt><trkpt lat="41.86552016357777" lon="12.902250245047309"><ele>643.0</ele><time>2026-04-06T10:08:20Z</time></trkpt><trkpt lat="41.865561174454605" lon="12.902412197480777"><ele>641.6666666666666</ele><time>2026-04-06T10:08:22Z</time></trkpt><trkpt lat="41.86552550363265" lon="12.902514288129996"><ele>640.3333333333334</ele><time>2026-04-06T10:08:23Z</time></trkpt><trkpt lat="41.86547580434943" lon="12.902587224852581"><ele>639.0</ele><time>2026-04-06T10:08:24Z</time></trkpt><trkpt lat="41.86540221810482" lon="12.902607113934904"><ele>638.0000000000001</ele><time>2026-04-06T10:08:25Z</time></trkpt><trkpt lat="41.865330557175724" lon="12.90264203165739"><ele>637.0</ele><time>2026-04-06T10:08:26Z</time></trkpt><trkpt lat="41.86526477251607" lon="12.902688884125796"><ele>636.0</ele><time>2026-04-06T10:08:27Z</time></trkpt><trkpt lat="41.865197335928706" lon="12.902712376383912"><ele>635.0</ele><time>2026-04-06T10:08:28Z</time></trkpt><trkpt lat="41.86512747198423" lon="12.902734189578117"><ele>634.0</ele><time>2026-04-06T10:08:29Z</time></trkpt><trkpt lat="41.86505249331299" lon="12.902757001486458"><ele>633.0000000000001</ele><time>2026-04-06T10:08:30Z</time></trkpt><trkpt lat="41.864977099461356" lon="12.902783578953994"><ele>632.0</ele><time>2026-04-06T10:08:31Z</time></trkpt><trkpt lat="41.864897778178424" lon="12.90281549349651"><ele>637.4000000000001</ele><time>2026-04-06T10:08:32Z</time></trkpt><trkpt lat="41.864813667543174" lon="12.902850243096204"><ele>642.8000000000001</ele><time>2026-04-06T10:08:33Z</time></trkpt><trkpt lat="41.86470765005694" lon="12.902883368830658"><ele>648.2</ele><time>2026-04-06T10:08:34Z</time></trkpt><trkpt lat="41.86458596205717" lon="12.902927135689366"><ele>653.6</ele><time>2026-04-06T10:08:35Z</time></trkpt><trkpt lat="41.86449447777183" lon="12.9029625353956"><ele>659.0</ele><time>2026-04-06T10:08:36Z</time></trkpt><trkpt lat="41.86440794348096" lon="12.903012579706237"><ele>659.0</ele><time>2026-04-06T10:08:37Z</time></trkpt><trkpt lat="41.864321102765885" lon="12.903075687740607"><ele>659.0</ele><time>2026-04-06T10:08:38Z</time></trkpt><trkpt lat="41.86423487956685" lon="12.903153468097845"><ele>659.0</ele><time>2026-04-06T10:08:39Z</time></trkpt><trkpt lat="41.864146384094646" lon="12.90318371862244"><ele>659.0</ele><time>2026-04-06T10:08:40Z</time></trkpt><trkpt lat="41.86405014092118" lon="12.903248878964668"><ele>659.0</ele><time>2026-04-06T10:08:41Z</time></trkpt><trkpt lat="41.863950984706605" lon="12.903279886446354"><ele>665.25</ele><time>2026-04-06T10:08:42Z</time></trkpt><trkpt lat="41.86383151710911" lon="12.903319234136513"><ele>671.5</ele><time>2026-04-06T10:08:43Z</time></trkpt><trkpt lat="41.86368925407912" lon="12.90336742568854"><ele>677.75</ele><time>2026-04-06T10:08:44Z</time></trkpt><trkpt lat="41.86354852037348" lon="12.903410961570888"><ele>684.0</ele><time>2026-04-06T10:08:45Z</time></trkpt><trkpt lat="41.86341478376972" lon="12.90347011079398"><ele>687.5</ele><time>2026-04-06T10:08:46Z</time></trkpt><trkpt lat="41.86325845918186" lon="12.90354401634027"><ele>691.0</ele><time>2026-04-06T10:08:47Z</time></trkpt><trkpt lat="41.863125008786064" lon="12.903590893097787"><ele>694.5</ele><time>2026-04-06T10:08:48Z</time></trkpt><trkpt lat="41.86302075220858" lon="12.90362833219316"><ele>698.0</ele><time>2026-04-06T10:08:49Z</time></trkpt><trkpt lat="41.862940237152976" lon="12.903649391046777"><ele>698.0</ele><time>2026-04-06T10:08:50Z</time></trkpt><trkpt lat="41.8628749862608" lon="12.903670484898067"><ele>698.0</ele><time>2026-04-06T10:08:51Z</time></trkpt><trkpt lat="41.862810051958284" lon="12.90369766858995"><ele>698.0</ele><time>2026-04-06T10:09:16Z</time></trkpt><trkpt lat="41.86287579173646" lon="12.903856027424947"><ele>698.0</ele><time>2026-04-06T10:09:19Z</time></trkpt><trkpt lat="41.862961843680345" lon="12.903926684466063"><ele>698.0</ele><time>2026-04-06T10:09:20Z</time></trkpt><trkpt lat="41.86305407001379" lon="12.904018084077535"><ele>698.0</ele><time>2026-04-06T10:09:21Z</time></trkpt><trkpt lat="41.86314656187977" lon="12.904124618190497"><ele>698.0</ele><time>2026-04-06T10:09:22Z</time></trkpt><trkpt lat="41.8632319839849" lon="12.904228909241999"><ele>698.0</ele><time>2026-04-06T10:09:23Z</time></trkpt><trkpt lat="41.863322668708086" lon="12.904323235974376"><ele>698.0</ele><time>2026-04-06T10:09:24Z</time></trkpt><trkpt lat="41.8634155598192" lon="12.904417424622036"><ele>699.75</ele><time>2026-04-06T10:09:25Z</time></trkpt><trkpt lat="41.86351451853035" lon="12.904533569286853"><ele>701.5</ele><time>2026-04-06T10:09:26Z</time></trkpt><trkpt lat="41.863650243914776" lon="12.904684295909247"><ele>703.25</ele><time>2026-04-06T10:09:27Z</time></trkpt><trkpt lat="41.86375464250342" lon="12.904792129848854"><ele>705.0</ele><time>2026-04-06T10:09:28Z</time></trkpt><trkpt lat="41.86385389629603" lon="12.904900002335367"><ele>705.0</ele><time>2026-04-06T10:09:29Z</time></trkpt><trkpt lat="41.86393047805063" lon="12.904985917878522"><ele>705.0</ele><time>2026-04-06T10:09:30Z</time></trkpt><trkpt lat="41.86401406563656" lon="12.90508030227732"><ele>705.0</ele><time>2026-04-06T10:09:31Z</time></trkpt><trkpt lat="41.86409310621457" lon="12.905164449282532"><ele>705.0</ele><time>2026-04-06T10:09:32Z</time></trkpt><trkpt lat="41.86418062312552" lon="12.90525562320841"><ele>705.0</ele><time>2026-04-06T10:09:33Z</time></trkpt><trkpt lat="41.86426830220524" lon="12.905357217868849"><ele>707.8</ele><time>2026-04-06T10:09:34Z</time></trkpt><trkpt lat="41.86435171629785" lon="12.905455071651701"><ele>710.6</ele><time>2026-04-06T10:09:35Z</time></trkpt><trkpt lat="41.864429654186836" lon="12.90554738449651"><ele>713.4000000000001</ele><time>2026-04-06T10:09:36Z</time></trkpt><trkpt lat="41.86450526428254" lon="12.905654521027975"><ele>716.2</ele><time>2026-04-06T10:09:37Z</time></trkpt><trkpt lat="41.86457612119501" lon="12.905779287446105"><ele>719.0</ele><time>2026-04-06T10:09:38Z</time></trkpt><trkpt lat="41.86460211017978" lon="12.905917416883115"><ele>722.25</ele><time>2026-04-06T10:09:39Z</time></trkpt><trkpt lat="41.864643923353434" lon="12.906034522358665"><ele>725.5</ele><time>2026-04-06T10:09:40Z</time></trkpt><trkpt lat="41.864653711183585" lon="12.906180154548776"><ele>728.75</ele><time>2026-04-06T10:09:41.001Z</time></trkpt><trkpt lat="41.86462647028152" lon="12.906345293702174"><ele>732.0</ele><time>2026-04-06T10:09:42.001Z</time></trkpt><trkpt lat="41.86458872852598" lon="12.906498873498169"><ele>732.0</ele><time>2026-04-06T10:09:43.001Z</time></trkpt><trkpt lat="41.86453858536466" lon="12.906665221880912"><ele>732.0</ele><time>2026-04-06T10:09:44.001Z</time></trkpt><trkpt lat="41.86449918256554" lon="12.906859031427992"><ele>732.0</ele><time>2026-04-06T10:09:45.001Z</time></trkpt><trkpt lat="41.86446308604989" lon="12.90701782064944"><ele>732.0</ele><time>2026-04-06T10:09:46.001Z</time></trkpt><trkpt lat="41.864449339214254" lon="12.907181422848387"><ele>734.75</ele><time>2026-04-06T10:09:47.001Z</time></trkpt><trkpt lat="41.864458204654746" lon="12.907351020526844"><ele>737.5</ele><time>2026-04-06T10:09:48.001Z</time></trkpt><trkpt lat="41.86446702064679" lon="12.907511697096016"><ele>740.25</ele><time>2026-04-06T10:09:49.001Z</time></trkpt><trkpt lat="41.86446340299887" lon="12.907660930872762"><ele>743.0</ele><time>2026-04-06T10:09:50.001Z</time></trkpt><trkpt lat="41.864441845414575" lon="12.907811398565267"><ele>746.0</ele><time>2026-04-06T10:09:51.001Z</time></trkpt><trkpt lat="41.86439560357665" lon="12.907954889242207"><ele>749.0</ele><time>2026-04-06T10:09:52.001Z</time></trkpt><trkpt lat="41.86433029032464" lon="12.908078014231004"><ele>752.0</ele><time>2026-04-06T10:09:53.001Z</time></trkpt><trkpt lat="41.86425711317079" lon="12.908188216442216"><ele>755.0</ele><time>2026-04-06T10:09:54.001Z</time></trkpt><trkpt lat="41.86417714904933" lon="12.908293666706827"><ele>750.4</ele><time>2026-04-06T10:09:55.001Z</time></trkpt><trkpt lat="41.8641031057021" lon="12.908386816143059"><ele>745.8</ele><time>2026-04-06T10:09:56.001Z</time></trkpt><trkpt lat="41.86404122044034" lon="12.908486668691545"><ele>741.2</ele><time>2026-04-06T10:09:57.001Z</time></trkpt><trkpt lat="41.864015433141226" lon="12.908597034983469"><ele>736.6</ele><time>2026-04-06T10:09:58.001Z</time></trkpt><trkpt lat="41.86400432670286" lon="12.908730333547842"><ele>732.0</ele><time>2026-04-06T10:09:59.001Z</time></trkpt><trkpt lat="41.86400677429713" lon="12.908843398156879"><ele>732.0</ele><time>2026-04-06T10:10:00.001Z</time></trkpt><trkpt lat="41.864020335776544" lon="12.908969093479238"><ele>732.0</ele><time>2026-04-06T10:10:01.001Z</time></trkpt><trkpt lat="41.86406026803197" lon="12.909069382588866"><ele>732.0</ele><time>2026-04-06T10:10:02.001Z</time></trkpt><trkpt lat="41.86411354035147" lon="12.909144911179958"><ele>732.0</ele><time>2026-04-06T10:10:03.001Z</time></trkpt><trkpt lat="41.86418353651674" lon="12.909191557059632"><ele>732.0</ele><time>2026-04-06T10:10:04.001Z</time></trkpt><trkpt lat="41.86426409017531" lon="12.90919250826596"><ele>732.0</ele><time>2026-04-06T10:10:05.001Z</time></trkpt><trkpt lat="41.86434559662008" lon="12.90916527317296"><ele>739.0</ele><time>2026-04-06T10:10:06.001Z</time></trkpt><trkpt lat="41.86440856425448" lon="12.9090361113541"><ele>746.0</ele><time>2026-04-06T10:10:07.001Z</time></trkpt><trkpt lat="41.86446468995305" lon="12.908929416656097"><ele>753.0</ele><time>2026-04-06T10:10:08.001Z</time></trkpt><trkpt lat="41.86451565326228" lon="12.908787973954666"><ele>760.0</ele><time>2026-04-06T10:10:09.001Z</time></trkpt><trkpt lat="41.86459817145026" lon="12.908613046838394"><ele>758.3333333333334</ele><time>2026-04-06T10:10:10.001Z</time></trkpt><trkpt lat="41.864702824598055" lon="12.908380719837172"><ele>756.6666666666666</ele><time>2026-04-06T10:10:11.001Z</time></trkpt><trkpt lat="41.8648080039032" lon="12.908151331884252"><ele>755.0</ele><time>2026-04-06T10:10:12.001Z</time></trkpt><trkpt lat="41.86489731222192" lon="12.907950223441942"><ele>755.0</ele><time>2026-04-06T10:10:13.001Z</time></trkpt><trkpt lat="41.86495527116567" lon="12.907776722182032"><ele>755.0</ele><time>2026-04-06T10:10:14.001Z</time></trkpt><trkpt lat="41.86501736047294" lon="12.907650838924441"><ele>755.0</ele><time>2026-04-06T10:10:15.001Z</time></trkpt><trkpt lat="41.865058040477265" lon="12.907562660556163"><ele>755.0</ele><time>2026-04-06T10:10:16.001Z</time></trkpt><trkpt lat="41.86508764620259" lon="12.907481926995972"><ele>755.0</ele><time>2026-04-06T10:10:17Z</time></trkpt><trkpt lat="41.865129446160516" lon="12.907399245271044"><ele>756.8333333333333</ele><time>2026-04-06T10:10:18Z</time></trkpt><trkpt lat="41.86517353356481" lon="12.907312053081945"><ele>758.6666666666666</ele><time>2026-04-06T10:10:19Z</time></trkpt><trkpt lat="41.86521759689511" lon="12.907217948931283"><ele>760.5</ele><time>2026-04-06T10:10:20Z</time></trkpt><trkpt lat="41.865261227907816" lon="12.90711716889089"><ele>762.3333333333334</ele><time>2026-04-06T10:10:21Z</time></trkpt><trkpt lat="41.8652987958606" lon="12.907030466340409"><ele>764.1666666666667</ele><time>2026-04-06T10:10:22Z</time></trkpt><trkpt lat="41.86533343613893" lon="12.906956936164542"><ele>766.0</ele><time>2026-04-06T10:10:23Z</time></trkpt><trkpt lat="41.865390374360516" lon="12.906897851425118"><ele>766.0</ele><time>2026-04-06T10:10:24Z</time></trkpt><trkpt lat="41.86543843233233" lon="12.906838222267528"><ele>766.0</ele><time>2026-04-06T10:10:25Z</time></trkpt><trkpt lat="41.86550543206268" lon="12.906847032807208"><ele>766.0</ele><time>2026-04-06T10:10:26Z</time></trkpt><trkpt lat="41.86556273443287" lon="12.906896037293006"><ele>766.0</ele><time>2026-04-06T10:10:27Z</time></trkpt><trkpt lat="41.86558322613133" lon="12.906987203913449"><ele>766.0</ele><time>2026-04-06T10:10:28Z</time></trkpt><trkpt lat="41.86555387035991" lon="12.907077949315333"><ele>766.0</ele><time>2026-04-06T10:10:29Z</time></trkpt><trkpt lat="41.865505706593446" lon="12.907155884587"><ele>766.0</ele><time>2026-04-06T10:10:30Z</time></trkpt><trkpt lat="41.86543997601169" lon="12.907225882475458"><ele>766.0</ele><time>2026-04-06T10:10:31Z</time></trkpt><trkpt lat="41.86537350556581" lon="12.907303225139776"><ele>766.0</ele><time>2026-04-06T10:10:32Z</time></trkpt><trkpt lat="41.86532203903594" lon="12.907398771270088"><ele>766.0</ele><time>2026-04-06T10:10:33Z</time></trkpt><trkpt lat="41.86528096452269" lon="12.907538815709604"><ele>766.0</ele><time>2026-04-06T10:10:34Z</time></trkpt><trkpt lat="41.86522204154864" lon="12.907729859698593"><ele>766.0</ele><time>2026-04-06T10:10:35Z</time></trkpt><trkpt lat="41.865173467209004" lon="12.907956961795016"><ele>764.5</ele><time>2026-04-06T10:10:36Z</time></trkpt><trkpt lat="41.86514317389083" lon="12.908140128117958"><ele>763.0</ele><time>2026-04-06T10:10:37Z</time></trkpt><trkpt lat="41.86509657103017" lon="12.90827885615543"><ele>761.5</ele><time>2026-04-06T10:10:38Z</time></trkpt><trkpt lat="41.865053546480574" lon="12.908410055079313"><ele>760.0</ele><time>2026-04-06T10:10:39Z</time></trkpt><trkpt lat="41.86501835301001" lon="12.908522156925999"><ele>760.0</ele><time>2026-04-06T10:10:40Z</time></trkpt><trkpt lat="41.8649923801656" lon="12.908636900277251"><ele>760.0</ele><time>2026-04-06T10:10:41Z</time></trkpt><trkpt lat="41.86497795708156" lon="12.908748131525446"><ele>760.0</ele><time>2026-04-06T10:10:42Z</time></trkpt><trkpt lat="41.86499389345914" lon="12.908859748349911"><ele>760.0</ele><time>2026-04-06T10:10:43Z</time></trkpt><trkpt lat="41.86501977050512" lon="12.90896959347258"><ele>760.0</ele><time>2026-04-06T10:10:44Z</time></trkpt><trkpt lat="41.86506114472268" lon="12.909077127309404"><ele>760.0</ele><time>2026-04-06T10:10:45Z</time></trkpt><trkpt lat="41.865109978556674" lon="12.909187247885061"><ele>763.8</ele><time>2026-04-06T10:10:46Z</time></trkpt><trkpt lat="41.86515955289266" lon="12.909294632120755"><ele>767.6</ele><time>2026-04-06T10:10:47Z</time></trkpt><trkpt lat="41.865211158990014" lon="12.909411942805981"><ele>771.4000000000001</ele><time>2026-04-06T10:10:48Z</time></trkpt><trkpt lat="41.86525997397894" lon="12.909521252037637"><ele>775.2</ele><time>2026-04-06T10:10:49Z</time></trkpt><trkpt lat="41.86530001893867" lon="12.909624100831003"><ele>779.0</ele><time>2026-04-06T10:10:50Z</time></trkpt><trkpt lat="41.86534191296494" lon="12.909709105105685"><ele>779.0000000000001</ele><time>2026-04-06T10:10:51Z</time></trkpt><trkpt lat="41.86538166579543" lon="12.909780489502129"><ele>779.0</ele><time>2026-04-06T10:10:52Z</time></trkpt><trkpt lat="41.86543650693037" lon="12.909838806536339"><ele>779.0</ele><time>2026-04-06T10:10:53Z</time></trkpt><trkpt lat="41.865519246226036" lon="12.909888757872787"><ele>779.0</ele><time>2026-04-06T10:10:54Z</time></trkpt><trkpt lat="41.86559756791876" lon="12.909913710265721"><ele>779.0000000000001</ele><time>2026-04-06T10:10:55Z</time></trkpt><trkpt lat="41.86565374432932" lon="12.909966086097066"><ele>779.0</ele><time>2026-04-06T10:10:56Z</time></trkpt><trkpt lat="41.86571031296067" lon="12.910029399555764"><ele>778.5000000000001</ele><time>2026-04-06T10:10:57Z</time></trkpt><trkpt lat="41.865764561246664" lon="12.91010380847943"><ele>778.0</ele><time>2026-04-06T10:10:58Z</time></trkpt><trkpt lat="41.865780569047516" lon="12.910215071766322"><ele>777.5</ele><time>2026-04-06T10:10:59Z</time></trkpt><trkpt lat="41.86576344210447" lon="12.910344281672938"><ele>777.0</ele><time>2026-04-06T10:11:00Z</time></trkpt><trkpt lat="41.86577766286469" lon="12.910454203952296"><ele>776.5000000000001</ele><time>2026-04-06T10:11:01Z</time></trkpt><trkpt lat="41.86578593342906" lon="12.91057255660755"><ele>776.0</ele><time>2026-04-06T10:11:02Z</time></trkpt><trkpt lat="41.865795693943404" lon="12.910692365036454"><ele>776.0</ele><time>2026-04-06T10:11:03Z</time></trkpt><trkpt lat="41.86581637606625" lon="12.910812953057539"><ele>776.0</ele><time>2026-04-06T10:11:04Z</time></trkpt><trkpt lat="41.86585072509137" lon="12.91093664816277"><ele>776.0</ele><time>2026-04-06T10:11:05Z</time></trkpt><trkpt lat="41.865892596988104" lon="12.91106292163641"><ele>776.0</ele><time>2026-04-06T10:11:06Z</time></trkpt><trkpt lat="41.86593116546427" lon="12.91117349209222"><ele>776.0</ele><time>2026-04-06T10:11:07Z</time></trkpt><trkpt lat="41.865950617723726" lon="12.911281328817582"><ele>778.4</ele><time>2026-04-06T10:11:08Z</time></trkpt><trkpt lat="41.86600362988798" lon="12.911377668380972"><ele>780.8</ele><time>2026-04-06T10:11:09Z</time></trkpt><trkpt lat="41.866052419456445" lon="12.911478427486236"><ele>783.1999999999999</ele><time>2026-04-06T10:11:10Z</time></trkpt><trkpt lat="41.86611175723066" lon="12.911564386060935"><ele>785.5999999999999</ele><time>2026-04-06T10:11:11Z</time></trkpt><trkpt lat="41.86619238855102" lon="12.911637903108335"><ele>788.0</ele><time>2026-04-06T10:11:12Z</time></trkpt><trkpt lat="41.866286645654064" lon="12.911702476860915"><ele>785.0</ele><time>2026-04-06T10:11:13Z</time></trkpt><trkpt lat="41.866382539895305" lon="12.911754861719754"><ele>782.0</ele><time>2026-04-06T10:11:14Z</time></trkpt><trkpt lat="41.86647622285448" lon="12.911804145526045"><ele>779.0</ele><time>2026-04-06T10:11:15Z</time></trkpt><trkpt lat="41.86655975104078" lon="12.911846501039207"><ele>776.0</ele><time>2026-04-06T10:11:16Z</time></trkpt><trkpt lat="41.86664473015412" lon="12.911904818138488"><ele>773.0</ele><time>2026-04-06T10:11:17Z</time></trkpt><trkpt lat="41.86672419552272" lon="12.911953215085164"><ele>777.2</ele><time>2026-04-06T10:11:18Z</time></trkpt><trkpt lat="41.86681700237607" lon="12.91201067787548"><ele>781.4</ele><time>2026-04-06T10:11:19Z</time></trkpt><trkpt lat="41.86689912325587" lon="12.912088932271333"><ele>785.6</ele><time>2026-04-06T10:11:20Z</time></trkpt><trkpt lat="41.866977238795975" lon="12.912151954494771"><ele>789.8000000000001</ele><time>2026-04-06T10:11:21Z</time></trkpt><trkpt lat="41.8670335775694" lon="12.912216328816182"><ele>794.0</ele><time>2026-04-06T10:11:22Z</time></trkpt><trkpt lat="41.867080819950544" lon="12.912308637419207"><ele>794.0000000000001</ele><time>2026-04-06T10:11:23Z</time></trkpt><trkpt lat="41.86712311725325" lon="12.912408124877883"><ele>794.0</ele><time>2026-04-06T10:11:24Z</time></trkpt><trkpt lat="41.86715207458191" lon="12.912521268288936"><ele>794.0</ele><time>2026-04-06T10:11:25Z</time></trkpt><trkpt lat="41.86719098569321" lon="12.912606549695779"><ele>794.0</ele><time>2026-04-06T10:11:26Z</time></trkpt><trkpt lat="41.86725642869584" lon="12.912665371435118"><ele>794.0000000000001</ele><time>2026-04-06T10:11:27Z</time></trkpt><trkpt lat="41.86733612185503" lon="12.912709218716806"><ele>794.0</ele><time>2026-04-06T10:11:28Z</time></trkpt><trkpt lat="41.86742362854201" lon="12.912756012861523"><ele>793.5000000000001</ele><time>2026-04-06T10:11:29Z</time></trkpt><trkpt lat="41.867496384231835" lon="12.912806869914137"><ele>793.0</ele><time>2026-04-06T10:11:30Z</time></trkpt><trkpt lat="41.867566833744" lon="12.912866708229117"><ele>792.5</ele><time>2026-04-06T10:11:31Z</time></trkpt><trkpt lat="41.86764848021512" lon="12.912900195336787"><ele>792.0</ele><time>2026-04-06T10:11:32.001Z</time></trkpt><trkpt lat="41.86771711621743" lon="12.91297518054935"><ele>791.5000000000001</ele><time>2026-04-06T10:11:33.001Z</time></trkpt><trkpt lat="41.86777086363782" lon="12.91306823535489"><ele>791.0</ele><time>2026-04-06T10:11:34.001Z</time></trkpt><trkpt lat="41.867803974319685" lon="12.913177832044164"><ele>794.0000000000001</ele><time>2026-04-06T10:11:35.001Z</time></trkpt><trkpt lat="41.86782934208068" lon="12.913294646252272"><ele>797.0</ele><time>2026-04-06T10:11:36.001Z</time></trkpt><trkpt lat="41.86783813162437" lon="12.913421039408155"><ele>800.0</ele><time>2026-04-06T10:11:37.001Z</time></trkpt><trkpt lat="41.86783517323475" lon="12.913538396205482"><ele>803.0</ele><time>2026-04-06T10:11:38.001Z</time></trkpt><trkpt lat="41.86779511297025" lon="12.913637584637543"><ele>806.0000000000001</ele><time>2026-04-06T10:11:39.001Z</time></trkpt><trkpt lat="41.867772520414086" lon="12.91375233420119"><ele>809.0</ele><time>2026-04-06T10:11:40.001Z</time></trkpt><trkpt lat="41.86770979128079" lon="12.91385097498972"><ele>808.0</ele><time>2026-04-06T10:11:41.001Z</time></trkpt><trkpt lat="41.86762969493777" lon="12.91393175623517"><ele>807.0</ele><time>2026-04-06T10:11:42.001Z</time></trkpt><trkpt lat="41.86753316108495" lon="12.914021459131611"><ele>806.0</ele><time>2026-04-06T10:11:43.001Z</time></trkpt><trkpt lat="41.86743298657174" lon="12.91408978332733"><ele>805.0</ele><time>2026-04-06T10:11:44.001Z</time></trkpt><trkpt lat="41.86734753228729" lon="12.914153472938919"><ele>804.0</ele><time>2026-04-06T10:11:45.001Z</time></trkpt><trkpt lat="41.86726203027489" lon="12.914220106976979"><ele>808.0</ele><time>2026-04-06T10:11:46.001Z</time></trkpt><trkpt lat="41.86718681935735" lon="12.91428540484046"><ele>812.0</ele><time>2026-04-06T10:11:47.001Z</time></trkpt><trkpt lat="41.86711347777622" lon="12.914353352352995"><ele>816.0</ele><time>2026-04-06T10:11:48.001Z</time></trkpt><trkpt lat="41.867039507831606" lon="12.91443489025178"><ele>820.0</ele><time>2026-04-06T10:11:49.001Z</time></trkpt><trkpt lat="41.86698921958529" lon="12.914534709051791"><ele>824.0</ele><time>2026-04-06T10:11:50.001Z</time></trkpt><trkpt lat="41.8669569089145" lon="12.914655324615255"><ele>824.0</ele><time>2026-04-06T10:11:51.001Z</time></trkpt><trkpt lat="41.866943296912005" lon="12.914794346069844"><ele>824.0</ele><time>2026-04-06T10:11:52.001Z</time></trkpt><trkpt lat="41.866917749306374" lon="12.914927413693203"><ele>824.0</ele><time>2026-04-06T10:11:53.001Z</time></trkpt><trkpt lat="41.86687683847477" lon="12.915058913228583"><ele>824.0</ele><time>2026-04-06T10:11:54.001Z</time></trkpt><trkpt lat="41.86682299416399" lon="12.915180422284582"><ele>824.0</ele><time>2026-04-06T10:11:55.001Z</time></trkpt><trkpt lat="41.866759149482874" lon="12.915296575616383"><ele>823.2</ele><time>2026-04-06T10:11:56.001Z</time></trkpt><trkpt lat="41.866686521384246" lon="12.915395105974884"><ele>822.4000000000001</ele><time>2026-04-06T10:11:57.001Z</time></trkpt><trkpt lat="41.866598466185096" lon="12.915482379870971"><ele>821.6</ele><time>2026-04-06T10:11:58.001Z</time></trkpt><trkpt lat="41.8664997367767" lon="12.915557498422926"><ele>820.8</ele><time>2026-04-06T10:11:59.001Z</time></trkpt><trkpt lat="41.86641284795375" lon="12.915589333351603"><ele>820.0</ele><time>2026-04-06T10:12:00.001Z</time></trkpt><trkpt lat="41.86634436519652" lon="12.915663262982534"><ele>819.9999999999999</ele><time>2026-04-06T10:12:01.001Z</time></trkpt><trkpt lat="41.86630771972714" lon="12.915752990761668"><ele>820.0</ele><time>2026-04-06T10:12:02.001Z</time></trkpt><trkpt lat="41.86629334304985" lon="12.91587743346513"><ele>820.0</ele><time>2026-04-06T10:12:03.001Z</time></trkpt><trkpt lat="41.86630343569081" lon="12.916002216506937"><ele>820.0</ele><time>2026-04-06T10:12:04.001Z</time></trkpt><trkpt lat="41.86631201981833" lon="12.91612924246066"><ele>819.9999999999999</ele><time>2026-04-06T10:12:05.001Z</time></trkpt><trkpt lat="41.866326299631446" lon="12.916247672493636"><ele>820.0</ele><time>2026-04-06T10:12:06.001Z</time></trkpt><trkpt lat="41.86634267745456" lon="12.91637183315661"><ele>822.0</ele><time>2026-04-06T10:12:07.001Z</time></trkpt><trkpt lat="41.8663410686351" lon="12.916502513023376"><ele>824.0</ele><time>2026-04-06T10:12:08.001Z</time></trkpt><trkpt lat="41.86632375311451" lon="12.916632892455649"><ele>826.0</ele><time>2026-04-06T10:12:09.001Z</time></trkpt><trkpt lat="41.86628336083296" lon="12.916772231307057"><ele>828.0</ele><time>2026-04-06T10:12:10.001Z</time></trkpt><trkpt lat="41.86620594103041" lon="12.91690140270619"><ele>830.0</ele><time>2026-04-06T10:12:11.001Z</time></trkpt><trkpt lat="41.86611553374023" lon="12.91703680546356"><ele>828.0</ele><time>2026-04-06T10:12:12.001Z</time></trkpt><trkpt lat="41.86597944237732" lon="12.917198878176231"><ele>826.0</ele><time>2026-04-06T10:12:13.001Z</time></trkpt><trkpt lat="41.86585858957613" lon="12.917400122196463"><ele>824.0</ele><time>2026-04-06T10:12:14.001Z</time></trkpt><trkpt lat="41.8657184384279" lon="12.917584539651662"><ele>829.6666666666667</ele><time>2026-04-06T10:12:15.001Z</time></trkpt><trkpt lat="41.865606465832386" lon="12.917766379257012"><ele>835.3333333333333</ele><time>2026-04-06T10:12:16.001Z</time></trkpt><trkpt lat="41.86551397741501" lon="12.91795137591281"><ele>841.0</ele><time>2026-04-06T10:12:17.001Z</time></trkpt><trkpt lat="41.86543698413433" lon="12.91812441280238"><ele>841.0</ele><time>2026-04-06T10:12:18.001Z</time></trkpt><trkpt lat="41.86538588651517" lon="12.918297988532169"><ele>841.0</ele><time>2026-04-06T10:12:19.001Z</time></trkpt><trkpt lat="41.865357012321404" lon="12.918464760241912"><ele>841.0</ele><time>2026-04-06T10:12:20.001Z</time></trkpt><trkpt lat="41.865320244369975" lon="12.918614804334315"><ele>841.0</ele><time>2026-04-06T10:12:21.001Z</time></trkpt><trkpt lat="41.86525749913613" lon="12.91872037897219"><ele>839.5999999999999</ele><time>2026-04-06T10:12:22.001Z</time></trkpt><trkpt lat="41.865154258880686" lon="12.918776705208872"><ele>838.2</ele><time>2026-04-06T10:12:23Z</time></trkpt><trkpt lat="41.86506210150584" lon="12.918804603611884"><ele>836.8</ele><time>2026-04-06T10:12:24Z</time></trkpt><trkpt lat="41.86494991020893" lon="12.918822433100178"><ele>835.4000000000001</ele><time>2026-04-06T10:12:25Z</time></trkpt><trkpt lat="41.86484902785487" lon="12.918849249558463"><ele>834.0</ele><time>2026-04-06T10:12:26Z</time></trkpt><trkpt lat="41.86476577502366" lon="12.918873594225156"><ele>834.0</ele><time>2026-04-06T10:12:27Z</time></trkpt><trkpt lat="41.86466435779625" lon="12.918939258934895"><ele>834.0</ele><time>2026-04-06T10:12:28Z</time></trkpt><trkpt lat="41.86458123888258" lon="12.919033977763757"><ele>834.0</ele><time>2026-04-06T10:12:29Z</time></trkpt><trkpt lat="41.864511710542345" lon="12.919120098432114"><ele>834.0</ele><time>2026-04-06T10:12:30Z</time></trkpt><trkpt lat="41.86444292262787" lon="12.91919701609429"><ele>834.0</ele><time>2026-04-06T10:12:31Z</time></trkpt><trkpt lat="41.8643646399862" lon="12.919284470566959"><ele>835.8000000000001</ele><time>2026-04-06T10:12:32Z</time></trkpt><trkpt lat="41.86428054185934" lon="12.919377696532749"><ele>837.6</ele><time>2026-04-06T10:12:33Z</time></trkpt><trkpt lat="41.86419955922128" lon="12.919469556447691"><ele>839.4</ele><time>2026-04-06T10:12:34Z</time></trkpt><trkpt lat="41.864117284860434" lon="12.91955945946643"><ele>841.2</ele><time>2026-04-06T10:12:35Z</time></trkpt><trkpt lat="41.864036074251615" lon="12.919647654246782"><ele>843.0</ele><time>2026-04-06T10:12:36Z</time></trkpt><trkpt lat="41.86396385355257" lon="12.919732820710408"><ele>843.0</ele><time>2026-04-06T10:12:37Z</time></trkpt><trkpt lat="41.86388836370921" lon="12.919824104760282"><ele>843.0</ele><time>2026-04-06T10:12:38Z</time></trkpt><trkpt lat="41.863814452461" lon="12.91992240123135"><ele>843.0</ele><time>2026-04-06T10:12:39Z</time></trkpt><trkpt lat="41.863740359075464" lon="12.920024090303421"><ele>843.0</ele><time>2026-04-06T10:12:40Z</time></trkpt><trkpt lat="41.86366357307816" lon="12.920123752483828"><ele>843.0</ele><time>2026-04-06T10:12:41Z</time></trkpt><trkpt lat="41.86359037523905" lon="12.920231479438915"><ele>842.8</ele><time>2026-04-06T10:12:42Z</time></trkpt><trkpt lat="41.86352489776302" lon="12.920350399658554"><ele>842.5999999999999</ele><time>2026-04-06T10:12:43Z</time></trkpt><trkpt lat="41.86347424143683" lon="12.920477535140423"><ele>842.4000000000001</ele><time>2026-04-06T10:12:44Z</time></trkpt><trkpt lat="41.86344338825066" lon="12.920618072707954"><ele>842.2</ele><time>2026-04-06T10:12:45Z</time></trkpt><trkpt lat="41.86340783603076" lon="12.920760827443237"><ele>842.0</ele><time>2026-04-06T10:12:46Z</time></trkpt><trkpt lat="41.86341492387062" lon="12.920924650315158"><ele>842.0</ele><time>2026-04-06T10:12:47Z</time></trkpt><trkpt lat="41.86341637296257" lon="12.921100001536177"><ele>842.0</ele><time>2026-04-06T10:12:48Z</time></trkpt><trkpt lat="41.86342153443941" lon="12.921279396199145"><ele>842.0</ele><time>2026-04-06T10:12:49Z</time></trkpt><trkpt lat="41.863406877299944" lon="12.92143580920245"><ele>842.0</ele><time>2026-04-06T10:12:50Z</time></trkpt><trkpt lat="41.86337672697779" lon="12.92158996914501"><ele>843.4000000000001</ele><time>2026-04-06T10:12:51Z</time></trkpt><trkpt lat="41.863331869572406" lon="12.921732892062908"><ele>844.8000000000001</ele><time>2026-04-06T10:12:52Z</time></trkpt><trkpt lat="41.863298240457944" lon="12.921847092712701"><ele>846.2</ele><time>2026-04-06T10:12:53Z</time></trkpt><trkpt lat="41.86327856197206" lon="12.921965748749232"><ele>847.6</ele><time>2026-04-06T10:12:54Z</time></trkpt><trkpt lat="41.863289522221926" lon="12.922092968777827"><ele>849.0</ele><time>2026-04-06T10:12:55Z</time></trkpt><trkpt lat="41.863318492734564" lon="12.922206216689693"><ele>849.0</ele><time>2026-04-06T10:12:56Z</time></trkpt><trkpt lat="41.863347743972795" lon="12.922326356594278"><ele>849.0</ele><time>2026-04-06T10:12:57Z</time></trkpt><trkpt lat="41.863352976270725" lon="12.922445292797388"><ele>849.0</ele><time>2026-04-06T10:12:58Z</time></trkpt><trkpt lat="41.863295127863694" lon="12.922540055954974"><ele>849.0</ele><time>2026-04-06T10:12:59Z</time></trkpt><trkpt lat="41.86323131761251" lon="12.922620971537127"><ele>849.0</ele><time>2026-04-06T10:13:00Z</time></trkpt><trkpt lat="41.863179935575474" lon="12.922719477007165"><ele>850.2</ele><time>2026-04-06T10:13:01Z</time></trkpt><trkpt lat="41.86311263812273" lon="12.922811986884344"><ele>851.4000000000001</ele><time>2026-04-06T10:13:02Z</time></trkpt><trkpt lat="41.863061053376825" lon="12.922913718121587"><ele>852.6</ele><time>2026-04-06T10:13:03Z</time></trkpt><trkpt lat="41.863027158912914" lon="12.923027045108418"><ele>853.8</ele><time>2026-04-06T10:13:04Z</time></trkpt><trkpt lat="41.86301317416939" lon="12.92315488624454"><ele>855.0</ele><time>2026-04-06T10:13:05Z</time></trkpt><trkpt lat="41.86301622160384" lon="12.923286081506674"><ele>855.6</ele><time>2026-04-06T10:13:06Z</time></trkpt><trkpt lat="41.86302792313847" lon="12.923421070848574"><ele>856.2</ele><time>2026-04-06T10:13:07Z</time></trkpt><trkpt lat="41.863036111969855" lon="12.92354720258663"><ele>856.8</ele><time>2026-04-06T10:13:08Z</time></trkpt><trkpt lat="41.8630375599973" lon="12.92367399876448"><ele>857.4</ele><time>2026-04-06T10:13:09Z</time></trkpt><trkpt lat="41.86303989893326" lon="12.923810689143194"><ele>858.0</ele><time>2026-04-06T10:13:10Z</time></trkpt><trkpt lat="41.86305737848547" lon="12.923978889573045"><ele>858.0</ele><time>2026-04-06T10:13:11Z</time></trkpt><trkpt lat="41.863083453007874" lon="12.924121599818854"><ele>858.0</ele><time>2026-04-06T10:13:12Z</time></trkpt><trkpt lat="41.863110956269956" lon="12.924254052934343"><ele>858.0</ele><time>2026-04-06T10:13:13Z</time></trkpt><trkpt lat="41.86313224250919" lon="12.924378467664143"><ele>858.0</ele><time>2026-04-06T10:13:14Z</time></trkpt><trkpt lat="41.8631319424715" lon="12.924495976793674"><ele>858.0</ele><time>2026-04-06T10:13:15Z</time></trkpt><trkpt lat="41.86310469310139" lon="12.924616187901163"><ele>858.5999999999999</ele><time>2026-04-06T10:13:16Z</time></trkpt><trkpt lat="41.86305068451353" lon="12.924744145749138"><ele>859.1999999999999</ele><time>2026-04-06T10:13:17Z</time></trkpt><trkpt lat="41.86298668906911" lon="12.924874396002336"><ele>859.8</ele><time>2026-04-06T10:13:18Z</time></trkpt><trkpt lat="41.862934104534176" lon="12.924969036701535"><ele>860.4</ele><time>2026-04-06T10:13:19Z</time></trkpt><trkpt lat="41.862893121472666" lon="12.925089625126672"><ele>861.0</ele><time>2026-04-06T10:13:20Z</time></trkpt><trkpt lat="41.86289465336205" lon="12.92524448635191"><ele>861.75</ele><time>2026-04-06T10:13:21Z</time></trkpt><trkpt lat="41.8629327020674" lon="12.925416736325678"><ele>862.5</ele><time>2026-04-06T10:13:22Z</time></trkpt><trkpt lat="41.86294714384319" lon="12.925562192271911"><ele>863.25</ele><time>2026-04-06T10:13:23Z</time></trkpt><trkpt lat="41.86296509296275" lon="12.925698236907326"><ele>864.0</ele><time>2026-04-06T10:13:24Z</time></trkpt><trkpt lat="41.862985292553226" lon="12.925836165904585"><ele>864.3333333333334</ele><time>2026-04-06T10:13:25Z</time></trkpt><trkpt lat="41.86300442660491" lon="12.9259595441365"><ele>864.6666666666667</ele><time>2026-04-06T10:13:26Z</time></trkpt><trkpt lat="41.863048759918456" lon="12.926053211245224"><ele>865.0</ele><time>2026-04-06T10:13:27Z</time></trkpt><trkpt lat="41.86310267339146" lon="12.926153588826367"><ele>865.3333333333334</ele><time>2026-04-06T10:13:28Z</time></trkpt><trkpt lat="41.86315274539205" lon="12.926250946794331"><ele>865.6666666666667</ele><time>2026-04-06T10:13:29Z</time></trkpt><trkpt lat="41.86320279747007" lon="12.926346502327322"><ele>866.0</ele><time>2026-04-06T10:13:30Z</time></trkpt><trkpt lat="41.86323368383671" lon="12.926459488081763"><ele>866.0</ele><time>2026-04-06T10:13:31Z</time></trkpt><trkpt lat="41.86321932404168" lon="12.926592738479142"><ele>865.9999999999999</ele><time>2026-04-06T10:13:32Z</time></trkpt><trkpt lat="41.8631658333774" lon="12.926710482069685"><ele>865.9999999999999</ele><time>2026-04-06T10:13:33Z</time></trkpt><trkpt lat="41.86309560942561" lon="12.926803175270384"><ele>866.0</ele><time>2026-04-06T10:13:34Z</time></trkpt><trkpt lat="41.8630225216576" lon="12.926873272199495"><ele>866.0</ele><time>2026-04-06T10:13:35Z</time></trkpt><trkpt lat="41.862962959362186" lon="12.926933035289972"><ele>867.0000000000001</ele><time>2026-04-06T10:13:36Z</time></trkpt><trkpt lat="41.86290904612624" lon="12.926998084341765"><ele>868.0</ele><time>2026-04-06T10:13:37Z</time></trkpt><trkpt lat="41.862856600434505" lon="12.927077905643625"><ele>869.0</ele><time>2026-04-06T10:13:38Z</time></trkpt><trkpt lat="41.86280357121695" lon="12.927168395225978"><ele>870.0</ele><time>2026-04-06T10:13:39Z</time></trkpt><trkpt lat="41.86275061079639" lon="12.927268395911979"><ele>871.0000000000001</ele><time>2026-04-06T10:13:40Z</time></trkpt><trkpt lat="41.862698622774936" lon="12.927375517638355"><ele>872.0</ele><time>2026-04-06T10:13:41Z</time></trkpt><trkpt lat="41.86265222512304" lon="12.927486997858184"><ele>871.2</ele><time>2026-04-06T10:13:42Z</time></trkpt><trkpt lat="41.8626156903473" lon="12.927591520168946"><ele>870.4000000000001</ele><time>2026-04-06T10:13:43Z</time></trkpt><trkpt lat="41.86257240776397" lon="12.927691524788667"><ele>869.5999999999999</ele><time>2026-04-06T10:13:44.001Z</time></trkpt><trkpt lat="41.86252389619864" lon="12.927797893446586"><ele>868.8</ele><time>2026-04-06T10:13:45.001Z</time></trkpt><trkpt lat="41.86247600790121" lon="12.927910713603469"><ele>868.0</ele><time>2026-04-06T10:13:46.001Z</time></trkpt><trkpt lat="41.8624309401482" lon="12.928029753312297"><ele>868.0</ele><time>2026-04-06T10:13:47.001Z</time></trkpt><trkpt lat="41.862389427772335" lon="12.928150679604666"><ele>868.0</ele><time>2026-04-06T10:13:48.001Z</time></trkpt><trkpt lat="41.86235716456669" lon="12.928278465301357"><ele>868.0</ele><time>2026-04-06T10:13:49.001Z</time></trkpt><trkpt lat="41.86233792842017" lon="12.92840909494082"><ele>868.0</ele><time>2026-04-06T10:13:50.001Z</time></trkpt><trkpt lat="41.86233126090225" lon="12.92855173056516"><ele>868.0</ele><time>2026-04-06T10:13:51.001Z</time></trkpt><trkpt lat="41.86231892657225" lon="12.92869771757111"><ele>869.5</ele><time>2026-04-06T10:13:52.001Z</time></trkpt><trkpt lat="41.86229947445163" lon="12.92885215347662"><ele>871.0</ele><time>2026-04-06T10:13:53.001Z</time></trkpt><trkpt lat="41.86230582730133" lon="12.929039610605836"><ele>872.5</ele><time>2026-04-06T10:13:54.001Z</time></trkpt><trkpt lat="41.86233148436324" lon="12.929271423851583"><ele>874.0</ele><time>2026-04-06T10:13:55.001Z</time></trkpt><trkpt lat="41.86235476904612" lon="12.929494053146255"><ele>874.25</ele><time>2026-04-06T10:13:56.001Z</time></trkpt><trkpt lat="41.8623729682901" lon="12.929686251588308"><ele>874.5</ele><time>2026-04-06T10:13:57.001Z</time></trkpt><trkpt lat="41.862385789251775" lon="12.929849180475596"><ele>874.75</ele><time>2026-04-06T10:13:58.001Z</time></trkpt><trkpt lat="41.862397760794394" lon="12.929995184058273"><ele>875.0</ele><time>2026-04-06T10:13:59.001Z</time></trkpt><trkpt lat="41.86241868022657" lon="12.930130351235393"><ele>875.3333333333334</ele><time>2026-04-06T10:14:00.001Z</time></trkpt><trkpt lat="41.86242907700938" lon="12.930245092146363"><ele>875.6666666666667</ele><time>2026-04-06T10:14:01.001Z</time></trkpt><trkpt lat="41.86243641049748" lon="12.930343667170234"><ele>876.0</ele><time>2026-04-06T10:14:02.001Z</time></trkpt><trkpt lat="41.86244620864878" lon="12.930448975292268"><ele>876.3333333333333</ele><time>2026-04-06T10:14:03.001Z</time></trkpt><trkpt lat="41.86245879472798" lon="12.930545478209012"><ele>876.6666666666666</ele><time>2026-04-06T10:14:04.001Z</time></trkpt><trkpt lat="41.86247616928537" lon="12.930650690840238"><ele>877.0</ele><time>2026-04-06T10:14:05.001Z</time></trkpt><trkpt lat="41.86250892533796" lon="12.930764030988854"><ele>876.9999999999999</ele><time>2026-04-06T10:14:06.001Z</time></trkpt><trkpt lat="41.86255394795538" lon="12.93087275399966"><ele>877.0</ele><time>2026-04-06T10:14:07.001Z</time></trkpt><trkpt lat="41.86260389647167" lon="12.930964195480302"><ele>877.0</ele><time>2026-04-06T10:14:08.001Z</time></trkpt><trkpt lat="41.86265715378411" lon="12.931039526372366"><ele>877.0</ele><time>2026-04-06T10:14:09.001Z</time></trkpt><trkpt lat="41.86271137670258" lon="12.93112156527297"><ele>876.9999999999999</ele><time>2026-04-06T10:14:10.001Z</time></trkpt><trkpt lat="41.86276337982826" lon="12.931209796060294"><ele>877.0</ele><time>2026-04-06T10:14:11.001Z</time></trkpt><trkpt lat="41.862820631322705" lon="12.93129643389929"><ele>876.6666666666666</ele><time>2026-04-06T10:14:12.001Z</time></trkpt><trkpt lat="41.86289207308929" lon="12.931365846437712"><ele>876.3333333333333</ele><time>2026-04-06T10:14:13.001Z</time></trkpt><trkpt lat="41.862983817301036" lon="12.931400487406808"><ele>876.0</ele><time>2026-04-06T10:14:14.001Z</time></trkpt><trkpt lat="41.86306854802138" lon="12.931435910281657"><ele>875.6666666666667</ele><time>2026-04-06T10:14:15.001Z</time></trkpt><trkpt lat="41.863151672241216" lon="12.931458883371933"><ele>875.3333333333334</ele><time>2026-04-06T10:14:16.001Z</time></trkpt><trkpt lat="41.863228994144336" lon="12.931455783182217"><ele>875.0</ele><time>2026-04-06T10:14:17.001Z</time></trkpt><trkpt lat="41.86330269040922" lon="12.93142742645513"><ele>875.0</ele><time>2026-04-06T10:14:18.001Z</time></trkpt><trkpt lat="41.86338523016998" lon="12.931416096775768"><ele>875.0</ele><time>2026-04-06T10:14:19.001Z</time></trkpt><trkpt lat="41.86345235627751" lon="12.931383667672236"><ele>875.0</ele><time>2026-04-06T10:14:20.001Z</time></trkpt><trkpt lat="41.863518299635174" lon="12.931350332391638"><ele>875.0</ele><time>2026-04-06T10:14:21.001Z</time></trkpt><trkpt lat="41.86358736547175" lon="12.931325236968577"><ele>875.0</ele><time>2026-04-06T10:14:22.001Z</time></trkpt><trkpt lat="41.8636501286081" lon="12.931285559681108"><ele>875.0</ele><time>2026-04-06T10:14:23.001Z</time></trkpt><trkpt lat="41.863724477155294" lon="12.931298872161967"><ele>875.0</ele><time>2026-04-06T10:14:24.001Z</time></trkpt><trkpt lat="41.863813473465115" lon="12.931315543741139"><ele>874.8333333333334</ele><time>2026-04-06T10:14:25.001Z</time></trkpt><trkpt lat="41.863895592693794" lon="12.931371315066391"><ele>874.6666666666667</ele><time>2026-04-06T10:14:26.001Z</time></trkpt><trkpt lat="41.863972546368466" lon="12.931392991480918"><ele>874.5</ele><time>2026-04-06T10:14:27.001Z</time></trkpt><trkpt lat="41.86403450651919" lon="12.931422073768955"><ele>874.3333333333333</ele><time>2026-04-06T10:14:28.001Z</time></trkpt><trkpt lat="41.864110186737335" lon="12.931399357360494"><ele>874.1666666666666</ele><time>2026-04-06T10:14:29Z</time></trkpt><trkpt lat="41.86419348845926" lon="12.931372689608736"><ele>874.0</ele><time>2026-04-06T10:14:30Z</time></trkpt><trkpt lat="41.86427497030879" lon="12.931333669111078"><ele>874.4000000000001</ele><time>2026-04-06T10:14:31Z</time></trkpt><trkpt lat="41.86444727443478" lon="12.93126275441902"><ele>874.8000000000001</ele><time>2026-04-06T10:14:33Z</time></trkpt><trkpt lat="41.864532001432536" lon="12.931233328801703"><ele>875.1999999999999</ele><time>2026-04-06T10:14:34Z</time></trkpt><trkpt lat="41.864609140381106" lon="12.931218417976064"><ele>875.5999999999999</ele><time>2026-04-06T10:14:35Z</time></trkpt><trkpt lat="41.864688916799054" lon="12.931208266782397"><ele>876.0</ele><time>2026-04-06T10:14:36Z</time></trkpt><trkpt lat="41.86477212469056" lon="12.931205895276715"><ele>876.0</ele><time>2026-04-06T10:14:37Z</time></trkpt><trkpt lat="41.86485384943184" lon="12.931226254804846"><ele>875.9999999999999</ele><time>2026-04-06T10:14:38Z</time></trkpt><trkpt lat="41.864939693224734" lon="12.93126412604732"><ele>875.9999999999999</ele><time>2026-04-06T10:14:39Z</time></trkpt><trkpt lat="41.86503405021478" lon="12.931302854215794"><ele>876.0</ele><time>2026-04-06T10:14:40Z</time></trkpt><trkpt lat="41.86513210424986" lon="12.931340963762553"><ele>876.0</ele><time>2026-04-06T10:14:41Z</time></trkpt><trkpt lat="41.865296967851755" lon="12.931446165819866"><ele>877.4</ele><time>2026-04-06T10:14:43Z</time></trkpt><trkpt lat="41.86537396024836" lon="12.93153105870187"><ele>878.8</ele><time>2026-04-06T10:14:44Z</time></trkpt><trkpt lat="41.865444659801426" lon="12.931649959261582"><ele>880.1999999999999</ele><time>2026-04-06T10:14:45Z</time></trkpt><trkpt lat="41.86550870678805" lon="12.931773434971044"><ele>881.5999999999999</ele><time>2026-04-06T10:14:46Z</time></trkpt><trkpt lat="41.865554211593256" lon="12.931890651830335"><ele>883.0</ele><time>2026-04-06T10:14:47Z</time></trkpt><trkpt lat="41.86556266994753" lon="12.932037181868342"><ele>883.0</ele><time>2026-04-06T10:14:48Z</time></trkpt><trkpt lat="41.86551013149532" lon="12.932173442743677"><ele>883.0</ele><time>2026-04-06T10:14:49Z</time></trkpt><trkpt lat="41.8654943137381" lon="12.932316187276555"><ele>883.0</ele><time>2026-04-06T10:14:50Z</time></trkpt><trkpt lat="41.86546855231434" lon="12.93243603717585"><ele>883.0</ele><time>2026-04-06T10:14:51Z</time></trkpt><trkpt lat="41.86547248255113" lon="12.932557810919846"><ele>883.0</ele><time>2026-04-06T10:14:52Z</time></trkpt><trkpt lat="41.86551882289411" lon="12.932672294557749"><ele>881.25</ele><time>2026-04-06T10:14:53Z</time></trkpt><trkpt lat="41.865575506588094" lon="12.93279634556782"><ele>879.5</ele><time>2026-04-06T10:14:54Z</time></trkpt><trkpt lat="41.86564604717109" lon="12.932922018428291"><ele>877.75</ele><time>2026-04-06T10:14:55Z</time></trkpt><trkpt lat="41.86571920712461" lon="12.933042501972688"><ele>876.0</ele><time>2026-04-06T10:14:56Z</time></trkpt><trkpt lat="41.86578299019" lon="12.93317007681556"><ele>876.0</ele><time>2026-04-06T10:14:57Z</time></trkpt><trkpt lat="41.86583778860372" lon="12.93329150226138"><ele>875.9999999999999</ele><time>2026-04-06T10:14:58Z</time></trkpt><trkpt lat="41.865894727775895" lon="12.933401739941157"><ele>875.9999999999999</ele><time>2026-04-06T10:14:59Z</time></trkpt><trkpt lat="41.865949547144226" lon="12.933508382739506"><ele>876.0</ele><time>2026-04-06T10:15:00Z</time></trkpt><trkpt lat="41.86600355970285" lon="12.93361588375228"><ele>876.0</ele><time>2026-04-06T10:15:01Z</time></trkpt><trkpt lat="41.866062620940184" lon="12.933719474659673"><ele>874.4</ele><time>2026-04-06T10:15:02Z</time></trkpt><trkpt lat="41.86612670797549" lon="12.933813113851382"><ele>872.8</ele><time>2026-04-06T10:15:03Z</time></trkpt><trkpt lat="41.86621643505645" lon="12.933874266667369"><ele>871.1999999999999</ele><time>2026-04-06T10:15:04Z</time></trkpt><trkpt lat="41.86631358867098" lon="12.933887488810734"><ele>869.5999999999999</ele><time>2026-04-06T10:15:05Z</time></trkpt><trkpt lat="41.866408343898" lon="12.933862481409012"><ele>868.0</ele><time>2026-04-06T10:15:06Z</time></trkpt><trkpt lat="41.86649688504379" lon="12.933827773841859"><ele>867.9999999999999</ele><time>2026-04-06T10:15:07Z</time></trkpt><trkpt lat="41.86657718158691" lon="12.933782181099305"><ele>868.0</ele><time>2026-04-06T10:15:08Z</time></trkpt><trkpt lat="41.86665325856269" lon="12.933746229938848"><ele>868.0</ele><time>2026-04-06T10:15:09Z</time></trkpt><trkpt lat="41.866729120270314" lon="12.933721774795304"><ele>868.0</ele><time>2026-04-06T10:15:10Z</time></trkpt><trkpt lat="41.86681602451663" lon="12.93371390981302"><ele>867.9999999999999</ele><time>2026-04-06T10:15:11Z</time></trkpt><trkpt lat="41.86689890966516" lon="12.933703730044114"><ele>868.0</ele><time>2026-04-06T10:15:12Z</time></trkpt><trkpt lat="41.866973936607586" lon="12.933748301765656"><ele>869.3333333333333</ele><time>2026-04-06T10:15:13Z</time></trkpt><trkpt lat="41.86702136212398" lon="12.933839798694942"><ele>870.6666666666666</ele><time>2026-04-06T10:15:14Z</time></trkpt><trkpt lat="41.867079151607655" lon="12.933904328658564"><ele>872.0</ele><time>2026-04-06T10:15:15Z</time></trkpt><trkpt lat="41.86712733092426" lon="12.933965847586187"><ele>873.3333333333333</ele><time>2026-04-06T10:15:16Z</time></trkpt><trkpt lat="41.867185396295376" lon="12.934014062437793"><ele>874.6666666666666</ele><time>2026-04-06T10:15:17Z</time></trkpt><trkpt lat="41.8672594193579" lon="12.934047129871447"><ele>876.0</ele><time>2026-04-06T10:15:18Z</time></trkpt><trkpt lat="41.86734915191086" lon="12.934052764876162"><ele>876.0</ele><time>2026-04-06T10:15:19Z</time></trkpt><trkpt lat="41.86744890089656" lon="12.934026351270797"><ele>876.0</ele><time>2026-04-06T10:15:20Z</time></trkpt><trkpt lat="41.86753519999525" lon="12.933985029184194"><ele>876.0</ele><time>2026-04-06T10:15:21Z</time></trkpt><trkpt lat="41.86761423242214" lon="12.933938488548309"><ele>876.0</ele><time>2026-04-06T10:15:22Z</time></trkpt><trkpt lat="41.86768240986588" lon="12.933891920603209"><ele>876.0</ele><time>2026-04-06T10:15:23Z</time></trkpt><trkpt lat="41.86775312745525" lon="12.933880723710889"><ele>876.0</ele><time>2026-04-06T10:15:24Z</time></trkpt><trkpt lat="41.867875901680314" lon="12.933859039361128"><ele>877.0</ele><time>2026-04-06T10:15:26Z</time></trkpt><trkpt lat="41.86794023195104" lon="12.93392404379461"><ele>878.0</ele><time>2026-04-06T10:15:27Z</time></trkpt><trkpt lat="41.86798279348534" lon="12.93401074993996"><ele>879.0</ele><time>2026-04-06T10:15:28Z</time></trkpt><trkpt lat="41.86802098167918" lon="12.934105958666805"><ele>880.0</ele><time>2026-04-06T10:15:29Z</time></trkpt><trkpt lat="41.86806600813629" lon="12.934216576527362"><ele>881.0</ele><time>2026-04-06T10:15:30Z</time></trkpt><trkpt lat="41.86811298688768" lon="12.934340241167899"><ele>882.0</ele><time>2026-04-06T10:15:31Z</time></trkpt><trkpt lat="41.86816490462956" lon="12.934485154094046"><ele>882.0</ele><time>2026-04-06T10:15:32Z</time></trkpt><trkpt lat="41.86822007987369" lon="12.93464448021387"><ele>882.0</ele><time>2026-04-06T10:15:33Z</time></trkpt><trkpt lat="41.86828987377665" lon="12.93484409205311"><ele>882.0</ele><time>2026-04-06T10:15:34Z</time></trkpt><trkpt lat="41.868354809903686" lon="12.93508347667256"><ele>881.6666666666667</ele><time>2026-04-06T10:15:35Z</time></trkpt><trkpt lat="41.868415464925754" lon="12.935318794910398"><ele>881.3333333333334</ele><time>2026-04-06T10:15:36Z</time></trkpt><trkpt lat="41.868471179145935" lon="12.935540607895792"><ele>881.0</ele><time>2026-04-06T10:15:37Z</time></trkpt><trkpt lat="41.86852430357662" lon="12.935742542474852"><ele>889.75</ele><time>2026-04-06T10:15:38Z</time></trkpt><trkpt lat="41.86853445280366" lon="12.935928058717398"><ele>898.5</ele><time>2026-04-06T10:15:39Z</time></trkpt><trkpt lat="41.868521982562235" lon="12.936104857081485"><ele>907.25</ele><time>2026-04-06T10:15:40Z</time></trkpt><trkpt lat="41.86852004829807" lon="12.936276220753564"><ele>916.0</ele><time>2026-04-06T10:15:41Z</time></trkpt><trkpt lat="41.868490158223544" lon="12.936422278495778"><ele>915.9999999999999</ele><time>2026-04-06T10:15:42Z</time></trkpt><trkpt lat="41.86847160528285" lon="12.936553220755409"><ele>916.0</ele><time>2026-04-06T10:15:43Z</time></trkpt><trkpt lat="41.86845534174846" lon="12.936666854559675"><ele>916.0</ele><time>2026-04-06T10:15:44Z</time></trkpt><trkpt lat="41.868414298684115" lon="12.936756075159446"><ele>916.0</ele><time>2026-04-06T10:15:45Z</time></trkpt><trkpt lat="41.86833714305131" lon="12.936827857755436"><ele>915.9999999999999</ele><time>2026-04-06T10:15:46Z</time></trkpt><trkpt lat="41.8682590289199" lon="12.936876282322082"><ele>916.0</ele><time>2026-04-06T10:15:47.001Z</time></trkpt><trkpt lat="41.86815949032525" lon="12.936903818296337"><ele>914.0</ele><time>2026-04-06T10:15:48.001Z</time></trkpt><trkpt lat="41.868066239402935" lon="12.936935816263736"><ele>912.0</ele><time>2026-04-06T10:15:49.001Z</time></trkpt><trkpt lat="41.86794625846975" lon="12.93697995013372"><ele>910.0</ele><time>2026-04-06T10:15:50.001Z</time></trkpt><trkpt lat="41.86783044066758" lon="12.937012645161998"><ele>908.0</ele><time>2026-04-06T10:15:51.001Z</time></trkpt><trkpt lat="41.86771745353479" lon="12.937049322936307"><ele>903.8</ele><time>2026-04-06T10:15:52.001Z</time></trkpt><trkpt lat="41.86760709774059" lon="12.937079047561797"><ele>899.5999999999999</ele><time>2026-04-06T10:15:53.001Z</time></trkpt><trkpt lat="41.8675125604318" lon="12.937107505659876"><ele>895.4000000000001</ele><time>2026-04-06T10:15:54.001Z</time></trkpt><trkpt lat="41.86743067764514" lon="12.937142452003917"><ele>891.2</ele><time>2026-04-06T10:15:55.001Z</time></trkpt><trkpt lat="41.867364285830696" lon="12.937197939218748"><ele>887.0</ele><time>2026-04-06T10:15:56.001Z</time></trkpt><trkpt lat="41.867308512723426" lon="12.937293932145659"><ele>887.0</ele><time>2026-04-06T10:15:57.001Z</time></trkpt><trkpt lat="41.867261911613156" lon="12.937409557931565"><ele>887.0</ele><time>2026-04-06T10:15:58.001Z</time></trkpt><trkpt lat="41.86723956074744" lon="12.937527306708127"><ele>887.0</ele><time>2026-04-06T10:15:59.001Z</time></trkpt><trkpt lat="41.86721738214338" lon="12.937647964892383"><ele>887.0</ele><time>2026-04-06T10:16:00.001Z</time></trkpt><trkpt lat="41.8672033756665" lon="12.93777373943945"><ele>887.0</ele><time>2026-04-06T10:16:01.001Z</time></trkpt><trkpt lat="41.867187824419986" lon="12.937902868402416"><ele>889.4000000000001</ele><time>2026-04-06T10:16:02.001Z</time></trkpt><trkpt lat="41.86717475904527" lon="12.938028379268475"><ele>891.8000000000001</ele><time>2026-04-06T10:16:03.001Z</time></trkpt><trkpt lat="41.86716688239637" lon="12.938148648749163"><ele>894.2</ele><time>2026-04-06T10:16:04.001Z</time></trkpt><trkpt lat="41.86716228943222" lon="12.938265657861523"><ele>896.6</ele><time>2026-04-06T10:16:05.001Z</time></trkpt><trkpt lat="41.867153617088334" lon="12.938392556076057"><ele>899.0</ele><time>2026-04-06T10:16:06.001Z</time></trkpt><trkpt lat="41.86716078515122" lon="12.938541236614642"><ele>899.2</ele><time>2026-04-06T10:16:07.001Z</time></trkpt><trkpt lat="41.867190443982054" lon="12.938669705488097"><ele>899.4000000000001</ele><time>2026-04-06T10:16:08.001Z</time></trkpt><trkpt lat="41.86723675409758" lon="12.93878268629781"><ele>899.6</ele><time>2026-04-06T10:16:09.001Z</time></trkpt><trkpt lat="41.86727295409813" lon="12.938902345395459"><ele>899.8</ele><time>2026-04-06T10:16:10.001Z</time></trkpt><trkpt lat="41.86730883538498" lon="12.939027090321286"><ele>900.0</ele><time>2026-04-06T10:16:11.001Z</time></trkpt><trkpt lat="41.867344713376966" lon="12.939137414689014"><ele>900.4</ele><time>2026-04-06T10:16:12.001Z</time></trkpt><trkpt lat="41.867372412395774" lon="12.939245415126077"><ele>900.8</ele><time>2026-04-06T10:16:13.001Z</time></trkpt><trkpt lat="41.867396896736786" lon="12.939355572767298"><ele>901.2</ele><time>2026-04-06T10:16:14.001Z</time></trkpt><trkpt lat="41.86741004162338" lon="12.939484324471305"><ele>901.6</ele><time>2026-04-06T10:16:15.001Z</time></trkpt><trkpt lat="41.86739729302723" lon="12.93960713036921"><ele>902.0</ele><time>2026-04-06T10:16:16.001Z</time></trkpt><trkpt lat="41.86735763582932" lon="12.939724513939899"><ele>902.0</ele><time>2026-04-06T10:16:17.001Z</time></trkpt><trkpt lat="41.867317000458016" lon="12.939829323207984"><ele>902.0</ele><time>2026-04-06T10:16:18.001Z</time></trkpt><trkpt lat="41.867271976228075" lon="12.93994849369884"><ele>902.0</ele><time>2026-04-06T10:16:19.001Z</time></trkpt><trkpt lat="41.86721903677255" lon="12.940080095772723"><ele>902.0</ele><time>2026-04-06T10:16:20.001Z</time></trkpt><trkpt lat="41.86716244711197" lon="12.94019574953961"><ele>902.0</ele><time>2026-04-06T10:16:21.001Z</time></trkpt><trkpt lat="41.86711781904837" lon="12.940309407684904"><ele>904.0</ele><time>2026-04-06T10:16:22.001Z</time></trkpt><trkpt lat="41.867067699413425" lon="12.94042337417346"><ele>906.0</ele><time>2026-04-06T10:16:23.001Z</time></trkpt><trkpt lat="41.86701437802275" lon="12.940546051273317"><ele>908.0</ele><time>2026-04-06T10:16:24.001Z</time></trkpt><trkpt lat="41.86696975548228" lon="12.940675569188205"><ele>910.0</ele><time>2026-04-06T10:16:25.001Z</time></trkpt><trkpt lat="41.86693408504043" lon="12.940820114508847"><ele>912.0</ele><time>2026-04-06T10:16:26.001Z</time></trkpt><trkpt lat="41.866909561964135" lon="12.940986055958827"><ele>913.6</ele><time>2026-04-06T10:16:27.001Z</time></trkpt><trkpt lat="41.8668978771386" lon="12.941152358913445"><ele>915.2</ele><time>2026-04-06T10:16:28.001Z</time></trkpt><trkpt lat="41.8668750397318" lon="12.941289596945795"><ele>916.8</ele><time>2026-04-06T10:16:29.001Z</time></trkpt><trkpt lat="41.86687075081619" lon="12.941423866183472"><ele>918.4</ele><time>2026-04-06T10:16:30.001Z</time></trkpt><trkpt lat="41.866832957587775" lon="12.94153274131642"><ele>920.0</ele><time>2026-04-06T10:16:31.001Z</time></trkpt><trkpt lat="41.86675583454747" lon="12.941617532196922"><ele>917.6</ele><time>2026-04-06T10:16:32.001Z</time></trkpt><trkpt lat="41.86667988579289" lon="12.941714426663498"><ele>915.2</ele><time>2026-04-06T10:16:33.001Z</time></trkpt><trkpt lat="41.866591137283905" lon="12.941773987028991"><ele>912.8</ele><time>2026-04-06T10:16:34.001Z</time></trkpt><trkpt lat="41.86650322246294" lon="12.941837075241965"><ele>910.4</ele><time>2026-04-06T10:16:35Z</time></trkpt><trkpt lat="41.866418425637086" lon="12.941917299595584"><ele>908.0</ele><time>2026-04-06T10:16:36Z</time></trkpt><trkpt lat="41.8663398715991" lon="12.942003102603124"><ele>908.0</ele><time>2026-04-06T10:16:37Z</time></trkpt><trkpt lat="41.86627791758659" lon="12.94212474145662"><ele>908.0</ele><time>2026-04-06T10:16:38Z</time></trkpt><trkpt lat="41.86623752932055" lon="12.94224802673463"><ele>908.0</ele><time>2026-04-06T10:16:39Z</time></trkpt><trkpt lat="41.866211850687584" lon="12.942376936538212"><ele>908.0</ele><time>2026-04-06T10:16:40Z</time></trkpt><trkpt lat="41.86618444440591" lon="12.942497778602904"><ele>908.0</ele><time>2026-04-06T10:16:41Z</time></trkpt><trkpt lat="41.86615140007433" lon="12.942623645743605"><ele>905.8</ele><time>2026-04-06T10:16:42Z</time></trkpt><trkpt lat="41.86610786351716" lon="12.942763449594779"><ele>903.5999999999999</ele><time>2026-04-06T10:16:43Z</time></trkpt><trkpt lat="41.8660571156988" lon="12.94289039323154"><ele>901.4000000000001</ele><time>2026-04-06T10:16:44Z</time></trkpt><trkpt lat="41.86599145567424" lon="12.942995916035812"><ele>899.2</ele><time>2026-04-06T10:16:45Z</time></trkpt><trkpt lat="41.865909599926695" lon="12.943097662468825"><ele>897.0</ele><time>2026-04-06T10:16:46Z</time></trkpt><trkpt lat="41.86582464231967" lon="12.943191625455622"><ele>897.0</ele><time>2026-04-06T10:16:47Z</time></trkpt><trkpt lat="41.865733647077796" lon="12.94325854754138"><ele>897.0</ele><time>2026-04-06T10:16:48Z</time></trkpt><trkpt lat="41.86563061619056" lon="12.943315711411326"><ele>897.0</ele><time>2026-04-06T10:16:49Z</time></trkpt><trkpt lat="41.86552489110682" lon="12.94336254565084"><ele>897.0</ele><time>2026-04-06T10:16:50Z</time></trkpt><trkpt lat="41.865427734353474" lon="12.943415157071394"><ele>897.0</ele><time>2026-04-06T10:16:51Z</time></trkpt><trkpt lat="41.86534375237449" lon="12.943488012437676"><ele>895.8</ele><time>2026-04-06T10:16:52Z</time></trkpt><trkpt lat="41.86526331036436" lon="12.943581618395084"><ele>894.6</ele><time>2026-04-06T10:16:53Z</time></trkpt><trkpt lat="41.86519853660101" lon="12.943702960660305"><ele>893.3999999999999</ele><time>2026-04-06T10:16:54Z</time></trkpt><trkpt lat="41.86515018164315" lon="12.943848161917003"><ele>892.1999999999999</ele><time>2026-04-06T10:16:55Z</time></trkpt><trkpt lat="41.865109336769066" lon="12.943976431762442"><ele>891.0</ele><time>2026-04-06T10:16:56Z</time></trkpt><trkpt lat="41.865069398328785" lon="12.944093079925299"><ele>891.0</ele><time>2026-04-06T10:16:57Z</time></trkpt><trkpt lat="41.865028144949555" lon="12.944206425401116"><ele>890.9999999999999</ele><time>2026-04-06T10:16:58Z</time></trkpt><trkpt lat="41.864982786193075" lon="12.94432906373845"><ele>890.9999999999999</ele><time>2026-04-06T10:16:59Z</time></trkpt><trkpt lat="41.86491446928407" lon="12.944437756191686"><ele>891.0</ele><time>2026-04-06T10:17:00Z</time></trkpt><trkpt lat="41.86484940443378" lon="12.944543438076836"><ele>891.0</ele><time>2026-04-06T10:17:01Z</time></trkpt><trkpt lat="41.86478856599834" lon="12.94465095008066"><ele>895.75</ele><time>2026-04-06T10:17:02Z</time></trkpt><trkpt lat="41.86470923031655" lon="12.944751299048253"><ele>900.5</ele><time>2026-04-06T10:17:03Z</time></trkpt><trkpt lat="41.86461954866534" lon="12.944857949917244"><ele>905.25</ele><time>2026-04-06T10:17:04Z</time></trkpt><trkpt lat="41.864526513530485" lon="12.944971403934735"><ele>910.0</ele><time>2026-04-06T10:17:05Z</time></trkpt><trkpt lat="41.86443145474088" lon="12.945063833708243"><ele>907.4</ele><time>2026-04-06T10:17:06Z</time></trkpt><trkpt lat="41.86434172637926" lon="12.945157750108946"><ele>904.8</ele><time>2026-04-06T10:17:07Z</time></trkpt><trkpt lat="41.86426254621881" lon="12.945263772429907"><ele>902.2</ele><time>2026-04-06T10:17:08Z</time></trkpt><trkpt lat="41.86419163265553" lon="12.945371286162002"><ele>899.6</ele><time>2026-04-06T10:17:09Z</time></trkpt><trkpt lat="41.86412785008492" lon="12.945476258736878"><ele>897.0</ele><time>2026-04-06T10:17:10Z</time></trkpt><trkpt lat="41.86407276465054" lon="12.945577997537123"><ele>897.0</ele><time>2026-04-06T10:17:11Z</time></trkpt><trkpt lat="41.864020591801946" lon="12.945678952264712"><ele>897.0</ele><time>2026-04-06T10:17:12Z</time></trkpt><trkpt lat="41.86396969951931" lon="12.945781294015408"><ele>897.0</ele><time>2026-04-06T10:17:13Z</time></trkpt><trkpt lat="41.863931372491834" lon="12.945875160663176"><ele>897.0</ele><time>2026-04-06T10:17:14Z</time></trkpt><trkpt lat="41.863888083359946" lon="12.945992268912871"><ele>897.0</ele><time>2026-04-06T10:17:15Z</time></trkpt><trkpt lat="41.86383040237548" lon="12.946202266681187"><ele>902.0</ele><time>2026-04-06T10:17:16Z</time></trkpt><trkpt lat="41.86374465979837" lon="12.946444302169544"><ele>907.0</ele><time>2026-04-06T10:17:17Z</time></trkpt><trkpt lat="41.86369024524511" lon="12.946704333978163"><ele>912.0</ele><time>2026-04-06T10:17:18Z</time></trkpt><trkpt lat="41.86361279157124" lon="12.9469339466033"><ele>915.0</ele><time>2026-04-06T10:17:19Z</time></trkpt><trkpt lat="41.86355861518627" lon="12.947136131030039"><ele>918.0</ele><time>2026-04-06T10:17:20Z</time></trkpt><trkpt lat="41.863508862899266" lon="12.94733407781531"><ele>921.0</ele><time>2026-04-06T10:17:21Z</time></trkpt><trkpt lat="41.86345548010474" lon="12.947524158368681"><ele>913.75</ele><time>2026-04-06T10:17:22Z</time></trkpt><trkpt lat="41.86339662570305" lon="12.947720609040097"><ele>906.5</ele><time>2026-04-06T10:17:23Z</time></trkpt><trkpt lat="41.86334808503719" lon="12.94789950352856"><ele>899.25</ele><time>2026-04-06T10:17:24Z</time></trkpt><trkpt lat="41.86330832059737" lon="12.948051765095158"><ele>892.0</ele><time>2026-04-06T10:17:25Z</time></trkpt><trkpt lat="41.86326664634437" lon="12.948193096316453"><ele>891.9999999999999</ele><time>2026-04-06T10:17:26Z</time></trkpt><trkpt lat="41.86324006272943" lon="12.948289096411768"><ele>892.0</ele><time>2026-04-06T10:17:27Z</time></trkpt><trkpt lat="41.863217944538576" lon="12.948387367344028"><ele>892.0</ele><time>2026-04-06T10:17:28Z</time></trkpt><trkpt lat="41.86320747494434" lon="12.94849664415892"><ele>892.0</ele><time>2026-04-06T10:17:29Z</time></trkpt><trkpt lat="41.86319770030696" lon="12.948615208096077"><ele>891.9999999999999</ele><time>2026-04-06T10:17:30Z</time></trkpt><trkpt lat="41.863194352909765" lon="12.94871095432223"><ele>892.0</ele><time>2026-04-06T10:17:31Z</time></trkpt><trkpt lat="41.86319530959193" lon="12.948811868848342"><ele>892.1666666666666</ele><time>2026-04-06T10:17:32Z</time></trkpt><trkpt lat="41.8631929350496" lon="12.9489047583146"><ele>892.3333333333333</ele><time>2026-04-06T10:17:33Z</time></trkpt><trkpt lat="41.863177342951424" lon="12.949066518253156"><ele>892.5</ele><time>2026-04-06T10:17:35Z</time></trkpt><trkpt lat="41.86318790786784" lon="12.949153205854234"><ele>892.6666666666667</ele><time>2026-04-06T10:17:36Z</time></trkpt><trkpt lat="41.86318152725509" lon="12.949302022159829"><ele>892.8333333333334</ele><time>2026-04-06T10:17:38Z</time></trkpt><trkpt lat="41.86317256751897" lon="12.949387669994065"><ele>893.0</ele><time>2026-04-06T10:17:40Z</time></trkpt><trkpt lat="41.86317536646742" lon="12.94953825452629"><ele>893.3333333333334</ele><time>2026-04-06T10:17:56.001Z</time></trkpt><trkpt lat="41.86317662787004" lon="12.9496572322963"><ele>893.6666666666667</ele><time>2026-04-06T10:17:57.001Z</time></trkpt><trkpt lat="41.863168988457836" lon="12.94978221942908"><ele>894.0</ele><time>2026-04-06T10:17:58.001Z</time></trkpt><trkpt lat="41.86315256129238" lon="12.949886992178811"><ele>894.3333333333333</ele><time>2026-04-06T10:17:59.001Z</time></trkpt><trkpt lat="41.86314836841584" lon="12.949985726377017"><ele>894.6666666666666</ele><time>2026-04-06T10:18:00.001Z</time></trkpt><trkpt lat="41.863144259653886" lon="12.950082479851446"><ele>895.0</ele><time>2026-04-06T10:18:01.001Z</time></trkpt><trkpt lat="41.86314012251951" lon="12.95017990140314"><ele>895.0</ele><time>2026-04-06T10:18:02.001Z</time></trkpt><trkpt lat="41.86315177892458" lon="12.950275220275023"><ele>895.0</ele><time>2026-04-06T10:18:03.001Z</time></trkpt><trkpt lat="41.86312894220171" lon="12.950443884293254"><ele>895.0</ele><time>2026-04-06T10:18:05.001Z</time></trkpt><trkpt lat="41.86312273043464" lon="12.950590668803642"><ele>895.0</ele><time>2026-04-06T10:18:07.001Z</time></trkpt><trkpt lat="41.86311913096351" lon="12.950675724694891"><ele>895.0</ele><time>2026-04-06T10:18:08.001Z</time></trkpt><trkpt lat="41.86311292311305" lon="12.950822416935706"><ele>894.1666666666666</ele><time>2026-04-06T10:18:10.001Z</time></trkpt><trkpt lat="41.86311581572075" lon="12.95093880416409"><ele>893.3333333333333</ele><time>2026-04-06T10:18:12.001Z</time></trkpt><trkpt lat="41.86308271465436" lon="12.951045277503498"><ele>892.5</ele><time>2026-04-06T10:18:14.001Z</time></trkpt><trkpt lat="41.86304377061032" lon="12.951120494299557"><ele>891.6666666666667</ele><time>2026-04-06T10:18:16.001Z</time></trkpt><trkpt lat="41.86307043734722" lon="12.951247139726872"><ele>890.8333333333334</ele><time>2026-04-06T10:18:18.001Z</time></trkpt><trkpt lat="41.863154988955024" lon="12.951293455507846"><ele>890.0</ele><time>2026-04-06T10:18:20.001Z</time></trkpt><trkpt lat="41.86324486370831" lon="12.951318371187364"><ele>890.0000000000001</ele><time>2026-04-06T10:18:22.001Z</time></trkpt><trkpt lat="41.863321321272394" lon="12.951334245179025"><ele>890.0</ele><time>2026-04-06T10:18:25.001Z</time></trkpt><trkpt lat="41.86331313815092" lon="12.951218890503469"><ele>890.0</ele><time>2026-04-06T10:20:52Z</time></trkpt><trkpt lat="41.863365182558134" lon="12.951164328812675"><ele>890.0</ele><time>2026-04-06T10:21:03Z</time></trkpt><trkpt lat="41.863326122117876" lon="12.951014993086092"><ele>890.0000000000001</ele><time>2026-04-06T10:21:04Z</time></trkpt><trkpt lat="41.863261479710765" lon="12.950994821810754"><ele>890.0</ele><time>2026-04-06T10:21:05Z</time></trkpt><trkpt lat="41.863197649990724" lon="12.950979586951046"><ele>890.0000000000001</ele><time>2026-04-06T10:21:07Z</time></trkpt><trkpt lat="41.86310758166073" lon="12.950965164680264"><ele>890.0</ele><time>2026-04-06T10:21:22Z</time></trkpt><trkpt lat="41.86302226570709" lon="12.95093941318535"><ele>890.0</ele><time>2026-04-06T10:21:24Z</time></trkpt><trkpt lat="41.862952273737136" lon="12.95094820413573"><ele>890.0</ele><time>2026-04-06T10:21:26Z</time></trkpt><trkpt lat="41.862949383754085" lon="12.950809060346822"><ele>890.0000000000001</ele><time>2026-04-06T10:21:27Z</time></trkpt><trkpt lat="41.86293202876052" lon="12.950718550963366"><ele>890.0</ele><time>2026-04-06T10:21:29Z</time></trkpt><trkpt lat="41.86295134870373" lon="12.95063515285933"><ele>895.0</ele><time>2026-04-06T10:22:05.001Z</time></trkpt></trkseg><trkseg><trkpt lat="41.86318234460875" lon="12.950971191341555"><ele>890.0</ele><time>2026-04-06T10:39:40.016Z</time></trkpt><trkpt lat="41.863118179183445" lon="12.950954445319057"><ele>890.0</ele><time>2026-04-06T10:39:47.003Z</time></trkpt><trkpt lat="41.86304565802968" lon="12.950946181236956"><ele>890.0</ele><time>2026-04-06T10:39:55.002Z</time></trkpt><trkpt lat="41.86299339332461" lon="12.950888872648923"><ele>890.0</ele><time>2026-04-06T10:40:02.001Z</time></trkpt><trkpt lat="41.86296725269184" lon="12.950805389384335"><ele>895.0</ele><time>2026-04-06T10:40:07.001Z</time></trkpt><trkpt lat="41.86295095158547" lon="12.950709638147709"><ele>895.0</ele><time>2026-04-06T10:40:14.001Z</time></trkpt></trkseg></trk></gpx>